Wetterdaten: aktuell Mittwoch, 06.05.2026 01:42
Datum Zeit Temp. A. Feuchte A. Luftdruck Regen Wind Richtung Richtung Sonnenschein ET UV Solar Taupunkt Windchill Windböen Empfang
06.05.2026 01:42 12,1 °C 89 % 1007,7 hPa 0,0 l/m² 8,0 km/h (2 Bft) W-SW 247 ° 0 min 0,000 mm 0,0 UV-I 0 W/m² 10,3 °C 12,1 °C 11,3 km/h (2 Bft) 100,00 %
06.05.2026 01:41 12,1 °C 89 % 1007,7 hPa 0,0 l/m² 4,8 km/h (1 Bft) W 270 ° 0 min 0,000 mm 0,0 UV-I 0 W/m² 10,3 °C 12,1 °C 11,3 km/h (2 Bft) 95,65 %
06.05.2026 01:40 12,0 °C 89 % 1007,6 hPa 0,0 l/m² 9,7 km/h (2 Bft) W 270 ° 0 min 0,000 mm 0,0 UV-I 0 W/m² 10,2 °C 12,0 °C 14,5 km/h (3 Bft) 95,65 %
06.05.2026 01:39 12,0 °C 89 % 1007,6 hPa 0,0 l/m² 6,4 km/h (2 Bft) W 270 ° 0 min 0,000 mm 0,0 UV-I 0 W/m² 10,2 °C 12,0 °C 11,3 km/h (2 Bft) 100,00 %
06.05.2026 01:38 11,9 °C 89 % 1007,6 hPa 0,0 l/m² 6,4 km/h (2 Bft) W-SW 247 ° 0 min 0,000 mm 0,0 UV-I 0 W/m² 10,1 °C 11,9 °C 11,3 km/h (2 Bft) 100,00 %
06.05.2026 01:37 12,0 °C 89 % 1007,6 hPa 0,0 l/m² 9,7 km/h (2 Bft) W-SW 247 ° 0 min 0,000 mm 0,0 UV-I 0 W/m² 10,2 °C 12,0 °C 17,7 km/h (3 Bft) 100,00 %
06.05.2026 01:36 12,0 °C 89 % 1007,6 hPa 0,0 l/m² 11,3 km/h (2 Bft) W 270 ° 0 min 0,000 mm 0,0 UV-I 0 W/m² 10,2 °C 12,0 °C 17,7 km/h (3 Bft) 100,00 %
06.05.2026 01:35 12,0 °C 89 % 1007,4 hPa 0,0 l/m² 6,4 km/h (2 Bft) W 270 ° 0 min 0,000 mm 0,0 UV-I 0 W/m² 10,2 °C 12,0 °C 12,9 km/h (3 Bft) 100,00 %
06.05.2026 01:34 12,0 °C 90 % 1007,6 hPa 0,0 l/m² 6,4 km/h (2 Bft) W 270 ° 0 min 0,000 mm 0,0 UV-I 0 W/m² 10,4 °C 12,0 °C 11,3 km/h (2 Bft) 91,30 %
06.05.2026 01:33 12,0 °C 90 % 1007,5 hPa 0,0 l/m² 8,0 km/h (2 Bft) W 270 ° 0 min 0,000 mm 0,0 UV-I 0 W/m² 10,4 °C 12,0 °C 14,5 km/h (3 Bft) 95,65 %
06.05.2026 01:32 12,0 °C 90 % 1007,5 hPa 0,0 l/m² 6,4 km/h (2 Bft) W-SW 247 ° 0 min 0,000 mm 0,0 UV-I 0 W/m² 10,4 °C 12,0 °C 11,3 km/h (2 Bft) 95,65 %
06.05.2026 01:31 11,9 °C 89 % 1007,6 hPa 0,0 l/m² 9,7 km/h (2 Bft) W 270 ° 0 min 0,000 mm 0,0 UV-I 0 W/m² 10,1 °C 11,9 °C 12,9 km/h (3 Bft) 100,00 %
06.05.2026 01:30 11,9 °C 90 % 1007,5 hPa 0,0 l/m² 4,8 km/h (1 Bft) W 270 ° 0 min 0,000 mm 0,0 UV-I 0 W/m² 10,3 °C 11,9 °C 9,7 km/h (2 Bft) 95,65 %
06.05.2026 01:29 11,9 °C 90 % 1007,5 hPa 0,0 l/m² 6,4 km/h (2 Bft) W-SW 247 ° 0 min 0,000 mm 0,0 UV-I 0 W/m² 10,3 °C 11,9 °C 12,9 km/h (3 Bft) 100,00 %
06.05.2026 01:28 11,9 °C 90 % 1007,6 hPa 0,0 l/m² 9,7 km/h (2 Bft) W 270 ° 0 min 0,000 mm 0,0 UV-I 0 W/m² 10,3 °C 11,9 °C 12,9 km/h (3 Bft) 95,65 %
06.05.2026 01:27 11,9 °C 90 % 1007,6 hPa 0,0 l/m² 8,0 km/h (2 Bft) W 270 ° 0 min 0,000 mm 0,0 UV-I 0 W/m² 10,3 °C 11,9 °C 14,5 km/h (3 Bft) 91,30 %
06.05.2026 01:26 11,9 °C 90 % 1007,6 hPa 0,0 l/m² 9,7 km/h (2 Bft) W 270 ° 0 min 0,000 mm 0,0 UV-I 0 W/m² 10,3 °C 11,9 °C 16,1 km/h (3 Bft) 100,00 %
06.05.2026 01:25 11,9 °C 90 % 1007,5 hPa 0,0 l/m² 8,0 km/h (2 Bft) W 270 ° 0 min 0,000 mm 0,0 UV-I 0 W/m² 10,3 °C 11,9 °C 12,9 km/h (3 Bft) 91,30 %
06.05.2026 01:24 11,9 °C 90 % 1007,5 hPa 0,0 l/m² 8,0 km/h (2 Bft) W 270 ° 0 min 0,000 mm 0,0 UV-I 0 W/m² 10,3 °C 11,9 °C 11,3 km/h (2 Bft) 95,65 %
06.05.2026 01:23 11,9 °C 90 % 1007,6 hPa 0,0 l/m² 11,3 km/h (2 Bft) W 270 ° 0 min 0,000 mm 0,0 UV-I 0 W/m² 10,3 °C 11,9 °C 14,5 km/h (3 Bft) 100,00 %
06.05.2026 01:22 11,9 °C 90 % 1007,6 hPa 0,0 l/m² 8,0 km/h (2 Bft) W 270 ° 0 min 0,000 mm 0,0 UV-I 0 W/m² 10,3 °C 11,9 °C 12,9 km/h (3 Bft) 91,30 %
06.05.2026 01:21 11,9 °C 89 % 1007,6 hPa 0,0 l/m² 6,4 km/h (2 Bft) W 270 ° 0 min 0,000 mm 0,0 UV-I 0 W/m² 10,1 °C 11,9 °C 12,9 km/h (3 Bft) 100,00 %
06.05.2026 01:20 11,9 °C 89 % 1007,5 hPa 0,0 l/m² 4,8 km/h (1 Bft) W 270 ° 0 min 0,000 mm 0,0 UV-I 0 W/m² 10,1 °C 11,9 °C 14,5 km/h (3 Bft) 86,96 %
06.05.2026 01:19 11,9 °C 89 % 1007,6 hPa 0,0 l/m² 4,8 km/h (1 Bft) W 270 ° 0 min 0,000 mm 0,0 UV-I 0 W/m² 10,1 °C 11,9 °C 9,7 km/h (2 Bft) 95,65 %
06.05.2026 01:18 11,9 °C 89 % 1007,6 hPa 0,0 l/m² 8,0 km/h (2 Bft) W 270 ° 0 min 0,000 mm 0,0 UV-I 0 W/m² 10,1 °C 11,9 °C 14,5 km/h (3 Bft) 91,30 %
06.05.2026 01:17 11,9 °C 89 % 1007,7 hPa 0,0 l/m² 8,0 km/h (2 Bft) W-SW 247 ° 0 min 0,000 mm 0,0 UV-I 0 W/m² 10,1 °C 11,9 °C 14,5 km/h (3 Bft) 95,65 %
06.05.2026 01:16 12,0 °C 89 % 1007,6 hPa 0,0 l/m² 6,4 km/h (2 Bft) W 270 ° 0 min 0,000 mm 0,0 UV-I 0 W/m² 10,2 °C 12,0 °C 11,3 km/h (2 Bft) 95,65 %
06.05.2026 01:15 12,0 °C 89 % 1007,5 hPa 0,0 l/m² 9,7 km/h (2 Bft) W 270 ° 0 min 0,000 mm 0,0 UV-I 0 W/m² 10,2 °C 12,0 °C 16,1 km/h (3 Bft) 95,65 %
06.05.2026 01:14 12,0 °C 89 % 1007,6 hPa 0,0 l/m² 11,3 km/h (2 Bft) W 270 ° 0 min 0,000 mm 0,0 UV-I 0 W/m² 10,2 °C 12,0 °C 16,1 km/h (3 Bft) 95,65 %
06.05.2026 01:13 12,0 °C 89 % 1007,6 hPa 0,0 l/m² 6,4 km/h (2 Bft) W 270 ° 0 min 0,000 mm 0,0 UV-I 0 W/m² 10,2 °C 12,0 °C 11,3 km/h (2 Bft) 95,65 %
06.05.2026 01:12 12,0 °C 89 % 1007,6 hPa 0,0 l/m² 4,8 km/h (1 Bft) W 270 ° 0 min 0,000 mm 0,0 UV-I 0 W/m² 10,2 °C 12,0 °C 11,3 km/h (2 Bft) 95,65 %
06.05.2026 01:11 11,9 °C 89 % 1007,6 hPa 0,0 l/m² 6,4 km/h (2 Bft) W 270 ° 0 min 0,000 mm 0,0 UV-I 0 W/m² 10,1 °C 11,9 °C 11,3 km/h (2 Bft) 91,30 %
06.05.2026 01:10 12,0 °C 89 % 1007,6 hPa 0,0 l/m² 9,7 km/h (2 Bft) W-SW 247 ° 0 min 0,000 mm 0,0 UV-I 0 W/m² 10,2 °C 12,0 °C 12,9 km/h (3 Bft) 100,00 %
06.05.2026 01:09 11,9 °C 89 % 1007,5 hPa 0,0 l/m² 6,4 km/h (2 Bft) W 270 ° 0 min 0,000 mm 0,0 UV-I 0 W/m² 10,1 °C 11,9 °C 11,3 km/h (2 Bft) 86,96 %
06.05.2026 01:08 11,9 °C 89 % 1007,6 hPa 0,0 l/m² 8,0 km/h (2 Bft) W 270 ° 0 min 0,000 mm 0,0 UV-I 0 W/m² 10,1 °C 11,9 °C 12,9 km/h (3 Bft) 91,30 %
06.05.2026 01:07 11,9 °C 89 % 1007,6 hPa 0,0 l/m² 6,4 km/h (2 Bft) W-SW 247 ° 0 min 0,000 mm 0,0 UV-I 0 W/m² 10,1 °C 11,9 °C 11,3 km/h (2 Bft) 95,65 %
06.05.2026 01:06 11,9 °C 89 % 1007,6 hPa 0,0 l/m² 8,0 km/h (2 Bft) W 270 ° 0 min 0,000 mm 0,0 UV-I 0 W/m² 10,1 °C 11,9 °C 11,3 km/h (2 Bft) 91,30 %
06.05.2026 01:05 11,9 °C 89 % 1007,5 hPa 0,0 l/m² 9,7 km/h (2 Bft) W 270 ° 0 min 0,000 mm 0,0 UV-I 0 W/m² 10,1 °C 11,9 °C 12,9 km/h (3 Bft) 95,65 %
06.05.2026 01:04 11,9 °C 89 % 1007,6 hPa 0,0 l/m² 6,4 km/h (2 Bft) W 270 ° 0 min 0,000 mm 0,0 UV-I 0 W/m² 10,1 °C 11,9 °C 12,9 km/h (3 Bft) 100,00 %
06.05.2026 01:03 11,9 °C 89 % 1007,6 hPa 0,0 l/m² 6,4 km/h (2 Bft) W 270 ° 0 min 0,000 mm 0,0 UV-I 0 W/m² 10,1 °C 11,9 °C 11,3 km/h (2 Bft) 91,30 %
06.05.2026 01:02 11,9 °C 89 % 1007,5 hPa 0,0 l/m² 4,8 km/h (1 Bft) W-SW 247 ° 0 min 0,000 mm 0,0 UV-I 0 W/m² 10,1 °C 11,9 °C 8,0 km/h (2 Bft) 91,30 %
06.05.2026 01:01 11,9 °C 89 % 1007,5 hPa 0,0 l/m² 4,8 km/h (1 Bft) W 270 ° 0 min 0,000 mm 0,0 UV-I 0 W/m² 10,1 °C 11,9 °C 9,7 km/h (2 Bft) 91,30 %
06.05.2026 01:00 11,9 °C 89 % 1007,5 hPa 0,0 l/m² 3,2 km/h (1 Bft) W 270 ° 0 min 0,025 mm 0,0 UV-I 0 W/m² 10,1 °C 11,9 °C 11,3 km/h (2 Bft) 91,30 %
06.05.2026 00:59 11,9 °C 89 % 1007,3 hPa 0,0 l/m² 1,6 km/h (1 Bft) W-NW 292 ° 0 min 0,000 mm 0,0 UV-I 0 W/m² 10,1 °C 11,9 °C 4,8 km/h (1 Bft) 95,65 %
06.05.2026 00:58 11,9 °C 89 % 1007,4 hPa 0,0 l/m² 1,6 km/h (1 Bft) W-NW 292 ° 0 min 0,000 mm 0,0 UV-I 0 W/m² 10,1 °C 11,9 °C 6,4 km/h (2 Bft) 91,30 %
06.05.2026 00:57 11,9 °C 89 % 1007,3 hPa 0,0 l/m² 3,2 km/h (1 Bft) W 270 ° 0 min 0,000 mm 0,0 UV-I 0 W/m² 10,1 °C 11,9 °C 4,8 km/h (1 Bft) 86,96 %
06.05.2026 00:56 11,9 °C 89 % 1007,3 hPa 0,0 l/m² 3,2 km/h (1 Bft) W 270 ° 0 min 0,000 mm 0,0 UV-I 0 W/m² 10,1 °C 11,9 °C 4,8 km/h (1 Bft) 82,61 %
06.05.2026 00:55 11,9 °C 89 % 1007,3 hPa 0,0 l/m² 3,2 km/h (1 Bft) W-SW 247 ° 0 min 0,000 mm 0,0 UV-I 0 W/m² 10,1 °C 11,9 °C 6,4 km/h (2 Bft) 95,65 %
06.05.2026 00:54 11,9 °C 89 % 1007,4 hPa 0,0 l/m² 4,8 km/h (1 Bft) W 270 ° 0 min 0,000 mm 0,0 UV-I 0 W/m² 10,1 °C 11,9 °C 6,4 km/h (2 Bft) 91,30 %
06.05.2026 00:53 11,9 °C 89 % 1007,3 hPa 0,0 l/m² 3,2 km/h (1 Bft) W 270 ° 0 min 0,000 mm 0,0 UV-I 0 W/m² 10,1 °C 11,9 °C 6,4 km/h (2 Bft) 91,30 %
06.05.2026 00:52 12,0 °C 89 % 1007,3 hPa 0,0 l/m² 0,0 km/h (0 Bft) W 270 ° 0 min 0,000 mm 0,0 UV-I 0 W/m² 10,2 °C 12,0 °C 1,6 km/h (1 Bft) 95,65 %
06.05.2026 00:51 12,1 °C 89 % 1007,3 hPa 0,0 l/m² 0,0 km/h (0 Bft) W 270 ° 0 min 0,000 mm 0,0 UV-I 0 W/m² 10,3 °C 12,1 °C 1,6 km/h (1 Bft) 73,91 %
06.05.2026 00:50 12,1 °C 89 % 1007,2 hPa 0,0 l/m² 1,6 km/h (1 Bft) W 270 ° 0 min 0,000 mm 0,0 UV-I 0 W/m² 10,3 °C 12,1 °C 4,8 km/h (1 Bft) 91,30 %
06.05.2026 00:49 12,0 °C 89 % 1007,3 hPa 0,0 l/m² 3,2 km/h (1 Bft) W 270 ° 0 min 0,000 mm 0,0 UV-I 0 W/m² 10,2 °C 12,0 °C 6,4 km/h (2 Bft) 86,96 %
06.05.2026 00:48 11,9 °C 89 % 1007,4 hPa 0,0 l/m² 6,4 km/h (2 Bft) W 270 ° 0 min 0,000 mm 0,0 UV-I 0 W/m² 10,1 °C 11,9 °C 12,9 km/h (3 Bft) 91,30 %
06.05.2026 00:47 11,9 °C 88 % 1007,3 hPa 0,0 l/m² 6,4 km/h (2 Bft) W-SW 247 ° 0 min 0,000 mm 0,0 UV-I 0 W/m² 10,0 °C 11,9 °C 9,7 km/h (2 Bft) 86,96 %
06.05.2026 00:46 11,9 °C 88 % 1007,4 hPa 0,0 l/m² 6,4 km/h (2 Bft) W 270 ° 0 min 0,000 mm 0,0 UV-I 0 W/m² 10,0 °C 11,9 °C 11,3 km/h (2 Bft) 91,30 %
06.05.2026 00:45 11,9 °C 88 % 1007,4 hPa 0,0 l/m² 9,7 km/h (2 Bft) W 270 ° 0 min 0,000 mm 0,0 UV-I 0 W/m² 10,0 °C 11,9 °C 12,9 km/h (3 Bft) 91,30 %
06.05.2026 00:44 11,9 °C 88 % 1007,3 hPa 0,0 l/m² 9,7 km/h (2 Bft) W-SW 247 ° 0 min 0,000 mm 0,0 UV-I 0 W/m² 10,0 °C 11,9 °C 14,5 km/h (3 Bft) 91,30 %
06.05.2026 00:43 11,8 °C 88 % 1007,3 hPa 0,0 l/m² 6,4 km/h (2 Bft) W 270 ° 0 min 0,000 mm 0,0 UV-I 0 W/m² 9,9 °C 11,8 °C 9,7 km/h (2 Bft) 82,61 %
06.05.2026 00:42 11,8 °C 88 % 1007,3 hPa 0,0 l/m² 8,0 km/h (2 Bft) W 270 ° 0 min 0,000 mm 0,0 UV-I 0 W/m² 9,9 °C 11,8 °C 14,5 km/h (3 Bft) 95,65 %
06.05.2026 00:41 11,7 °C 87 % 1007,3 hPa 0,0 l/m² 9,7 km/h (2 Bft) W 270 ° 0 min 0,000 mm 0,0 UV-I 0 W/m² 9,6 °C 11,7 °C 14,5 km/h (3 Bft) 91,30 %
06.05.2026 00:40 11,7 °C 88 % 1007,3 hPa 0,0 l/m² 6,4 km/h (2 Bft) W 270 ° 0 min 0,000 mm 0,0 UV-I 0 W/m² 9,8 °C 11,7 °C 9,7 km/h (2 Bft) 95,65 %
06.05.2026 00:39 11,7 °C 87 % 1007,2 hPa 0,0 l/m² 3,2 km/h (1 Bft) W 270 ° 0 min 0,000 mm 0,0 UV-I 0 W/m² 9,6 °C 11,7 °C 11,3 km/h (2 Bft) 86,96 %
06.05.2026 00:38 11,8 °C 87 % 1007,2 hPa 0,0 l/m² 3,2 km/h (1 Bft) W-SW 247 ° 0 min 0,000 mm 0,0 UV-I 0 W/m² 9,7 °C 11,8 °C 9,7 km/h (2 Bft) 86,96 %
06.05.2026 00:37 11,8 °C 87 % 1007,2 hPa 0,0 l/m² 3,2 km/h (1 Bft) W 270 ° 0 min 0,000 mm 0,0 UV-I 0 W/m² 9,7 °C 11,8 °C 6,4 km/h (2 Bft) 82,61 %
06.05.2026 00:36 11,8 °C 87 % 1007,2 hPa 0,0 l/m² 6,4 km/h (2 Bft) W 270 ° 0 min 0,000 mm 0,0 UV-I 0 W/m² 9,7 °C 11,8 °C 9,7 km/h (2 Bft) 91,30 %
06.05.2026 00:35 11,8 °C 87 % 1007,2 hPa 0,0 l/m² 3,2 km/h (1 Bft) W 270 ° 0 min 0,000 mm 0,0 UV-I 0 W/m² 9,7 °C 11,8 °C 6,4 km/h (2 Bft) 78,26 %
06.05.2026 00:34 11,9 °C 87 % 1007,1 hPa 0,0 l/m² 3,2 km/h (1 Bft) W-SW 247 ° 0 min 0,000 mm 0,0 UV-I 0 W/m² 9,8 °C 11,9 °C 9,7 km/h (2 Bft) 86,96 %
06.05.2026 00:33 11,9 °C 87 % 1007,1 hPa 0,0 l/m² 3,2 km/h (1 Bft) W 270 ° 0 min 0,000 mm 0,0 UV-I 0 W/m² 9,8 °C 11,9 °C 6,4 km/h (2 Bft) 82,61 %
06.05.2026 00:32 11,9 °C 87 % 1007,0 hPa 0,0 l/m² 4,8 km/h (1 Bft) W 270 ° 0 min 0,000 mm 0,0 UV-I 0 W/m² 9,8 °C 11,9 °C 4,8 km/h (1 Bft) 86,96 %
06.05.2026 00:31 11,9 °C 87 % 1007,1 hPa 0,0 l/m² 4,8 km/h (1 Bft) W 270 ° 0 min 0,000 mm 0,0 UV-I 0 W/m² 9,8 °C 11,9 °C 6,4 km/h (2 Bft) 86,96 %
06.05.2026 00:30 11,9 °C 87 % 1007,0 hPa 0,0 l/m² 3,2 km/h (1 Bft) W 270 ° 0 min 0,000 mm 0,0 UV-I 0 W/m² 9,8 °C 11,9 °C 6,4 km/h (2 Bft) 100,00 %
06.05.2026 00:29 11,9 °C 87 % 1007,0 hPa 0,0 l/m² 1,6 km/h (1 Bft) W 270 ° 0 min 0,000 mm 0,0 UV-I 0 W/m² 9,8 °C 11,9 °C 4,8 km/h (1 Bft) 91,30 %
06.05.2026 00:28 11,9 °C 86 % 1006,9 hPa 0,0 l/m² 3,2 km/h (1 Bft) W 270 ° 0 min 0,000 mm 0,0 UV-I 0 W/m² 9,6 °C 11,9 °C 4,8 km/h (1 Bft) 100,00 %
06.05.2026 00:27 11,9 °C 86 % 1007,0 hPa 0,0 l/m² 1,6 km/h (1 Bft) W-SW 247 ° 0 min 0,000 mm 0,0 UV-I 0 W/m² 9,6 °C 11,9 °C 4,8 km/h (1 Bft) 95,65 %
06.05.2026 00:26 11,9 °C 86 % 1006,9 hPa 0,0 l/m² 0,0 km/h (0 Bft) W 270 ° 0 min 0,000 mm 0,0 UV-I 0 W/m² 9,6 °C 11,9 °C 3,2 km/h (1 Bft) 95,65 %
06.05.2026 00:25 11,9 °C 86 % 1006,9 hPa 0,0 l/m² 1,6 km/h (1 Bft) W 270 ° 0 min 0,000 mm 0,0 UV-I 0 W/m² 9,6 °C 11,9 °C 3,2 km/h (1 Bft) 100,00 %
06.05.2026 00:24 12,0 °C 85 % 1006,9 hPa 0,0 l/m² 0,0 km/h (0 Bft) SW 225 ° 0 min 0,000 mm 0,0 UV-I 0 W/m² 9,6 °C 12,0 °C 3,2 km/h (1 Bft) 86,96 %
06.05.2026 00:23 12,1 °C 85 % 1006,9 hPa 0,0 l/m² 1,6 km/h (1 Bft) SW 225 ° 0 min 0,000 mm 0,0 UV-I 0 W/m² 9,7 °C 12,1 °C 3,2 km/h (1 Bft) 95,65 %
06.05.2026 00:22 12,1 °C 85 % 1006,9 hPa 0,0 l/m² 0,0 km/h (0 Bft) SW 225 ° 0 min 0,000 mm 0,0 UV-I 0 W/m² 9,7 °C 12,1 °C 1,6 km/h (1 Bft) 91,30 %
06.05.2026 00:21 12,2 °C 85 % 1006,9 hPa 0,0 l/m² 1,6 km/h (1 Bft) W 270 ° 0 min 0,000 mm 0,0 UV-I 0 W/m² 9,8 °C 12,2 °C 1,6 km/h (1 Bft) 100,00 %
06.05.2026 00:20 12,2 °C 85 % 1006,7 hPa 0,0 l/m² 1,6 km/h (1 Bft) SW 225 ° 0 min 0,000 mm 0,0 UV-I 0 W/m² 9,8 °C 12,2 °C 3,2 km/h (1 Bft) 100,00 %
06.05.2026 00:19 12,4 °C 85 % 1006,8 hPa 0,0 l/m² 0,0 km/h (0 Bft) W-SW 247 ° 0 min 0,000 mm 0,0 UV-I 0 W/m² 9,9 °C 12,4 °C 3,2 km/h (1 Bft) 95,65 %
06.05.2026 00:18 12,4 °C 85 % 1006,8 hPa 0,0 l/m² 1,6 km/h (1 Bft) W 270 ° 0 min 0,000 mm 0,0 UV-I 0 W/m² 9,9 °C 12,4 °C 3,2 km/h (1 Bft) 100,00 %
06.05.2026 00:17 12,4 °C 85 % 1006,8 hPa 0,0 l/m² 0,0 km/h (0 Bft) W 270 ° 0 min 0,000 mm 0,0 UV-I 0 W/m² 9,9 °C 12,4 °C 1,6 km/h (1 Bft) 91,30 %
06.05.2026 00:16 12,4 °C 85 % 1006,7 hPa 0,0 l/m² 0,0 km/h (0 Bft) W 270 ° 0 min 0,000 mm 0,0 UV-I 0 W/m² 9,9 °C 12,4 °C 1,6 km/h (1 Bft) 95,65 %
06.05.2026 00:15 12,4 °C 85 % 1006,7 hPa 0,0 l/m² 0,0 km/h (0 Bft) N 0 ° 0 min 0,000 mm 0,0 UV-I 0 W/m² 9,9 °C 12,4 °C 0,0 km/h (0 Bft) 100,00 %
06.05.2026 00:14 12,4 °C 85 % 1006,7 hPa 0,0 l/m² 0,0 km/h (0 Bft) W 270 ° 0 min 0,000 mm 0,0 UV-I 0 W/m² 9,9 °C 12,4 °C 1,6 km/h (1 Bft) 95,65 %
06.05.2026 00:13 12,5 °C 85 % 1006,8 hPa 0,0 l/m² 0,0 km/h (0 Bft) W 270 ° 0 min 0,000 mm 0,0 UV-I 0 W/m² 10,0 °C 12,5 °C 1,6 km/h (1 Bft) 100,00 %
06.05.2026 00:12 12,6 °C 85 % 1006,7 hPa 0,0 l/m² 3,2 km/h (1 Bft) W 270 ° 0 min 0,000 mm 0,0 UV-I 0 W/m² 10,1 °C 12,6 °C 4,8 km/h (1 Bft) 95,65 %
06.05.2026 00:11 12,6 °C 85 % 1006,7 hPa 0,0 l/m² 3,2 km/h (1 Bft) W 270 ° 0 min 0,000 mm 0,0 UV-I 0 W/m² 10,1 °C 12,6 °C 4,8 km/h (1 Bft) 91,30 %
06.05.2026 00:10 12,6 °C 85 % 1006,8 hPa 0,0 l/m² 4,8 km/h (1 Bft) W 270 ° 0 min 0,000 mm 0,0 UV-I 0 W/m² 10,1 °C 12,6 °C 4,8 km/h (1 Bft) 95,65 %
06.05.2026 00:09 12,6 °C 85 % 1006,7 hPa 0,0 l/m² 4,8 km/h (1 Bft) W 270 ° 0 min 0,000 mm 0,0 UV-I 0 W/m² 10,1 °C 12,6 °C 6,4 km/h (2 Bft) 100,00 %
06.05.2026 00:08 12,6 °C 85 % 1006,7 hPa 0,0 l/m² 3,2 km/h (1 Bft) W 270 ° 0 min 0,000 mm 0,0 UV-I 0 W/m² 10,1 °C 12,6 °C 4,8 km/h (1 Bft) 100,00 %
06.05.2026 00:07 12,5 °C 85 % 1006,6 hPa 0,0 l/m² 3,2 km/h (1 Bft) W 270 ° 0 min 0,000 mm 0,0 UV-I 0 W/m² 10,0 °C 12,5 °C 4,8 km/h (1 Bft) 100,00 %
06.05.2026 00:06 12,4 °C 85 % 1006,6 hPa 0,0 l/m² 4,8 km/h (1 Bft) W 270 ° 0 min 0,000 mm 0,0 UV-I 0 W/m² 9,9 °C 12,4 °C 6,4 km/h (2 Bft) 95,65 %
06.05.2026 00:05 12,5 °C 85 % 1006,6 hPa 0,0 l/m² 3,2 km/h (1 Bft) W 270 ° 0 min 0,000 mm 0,0 UV-I 0 W/m² 10,0 °C 12,5 °C 6,4 km/h (2 Bft) 100,00 %
06.05.2026 00:04 12,5 °C 84 % 1006,6 hPa 0,0 l/m² 4,8 km/h (1 Bft) W 270 ° 0 min 0,000 mm 0,0 UV-I 0 W/m² 9,9 °C 12,5 °C 6,4 km/h (2 Bft) 86,96 %
06.05.2026 00:03 12,5 °C 84 % 1006,5 hPa 0,0 l/m² 4,8 km/h (1 Bft) W 270 ° 0 min 0,000 mm 0,0 UV-I 0 W/m² 9,9 °C 12,5 °C 6,4 km/h (2 Bft) 91,30 %
06.05.2026 00:02 12,6 °C 84 % 1006,6 hPa 0,0 l/m² 1,6 km/h (1 Bft) W 270 ° 0 min 0,000 mm 0,0 UV-I 0 W/m² 10,0 °C 12,6 °C 3,2 km/h (1 Bft) 86,96 %
06.05.2026 00:01 12,6 °C 84 % 1006,6 hPa 0,0 l/m² 1,6 km/h (1 Bft) W 270 ° 0 min 0,000 mm 0,0 UV-I 0 W/m² 10,0 °C 12,6 °C 4,8 km/h (1 Bft) 91,30 %
06.05.2026 00:00 12,6 °C 84 % 1006,6 hPa 0,0 l/m² 3,2 km/h (1 Bft) W 270 ° 0 min 0,025 mm 0,0 UV-I 0 W/m² 10,0 °C 12,6 °C 4,8 km/h (1 Bft) 91,30 %
05.05.2026 23:59 12,7 °C 83 % 1006,7 hPa 0,0 l/m² 3,2 km/h (1 Bft) W 270 ° 0 min 0,000 mm 0,0 UV-I 0 W/m² 9,9 °C 12,7 °C 4,8 km/h (1 Bft) 100,00 %
05.05.2026 23:58 12,7 °C 83 % 1006,6 hPa 0,0 l/m² 3,2 km/h (1 Bft) W 270 ° 0 min 0,000 mm 0,0 UV-I 0 W/m² 9,9 °C 12,7 °C 4,8 km/h (1 Bft) 100,00 %
05.05.2026 23:57 12,8 °C 83 % 1006,6 hPa 0,0 l/m² 1,6 km/h (1 Bft) SW 225 ° 0 min 0,000 mm 0,0 UV-I 0 W/m² 10,0 °C 12,8 °C 4,8 km/h (1 Bft) 100,00 %
05.05.2026 23:56 12,7 °C 83 % 1006,6 hPa 0,0 l/m² 1,6 km/h (1 Bft) W-SW 247 ° 0 min 0,000 mm 0,0 UV-I 0 W/m² 9,9 °C 12,7 °C 3,2 km/h (1 Bft) 95,65 %
05.05.2026 23:55 12,8 °C 83 % 1006,6 hPa 0,0 l/m² 3,2 km/h (1 Bft) W-SW 247 ° 0 min 0,000 mm 0,0 UV-I 0 W/m² 10,0 °C 12,8 °C 9,7 km/h (2 Bft) 91,30 %
05.05.2026 23:54 12,8 °C 82 % 1006,6 hPa 0,0 l/m² 4,8 km/h (1 Bft) W 270 ° 0 min 0,000 mm 0,0 UV-I 0 W/m² 9,8 °C 12,8 °C 6,4 km/h (2 Bft) 91,30 %
05.05.2026 23:53 12,9 °C 82 % 1006,6 hPa 0,0 l/m² 4,8 km/h (1 Bft) W 270 ° 0 min 0,000 mm 0,0 UV-I 0 W/m² 9,9 °C 12,9 °C 6,4 km/h (2 Bft) 100,00 %
05.05.2026 23:52 12,9 °C 82 % 1006,5 hPa 0,0 l/m² 3,2 km/h (1 Bft) W 270 ° 0 min 0,000 mm 0,0 UV-I 0 W/m² 9,9 °C 12,9 °C 6,4 km/h (2 Bft) 91,30 %
05.05.2026 23:51 13,1 °C 82 % 1006,5 hPa 0,0 l/m² 0,0 km/h (0 Bft) W 270 ° 0 min 0,000 mm 0,0 UV-I 0 W/m² 10,1 °C 13,1 °C 3,2 km/h (1 Bft) 100,00 %
05.05.2026 23:50 13,2 °C 82 % 1006,5 hPa 0,0 l/m² 1,6 km/h (1 Bft) W 270 ° 0 min 0,000 mm 0,0 UV-I 0 W/m² 10,2 °C 13,2 °C 3,2 km/h (1 Bft) 95,65 %
05.05.2026 23:49 13,2 °C 82 % 1006,5 hPa 0,0 l/m² 0,0 km/h (0 Bft) W 270 ° 0 min 0,000 mm 0,0 UV-I 0 W/m² 10,2 °C 13,2 °C 1,6 km/h (1 Bft) 86,96 %
05.05.2026 23:48 13,2 °C 81 % 1006,5 hPa 0,0 l/m² 1,6 km/h (1 Bft) W-SW 247 ° 0 min 0,000 mm 0,0 UV-I 0 W/m² 10,0 °C 13,2 °C 4,8 km/h (1 Bft) 91,30 %
05.05.2026 23:47 13,3 °C 81 % 1006,5 hPa 0,0 l/m² 3,2 km/h (1 Bft) W 270 ° 0 min 0,000 mm 0,0 UV-I 0 W/m² 10,1 °C 13,3 °C 4,8 km/h (1 Bft) 95,65 %
05.05.2026 23:46 13,3 °C 81 % 1006,4 hPa 0,0 l/m² 3,2 km/h (1 Bft) W 270 ° 0 min 0,000 mm 0,0 UV-I 0 W/m² 10,1 °C 13,3 °C 4,8 km/h (1 Bft) 100,00 %
05.05.2026 23:45 13,3 °C 81 % 1006,4 hPa 0,0 l/m² 3,2 km/h (1 Bft) W 270 ° 0 min 0,000 mm 0,0 UV-I 0 W/m² 10,1 °C 13,3 °C 6,4 km/h (2 Bft) 95,65 %
05.05.2026 23:44 13,3 °C 81 % 1006,3 hPa 0,0 l/m² 6,4 km/h (2 Bft) W 270 ° 0 min 0,000 mm 0,0 UV-I 0 W/m² 10,1 °C 13,3 °C 11,3 km/h (2 Bft) 95,65 %
05.05.2026 23:43 13,3 °C 81 % 1006,5 hPa 0,0 l/m² 3,2 km/h (1 Bft) W 270 ° 0 min 0,000 mm 0,0 UV-I 0 W/m² 10,1 °C 13,3 °C 6,4 km/h (2 Bft) 95,65 %
05.05.2026 23:42 13,3 °C 81 % 1006,3 hPa 0,0 l/m² 3,2 km/h (1 Bft) W-SW 247 ° 0 min 0,000 mm 0,0 UV-I 0 W/m² 10,1 °C 13,3 °C 6,4 km/h (2 Bft) 95,65 %
05.05.2026 23:41 13,3 °C 81 % 1006,2 hPa 0,0 l/m² 3,2 km/h (1 Bft) W 270 ° 0 min 0,000 mm 0,0 UV-I 0 W/m² 10,1 °C 13,3 °C 4,8 km/h (1 Bft) 86,96 %
05.05.2026 23:40 13,3 °C 81 % 1006,3 hPa 0,0 l/m² 3,2 km/h (1 Bft) W-SW 247 ° 0 min 0,000 mm 0,0 UV-I 0 W/m² 10,1 °C 13,3 °C 4,8 km/h (1 Bft) 100,00 %
05.05.2026 23:39 13,4 °C 81 % 1006,3 hPa 0,0 l/m² 3,2 km/h (1 Bft) W-SW 247 ° 0 min 0,000 mm 0,0 UV-I 0 W/m² 10,2 °C 13,4 °C 9,7 km/h (2 Bft) 100,00 %
05.05.2026 23:38 13,4 °C 81 % 1006,2 hPa 0,0 l/m² 6,4 km/h (2 Bft) W 270 ° 0 min 0,000 mm 0,0 UV-I 0 W/m² 10,2 °C 13,4 °C 9,7 km/h (2 Bft) 91,30 %
05.05.2026 23:37 13,4 °C 80 % 1006,3 hPa 0,0 l/m² 6,4 km/h (2 Bft) W-SW 247 ° 0 min 0,000 mm 0,0 UV-I 0 W/m² 10,0 °C 13,4 °C 9,7 km/h (2 Bft) 95,65 %
05.05.2026 23:36 13,5 °C 80 % 1006,3 hPa 0,0 l/m² 4,8 km/h (1 Bft) W-SW 247 ° 0 min 0,000 mm 0,0 UV-I 0 W/m² 10,1 °C 13,5 °C 6,4 km/h (2 Bft) 95,65 %
05.05.2026 23:35 13,6 °C 80 % 1006,3 hPa 0,0 l/m² 6,4 km/h (2 Bft) W-SW 247 ° 0 min 0,000 mm 0,0 UV-I 0 W/m² 10,2 °C 13,6 °C 11,3 km/h (2 Bft) 91,30 %
05.05.2026 23:34 13,6 °C 80 % 1006,3 hPa 0,0 l/m² 4,8 km/h (1 Bft) W-SW 247 ° 0 min 0,000 mm 0,0 UV-I 0 W/m² 10,2 °C 13,6 °C 9,7 km/h (2 Bft) 91,30 %
05.05.2026 23:33 13,6 °C 80 % 1006,3 hPa 0,0 l/m² 4,8 km/h (1 Bft) W 270 ° 0 min 0,000 mm 0,0 UV-I 0 W/m² 10,2 °C 13,6 °C 8,0 km/h (2 Bft) 86,96 %
05.05.2026 23:32 13,6 °C 79 % 1006,2 hPa 0,0 l/m² 4,8 km/h (1 Bft) W 270 ° 0 min 0,000 mm 0,0 UV-I 0 W/m² 10,0 °C 13,6 °C 9,7 km/h (2 Bft) 95,65 %
05.05.2026 23:31 13,7 °C 79 % 1006,2 hPa 0,0 l/m² 4,8 km/h (1 Bft) W 270 ° 0 min 0,000 mm 0,0 UV-I 0 W/m² 10,1 °C 13,7 °C 6,4 km/h (2 Bft) 95,65 %
05.05.2026 23:30 13,7 °C 79 % 1006,3 hPa 0,0 l/m² 4,8 km/h (1 Bft) W 270 ° 0 min 0,000 mm 0,0 UV-I 0 W/m² 10,1 °C 13,7 °C 9,7 km/h (2 Bft) 91,30 %
05.05.2026 23:29 13,7 °C 79 % 1006,3 hPa 0,0 l/m² 6,4 km/h (2 Bft) W 270 ° 0 min 0,000 mm 0,0 UV-I 0 W/m² 10,1 °C 13,7 °C 11,3 km/h (2 Bft) 95,65 %
05.05.2026 23:28 13,7 °C 79 % 1006,2 hPa 0,0 l/m² 6,4 km/h (2 Bft) W 270 ° 0 min 0,000 mm 0,0 UV-I 0 W/m² 10,1 °C 13,7 °C 11,3 km/h (2 Bft) 100,00 %
05.05.2026 23:27 13,8 °C 79 % 1006,3 hPa 0,0 l/m² 4,8 km/h (1 Bft) W-SW 247 ° 0 min 0,000 mm 0,0 UV-I 0 W/m² 10,2 °C 13,8 °C 8,0 km/h (2 Bft) 100,00 %
05.05.2026 23:26 13,8 °C 79 % 1006,2 hPa 0,0 l/m² 4,8 km/h (1 Bft) W 270 ° 0 min 0,000 mm 0,0 UV-I 0 W/m² 10,2 °C 13,8 °C 9,7 km/h (2 Bft) 86,96 %
05.05.2026 23:25 13,8 °C 79 % 1006,3 hPa 0,0 l/m² 9,7 km/h (2 Bft) W-SW 247 ° 0 min 0,000 mm 0,0 UV-I 0 W/m² 10,2 °C 13,8 °C 11,3 km/h (2 Bft) 100,00 %
05.05.2026 23:24 13,8 °C 79 % 1006,3 hPa 0,0 l/m² 6,4 km/h (2 Bft) W 270 ° 0 min 0,000 mm 0,0 UV-I 0 W/m² 10,2 °C 13,8 °C 9,7 km/h (2 Bft) 95,65 %
05.05.2026 23:23 13,8 °C 79 % 1006,3 hPa 0,0 l/m² 4,8 km/h (1 Bft) W-SW 247 ° 0 min 0,000 mm 0,0 UV-I 0 W/m² 10,2 °C 13,8 °C 6,4 km/h (2 Bft) 100,00 %
05.05.2026 23:22 13,8 °C 79 % 1006,3 hPa 0,0 l/m² 8,0 km/h (2 Bft) W-SW 247 ° 0 min 0,000 mm 0,0 UV-I 0 W/m² 10,2 °C 13,8 °C 12,9 km/h (3 Bft) 91,30 %
05.05.2026 23:21 13,9 °C 78 % 1006,2 hPa 0,0 l/m² 8,0 km/h (2 Bft) W 270 ° 0 min 0,000 mm 0,0 UV-I 0 W/m² 10,1 °C 13,9 °C 12,9 km/h (3 Bft) 91,30 %
05.05.2026 23:20 13,9 °C 78 % 1006,3 hPa 0,0 l/m² 4,8 km/h (1 Bft) W-SW 247 ° 0 min 0,000 mm 0,0 UV-I 0 W/m² 10,1 °C 13,9 °C 9,7 km/h (2 Bft) 91,30 %
05.05.2026 23:19 13,9 °C 78 % 1006,3 hPa 0,0 l/m² 6,4 km/h (2 Bft) W-SW 247 ° 0 min 0,000 mm 0,0 UV-I 0 W/m² 10,1 °C 13,9 °C 9,7 km/h (2 Bft) 86,96 %
05.05.2026 23:18 14,0 °C 78 % 1006,3 hPa 0,0 l/m² 3,2 km/h (1 Bft) W 270 ° 0 min 0,000 mm 0,0 UV-I 0 W/m² 10,2 °C 14,0 °C 6,4 km/h (2 Bft) 100,00 %
05.05.2026 23:17 14,0 °C 78 % 1006,2 hPa 0,0 l/m² 4,8 km/h (1 Bft) W 270 ° 0 min 0,000 mm 0,0 UV-I 0 W/m² 10,2 °C 14,0 °C 11,3 km/h (2 Bft) 95,65 %
05.05.2026 23:16 14,1 °C 78 % 1006,3 hPa 0,0 l/m² 8,0 km/h (2 Bft) W 270 ° 0 min 0,000 mm 0,0 UV-I 0 W/m² 10,3 °C 14,1 °C 11,3 km/h (2 Bft) 100,00 %
05.05.2026 23:15 14,1 °C 77 % 1006,2 hPa 0,0 l/m² 9,7 km/h (2 Bft) W 270 ° 0 min 0,000 mm 0,0 UV-I 0 W/m² 10,1 °C 14,1 °C 14,5 km/h (3 Bft) 100,00 %
05.05.2026 23:14 14,2 °C 77 % 1006,2 hPa 0,0 l/m² 6,4 km/h (2 Bft) W 270 ° 0 min 0,000 mm 0,0 UV-I 0 W/m² 10,2 °C 14,2 °C 12,9 km/h (3 Bft) 91,30 %
05.05.2026 23:13 14,2 °C 77 % 1006,2 hPa 0,0 l/m² 11,3 km/h (2 Bft) W 270 ° 0 min 0,000 mm 0,0 UV-I 0 W/m² 10,2 °C 14,2 °C 14,5 km/h (3 Bft) 95,65 %
05.05.2026 23:12 14,2 °C 77 % 1006,2 hPa 0,0 l/m² 4,8 km/h (1 Bft) W 270 ° 0 min 0,000 mm 0,0 UV-I 0 W/m² 10,2 °C 14,2 °C 11,3 km/h (2 Bft) 91,30 %
05.05.2026 23:11 14,2 °C 77 % 1006,3 hPa 0,0 l/m² 8,0 km/h (2 Bft) W 270 ° 0 min 0,000 mm 0,0 UV-I 0 W/m² 10,2 °C 14,2 °C 12,9 km/h (3 Bft) 100,00 %
05.05.2026 23:10 14,3 °C 77 % 1006,2 hPa 0,0 l/m² 9,7 km/h (2 Bft) W 270 ° 0 min 0,000 mm 0,0 UV-I 0 W/m² 10,3 °C 14,3 °C 14,5 km/h (3 Bft) 86,96 %
05.05.2026 23:09 14,3 °C 76 % 1006,2 hPa 0,0 l/m² 6,4 km/h (2 Bft) W-SW 247 ° 0 min 0,000 mm 0,0 UV-I 0 W/m² 10,1 °C 14,3 °C 9,7 km/h (2 Bft) 91,30 %
05.05.2026 23:08 14,3 °C 76 % 1006,3 hPa 0,0 l/m² 3,2 km/h (1 Bft) W 270 ° 0 min 0,000 mm 0,0 UV-I 0 W/m² 10,1 °C 14,3 °C 9,7 km/h (2 Bft) 95,65 %
05.05.2026 23:07 14,3 °C 76 % 1006,3 hPa 0,0 l/m² 6,4 km/h (2 Bft) W-SW 247 ° 0 min 0,000 mm 0,0 UV-I 0 W/m² 10,1 °C 14,3 °C 11,3 km/h (2 Bft) 95,65 %
05.05.2026 23:06 14,4 °C 76 % 1006,2 hPa 0,0 l/m² 4,8 km/h (1 Bft) W-SW 247 ° 0 min 0,000 mm 0,0 UV-I 0 W/m² 10,2 °C 14,4 °C 9,7 km/h (2 Bft) 100,00 %
05.05.2026 23:05 14,4 °C 76 % 1006,3 hPa 0,0 l/m² 4,8 km/h (1 Bft) W 270 ° 0 min 0,000 mm 0,0 UV-I 0 W/m² 10,2 °C 14,4 °C 11,3 km/h (2 Bft) 82,61 %
05.05.2026 23:04 14,4 °C 76 % 1006,2 hPa 0,0 l/m² 4,8 km/h (1 Bft) W 270 ° 0 min 0,000 mm 0,0 UV-I 0 W/m² 10,2 °C 14,4 °C 11,3 km/h (2 Bft) 95,65 %
05.05.2026 23:03 14,4 °C 76 % 1006,3 hPa 0,0 l/m² 4,8 km/h (1 Bft) W-SW 247 ° 0 min 0,000 mm 0,0 UV-I 0 W/m² 10,2 °C 14,4 °C 9,7 km/h (2 Bft) 95,65 %
05.05.2026 23:02 14,4 °C 76 % 1006,3 hPa 0,0 l/m² 3,2 km/h (1 Bft) W-NW 292 ° 0 min 0,000 mm 0,0 UV-I 0 W/m² 10,2 °C 14,4 °C 6,4 km/h (2 Bft) 100,00 %
05.05.2026 23:01 14,5 °C 76 % 1006,3 hPa 0,0 l/m² 6,4 km/h (2 Bft) W 270 ° 0 min 0,000 mm 0,0 UV-I 0 W/m² 10,3 °C 14,5 °C 9,7 km/h (2 Bft) 95,65 %
05.05.2026 23:00 14,5 °C 76 % 1006,2 hPa 0,0 l/m² 4,8 km/h (1 Bft) W-SW 247 ° 0 min 0,025 mm 0,0 UV-I 0 W/m² 10,3 °C 14,5 °C 6,4 km/h (2 Bft) 95,65 %
05.05.2026 22:59 14,6 °C 76 % 1006,3 hPa 0,0 l/m² 6,4 km/h (2 Bft) W-SW 247 ° 0 min 0,000 mm 0,0 UV-I 0 W/m² 10,4 °C 14,6 °C 14,5 km/h (3 Bft) 91,30 %
05.05.2026 22:58 14,6 °C 76 % 1006,2 hPa 0,0 l/m² 4,8 km/h (1 Bft) W-SW 247 ° 0 min 0,000 mm 0,0 UV-I 0 W/m² 10,4 °C 14,6 °C 9,7 km/h (2 Bft) 91,30 %
05.05.2026 22:57 14,6 °C 76 % 1006,2 hPa 0,0 l/m² 6,4 km/h (2 Bft) W 270 ° 0 min 0,000 mm 0,0 UV-I 0 W/m² 10,4 °C 14,6 °C 11,3 km/h (2 Bft) 100,00 %
05.05.2026 22:56 14,7 °C 75 % 1006,1 hPa 0,0 l/m² 4,8 km/h (1 Bft) W 270 ° 0 min 0,000 mm 0,0 UV-I 0 W/m² 10,3 °C 14,7 °C 9,7 km/h (2 Bft) 95,65 %
05.05.2026 22:55 14,7 °C 75 % 1006,1 hPa 0,0 l/m² 4,8 km/h (1 Bft) W-NW 292 ° 0 min 0,000 mm 0,0 UV-I 0 W/m² 10,3 °C 14,7 °C 6,4 km/h (2 Bft) 91,30 %
05.05.2026 22:54 14,8 °C 75 % 1006,1 hPa 0,0 l/m² 6,4 km/h (2 Bft) W 270 ° 0 min 0,000 mm 0,0 UV-I 0 W/m² 10,4 °C 14,8 °C 11,3 km/h (2 Bft) 95,65 %
05.05.2026 22:53 14,8 °C 75 % 1006,1 hPa 0,0 l/m² 4,8 km/h (1 Bft) W-SW 247 ° 0 min 0,000 mm 0,0 UV-I 0 W/m² 10,4 °C 14,8 °C 11,3 km/h (2 Bft) 91,30 %
05.05.2026 22:52 14,8 °C 75 % 1006,1 hPa 0,0 l/m² 8,0 km/h (2 Bft) W 270 ° 0 min 0,000 mm 0,0 UV-I 0 W/m² 10,4 °C 14,8 °C 12,9 km/h (3 Bft) 91,30 %
05.05.2026 22:51 14,8 °C 75 % 1006,0 hPa 0,0 l/m² 4,8 km/h (1 Bft) W 270 ° 0 min 0,000 mm 0,0 UV-I 0 W/m² 10,4 °C 14,8 °C 11,3 km/h (2 Bft) 78,26 %
05.05.2026 22:50 14,8 °C 75 % 1006,0 hPa 0,0 l/m² 1,6 km/h (1 Bft) S-SW 202 ° 0 min 0,000 mm 0,0 UV-I 0 W/m² 10,4 °C 14,8 °C 4,8 km/h (1 Bft) 95,65 %
05.05.2026 22:49 14,7 °C 75 % 1005,9 hPa 0,0 l/m² 4,8 km/h (1 Bft) W 270 ° 0 min 0,000 mm 0,0 UV-I 0 W/m² 10,3 °C 14,7 °C 11,3 km/h (2 Bft) 95,65 %
05.05.2026 22:48 14,7 °C 75 % 1006,0 hPa 0,0 l/m² 4,8 km/h (1 Bft) N 360 ° 0 min 0,000 mm 0,0 UV-I 0 W/m² 10,3 °C 14,7 °C 11,3 km/h (2 Bft) 100,00 %
05.05.2026 22:47 14,7 °C 75 % 1006,0 hPa 0,0 l/m² 4,8 km/h (1 Bft) W-NW 292 ° 0 min 0,000 mm 0,0 UV-I 0 W/m² 10,3 °C 14,7 °C 6,4 km/h (2 Bft) 95,65 %
05.05.2026 22:46 14,7 °C 75 % 1005,9 hPa 0,0 l/m² 4,8 km/h (1 Bft) W 270 ° 0 min 0,000 mm 0,0 UV-I 0 W/m² 10,3 °C 14,7 °C 11,3 km/h (2 Bft) 95,65 %
05.05.2026 22:45 14,7 °C 75 % 1005,9 hPa 0,0 l/m² 3,2 km/h (1 Bft) NW 315 ° 0 min 0,000 mm 0,0 UV-I 0 W/m² 10,3 °C 14,7 °C 8,0 km/h (2 Bft) 82,61 %
05.05.2026 22:44 14,7 °C 75 % 1005,9 hPa 0,0 l/m² 4,8 km/h (1 Bft) O-NO 67 ° 0 min 0,000 mm 0,0 UV-I 0 W/m² 10,3 °C 14,7 °C 8,0 km/h (2 Bft) 95,65 %
05.05.2026 22:43 14,7 °C 75 % 1005,8 hPa 0,0 l/m² 8,0 km/h (2 Bft) N-NO 22 ° 0 min 0,000 mm 0,0 UV-I 0 W/m² 10,3 °C 14,7 °C 11,3 km/h (2 Bft) 95,65 %
05.05.2026 22:42 14,7 °C 75 % 1005,9 hPa 0,0 l/m² 3,2 km/h (1 Bft) S-SO 157 ° 0 min 0,000 mm 0,0 UV-I 0 W/m² 10,3 °C 14,7 °C 11,3 km/h (2 Bft) 91,30 %
05.05.2026 22:41 14,7 °C 75 % 1006,0 hPa 0,0 l/m² 4,8 km/h (1 Bft) W 270 ° 0 min 0,000 mm 0,0 UV-I 0 W/m² 10,3 °C 14,7 °C 11,3 km/h (2 Bft) 100,00 %
05.05.2026 22:40 14,7 °C 75 % 1005,9 hPa 0,0 l/m² 3,2 km/h (1 Bft) N-NO 22 ° 0 min 0,000 mm 0,0 UV-I 0 W/m² 10,3 °C 14,7 °C 4,8 km/h (1 Bft) 86,96 %
05.05.2026 22:39 14,7 °C 75 % 1005,9 hPa 0,0 l/m² 1,6 km/h (1 Bft) W 270 ° 0 min 0,000 mm 0,0 UV-I 0 W/m² 10,3 °C 14,7 °C 3,2 km/h (1 Bft) 78,26 %
05.05.2026 22:38 14,7 °C 75 % 1006,1 hPa 0,0 l/m² 8,0 km/h (2 Bft) N-NW 337 ° 0 min 0,000 mm 0,0 UV-I 0 W/m² 10,3 °C 14,7 °C 16,1 km/h (3 Bft) 86,96 %
05.05.2026 22:37 14,7 °C 75 % 1005,9 hPa 0,0 l/m² 4,8 km/h (1 Bft) W 270 ° 0 min 0,000 mm 0,0 UV-I 0 W/m² 10,3 °C 14,7 °C 6,4 km/h (2 Bft) 95,65 %
05.05.2026 22:36 14,8 °C 75 % 1005,8 hPa 0,0 l/m² 6,4 km/h (2 Bft) NO 45 ° 0 min 0,000 mm 0,0 UV-I 0 W/m² 10,4 °C 14,8 °C 12,9 km/h (3 Bft) 91,30 %
05.05.2026 22:35 14,8 °C 75 % 1005,9 hPa 0,0 l/m² 4,8 km/h (1 Bft) NW 315 ° 0 min 0,000 mm 0,0 UV-I 0 W/m² 10,4 °C 14,8 °C 12,9 km/h (3 Bft) 95,65 %
05.05.2026 22:34 14,8 °C 75 % 1005,9 hPa 0,0 l/m² 8,0 km/h (2 Bft) W 270 ° 0 min 0,000 mm 0,0 UV-I 0 W/m² 10,4 °C 14,8 °C 16,1 km/h (3 Bft) 95,65 %
05.05.2026 22:33 14,8 °C 75 % 1005,8 hPa 0,0 l/m² 6,4 km/h (2 Bft) O-NO 67 ° 0 min 0,000 mm 0,0 UV-I 0 W/m² 10,4 °C 14,8 °C 14,5 km/h (3 Bft) 95,65 %
05.05.2026 22:32 14,9 °C 75 % 1005,9 hPa 0,0 l/m² 8,0 km/h (2 Bft) NW 315 ° 0 min 0,000 mm 0,0 UV-I 0 W/m² 10,5 °C 14,9 °C 17,7 km/h (3 Bft) 95,65 %
05.05.2026 22:31 14,9 °C 75 % 1005,9 hPa 0,0 l/m² 6,4 km/h (2 Bft) O-NO 67 ° 0 min 0,000 mm 0,0 UV-I 0 W/m² 10,5 °C 14,9 °C 12,9 km/h (3 Bft) 86,96 %
05.05.2026 22:30 14,9 °C 75 % 1005,9 hPa 0,0 l/m² 3,2 km/h (1 Bft) W-NW 292 ° 0 min 0,000 mm 0,0 UV-I 0 W/m² 10,5 °C 14,9 °C 8,0 km/h (2 Bft) 91,30 %
05.05.2026 22:29 15,0 °C 74 % 1005,9 hPa 0,0 l/m² 6,4 km/h (2 Bft) W 270 ° 0 min 0,000 mm 0,0 UV-I 0 W/m² 10,4 °C 15,0 °C 11,3 km/h (2 Bft) 95,65 %
05.05.2026 22:28 15,1 °C 74 % 1005,9 hPa 0,0 l/m² 6,4 km/h (2 Bft) W-NW 292 ° 0 min 0,000 mm 0,0 UV-I 0 W/m² 10,5 °C 15,1 °C 14,5 km/h (3 Bft) 91,30 %
05.05.2026 22:27 15,1 °C 74 % 1005,9 hPa 0,0 l/m² 4,8 km/h (1 Bft) NW 315 ° 0 min 0,000 mm 0,0 UV-I 0 W/m² 10,5 °C 15,1 °C 8,0 km/h (2 Bft) 95,65 %
05.05.2026 22:26 15,1 °C 74 % 1005,9 hPa 0,0 l/m² 6,4 km/h (2 Bft) NW 315 ° 0 min 0,000 mm 0,0 UV-I 0 W/m² 10,5 °C 15,1 °C 14,5 km/h (3 Bft) 91,30 %
05.05.2026 22:25 15,2 °C 74 % 1005,8 hPa 0,0 l/m² 8,0 km/h (2 Bft) N-NW 337 ° 0 min 0,000 mm 0,0 UV-I 0 W/m² 10,6 °C 15,2 °C 16,1 km/h (3 Bft) 100,00 %
05.05.2026 22:24 15,2 °C 74 % 1005,9 hPa 0,0 l/m² 4,8 km/h (1 Bft) N-NW 337 ° 0 min 0,000 mm 0,0 UV-I 0 W/m² 10,6 °C 15,2 °C 8,0 km/h (2 Bft) 91,30 %
05.05.2026 22:23 15,2 °C 73 % 1005,9 hPa 0,0 l/m² 6,4 km/h (2 Bft) N-NW 337 ° 0 min 0,000 mm 0,0 UV-I 0 W/m² 10,4 °C 15,2 °C 12,9 km/h (3 Bft) 91,30 %
05.05.2026 22:22 15,2 °C 73 % 1005,9 hPa 0,0 l/m² 4,8 km/h (1 Bft) W-NW 292 ° 0 min 0,000 mm 0,0 UV-I 0 W/m² 10,4 °C 15,2 °C 9,7 km/h (2 Bft) 95,65 %
05.05.2026 22:21 15,3 °C 73 % 1005,9 hPa 0,0 l/m² 6,4 km/h (2 Bft) N-NO 22 ° 0 min 0,000 mm 0,0 UV-I 0 W/m² 10,5 °C 15,3 °C 16,1 km/h (3 Bft) 100,00 %
05.05.2026 22:20 15,3 °C 73 % 1006,0 hPa 0,0 l/m² 8,0 km/h (2 Bft) W 270 ° 0 min 0,000 mm 0,0 UV-I 0 W/m² 10,5 °C 15,3 °C 16,1 km/h (3 Bft) 91,30 %
05.05.2026 22:19 15,3 °C 73 % 1005,9 hPa 0,0 l/m² 6,4 km/h (2 Bft) W 270 ° 0 min 0,000 mm 0,0 UV-I 0 W/m² 10,5 °C 15,3 °C 12,9 km/h (3 Bft) 100,00 %
05.05.2026 22:18 15,3 °C 73 % 1005,9 hPa 0,0 l/m² 3,2 km/h (1 Bft) N-NO 22 ° 0 min 0,000 mm 0,0 UV-I 0 W/m² 10,5 °C 15,3 °C 8,0 km/h (2 Bft) 95,65 %
05.05.2026 22:17 15,3 °C 72 % 1006,0 hPa 0,0 l/m² 4,8 km/h (1 Bft) NW 315 ° 0 min 0,000 mm 0,0 UV-I 0 W/m² 10,3 °C 15,3 °C 11,3 km/h (2 Bft) 100,00 %
05.05.2026 22:16 15,4 °C 73 % 1006,0 hPa 0,0 l/m² 9,7 km/h (2 Bft) W-NW 292 ° 0 min 0,000 mm 0,0 UV-I 0 W/m² 10,6 °C 15,4 °C 17,7 km/h (3 Bft) 95,65 %
05.05.2026 22:15 15,3 °C 72 % 1006,0 hPa 0,0 l/m² 6,4 km/h (2 Bft) W 270 ° 0 min 0,000 mm 0,0 UV-I 0 W/m² 10,3 °C 15,3 °C 11,3 km/h (2 Bft) 100,00 %
05.05.2026 22:14 15,3 °C 72 % 1005,9 hPa 0,0 l/m² 4,8 km/h (1 Bft) W 270 ° 0 min 0,000 mm 0,0 UV-I 0 W/m² 10,3 °C 15,3 °C 9,7 km/h (2 Bft) 100,00 %
05.05.2026 22:13 15,4 °C 72 % 1006,1 hPa 0,0 l/m² 4,8 km/h (1 Bft) W-NW 292 ° 0 min 0,000 mm 0,0 UV-I 0 W/m² 10,4 °C 15,4 °C 11,3 km/h (2 Bft) 100,00 %
05.05.2026 22:12 15,3 °C 72 % 1006,0 hPa 0,0 l/m² 3,2 km/h (1 Bft) O-NO 67 ° 0 min 0,000 mm 0,0 UV-I 0 W/m² 10,3 °C 15,3 °C 4,8 km/h (1 Bft) 100,00 %
05.05.2026 22:11 15,4 °C 72 % 1006,0 hPa 0,0 l/m² 3,2 km/h (1 Bft) O-NO 67 ° 0 min 0,000 mm 0,0 UV-I 0 W/m² 10,4 °C 15,4 °C 4,8 km/h (1 Bft) 95,65 %
05.05.2026 22:10 15,4 °C 72 % 1006,0 hPa 0,0 l/m² 3,2 km/h (1 Bft) W 270 ° 0 min 0,000 mm 0,0 UV-I 0 W/m² 10,4 °C 15,4 °C 6,4 km/h (2 Bft) 95,65 %
05.05.2026 22:09 15,3 °C 72 % 1006,0 hPa 0,0 l/m² 6,4 km/h (2 Bft) W-NW 292 ° 0 min 0,000 mm 0,0 UV-I 0 W/m² 10,3 °C 15,3 °C 12,9 km/h (3 Bft) 91,30 %
05.05.2026 22:08 15,3 °C 72 % 1006,1 hPa 0,0 l/m² 3,2 km/h (1 Bft) N-NO 22 ° 0 min 0,000 mm 0,0 UV-I 0 W/m² 10,3 °C 15,3 °C 4,8 km/h (1 Bft) 100,00 %
05.05.2026 22:07 15,3 °C 72 % 1006,0 hPa 0,0 l/m² 4,8 km/h (1 Bft) W 270 ° 0 min 0,000 mm 0,0 UV-I 0 W/m² 10,3 °C 15,3 °C 12,9 km/h (3 Bft) 100,00 %
05.05.2026 22:06 15,3 °C 72 % 1006,0 hPa 0,0 l/m² 8,0 km/h (2 Bft) W 270 ° 0 min 0,000 mm 0,0 UV-I 0 W/m² 10,3 °C 15,3 °C 16,1 km/h (3 Bft) 95,65 %
05.05.2026 22:05 15,3 °C 72 % 1006,0 hPa 0,0 l/m² 6,4 km/h (2 Bft) W 270 ° 0 min 0,000 mm 0,0 UV-I 0 W/m² 10,3 °C 15,3 °C 12,9 km/h (3 Bft) 95,65 %
05.05.2026 22:04 15,3 °C 72 % 1006,0 hPa 0,0 l/m² 8,0 km/h (2 Bft) W 270 ° 0 min 0,000 mm 0,0 UV-I 0 W/m² 10,3 °C 15,3 °C 16,1 km/h (3 Bft) 95,65 %
05.05.2026 22:03 15,3 °C 72 % 1006,0 hPa 0,0 l/m² 8,0 km/h (2 Bft) NW 315 ° 0 min 0,000 mm 0,0 UV-I 0 W/m² 10,3 °C 15,3 °C 14,5 km/h (3 Bft) 91,30 %
05.05.2026 22:02 15,3 °C 72 % 1006,0 hPa 0,0 l/m² 4,8 km/h (1 Bft) SW 225 ° 0 min 0,000 mm 0,0 UV-I 0 W/m² 10,3 °C 15,3 °C 11,3 km/h (2 Bft) 95,65 %
05.05.2026 22:01 15,3 °C 73 % 1005,9 hPa 0,0 l/m² 6,4 km/h (2 Bft) W-NW 292 ° 0 min 0,000 mm 0,0 UV-I 0 W/m² 10,5 °C 15,3 °C 14,5 km/h (3 Bft) 100,00 %
05.05.2026 22:00 15,3 °C 73 % 1006,0 hPa 0,0 l/m² 6,4 km/h (2 Bft) W 270 ° 0 min 0,051 mm 0,0 UV-I 0 W/m² 10,5 °C 15,3 °C 11,3 km/h (2 Bft) 95,65 %
05.05.2026 21:59 15,3 °C 73 % 1006,0 hPa 0,0 l/m² 8,0 km/h (2 Bft) W 270 ° 0 min 0,000 mm 0,0 UV-I 0 W/m² 10,5 °C 15,3 °C 14,5 km/h (3 Bft) 95,65 %
05.05.2026 21:58 15,3 °C 73 % 1005,9 hPa 0,0 l/m² 8,0 km/h (2 Bft) W 270 ° 0 min 0,000 mm 0,0 UV-I 0 W/m² 10,5 °C 15,3 °C 19,3 km/h (3 Bft) 95,65 %
05.05.2026 21:57 15,3 °C 73 % 1006,1 hPa 0,0 l/m² 11,3 km/h (2 Bft) W-NW 292 ° 0 min 0,000 mm 0,0 UV-I 0 W/m² 10,5 °C 15,3 °C 16,1 km/h (3 Bft) 95,65 %
05.05.2026 21:56 15,3 °C 73 % 1005,9 hPa 0,0 l/m² 6,4 km/h (2 Bft) W-NW 292 ° 0 min 0,000 mm 0,0 UV-I 0 W/m² 10,5 °C 15,3 °C 12,9 km/h (3 Bft) 100,00 %
05.05.2026 21:55 15,3 °C 73 % 1006,0 hPa 0,0 l/m² 8,0 km/h (2 Bft) N 360 ° 0 min 0,000 mm 0,0 UV-I 0 W/m² 10,5 °C 15,3 °C 19,3 km/h (3 Bft) 91,30 %
05.05.2026 21:54 15,3 °C 73 % 1006,0 hPa 0,0 l/m² 11,3 km/h (2 Bft) W 270 ° 0 min 0,000 mm 0,0 UV-I 0 W/m² 10,5 °C 15,3 °C 19,3 km/h (3 Bft) 95,65 %
05.05.2026 21:53 15,3 °C 73 % 1005,9 hPa 0,0 l/m² 6,4 km/h (2 Bft) N-NW 337 ° 0 min 0,000 mm 0,0 UV-I 0 W/m² 10,5 °C 15,3 °C 11,3 km/h (2 Bft) 91,30 %
05.05.2026 21:52 15,3 °C 73 % 1005,9 hPa 0,0 l/m² 8,0 km/h (2 Bft) W 270 ° 0 min 0,000 mm 0,0 UV-I 0 W/m² 10,5 °C 15,3 °C 14,5 km/h (3 Bft) 91,30 %
05.05.2026 21:51 15,2 °C 73 % 1005,9 hPa 0,0 l/m² 4,8 km/h (1 Bft) N 360 ° 0 min 0,000 mm 0,0 UV-I 0 W/m² 10,4 °C 15,2 °C 8,0 km/h (2 Bft) 95,65 %
05.05.2026 21:50 15,2 °C 73 % 1005,8 hPa 0,0 l/m² 6,4 km/h (2 Bft) W 270 ° 0 min 0,000 mm 0,0 UV-I 0 W/m² 10,4 °C 15,2 °C 14,5 km/h (3 Bft) 86,96 %
05.05.2026 21:49 15,2 °C 74 % 1005,8 hPa 0,0 l/m² 14,5 km/h (3 Bft) NW 315 ° 0 min 0,000 mm 0,0 UV-I 0 W/m² 10,6 °C 15,2 °C 22,5 km/h (4 Bft) 100,00 %
05.05.2026 21:48 15,2 °C 74 % 1005,9 hPa 0,0 l/m² 14,5 km/h (3 Bft) W-SW 247 ° 0 min 0,000 mm 0,0 UV-I 0 W/m² 10,6 °C 15,2 °C 24,1 km/h (4 Bft) 82,61 %
05.05.2026 21:47 15,2 °C 74 % 1005,9 hPa 0,0 l/m² 11,3 km/h (2 Bft) W-NW 292 ° 0 min 0,000 mm 0,0 UV-I 0 W/m² 10,6 °C 15,2 °C 17,7 km/h (3 Bft) 100,00 %
05.05.2026 21:46 15,1 °C 74 % 1005,8 hPa 0,0 l/m² 14,5 km/h (3 Bft) W 270 ° 0 min 0,000 mm 0,0 UV-I 0 W/m² 10,5 °C 15,1 °C 24,1 km/h (4 Bft) 100,00 %
05.05.2026 21:45 15,1 °C 74 % 1005,9 hPa 0,0 l/m² 9,7 km/h (2 Bft) NW 315 ° 0 min 0,000 mm 0,0 UV-I 0 W/m² 10,5 °C 15,1 °C 22,5 km/h (4 Bft) 100,00 %
05.05.2026 21:44 15,1 °C 74 % 1006,0 hPa 0,0 l/m² 8,0 km/h (2 Bft) NO 45 ° 0 min 0,000 mm 0,0 UV-I 0 W/m² 10,5 °C 15,1 °C 17,7 km/h (3 Bft) 82,61 %
05.05.2026 21:43 15,2 °C 74 % 1005,8 hPa 0,0 l/m² 14,5 km/h (3 Bft) W 270 ° 0 min 0,000 mm 0,0 UV-I 0 W/m² 10,6 °C 15,2 °C 30,6 km/h (5 Bft) 91,30 %
05.05.2026 21:42 15,2 °C 74 % 1005,9 hPa 0,0 l/m² 11,3 km/h (2 Bft) W 270 ° 0 min 0,000 mm 0,0 UV-I 0 W/m² 10,6 °C 15,2 °C 22,5 km/h (4 Bft) 91,30 %
05.05.2026 21:41 15,2 °C 74 % 1006,0 hPa 0,0 l/m² 11,3 km/h (2 Bft) W-NW 292 ° 0 min 0,000 mm 0,0 UV-I 0 W/m² 10,6 °C 15,2 °C 27,4 km/h (4 Bft) 73,91 %
05.05.2026 21:40 15,2 °C 74 % 1005,8 hPa 0,0 l/m² 14,5 km/h (3 Bft) W-SW 247 ° 0 min 0,000 mm 0,0 UV-I 0 W/m² 10,6 °C 15,2 °C 22,5 km/h (4 Bft) 95,65 %
05.05.2026 21:39 15,2 °C 74 % 1005,8 hPa 0,0 l/m² 12,9 km/h (3 Bft) W 270 ° 0 min 0,000 mm 0,0 UV-I 0 W/m² 10,6 °C 15,2 °C 20,9 km/h (4 Bft) 95,65 %
05.05.2026 21:38 15,3 °C 74 % 1005,9 hPa 0,0 l/m² 19,3 km/h (3 Bft) W 270 ° 0 min 0,000 mm 0,0 UV-I 0 W/m² 10,7 °C 15,3 °C 27,4 km/h (4 Bft) 82,61 %
05.05.2026 21:37 15,3 °C 74 % 1005,9 hPa 0,0 l/m² 16,1 km/h (3 Bft) W-SW 247 ° 0 min 0,000 mm 0,0 UV-I 0 W/m² 10,7 °C 15,3 °C 20,9 km/h (4 Bft) 86,96 %
05.05.2026 21:36 15,3 °C 74 % 1006,0 hPa 0,0 l/m² 11,3 km/h (2 Bft) W 270 ° 0 min 0,000 mm 0,0 UV-I 0 W/m² 10,7 °C 15,3 °C 19,3 km/h (3 Bft) 91,30 %
05.05.2026 21:35 15,3 °C 73 % 1005,9 hPa 0,0 l/m² 16,1 km/h (3 Bft) W 270 ° 0 min 0,000 mm 0,0 UV-I 0 W/m² 10,5 °C 15,3 °C 22,5 km/h (4 Bft) 95,65 %
05.05.2026 21:34 15,4 °C 73 % 1005,9 hPa 0,0 l/m² 12,9 km/h (3 Bft) W 270 ° 0 min 0,000 mm 0,0 UV-I 0 W/m² 10,6 °C 15,4 °C 22,5 km/h (4 Bft) 86,96 %
05.05.2026 21:33 15,4 °C 73 % 1005,9 hPa 0,0 l/m² 11,3 km/h (2 Bft) W 270 ° 0 min 0,000 mm 0,0 UV-I 0 W/m² 10,6 °C 15,4 °C 17,7 km/h (3 Bft) 95,65 %
05.05.2026 21:32 15,4 °C 73 % 1005,9 hPa 0,0 l/m² 11,3 km/h (2 Bft) W 270 ° 0 min 0,000 mm 0,0 UV-I 0 W/m² 10,6 °C 15,4 °C 16,1 km/h (3 Bft) 91,30 %
05.05.2026 21:31 15,4 °C 73 % 1005,9 hPa 0,0 l/m² 9,7 km/h (2 Bft) W 270 ° 0 min 0,000 mm 0,0 UV-I 0 W/m² 10,6 °C 15,4 °C 14,5 km/h (3 Bft) 95,65 %
05.05.2026 21:30 15,6 °C 73 % 1005,9 hPa 0,0 l/m² 14,5 km/h (3 Bft) W-SW 247 ° 0 min 0,000 mm 0,0 UV-I 0 W/m² 10,8 °C 15,6 °C 24,1 km/h (4 Bft) 91,30 %
05.05.2026 21:29 15,6 °C 73 % 1005,9 hPa 0,0 l/m² 12,9 km/h (3 Bft) W 270 ° 0 min 0,000 mm 0,0 UV-I 0 W/m² 10,8 °C 15,6 °C 24,1 km/h (4 Bft) 100,00 %
05.05.2026 21:28 15,6 °C 72 % 1005,8 hPa 0,0 l/m² 14,5 km/h (3 Bft) W 270 ° 0 min 0,000 mm 0,0 UV-I 0 W/m² 10,6 °C 15,6 °C 19,3 km/h (3 Bft) 100,00 %
05.05.2026 21:27 15,6 °C 72 % 1005,7 hPa 0,0 l/m² 12,9 km/h (3 Bft) W 270 ° 0 min 0,000 mm 0,0 UV-I 0 W/m² 10,6 °C 15,6 °C 16,1 km/h (3 Bft) 95,65 %
05.05.2026 21:26 15,7 °C 72 % 1005,6 hPa 0,0 l/m² 14,5 km/h (3 Bft) W 270 ° 0 min 0,000 mm 0,0 UV-I 0 W/m² 10,7 °C 15,7 °C 22,5 km/h (4 Bft) 100,00 %
05.05.2026 21:25 15,7 °C 72 % 1005,8 hPa 0,0 l/m² 14,5 km/h (3 Bft) W 270 ° 0 min 0,000 mm 0,0 UV-I 0 W/m² 10,7 °C 15,7 °C 24,1 km/h (4 Bft) 95,65 %
05.05.2026 21:24 15,7 °C 72 % 1005,8 hPa 0,0 l/m² 14,5 km/h (3 Bft) W-NW 292 ° 0 min 0,000 mm 0,0 UV-I 0 W/m² 10,7 °C 15,7 °C 24,1 km/h (4 Bft) 100,00 %
05.05.2026 21:23 15,8 °C 71 % 1005,7 hPa 0,0 l/m² 19,3 km/h (3 Bft) W 270 ° 0 min 0,000 mm 0,0 UV-I 0 W/m² 10,6 °C 15,8 °C 27,4 km/h (4 Bft) 91,30 %
05.05.2026 21:22 15,8 °C 71 % 1005,7 hPa 0,0 l/m² 14,5 km/h (3 Bft) W-SW 247 ° 0 min 0,000 mm 0,0 UV-I 0 W/m² 10,6 °C 15,8 °C 27,4 km/h (4 Bft) 95,65 %
05.05.2026 21:21 15,8 °C 71 % 1005,8 hPa 0,0 l/m² 14,5 km/h (3 Bft) W 270 ° 0 min 0,000 mm 0,0 UV-I 0 W/m² 10,6 °C 15,8 °C 22,5 km/h (4 Bft) 91,30 %
05.05.2026 21:20 15,9 °C 71 % 1005,7 hPa 0,0 l/m² 14,5 km/h (3 Bft) W-NW 292 ° 0 min 0,000 mm 0,0 UV-I 0 W/m² 10,6 °C 15,9 °C 20,9 km/h (4 Bft) 91,30 %
05.05.2026 21:19 15,9 °C 70 % 1005,6 hPa 0,0 l/m² 16,1 km/h (3 Bft) W 270 ° 0 min 0,000 mm 0,0 UV-I 0 W/m² 10,4 °C 15,9 °C 27,4 km/h (4 Bft) 95,65 %
05.05.2026 21:18 15,9 °C 70 % 1005,4 hPa 0,0 l/m² 12,9 km/h (3 Bft) W-SW 247 ° 0 min 0,000 mm 0,0 UV-I 0 W/m² 10,4 °C 15,9 °C 20,9 km/h (4 Bft) 95,65 %
05.05.2026 21:17 15,9 °C 70 % 1005,4 hPa 0,0 l/m² 14,5 km/h (3 Bft) W-SW 247 ° 0 min 0,000 mm 0,0 UV-I 0 W/m² 10,4 °C 15,9 °C 22,5 km/h (4 Bft) 86,96 %
05.05.2026 21:16 16,0 °C 70 % 1005,4 hPa 0,0 l/m² 16,1 km/h (3 Bft) W 270 ° 0 min 0,000 mm 0,0 UV-I 0 W/m² 10,5 °C 16,0 °C 32,2 km/h (5 Bft) 86,96 %
05.05.2026 21:15 16,0 °C 70 % 1005,3 hPa 0,0 l/m² 17,7 km/h (3 Bft) W 270 ° 0 min 0,000 mm 0,0 UV-I 0 W/m² 10,5 °C 16,0 °C 37,0 km/h (5 Bft) 86,96 %
05.05.2026 21:14 16,0 °C 70 % 1005,2 hPa 0,0 l/m² 16,1 km/h (3 Bft) W 270 ° 0 min 0,000 mm 0,0 UV-I 0 W/m² 10,5 °C 16,0 °C 37,0 km/h (5 Bft) 95,65 %
05.05.2026 21:13 16,1 °C 70 % 1005,3 hPa 0,0 l/m² 14,5 km/h (3 Bft) W 270 ° 0 min 0,000 mm 0,0 UV-I 0 W/m² 10,6 °C 16,1 °C 27,4 km/h (4 Bft) 91,30 %
05.05.2026 21:12 16,1 °C 69 % 1005,2 hPa 0,0 l/m² 12,9 km/h (3 Bft) W 270 ° 0 min 0,000 mm 0,0 UV-I 0 W/m² 10,4 °C 16,1 °C 19,3 km/h (3 Bft) 86,96 %
05.05.2026 21:11 16,1 °C 69 % 1005,3 hPa 0,0 l/m² 9,7 km/h (2 Bft) W 270 ° 0 min 0,000 mm 0,0 UV-I 0 W/m² 10,4 °C 16,1 °C 16,1 km/h (3 Bft) 91,30 %
05.05.2026 21:10 16,1 °C 69 % 1005,2 hPa 0,0 l/m² 16,1 km/h (3 Bft) W 270 ° 0 min 0,000 mm 0,0 UV-I 0 W/m² 10,4 °C 16,1 °C 25,7 km/h (4 Bft) 91,30 %
05.05.2026 21:09 16,1 °C 69 % 1005,4 hPa 0,0 l/m² 11,3 km/h (2 Bft) W-SW 247 ° 0 min 0,000 mm 0,0 UV-I 0 W/m² 10,4 °C 16,1 °C 20,9 km/h (4 Bft) 100,00 %
05.05.2026 21:08 16,1 °C 69 % 1005,4 hPa 0,0 l/m² 9,7 km/h (2 Bft) W 270 ° 0 min 0,000 mm 0,0 UV-I 0 W/m² 10,4 °C 16,1 °C 19,3 km/h (3 Bft) 100,00 %
05.05.2026 21:07 16,2 °C 68 % 1005,4 hPa 0,0 l/m² 11,3 km/h (2 Bft) W-SW 247 ° 0 min 0,000 mm 0,0 UV-I 0 W/m² 10,3 °C 16,2 °C 16,1 km/h (3 Bft) 95,65 %
05.05.2026 21:06 16,3 °C 68 % 1005,5 hPa 0,0 l/m² 9,7 km/h (2 Bft) W-SW 247 ° 0 min 0,000 mm 0,0 UV-I 0 W/m² 10,4 °C 16,3 °C 16,1 km/h (3 Bft) 86,96 %
05.05.2026 21:05 16,3 °C 68 % 1005,4 hPa 0,0 l/m² 12,9 km/h (3 Bft) W 270 ° 0 min 0,000 mm 0,0 UV-I 0 W/m² 10,4 °C 16,3 °C 17,7 km/h (3 Bft) 95,65 %
05.05.2026 21:04 16,3 °C 68 % 1005,4 hPa 0,0 l/m² 11,3 km/h (2 Bft) W 270 ° 0 min 0,000 mm 0,0 UV-I 0 W/m² 10,4 °C 16,3 °C 24,1 km/h (4 Bft) 95,65 %
05.05.2026 21:03 16,3 °C 68 % 1005,3 hPa 0,0 l/m² 11,3 km/h (2 Bft) W 270 ° 0 min 0,000 mm 0,0 UV-I 0 W/m² 10,4 °C 16,3 °C 19,3 km/h (3 Bft) 100,00 %
05.05.2026 21:02 16,4 °C 67 % 1005,2 hPa 0,0 l/m² 11,3 km/h (2 Bft) W 270 ° 0 min 0,000 mm 0,0 UV-I 0 W/m² 10,3 °C 16,4 °C 17,7 km/h (3 Bft) 95,65 %
05.05.2026 21:01 16,4 °C 67 % 1005,2 hPa 0,0 l/m² 14,5 km/h (3 Bft) W-SW 247 ° 0 min 0,000 mm 0,0 UV-I 0 W/m² 10,3 °C 16,4 °C 22,5 km/h (4 Bft) 78,26 %
05.05.2026 21:00 16,4 °C 67 % 1005,1 hPa 0,0 l/m² 9,7 km/h (2 Bft) W 270 ° 0 min 0,051 mm 0,0 UV-I 0 W/m² 10,3 °C 16,4 °C 16,1 km/h (3 Bft) 95,65 %
05.05.2026 20:59 16,5 °C 67 % 1005,0 hPa 0,0 l/m² 12,9 km/h (3 Bft) W 270 ° 0 min 0,000 mm 0,0 UV-I 0 W/m² 10,4 °C 16,5 °C 19,3 km/h (3 Bft) 86,96 %
05.05.2026 20:58 16,6 °C 66 % 1004,9 hPa 0,0 l/m² 14,5 km/h (3 Bft) W 270 ° 0 min 0,000 mm 0,0 UV-I 0 W/m² 10,2 °C 16,6 °C 19,3 km/h (3 Bft) 82,61 %
05.05.2026 20:57 16,6 °C 66 % 1005,0 hPa 0,0 l/m² 17,7 km/h (3 Bft) W 270 ° 0 min 0,000 mm 0,0 UV-I 0 W/m² 10,2 °C 16,6 °C 24,1 km/h (4 Bft) 91,30 %
05.05.2026 20:56 16,7 °C 66 % 1005,0 hPa 0,0 l/m² 14,5 km/h (3 Bft) W-SW 247 ° 0 min 0,000 mm 0,0 UV-I 0 W/m² 10,3 °C 16,7 °C 22,5 km/h (4 Bft) 86,96 %
05.05.2026 20:55 16,7 °C 65 % 1004,9 hPa 0,0 l/m² 14,5 km/h (3 Bft) W 270 ° 0 min 0,000 mm 0,0 UV-I 0 W/m² 10,1 °C 16,7 °C 20,9 km/h (4 Bft) 91,30 %
05.05.2026 20:54 16,7 °C 65 % 1005,0 hPa 0,0 l/m² 16,1 km/h (3 Bft) W-SW 247 ° 0 min 0,000 mm 0,0 UV-I 0 W/m² 10,1 °C 16,7 °C 24,1 km/h (4 Bft) 91,30 %
05.05.2026 20:53 16,8 °C 65 % 1005,1 hPa 0,0 l/m² 20,9 km/h (4 Bft) W 270 ° 0 min 0,000 mm 0,0 UV-I 0 W/m² 10,2 °C 16,8 °C 30,6 km/h (5 Bft) 91,30 %
05.05.2026 20:52 16,8 °C 65 % 1005,1 hPa 0,0 l/m² 11,3 km/h (2 Bft) W-SW 247 ° 0 min 0,000 mm 0,0 UV-I 0 W/m² 10,2 °C 16,8 °C 17,7 km/h (3 Bft) 86,96 %
05.05.2026 20:51 16,9 °C 64 % 1005,0 hPa 0,0 l/m² 12,9 km/h (3 Bft) W 270 ° 0 min 0,000 mm 0,0 UV-I 0 W/m² 10,0 °C 16,9 °C 20,9 km/h (4 Bft) 91,30 %
05.05.2026 20:50 16,9 °C 64 % 1005,0 hPa 0,0 l/m² 14,5 km/h (3 Bft) W-SW 247 ° 0 min 0,000 mm 0,0 UV-I 0 W/m² 10,0 °C 16,9 °C 24,1 km/h (4 Bft) 100,00 %
05.05.2026 20:49 17,0 °C 64 % 1005,0 hPa 0,0 l/m² 17,7 km/h (3 Bft) W 270 ° 0 min 0,000 mm 0,0 UV-I 0 W/m² 10,1 °C 17,0 °C 27,4 km/h (4 Bft) 91,30 %
05.05.2026 20:48 17,1 °C 63 % 1004,9 hPa 0,0 l/m² 14,5 km/h (3 Bft) W 270 ° 0 min 0,000 mm 0,0 UV-I 0 W/m² 10,0 °C 17,1 °C 22,5 km/h (4 Bft) 95,65 %
05.05.2026 20:47 17,1 °C 63 % 1004,8 hPa 0,0 l/m² 17,7 km/h (3 Bft) W-SW 247 ° 0 min 0,000 mm 0,0 UV-I 0 W/m² 10,0 °C 17,1 °C 24,1 km/h (4 Bft) 78,26 %
05.05.2026 20:46 17,2 °C 63 % 1004,8 hPa 0,0 l/m² 17,7 km/h (3 Bft) W 270 ° 0 min 0,000 mm 0,0 UV-I 0 W/m² 10,1 °C 17,2 °C 27,4 km/h (4 Bft) 78,26 %
05.05.2026 20:45 17,4 °C 62 % 1004,7 hPa 0,0 l/m² 9,7 km/h (2 Bft) W 270 ° 0 min 0,000 mm 0,0 UV-I 0 W/m² 10,0 °C 17,4 °C 32,2 km/h (5 Bft) 73,91 %
05.05.2026 20:44 17,5 °C 62 % 1004,6 hPa 0,0 l/m² 16,1 km/h (3 Bft) W 270 ° 0 min 0,000 mm 0,0 UV-I 0 W/m² 10,1 °C 17,5 °C 24,1 km/h (4 Bft) 86,96 %
05.05.2026 20:43 17,6 °C 61 % 1004,5 hPa 0,0 l/m² 19,3 km/h (3 Bft) W 270 ° 0 min 0,000 mm 0,0 UV-I 0 W/m² 10,0 °C 17,6 °C 25,7 km/h (4 Bft) 82,61 %
05.05.2026 20:42 17,8 °C 60 % 1004,5 hPa 0,0 l/m² 19,3 km/h (3 Bft) W 270 ° 0 min 0,000 mm 0,0 UV-I 0 W/m² 9,9 °C 17,8 °C 32,2 km/h (5 Bft) 91,30 %
05.05.2026 20:41 18,1 °C 59 % 1004,5 hPa 0,0 l/m² 17,7 km/h (3 Bft) W 270 ° 0 min 0,000 mm 0,0 UV-I 0 W/m² 10,0 °C 18,1 °C 30,6 km/h (5 Bft) 95,65 %
05.05.2026 20:40 18,4 °C 58 % 1004,7 hPa 0,0 l/m² 14,5 km/h (3 Bft) W 270 ° 0 min 0,000 mm 0,0 UV-I 0 W/m² 10,0 °C 18,4 °C 30,6 km/h (5 Bft) 82,61 %
05.05.2026 20:39 18,7 °C 57 % 1004,6 hPa 0,0 l/m² 16,1 km/h (3 Bft) W-SW 247 ° 0 min 0,000 mm 0,0 UV-I 0 W/m² 10,0 °C 18,7 °C 25,7 km/h (4 Bft) 91,30 %
05.05.2026 20:38 19,2 °C 55 % 1004,6 hPa 0,0 l/m² 14,5 km/h (3 Bft) W-SW 247 ° 0 min 0,000 mm 0,0 UV-I 0 W/m² 9,9 °C 19,2 °C 22,5 km/h (4 Bft) 91,30 %
05.05.2026 20:37 19,6 °C 54 % 1004,6 hPa 0,0 l/m² 12,9 km/h (3 Bft) W-SW 247 ° 0 min 0,000 mm 0,0 UV-I 0 W/m² 10,0 °C 19,6 °C 20,9 km/h (4 Bft) 100,00 %
05.05.2026 20:36 19,8 °C 52 % 1004,6 hPa 0,0 l/m² 9,7 km/h (2 Bft) S-SW 202 ° 0 min 0,000 mm 0,0 UV-I 0 W/m² 9,7 °C 19,8 °C 22,5 km/h (4 Bft) 91,30 %
05.05.2026 20:35 20,1 °C 49 % 1004,5 hPa 0,0 l/m² 11,3 km/h (2 Bft) W 270 ° 0 min 0,000 mm 0,0 UV-I 0 W/m² 9,0 °C 20,1 °C 19,3 km/h (3 Bft) 100,00 %
05.05.2026 20:34 20,3 °C 48 % 1004,2 hPa 0,0 l/m² 4,8 km/h (1 Bft) W-SW 247 ° 0 min 0,000 mm 0,0 UV-I 0 W/m² 8,9 °C 20,3 °C 17,7 km/h (3 Bft) 86,96 %
05.05.2026 20:33 20,3 °C 48 % 1004,2 hPa 0,0 l/m² 4,8 km/h (1 Bft) W 270 ° 0 min 0,000 mm 0,0 UV-I 0 W/m² 8,9 °C 20,3 °C 9,7 km/h (2 Bft) 91,30 %
05.05.2026 20:32 20,3 °C 47 % 1004,1 hPa 0,0 l/m² 4,8 km/h (1 Bft) SW 225 ° 0 min 0,000 mm 0,0 UV-I 0 W/m² 8,6 °C 20,3 °C 6,4 km/h (2 Bft) 95,65 %
05.05.2026 20:31 20,3 °C 48 % 1004,1 hPa 0,0 l/m² 3,2 km/h (1 Bft) W-NW 292 ° 0 min 0,000 mm 0,0 UV-I 0 W/m² 8,9 °C 20,3 °C 8,0 km/h (2 Bft) 91,30 %
05.05.2026 20:30 20,3 °C 48 % 1004,0 hPa 0,0 l/m² 3,2 km/h (1 Bft) O 90 ° 0 min 0,000 mm 0,0 UV-I 0 W/m² 8,9 °C 20,3 °C 6,4 km/h (2 Bft) 91,30 %
05.05.2026 20:29 20,3 °C 47 % 1004,1 hPa 0,0 l/m² 3,2 km/h (1 Bft) W-SW 247 ° 0 min 0,000 mm 0,0 UV-I 0 W/m² 8,6 °C 20,3 °C 6,4 km/h (2 Bft) 91,30 %
05.05.2026 20:28 20,3 °C 48 % 1004,1 hPa 0,0 l/m² 1,6 km/h (1 Bft) W 270 ° 0 min 0,000 mm 0,0 UV-I 0 W/m² 8,9 °C 20,3 °C 4,8 km/h (1 Bft) 95,65 %
05.05.2026 20:27 20,2 °C 48 % 1004,0 hPa 0,0 l/m² 3,2 km/h (1 Bft) S-SW 202 ° 0 min 0,000 mm 0,0 UV-I 0 W/m² 8,8 °C 20,2 °C 4,8 km/h (1 Bft) 95,65 %
05.05.2026 20:26 20,2 °C 48 % 1004,1 hPa 0,0 l/m² 3,2 km/h (1 Bft) O-SO 112 ° 0 min 0,000 mm 0,0 UV-I 0 W/m² 8,8 °C 20,2 °C 4,8 km/h (1 Bft) 100,00 %
05.05.2026 20:25 20,1 °C 48 % 1004,1 hPa 0,0 l/m² 3,2 km/h (1 Bft) S 180 ° 0 min 0,000 mm 0,0 UV-I 0 W/m² 8,7 °C 20,1 °C 8,0 km/h (2 Bft) 95,65 %
05.05.2026 20:24 20,1 °C 48 % 1004,0 hPa 0,0 l/m² 8,0 km/h (2 Bft) S-SW 202 ° 0 min 0,000 mm 0,0 UV-I 0 W/m² 8,7 °C 20,1 °C 14,5 km/h (3 Bft) 91,30 %
05.05.2026 20:23 20,1 °C 48 % 1004,1 hPa 0,0 l/m² 3,2 km/h (1 Bft) S 180 ° 0 min 0,000 mm 0,0 UV-I 0 W/m² 8,7 °C 20,1 °C 11,3 km/h (2 Bft) 95,65 %
05.05.2026 20:22 20,1 °C 48 % 1004,0 hPa 0,0 l/m² 1,6 km/h (1 Bft) S 180 ° 0 min 0,000 mm 0,0 UV-I 0 W/m² 8,7 °C 20,1 °C 3,2 km/h (1 Bft) 82,61 %
05.05.2026 20:21 20,1 °C 49 % 1004,1 hPa 0,0 l/m² 1,6 km/h (1 Bft) SO 135 ° 0 min 0,000 mm 0,0 UV-I 0 W/m² 9,0 °C 20,1 °C 4,8 km/h (1 Bft) 95,65 %
05.05.2026 20:20 20,1 °C 48 % 1004,1 hPa 0,0 l/m² 1,6 km/h (1 Bft) SO 135 ° 0 min 0,000 mm 0,0 UV-I 0 W/m² 8,7 °C 20,1 °C 3,2 km/h (1 Bft) 73,91 %
05.05.2026 20:19 20,2 °C 48 % 1004,0 hPa 0,0 l/m² 1,6 km/h (1 Bft) O 90 ° 0 min 0,000 mm 0,0 UV-I 0 W/m² 8,8 °C 20,2 °C 3,2 km/h (1 Bft) 91,30 %
05.05.2026 20:18 20,2 °C 48 % 1004,1 hPa 0,0 l/m² 1,6 km/h (1 Bft) O-SO 112 ° 0 min 0,000 mm 0,0 UV-I 0 W/m² 8,8 °C 20,2 °C 3,2 km/h (1 Bft) 100,00 %
05.05.2026 20:17 20,3 °C 48 % 1004,0 hPa 0,0 l/m² 1,6 km/h (1 Bft) O-SO 112 ° 0 min 0,000 mm 0,0 UV-I 0 W/m² 8,9 °C 20,3 °C 3,2 km/h (1 Bft) 78,26 %
05.05.2026 20:16 20,3 °C 47 % 1004,1 hPa 0,0 l/m² 3,2 km/h (1 Bft) SO 135 ° 0 min 0,000 mm 0,0 UV-I 0 W/m² 8,6 °C 20,3 °C 6,4 km/h (2 Bft) 91,30 %
05.05.2026 20:15 20,2 °C 48 % 1004,0 hPa 0,0 l/m² 3,2 km/h (1 Bft) S 180 ° 0 min 0,000 mm 0,0 UV-I 0 W/m² 8,8 °C 20,2 °C 4,8 km/h (1 Bft) 91,30 %
05.05.2026 20:14 20,2 °C 48 % 1004,0 hPa 0,0 l/m² 4,8 km/h (1 Bft) SO 135 ° 0 min 0,000 mm 0,0 UV-I 0 W/m² 8,8 °C 20,2 °C 9,7 km/h (2 Bft) 95,65 %
05.05.2026 20:13 20,1 °C 48 % 1004,0 hPa 0,0 l/m² 1,6 km/h (1 Bft) S 180 ° 0 min 0,000 mm 0,0 UV-I 0 W/m² 8,7 °C 20,1 °C 4,8 km/h (1 Bft) 95,65 %
05.05.2026 20:12 20,1 °C 49 % 1003,9 hPa 0,0 l/m² 1,6 km/h (1 Bft) S-SO 157 ° 0 min 0,000 mm 0,0 UV-I 0 W/m² 9,0 °C 20,1 °C 3,2 km/h (1 Bft) 95,65 %
05.05.2026 20:11 20,2 °C 49 % 1004,0 hPa 0,0 l/m² 1,6 km/h (1 Bft) S 180 ° 0 min 0,000 mm 0,0 UV-I 0 W/m² 9,1 °C 20,2 °C 3,2 km/h (1 Bft) 100,00 %
05.05.2026 20:10 20,3 °C 48 % 1004,0 hPa 0,0 l/m² 1,6 km/h (1 Bft) S-SO 157 ° 0 min 0,000 mm 0,0 UV-I 0 W/m² 8,9 °C 20,3 °C 1,6 km/h (1 Bft) 91,30 %
05.05.2026 20:09 20,3 °C 48 % 1004,0 hPa 0,0 l/m² 0,0 km/h (0 Bft) SW 225 ° 0 min 0,000 mm 0,0 UV-I 0 W/m² 8,9 °C 20,3 °C 1,6 km/h (1 Bft) 100,00 %
05.05.2026 20:08 20,3 °C 48 % 1003,9 hPa 0,0 l/m² 1,6 km/h (1 Bft) S-SW 202 ° 0 min 0,000 mm 0,0 UV-I 0 W/m² 8,9 °C 20,3 °C 3,2 km/h (1 Bft) 91,30 %
05.05.2026 20:07 20,2 °C 48 % 1004,0 hPa 0,0 l/m² 1,6 km/h (1 Bft) S-SO 157 ° 0 min 0,000 mm 0,0 UV-I 0 W/m² 8,8 °C 20,2 °C 3,2 km/h (1 Bft) 95,65 %
05.05.2026 20:06 20,2 °C 49 % 1004,0 hPa 0,0 l/m² 0,0 km/h (0 Bft) SW 225 ° 0 min 0,000 mm 0,0 UV-I 0 W/m² 9,1 °C 20,2 °C 1,6 km/h (1 Bft) 100,00 %
05.05.2026 20:05 20,2 °C 49 % 1004,0 hPa 0,0 l/m² 1,6 km/h (1 Bft) S-SW 202 ° 0 min 0,000 mm 0,0 UV-I 0 W/m² 9,1 °C 20,2 °C 4,8 km/h (1 Bft) 100,00 %
05.05.2026 20:04 20,2 °C 49 % 1004,0 hPa 0,0 l/m² 1,6 km/h (1 Bft) S-SO 157 ° 0 min 0,000 mm 0,0 UV-I 0 W/m² 9,1 °C 20,2 °C 3,2 km/h (1 Bft) 95,65 %
05.05.2026 20:03 20,2 °C 49 % 1003,9 hPa 0,0 l/m² 3,2 km/h (1 Bft) S-SO 157 ° 0 min 0,000 mm 0,0 UV-I 0 W/m² 9,1 °C 20,2 °C 4,8 km/h (1 Bft) 91,30 %
05.05.2026 20:02 20,2 °C 49 % 1003,9 hPa 0,0 l/m² 1,6 km/h (1 Bft) S-SO 157 ° 0 min 0,000 mm 0,0 UV-I 0 W/m² 9,1 °C 20,2 °C 3,2 km/h (1 Bft) 95,65 %
05.05.2026 20:01 20,1 °C 49 % 1003,9 hPa 0,0 l/m² 1,6 km/h (1 Bft) O-SO 112 ° 0 min 0,000 mm 0,0 UV-I 5 W/m² 9,0 °C 20,1 °C 4,8 km/h (1 Bft) 86,96 %
05.05.2026 20:00 20,2 °C 49 % 1004,0 hPa 0,0 l/m² 3,2 km/h (1 Bft) O-SO 112 ° 0 min 0,051 mm 0,0 UV-I 5 W/m² 9,1 °C 20,2 °C 6,4 km/h (2 Bft) 100,00 %
05.05.2026 19:59 20,2 °C 49 % 1003,9 hPa 0,0 l/m² 1,6 km/h (1 Bft) O 90 ° 0 min 0,000 mm 0,0 UV-I 5 W/m² 9,1 °C 20,2 °C 4,8 km/h (1 Bft) 91,30 %
05.05.2026 19:58 20,2 °C 49 % 1003,9 hPa 0,0 l/m² 1,6 km/h (1 Bft) O-SO 112 ° 0 min 0,000 mm 0,0 UV-I 5 W/m² 9,1 °C 20,2 °C 3,2 km/h (1 Bft) 95,65 %
05.05.2026 19:57 20,2 °C 49 % 1004,0 hPa 0,0 l/m² 4,8 km/h (1 Bft) S-SO 157 ° 0 min 0,000 mm 0,0 UV-I 5 W/m² 9,1 °C 20,2 °C 6,4 km/h (2 Bft) 95,65 %
05.05.2026 19:56 20,3 °C 49 % 1003,9 hPa 0,0 l/m² 3,2 km/h (1 Bft) S-SO 157 ° 0 min 0,000 mm 0,0 UV-I 5 W/m² 9,2 °C 20,3 °C 8,0 km/h (2 Bft) 95,65 %
05.05.2026 19:55 20,3 °C 49 % 1003,9 hPa 0,0 l/m² 4,8 km/h (1 Bft) O 90 ° 0 min 0,000 mm 0,0 UV-I 5 W/m² 9,2 °C 20,3 °C 9,7 km/h (2 Bft) 100,00 %
05.05.2026 19:54 20,3 °C 49 % 1003,9 hPa 0,0 l/m² 8,0 km/h (2 Bft) O-SO 112 ° 0 min 0,000 mm 0,0 UV-I 5 W/m² 9,2 °C 20,3 °C 12,9 km/h (3 Bft) 91,30 %
05.05.2026 19:53 20,3 °C 49 % 1003,9 hPa 0,0 l/m² 3,2 km/h (1 Bft) SO 135 ° 0 min 0,000 mm 0,0 UV-I 5 W/m² 9,2 °C 20,3 °C 6,4 km/h (2 Bft) 95,65 %
05.05.2026 19:52 20,3 °C 49 % 1003,9 hPa 0,0 l/m² 4,8 km/h (1 Bft) O-SO 112 ° 0 min 0,000 mm 0,0 UV-I 7 W/m² 9,2 °C 20,3 °C 9,7 km/h (2 Bft) 91,30 %
05.05.2026 19:51 20,3 °C 49 % 1003,9 hPa 0,0 l/m² 3,2 km/h (1 Bft) S-SO 157 ° 0 min 0,000 mm 0,0 UV-I 7 W/m² 9,2 °C 20,3 °C 6,4 km/h (2 Bft) 100,00 %
05.05.2026 19:50 20,3 °C 49 % 1003,9 hPa 0,0 l/m² 6,4 km/h (2 Bft) SO 135 ° 0 min 0,000 mm 0,0 UV-I 7 W/m² 9,2 °C 20,3 °C 12,9 km/h (3 Bft) 91,30 %
05.05.2026 19:49 20,3 °C 49 % 1003,9 hPa 0,0 l/m² 4,8 km/h (1 Bft) SO 135 ° 0 min 0,000 mm 0,0 UV-I 7 W/m² 9,2 °C 20,3 °C 6,4 km/h (2 Bft) 91,30 %
05.05.2026 19:48 20,3 °C 49 % 1003,9 hPa 0,0 l/m² 6,4 km/h (2 Bft) SO 135 ° 0 min 0,000 mm 0,0 UV-I 7 W/m² 9,2 °C 20,3 °C 8,0 km/h (2 Bft) 100,00 %
05.05.2026 19:47 20,3 °C 50 % 1003,7 hPa 0,0 l/m² 6,4 km/h (2 Bft) O-SO 112 ° 0 min 0,000 mm 0,0 UV-I 9 W/m² 9,5 °C 20,3 °C 11,3 km/h (2 Bft) 95,65 %
05.05.2026 19:46 20,4 °C 49 % 1003,7 hPa 0,0 l/m² 4,8 km/h (1 Bft) O-SO 112 ° 0 min 0,000 mm 0,0 UV-I 9 W/m² 9,3 °C 20,4 °C 9,7 km/h (2 Bft) 86,96 %
05.05.2026 19:45 20,4 °C 49 % 1003,8 hPa 0,0 l/m² 4,8 km/h (1 Bft) SO 135 ° 0 min 0,000 mm 0,0 UV-I 9 W/m² 9,3 °C 20,4 °C 6,4 km/h (2 Bft) 86,96 %
05.05.2026 19:44 20,5 °C 49 % 1003,8 hPa 0,0 l/m² 4,8 km/h (1 Bft) SO 135 ° 0 min 0,000 mm 0,0 UV-I 9 W/m² 9,4 °C 20,5 °C 9,7 km/h (2 Bft) 91,30 %
05.05.2026 19:43 20,6 °C 49 % 1003,8 hPa 0,0 l/m² 4,8 km/h (1 Bft) O-SO 112 ° 0 min 0,000 mm 0,0 UV-I 9 W/m² 9,5 °C 20,6 °C 8,0 km/h (2 Bft) 95,65 %
05.05.2026 19:42 20,6 °C 49 % 1003,7 hPa 0,0 l/m² 4,8 km/h (1 Bft) SO 135 ° 0 min 0,000 mm 0,0 UV-I 9 W/m² 9,5 °C 20,6 °C 8,0 km/h (2 Bft) 91,30 %
05.05.2026 19:41 20,6 °C 48 % 1003,8 hPa 0,0 l/m² 6,4 km/h (2 Bft) SO 135 ° 0 min 0,000 mm 0,0 UV-I 11 W/m² 9,2 °C 20,6 °C 11,3 km/h (2 Bft) 82,61 %
05.05.2026 19:40 20,7 °C 48 % 1003,7 hPa 0,0 l/m² 4,8 km/h (1 Bft) SO 135 ° 0 min 0,000 mm 0,0 UV-I 11 W/m² 9,3 °C 20,7 °C 6,4 km/h (2 Bft) 100,00 %
05.05.2026 19:39 20,7 °C 48 % 1003,8 hPa 0,0 l/m² 4,8 km/h (1 Bft) O-SO 112 ° 0 min 0,000 mm 0,0 UV-I 11 W/m² 9,3 °C 20,7 °C 6,4 km/h (2 Bft) 95,65 %
05.05.2026 19:38 20,7 °C 48 % 1003,8 hPa 0,0 l/m² 4,8 km/h (1 Bft) SO 135 ° 0 min 0,000 mm 0,0 UV-I 11 W/m² 9,3 °C 20,7 °C 6,4 km/h (2 Bft) 100,00 %
05.05.2026 19:37 20,7 °C 48 % 1003,8 hPa 0,0 l/m² 6,4 km/h (2 Bft) S-SO 157 ° 0 min 0,000 mm 0,0 UV-I 12 W/m² 9,3 °C 20,7 °C 9,7 km/h (2 Bft) 91,30 %
05.05.2026 19:36 20,8 °C 48 % 1003,9 hPa 0,0 l/m² 6,4 km/h (2 Bft) SO 135 ° 0 min 0,000 mm 0,0 UV-I 12 W/m² 9,4 °C 20,8 °C 11,3 km/h (2 Bft) 95,65 %
05.05.2026 19:35 20,8 °C 48 % 1003,9 hPa 0,0 l/m² 4,8 km/h (1 Bft) SO 135 ° 0 min 0,000 mm 0,0 UV-I 12 W/m² 9,4 °C 20,8 °C 6,4 km/h (2 Bft) 95,65 %
05.05.2026 19:34 20,9 °C 48 % 1003,9 hPa 0,0 l/m² 3,2 km/h (1 Bft) O-SO 112 ° 0 min 0,000 mm 0,0 UV-I 14 W/m² 9,5 °C 20,9 °C 6,4 km/h (2 Bft) 86,96 %
05.05.2026 19:33 20,9 °C 48 % 1003,9 hPa 0,0 l/m² 4,8 km/h (1 Bft) SO 135 ° 0 min 0,000 mm 0,0 UV-I 14 W/m² 9,5 °C 20,9 °C 6,4 km/h (2 Bft) 100,00 %
05.05.2026 19:32 20,9 °C 48 % 1003,9 hPa 0,0 l/m² 4,8 km/h (1 Bft) SO 135 ° 0 min 0,000 mm 0,0 UV-I 14 W/m² 9,5 °C 20,9 °C 9,7 km/h (2 Bft) 95,65 %
05.05.2026 19:31 21,0 °C 47 % 1003,8 hPa 0,0 l/m² 3,2 km/h (1 Bft) SO 135 ° 0 min 0,000 mm 0,0 UV-I 16 W/m² 9,3 °C 21,0 °C 6,4 km/h (2 Bft) 100,00 %
05.05.2026 19:30 21,0 °C 48 % 1003,9 hPa 0,0 l/m² 1,6 km/h (1 Bft) SO 135 ° 0 min 0,000 mm 0,0 UV-I 16 W/m² 9,6 °C 21,0 °C 3,2 km/h (1 Bft) 95,65 %
05.05.2026 19:29 21,1 °C 47 % 1003,9 hPa 0,0 l/m² 3,2 km/h (1 Bft) SO 135 ° 0 min 0,000 mm 0,0 UV-I 18 W/m² 9,3 °C 21,1 °C 4,8 km/h (1 Bft) 100,00 %
05.05.2026 19:28 21,2 °C 47 % 1003,9 hPa 0,0 l/m² 3,2 km/h (1 Bft) O-SO 112 ° 0 min 0,000 mm 0,0 UV-I 19 W/m² 9,4 °C 21,2 °C 6,4 km/h (2 Bft) 95,65 %
05.05.2026 19:27 21,2 °C 46 % 1003,9 hPa 0,0 l/m² 1,6 km/h (1 Bft) SO 135 ° 0 min 0,000 mm 0,0 UV-I 21 W/m² 9,1 °C 21,2 °C 3,2 km/h (1 Bft) 95,65 %
05.05.2026 19:26 21,2 °C 46 % 1003,9 hPa 0,0 l/m² 3,2 km/h (1 Bft) SO 135 ° 0 min 0,000 mm 0,0 UV-I 21 W/m² 9,1 °C 21,2 °C 6,4 km/h (2 Bft) 100,00 %
05.05.2026 19:25 21,2 °C 46 % 1003,9 hPa 0,0 l/m² 3,2 km/h (1 Bft) O-SO 112 ° 0 min 0,000 mm 0,0 UV-I 23 W/m² 9,1 °C 21,2 °C 4,8 km/h (1 Bft) 100,00 %
05.05.2026 19:24 21,2 °C 47 % 1003,9 hPa 0,0 l/m² 3,2 km/h (1 Bft) O-SO 112 ° 0 min 0,000 mm 0,0 UV-I 25 W/m² 9,4 °C 21,2 °C 8,0 km/h (2 Bft) 95,65 %
05.05.2026 19:23 21,3 °C 46 % 1003,9 hPa 0,0 l/m² 3,2 km/h (1 Bft) O-SO 112 ° 0 min 0,000 mm 0,0 UV-I 26 W/m² 9,2 °C 21,3 °C 6,4 km/h (2 Bft) 95,65 %
05.05.2026 19:22 21,3 °C 47 % 1003,9 hPa 0,0 l/m² 3,2 km/h (1 Bft) SO 135 ° 0 min 0,000 mm 0,0 UV-I 26 W/m² 9,5 °C 21,3 °C 8,0 km/h (2 Bft) 95,65 %
05.05.2026 19:21 21,4 °C 46 % 1003,9 hPa 0,0 l/m² 4,8 km/h (1 Bft) O-SO 112 ° 0 min 0,000 mm 0,0 UV-I 28 W/m² 9,3 °C 21,4 °C 9,7 km/h (2 Bft) 95,65 %
05.05.2026 19:20 21,4 °C 46 % 1003,8 hPa 0,0 l/m² 3,2 km/h (1 Bft) SO 135 ° 0 min 0,000 mm 0,0 UV-I 28 W/m² 9,3 °C 21,4 °C 4,8 km/h (1 Bft) 95,65 %
05.05.2026 19:19 21,3 °C 46 % 1003,8 hPa 0,0 l/m² 1,6 km/h (1 Bft) SO 135 ° 0 min 0,000 mm 0,0 UV-I 30 W/m² 9,2 °C 21,3 °C 4,8 km/h (1 Bft) 95,65 %
05.05.2026 19:18 21,4 °C 46 % 1003,9 hPa 0,0 l/m² 1,6 km/h (1 Bft) S-SO 157 ° 0 min 0,000 mm 0,0 UV-I 30 W/m² 9,3 °C 21,4 °C 3,2 km/h (1 Bft) 95,65 %
05.05.2026 19:17 21,4 °C 46 % 1003,8 hPa 0,0 l/m² 1,6 km/h (1 Bft) O 90 ° 0 min 0,000 mm 0,0 UV-I 32 W/m² 9,3 °C 21,4 °C 3,2 km/h (1 Bft) 91,30 %
05.05.2026 19:16 21,4 °C 46 % 1003,9 hPa 0,0 l/m² 0,0 km/h (0 Bft) SW 225 ° 0 min 0,000 mm 0,0 UV-I 35 W/m² 9,3 °C 21,4 °C 1,6 km/h (1 Bft) 95,65 %
05.05.2026 19:15 21,4 °C 46 % 1003,8 hPa 0,0 l/m² 0,0 km/h (0 Bft) S 180 ° 0 min 0,000 mm 0,0 UV-I 47 W/m² 9,3 °C 21,4 °C 1,6 km/h (1 Bft) 91,30 %
05.05.2026 19:14 21,4 °C 46 % 1003,9 hPa 0,0 l/m² 0,0 km/h (0 Bft) S 180 ° 0 min 0,000 mm 0,0 UV-I 40 W/m² 9,3 °C 21,4 °C 1,6 km/h (1 Bft) 91,30 %
05.05.2026 19:13 21,4 °C 46 % 1003,8 hPa 0,0 l/m² 0,0 km/h (0 Bft) S 180 ° 0 min 0,000 mm 0,0 UV-I 37 W/m² 9,3 °C 21,4 °C 3,2 km/h (1 Bft) 100,00 %
05.05.2026 19:12 21,3 °C 47 % 1003,9 hPa 0,0 l/m² 0,0 km/h (0 Bft) O 90 ° 0 min 0,000 mm 0,0 UV-I 37 W/m² 9,5 °C 21,3 °C 1,6 km/h (1 Bft) 91,30 %
05.05.2026 19:11 21,3 °C 48 % 1003,9 hPa 0,0 l/m² 1,6 km/h (1 Bft) O 90 ° 0 min 0,000 mm 0,0 UV-I 39 W/m² 9,8 °C 21,3 °C 3,2 km/h (1 Bft) 100,00 %
05.05.2026 19:10 21,3 °C 48 % 1003,8 hPa 0,0 l/m² 3,2 km/h (1 Bft) O-SO 112 ° 0 min 0,000 mm 0,0 UV-I 39 W/m² 9,8 °C 21,3 °C 4,8 km/h (1 Bft) 91,30 %
05.05.2026 19:09 21,3 °C 48 % 1003,9 hPa 0,0 l/m² 4,8 km/h (1 Bft) O-SO 112 ° 0 min 0,000 mm 0,0 UV-I 54 W/m² 9,8 °C 21,3 °C 6,4 km/h (2 Bft) 91,30 %
05.05.2026 19:08 21,2 °C 48 % 1003,8 hPa 0,0 l/m² 3,2 km/h (1 Bft) O-SO 112 ° 0 min 0,000 mm 0,0 UV-I 91 W/m² 9,7 °C 21,2 °C 4,8 km/h (1 Bft) 95,65 %
05.05.2026 19:07 21,2 °C 48 % 1003,9 hPa 0,0 l/m² 4,8 km/h (1 Bft) O 90 ° 0 min 0,000 mm 0,0 UV-I 98 W/m² 9,7 °C 21,2 °C 6,4 km/h (2 Bft) 95,65 %
05.05.2026 19:06 21,2 °C 49 % 1003,9 hPa 0,0 l/m² 4,8 km/h (1 Bft) SO 135 ° 0 min 0,000 mm 0,0 UV-I 83 W/m² 10,1 °C 21,2 °C 6,4 km/h (2 Bft) 100,00 %
05.05.2026 19:05 21,2 °C 48 % 1003,9 hPa 0,0 l/m² 4,8 km/h (1 Bft) O 90 ° 0 min 0,000 mm 0,0 UV-I 60 W/m² 9,7 °C 21,2 °C 8,0 km/h (2 Bft) 86,96 %
05.05.2026 19:04 21,3 °C 48 % 1003,9 hPa 0,0 l/m² 6,4 km/h (2 Bft) O-SO 112 ° 0 min 0,000 mm 0,0 UV-I 39 W/m² 9,8 °C 21,3 °C 11,3 km/h (2 Bft) 95,65 %
05.05.2026 19:03 21,3 °C 47 % 1003,9 hPa 0,0 l/m² 4,8 km/h (1 Bft) SO 135 ° 0 min 0,000 mm 0,0 UV-I 40 W/m² 9,5 °C 21,3 °C 6,4 km/h (2 Bft) 95,65 %
05.05.2026 19:02 21,3 °C 46 % 1003,9 hPa 0,0 l/m² 3,2 km/h (1 Bft) SO 135 ° 0 min 0,000 mm 0,0 UV-I 42 W/m² 9,2 °C 21,3 °C 6,4 km/h (2 Bft) 100,00 %
05.05.2026 19:01 21,4 °C 46 % 1003,9 hPa 0,0 l/m² 1,6 km/h (1 Bft) SO 135 ° 0 min 0,000 mm 0,0 UV-I 46 W/m² 9,3 °C 21,4 °C 3,2 km/h (1 Bft) 91,30 %
05.05.2026 19:00 21,4 °C 47 % 1003,9 hPa 0,0 l/m² 3,2 km/h (1 Bft) SO 135 ° 0 min 0,102 mm 0,0 UV-I 44 W/m² 9,6 °C 21,4 °C 4,8 km/h (1 Bft) 95,65 %
05.05.2026 18:59 21,4 °C 47 % 1003,9 hPa 0,0 l/m² 3,2 km/h (1 Bft) O-SO 112 ° 0 min 0,000 mm 0,0 UV-I 42 W/m² 9,6 °C 21,4 °C 6,4 km/h (2 Bft) 95,65 %
05.05.2026 18:58 21,6 °C 46 % 1003,9 hPa 0,0 l/m² 3,2 km/h (1 Bft) S-SO 157 ° 0 min 0,000 mm 0,0 UV-I 44 W/m² 9,5 °C 21,6 °C 6,4 km/h (2 Bft) 95,65 %
05.05.2026 18:57 21,6 °C 46 % 1003,9 hPa 0,0 l/m² 3,2 km/h (1 Bft) SO 135 ° 0 min 0,000 mm 0,0 UV-I 46 W/m² 9,5 °C 21,6 °C 8,0 km/h (2 Bft) 100,00 %
05.05.2026 18:56 21,6 °C 46 % 1004,0 hPa 0,0 l/m² 1,6 km/h (1 Bft) S-SO 157 ° 0 min 0,000 mm 0,0 UV-I 49 W/m² 9,5 °C 21,6 °C 3,2 km/h (1 Bft) 95,65 %
05.05.2026 18:55 21,7 °C 46 % 1003,9 hPa 0,0 l/m² 1,6 km/h (1 Bft) SO 135 ° 0 min 0,000 mm 0,0 UV-I 44 W/m² 9,6 °C 21,7 °C 3,2 km/h (1 Bft) 73,91 %
05.05.2026 18:54 21,7 °C 46 % 1004,0 hPa 0,0 l/m² 1,6 km/h (1 Bft) SO 135 ° 0 min 0,000 mm 0,0 UV-I 44 W/m² 9,6 °C 21,7 °C 4,8 km/h (1 Bft) 78,26 %
05.05.2026 18:53 21,7 °C 46 % 1004,0 hPa 0,0 l/m² 3,2 km/h (1 Bft) SO 135 ° 0 min 0,000 mm 0,0 UV-I 44 W/m² 9,6 °C 21,7 °C 6,4 km/h (2 Bft) 82,61 %
05.05.2026 18:52 21,7 °C 46 % 1004,1 hPa 0,0 l/m² 1,6 km/h (1 Bft) SO 135 ° 0 min 0,000 mm 0,0 UV-I 46 W/m² 9,6 °C 21,7 °C 4,8 km/h (1 Bft) 82,61 %
05.05.2026 18:51 21,8 °C 46 % 1004,0 hPa 0,0 l/m² 3,2 km/h (1 Bft) SO 135 ° 0 min 0,000 mm 0,0 UV-I 46 W/m² 9,7 °C 21,8 °C 6,4 km/h (2 Bft) 95,65 %
05.05.2026 18:50 21,8 °C 45 % 1003,9 hPa 0,0 l/m² 1,6 km/h (1 Bft) S-SO 157 ° 0 min 0,000 mm 0,0 UV-I 46 W/m² 9,3 °C 21,8 °C 3,2 km/h (1 Bft) 73,91 %
05.05.2026 18:49 21,8 °C 46 % 1004,0 hPa 0,0 l/m² 1,6 km/h (1 Bft) S-SO 157 ° 0 min 0,000 mm 0,0 UV-I 47 W/m² 9,7 °C 21,8 °C 4,8 km/h (1 Bft) 95,65 %
05.05.2026 18:48 21,8 °C 46 % 1004,1 hPa 0,0 l/m² 1,6 km/h (1 Bft) S 180 ° 0 min 0,000 mm 0,0 UV-I 47 W/m² 9,7 °C 21,8 °C 3,2 km/h (1 Bft) 100,00 %
05.05.2026 18:47 21,8 °C 45 % 1004,1 hPa 0,0 l/m² 1,6 km/h (1 Bft) SO 135 ° 0 min 0,000 mm 0,0 UV-I 47 W/m² 9,3 °C 21,8 °C 4,8 km/h (1 Bft) 86,96 %
05.05.2026 18:46 21,8 °C 45 % 1004,1 hPa 0,0 l/m² 1,6 km/h (1 Bft) O 90 ° 0 min 0,000 mm 0,0 UV-I 49 W/m² 9,3 °C 21,8 °C 4,8 km/h (1 Bft) 95,65 %
05.05.2026 18:45 21,9 °C 46 % 1004,1 hPa 0,0 l/m² 3,2 km/h (1 Bft) O 90 ° 0 min 0,000 mm 0,0 UV-I 49 W/m² 9,7 °C 21,9 °C 6,4 km/h (2 Bft) 91,30 %
05.05.2026 18:44 22,0 °C 45 % 1004,2 hPa 0,0 l/m² 1,6 km/h (1 Bft) SO 135 ° 0 min 0,000 mm 0,0 UV-I 49 W/m² 9,5 °C 22,0 °C 3,2 km/h (1 Bft) 95,65 %
05.05.2026 18:43 22,1 °C 45 % 1004,1 hPa 0,0 l/m² 1,6 km/h (1 Bft) S 180 ° 0 min 0,000 mm 0,0 UV-I 49 W/m² 9,6 °C 22,1 °C 4,8 km/h (1 Bft) 91,30 %
05.05.2026 18:42 22,1 °C 45 % 1004,1 hPa 0,0 l/m² 4,8 km/h (1 Bft) O-SO 112 ° 0 min 0,000 mm 0,0 UV-I 51 W/m² 9,6 °C 22,1 °C 9,7 km/h (2 Bft) 95,65 %
05.05.2026 18:41 22,1 °C 45 % 1004,1 hPa 0,0 l/m² 4,8 km/h (1 Bft) S 180 ° 0 min 0,000 mm 0,0 UV-I 51 W/m² 9,6 °C 22,1 °C 9,7 km/h (2 Bft) 95,65 %
05.05.2026 18:40 22,2 °C 45 % 1004,1 hPa 0,0 l/m² 1,6 km/h (1 Bft) S-SW 202 ° 0 min 0,000 mm 0,0 UV-I 51 W/m² 9,7 °C 22,2 °C 4,8 km/h (1 Bft) 91,30 %
05.05.2026 18:39 22,2 °C 46 % 1004,1 hPa 0,0 l/m² 0,0 km/h (0 Bft) O-NO 67 ° 0 min 0,000 mm 0,0 UV-I 54 W/m² 10,0 °C 22,2 °C 1,6 km/h (1 Bft) 100,00 %
05.05.2026 18:38 22,2 °C 46 % 1004,1 hPa 0,0 l/m² 1,6 km/h (1 Bft) S 180 ° 0 min 0,000 mm 0,0 UV-I 58 W/m² 10,0 °C 22,2 °C 3,2 km/h (1 Bft) 86,96 %
05.05.2026 18:37 22,3 °C 47 % 1004,1 hPa 0,0 l/m² 3,2 km/h (1 Bft) SO 135 ° 0 min 0,000 mm 0,0 UV-I 54 W/m² 10,4 °C 22,3 °C 4,8 km/h (1 Bft) 91,30 %
05.05.2026 18:36 22,4 °C 45 % 1004,1 hPa 0,0 l/m² 3,2 km/h (1 Bft) S-SW 202 ° 0 min 0,000 mm 0,0 UV-I 54 W/m² 9,9 °C 22,4 °C 3,2 km/h (1 Bft) 78,26 %
05.05.2026 18:35 22,4 °C 44 % 1004,0 hPa 0,0 l/m² 1,6 km/h (1 Bft) S 180 ° 0 min 0,000 mm 0,0 UV-I 56 W/m² 9,5 °C 22,4 °C 4,8 km/h (1 Bft) 86,96 %
05.05.2026 18:34 22,5 °C 45 % 1004,1 hPa 0,0 l/m² 1,6 km/h (1 Bft) S 180 ° 0 min 0,000 mm 0,0 UV-I 54 W/m² 10,0 °C 22,5 °C 3,2 km/h (1 Bft) 91,30 %
05.05.2026 18:33 22,5 °C 45 % 1004,1 hPa 0,0 l/m² 1,6 km/h (1 Bft) S 180 ° 0 min 0,000 mm 0,0 UV-I 54 W/m² 10,0 °C 22,5 °C 3,2 km/h (1 Bft) 95,65 %
05.05.2026 18:32 22,6 °C 44 % 1004,1 hPa 0,0 l/m² 1,6 km/h (1 Bft) S-SW 202 ° 0 min 0,000 mm 0,0 UV-I 54 W/m² 9,7 °C 22,6 °C 1,6 km/h (1 Bft) 91,30 %
05.05.2026 18:31 22,7 °C 46 % 1004,2 hPa 0,0 l/m² 1,6 km/h (1 Bft) S 180 ° 0 min 0,000 mm 0,0 UV-I 54 W/m² 10,5 °C 22,7 °C 3,2 km/h (1 Bft) 91,30 %
05.05.2026 18:30 22,7 °C 44 % 1004,1 hPa 0,0 l/m² 1,6 km/h (1 Bft) S-SO 157 ° 0 min 0,000 mm 0,0 UV-I 58 W/m² 9,8 °C 22,7 °C 3,2 km/h (1 Bft) 95,65 %
05.05.2026 18:29 22,8 °C 44 % 1004,2 hPa 0,0 l/m² 1,6 km/h (1 Bft) SO 135 ° 0 min 0,000 mm 0,0 UV-I 60 W/m² 9,9 °C 22,8 °C 4,8 km/h (1 Bft) 95,65 %
05.05.2026 18:28 22,9 °C 45 % 1004,2 hPa 0,0 l/m² 1,6 km/h (1 Bft) S-SO 157 ° 0 min 0,000 mm 0,0 UV-I 62 W/m² 10,3 °C 22,9 °C 3,2 km/h (1 Bft) 100,00 %
05.05.2026 18:27 23,0 °C 44 % 1004,1 hPa 0,0 l/m² 1,6 km/h (1 Bft) S-SO 157 ° 0 min 0,000 mm 0,0 UV-I 69 W/m² 10,1 °C 23,0 °C 3,2 km/h (1 Bft) 86,96 %
05.05.2026 18:26 23,1 °C 44 % 1004,2 hPa 0,0 l/m² 3,2 km/h (1 Bft) S-SO 157 ° 0 min 0,000 mm 0,0 UV-I 100 W/m² 10,2 °C 23,1 °C 4,8 km/h (1 Bft) 91,30 %
05.05.2026 18:25 23,2 °C 43 % 1004,2 hPa 0,0 l/m² 3,2 km/h (1 Bft) S-SO 157 ° 0 min 0,000 mm 0,0 UV-I 118 W/m² 9,9 °C 23,2 °C 6,4 km/h (2 Bft) 78,26 %
05.05.2026 18:24 23,2 °C 43 % 1004,1 hPa 0,0 l/m² 1,6 km/h (1 Bft) S-SO 157 ° 0 min 0,000 mm 0,5 UV-I 118 W/m² 9,9 °C 23,2 °C 4,8 km/h (1 Bft) 91,30 %
05.05.2026 18:23 23,3 °C 42 % 1004,2 hPa 0,0 l/m² 1,6 km/h (1 Bft) SW 225 ° 1 min 0,000 mm 0,5 UV-I 171 W/m² 9,7 °C 23,3 °C 3,2 km/h (1 Bft) 82,61 %
05.05.2026 18:22 23,4 °C 43 % 1004,2 hPa 0,0 l/m² 1,6 km/h (1 Bft) SO 135 ° 0 min 0,000 mm 0,5 UV-I 142 W/m² 10,1 °C 23,4 °C 3,2 km/h (1 Bft) 86,96 %
05.05.2026 18:21 23,5 °C 42 % 1004,3 hPa 0,0 l/m² 1,6 km/h (1 Bft) S-SO 157 ° 0 min 0,000 mm 0,5 UV-I 134 W/m² 9,8 °C 23,5 °C 3,2 km/h (1 Bft) 95,65 %
05.05.2026 18:20 23,6 °C 41 % 1004,2 hPa 0,0 l/m² 3,2 km/h (1 Bft) S-SO 157 ° 0 min 0,000 mm 0,5 UV-I 111 W/m² 9,6 °C 23,6 °C 6,4 km/h (2 Bft) 91,30 %
05.05.2026 18:19 23,7 °C 42 % 1004,2 hPa 0,0 l/m² 3,2 km/h (1 Bft) S-SO 157 ° 0 min 0,000 mm 0,5 UV-I 128 W/m² 10,0 °C 23,7 °C 6,4 km/h (2 Bft) 91,30 %
05.05.2026 18:18 23,7 °C 42 % 1004,3 hPa 0,0 l/m² 3,2 km/h (1 Bft) S 180 ° 0 min 0,000 mm 0,6 UV-I 128 W/m² 10,0 °C 23,7 °C 8,0 km/h (2 Bft) 95,65 %
05.05.2026 18:17 23,7 °C 42 % 1004,3 hPa 0,0 l/m² 4,8 km/h (1 Bft) S 180 ° 1 min 0,000 mm 0,6 UV-I 206 W/m² 10,0 °C 23,7 °C 8,0 km/h (2 Bft) 95,65 %
05.05.2026 18:16 23,8 °C 43 % 1004,3 hPa 0,0 l/m² 6,4 km/h (2 Bft) S-SO 157 ° 1 min 0,000 mm 0,6 UV-I 206 W/m² 10,5 °C 23,8 °C 11,3 km/h (2 Bft) 86,96 %
05.05.2026 18:15 23,8 °C 42 % 1004,3 hPa 0,0 l/m² 4,8 km/h (1 Bft) SO 135 ° 1 min 0,000 mm 0,6 UV-I 195 W/m² 10,1 °C 23,8 °C 8,0 km/h (2 Bft) 91,30 %
05.05.2026 18:14 23,9 °C 42 % 1004,4 hPa 0,0 l/m² 3,2 km/h (1 Bft) SO 135 ° 1 min 0,000 mm 0,7 UV-I 211 W/m² 10,2 °C 23,9 °C 4,8 km/h (1 Bft) 91,30 %
05.05.2026 18:13 23,9 °C 42 % 1004,4 hPa 0,0 l/m² 4,8 km/h (1 Bft) SO 135 ° 1 min 0,000 mm 0,7 UV-I 206 W/m² 10,2 °C 23,9 °C 6,4 km/h (2 Bft) 91,30 %
05.05.2026 18:12 23,9 °C 42 % 1004,3 hPa 0,0 l/m² 3,2 km/h (1 Bft) SO 135 ° 1 min 0,000 mm 0,7 UV-I 271 W/m² 10,2 °C 23,9 °C 4,8 km/h (1 Bft) 91,30 %
05.05.2026 18:11 23,9 °C 43 % 1004,3 hPa 0,0 l/m² 3,2 km/h (1 Bft) S-SO 157 ° 1 min 0,000 mm 0,7 UV-I 295 W/m² 10,5 °C 23,9 °C 4,8 km/h (1 Bft) 91,30 %
05.05.2026 18:10 23,9 °C 43 % 1004,4 hPa 0,0 l/m² 1,6 km/h (1 Bft) S-SO 157 ° 1 min 0,000 mm 0,8 UV-I 315 W/m² 10,5 °C 23,9 °C 4,8 km/h (1 Bft) 86,96 %
05.05.2026 18:09 23,8 °C 42 % 1004,3 hPa 0,0 l/m² 1,6 km/h (1 Bft) S-SO 157 ° 1 min 0,000 mm 0,8 UV-I 322 W/m² 10,1 °C 23,8 °C 4,8 km/h (1 Bft) 91,30 %
05.05.2026 18:08 23,8 °C 43 % 1004,4 hPa 0,0 l/m² 1,6 km/h (1 Bft) S-SO 157 ° 1 min 0,000 mm 0,8 UV-I 322 W/m² 10,5 °C 23,8 °C 4,8 km/h (1 Bft) 100,00 %
05.05.2026 18:07 23,7 °C 42 % 1004,4 hPa 0,0 l/m² 3,2 km/h (1 Bft) S-SO 157 ° 1 min 0,000 mm 0,8 UV-I 325 W/m² 10,0 °C 23,7 °C 6,4 km/h (2 Bft) 91,30 %
05.05.2026 18:06 23,8 °C 41 % 1004,3 hPa 0,0 l/m² 1,6 km/h (1 Bft) SW 225 ° 1 min 0,000 mm 0,8 UV-I 329 W/m² 9,7 °C 23,8 °C 4,8 km/h (1 Bft) 86,96 %
05.05.2026 18:05 23,9 °C 42 % 1004,4 hPa 0,0 l/m² 1,6 km/h (1 Bft) W-SW 247 ° 1 min 0,000 mm 0,8 UV-I 336 W/m² 10,2 °C 23,9 °C 4,8 km/h (1 Bft) 91,30 %
05.05.2026 18:04 23,9 °C 42 % 1004,3 hPa 0,0 l/m² 3,2 km/h (1 Bft) SW 225 ° 1 min 0,000 mm 0,9 UV-I 339 W/m² 10,2 °C 23,9 °C 6,4 km/h (2 Bft) 95,65 %
05.05.2026 18:03 23,9 °C 40 % 1004,4 hPa 0,0 l/m² 1,6 km/h (1 Bft) S-SW 202 ° 1 min 0,000 mm 0,9 UV-I 343 W/m² 9,5 °C 23,9 °C 4,8 km/h (1 Bft) 95,65 %
05.05.2026 18:02 24,0 °C 41 % 1004,4 hPa 0,0 l/m² 4,8 km/h (1 Bft) SW 225 ° 1 min 0,000 mm 0,9 UV-I 345 W/m² 9,9 °C 24,0 °C 8,0 km/h (2 Bft) 95,65 %
05.05.2026 18:01 24,1 °C 41 % 1004,3 hPa 0,0 l/m² 4,8 km/h (1 Bft) O 90 ° 1 min 0,000 mm 0,9 UV-I 348 W/m² 10,0 °C 24,1 °C 12,9 km/h (3 Bft) 95,65 %
05.05.2026 18:00 24,1 °C 41 % 1004,4 hPa 0,0 l/m² 3,2 km/h (1 Bft) SW 225 ° 1 min 0,279 mm 0,9 UV-I 362 W/m² 10,0 °C 24,1 °C 4,8 km/h (1 Bft) 82,61 %
05.05.2026 17:59 24,1 °C 41 % 1004,3 hPa 0,0 l/m² 3,2 km/h (1 Bft) S-SW 202 ° 1 min 0,000 mm 0,9 UV-I 362 W/m² 10,0 °C 24,1 °C 6,4 km/h (2 Bft) 95,65 %
05.05.2026 17:58 24,1 °C 41 % 1004,3 hPa 0,0 l/m² 3,2 km/h (1 Bft) S-SW 202 ° 1 min 0,000 mm 1,0 UV-I 359 W/m² 10,0 °C 24,1 °C 4,8 km/h (1 Bft) 100,00 %
05.05.2026 17:57 24,1 °C 41 % 1004,4 hPa 0,0 l/m² 4,8 km/h (1 Bft) S-SO 157 ° 1 min 0,000 mm 1,0 UV-I 355 W/m² 10,0 °C 24,1 °C 6,4 km/h (2 Bft) 91,30 %
05.05.2026 17:56 24,1 °C 42 % 1004,3 hPa 0,0 l/m² 4,8 km/h (1 Bft) S-SO 157 ° 1 min 0,000 mm 1,0 UV-I 367 W/m² 10,4 °C 24,1 °C 6,4 km/h (2 Bft) 91,30 %
05.05.2026 17:55 24,2 °C 42 % 1004,3 hPa 0,0 l/m² 1,6 km/h (1 Bft) S-SO 157 ° 1 min 0,000 mm 1,0 UV-I 369 W/m² 10,5 °C 24,2 °C 4,8 km/h (1 Bft) 100,00 %
05.05.2026 17:54 24,0 °C 42 % 1004,3 hPa 0,0 l/m² 1,6 km/h (1 Bft) S-SO 157 ° 1 min 0,000 mm 1,0 UV-I 387 W/m² 10,3 °C 24,0 °C 6,4 km/h (2 Bft) 95,65 %
05.05.2026 17:53 23,9 °C 43 % 1004,3 hPa 0,0 l/m² 1,6 km/h (1 Bft) S-SO 157 ° 1 min 0,000 mm 1,0 UV-I 383 W/m² 10,5 °C 23,9 °C 8,0 km/h (2 Bft) 100,00 %
05.05.2026 17:52 23,9 °C 41 % 1004,3 hPa 0,0 l/m² 0,0 km/h (0 Bft) W-SW 247 ° 1 min 0,000 mm 1,0 UV-I 388 W/m² 9,8 °C 23,9 °C 1,6 km/h (1 Bft) 95,65 %
05.05.2026 17:51 23,8 °C 41 % 1004,3 hPa 0,0 l/m² 0,0 km/h (0 Bft) S 180 ° 1 min 0,000 mm 1,0 UV-I 383 W/m² 9,7 °C 23,8 °C 1,6 km/h (1 Bft) 100,00 %
05.05.2026 17:50 23,7 °C 43 % 1004,3 hPa 0,0 l/m² 1,6 km/h (1 Bft) S-SW 202 ° 1 min 0,000 mm 1,0 UV-I 369 W/m² 10,4 °C 23,7 °C 3,2 km/h (1 Bft) 95,65 %
05.05.2026 17:49 23,7 °C 43 % 1004,4 hPa 0,0 l/m² 0,0 km/h (0 Bft) O 90 ° 1 min 0,000 mm 1,0 UV-I 360 W/m² 10,4 °C 23,7 °C 3,2 km/h (1 Bft) 95,65 %
05.05.2026 17:48 23,7 °C 43 % 1004,4 hPa 0,0 l/m² 1,6 km/h (1 Bft) SO 135 ° 1 min 0,000 mm 1,0 UV-I 359 W/m² 10,4 °C 23,7 °C 3,2 km/h (1 Bft) 100,00 %
05.05.2026 17:47 23,7 °C 44 % 1004,3 hPa 0,0 l/m² 1,6 km/h (1 Bft) SO 135 ° 1 min 0,000 mm 1,0 UV-I 364 W/m² 10,7 °C 23,7 °C 3,2 km/h (1 Bft) 100,00 %
05.05.2026 17:46 23,7 °C 42 % 1004,4 hPa 0,0 l/m² 1,6 km/h (1 Bft) W-SW 247 ° 1 min 0,000 mm 1,1 UV-I 359 W/m² 10,0 °C 23,7 °C 3,2 km/h (1 Bft) 95,65 %
05.05.2026 17:45 23,7 °C 45 % 1004,4 hPa 0,0 l/m² 1,6 km/h (1 Bft) W-NW 292 ° 1 min 0,000 mm 1,0 UV-I 341 W/m² 11,1 °C 23,7 °C 3,2 km/h (1 Bft) 95,65 %
05.05.2026 17:44 23,7 °C 42 % 1004,4 hPa 0,0 l/m² 1,6 km/h (1 Bft) SO 135 ° 1 min 0,000 mm 1,0 UV-I 343 W/m² 10,0 °C 23,7 °C 4,8 km/h (1 Bft) 100,00 %
05.05.2026 17:43 23,7 °C 43 % 1004,3 hPa 0,0 l/m² 1,6 km/h (1 Bft) SO 135 ° 1 min 0,000 mm 1,0 UV-I 343 W/m² 10,4 °C 23,7 °C 3,2 km/h (1 Bft) 95,65 %
05.05.2026 17:42 23,5 °C 41 % 1004,5 hPa 0,0 l/m² 0,0 km/h (0 Bft) O 90 ° 1 min 0,000 mm 1,0 UV-I 295 W/m² 9,5 °C 23,5 °C 1,6 km/h (1 Bft) 95,65 %
05.05.2026 17:41 23,5 °C 41 % 1004,5 hPa 0,0 l/m² 0,0 km/h (0 Bft) O-NO 67 ° 1 min 0,000 mm 1,1 UV-I 329 W/m² 9,5 °C 23,5 °C 1,6 km/h (1 Bft) 95,65 %
05.05.2026 17:40 23,5 °C 40 % 1004,5 hPa 0,0 l/m² 1,6 km/h (1 Bft) SO 135 ° 1 min 0,000 mm 1,1 UV-I 338 W/m² 9,1 °C 23,5 °C 3,2 km/h (1 Bft) 95,65 %
05.05.2026 17:39 23,6 °C 39 % 1004,4 hPa 0,0 l/m² 3,2 km/h (1 Bft) SO 135 ° 1 min 0,000 mm 1,1 UV-I 364 W/m² 8,8 °C 23,6 °C 4,8 km/h (1 Bft) 95,65 %
05.05.2026 17:38 23,7 °C 40 % 1004,5 hPa 0,0 l/m² 1,6 km/h (1 Bft) S-SO 157 ° 1 min 0,000 mm 1,1 UV-I 397 W/m² 9,3 °C 23,7 °C 3,2 km/h (1 Bft) 91,30 %
05.05.2026 17:37 23,7 °C 40 % 1004,5 hPa 0,0 l/m² 3,2 km/h (1 Bft) SO 135 ° 1 min 0,000 mm 1,2 UV-I 404 W/m² 9,3 °C 23,7 °C 4,8 km/h (1 Bft) 100,00 %
05.05.2026 17:36 23,7 °C 41 % 1004,5 hPa 0,0 l/m² 6,4 km/h (2 Bft) SO 135 ° 1 min 0,000 mm 1,2 UV-I 396 W/m² 9,7 °C 23,7 °C 11,3 km/h (2 Bft) 86,96 %
05.05.2026 17:35 23,6 °C 42 % 1004,5 hPa 0,0 l/m² 8,0 km/h (2 Bft) O-SO 112 ° 1 min 0,000 mm 1,1 UV-I 380 W/m² 9,9 °C 23,6 °C 12,9 km/h (3 Bft) 95,65 %
05.05.2026 17:34 23,6 °C 43 % 1004,5 hPa 0,0 l/m² 6,4 km/h (2 Bft) SO 135 ° 1 min 0,000 mm 1,1 UV-I 357 W/m² 10,3 °C 23,6 °C 11,3 km/h (2 Bft) 91,30 %
05.05.2026 17:33 23,5 °C 41 % 1004,5 hPa 0,0 l/m² 1,6 km/h (1 Bft) S 180 ° 1 min 0,000 mm 1,1 UV-I 334 W/m² 9,5 °C 23,5 °C 4,8 km/h (1 Bft) 100,00 %
05.05.2026 17:32 23,4 °C 41 % 1004,5 hPa 0,0 l/m² 3,2 km/h (1 Bft) S-SO 157 ° 1 min 0,000 mm 1,1 UV-I 332 W/m² 9,4 °C 23,4 °C 6,4 km/h (2 Bft) 95,65 %
05.05.2026 17:31 23,5 °C 42 % 1004,5 hPa 0,0 l/m² 8,0 km/h (2 Bft) SO 135 ° 1 min 0,000 mm 1,0 UV-I 346 W/m² 9,8 °C 23,5 °C 11,3 km/h (2 Bft) 100,00 %
05.05.2026 17:30 23,4 °C 42 % 1004,5 hPa 0,0 l/m² 6,4 km/h (2 Bft) SO 135 ° 1 min 0,000 mm 1,0 UV-I 232 W/m² 9,7 °C 23,4 °C 11,3 km/h (2 Bft) 95,65 %
05.05.2026 17:29 23,4 °C 42 % 1004,5 hPa 0,0 l/m² 3,2 km/h (1 Bft) S-SO 157 ° 1 min 0,000 mm 1,0 UV-I 241 W/m² 9,7 °C 23,4 °C 8,0 km/h (2 Bft) 100,00 %
05.05.2026 17:28 23,4 °C 43 % 1004,5 hPa 0,0 l/m² 1,6 km/h (1 Bft) W 270 ° 1 min 0,000 mm 1,1 UV-I 334 W/m² 10,1 °C 23,4 °C 4,8 km/h (1 Bft) 91,30 %
05.05.2026 17:27 23,5 °C 41 % 1004,5 hPa 0,0 l/m² 3,2 km/h (1 Bft) S-SW 202 ° 1 min 0,000 mm 1,2 UV-I 350 W/m² 9,5 °C 23,5 °C 3,2 km/h (1 Bft) 100,00 %
05.05.2026 17:26 23,6 °C 40 % 1004,5 hPa 0,0 l/m² 1,6 km/h (1 Bft) SW 225 ° 1 min 0,000 mm 1,2 UV-I 345 W/m² 9,2 °C 23,6 °C 4,8 km/h (1 Bft) 100,00 %
05.05.2026 17:25 23,7 °C 40 % 1004,5 hPa 0,0 l/m² 0,0 km/h (0 Bft) S-SW 202 ° 1 min 0,000 mm 1,1 UV-I 320 W/m² 9,3 °C 23,7 °C 1,6 km/h (1 Bft) 95,65 %
05.05.2026 17:24 23,8 °C 41 % 1004,6 hPa 0,0 l/m² 0,0 km/h (0 Bft) W 270 ° 1 min 0,000 mm 1,2 UV-I 360 W/m² 9,7 °C 23,8 °C 1,6 km/h (1 Bft) 100,00 %
05.05.2026 17:23 23,8 °C 40 % 1004,7 hPa 0,0 l/m² 1,6 km/h (1 Bft) SW 225 ° 1 min 0,000 mm 1,2 UV-I 332 W/m² 9,4 °C 23,8 °C 4,8 km/h (1 Bft) 100,00 %
05.05.2026 17:22 23,8 °C 42 % 1004,6 hPa 0,0 l/m² 3,2 km/h (1 Bft) SW 225 ° 1 min 0,000 mm 1,1 UV-I 308 W/m² 10,1 °C 23,8 °C 8,0 km/h (2 Bft) 95,65 %
05.05.2026 17:21 23,9 °C 40 % 1004,6 hPa 0,0 l/m² 1,6 km/h (1 Bft) S-SO 157 ° 1 min 0,000 mm 1,2 UV-I 287 W/m² 9,5 °C 23,9 °C 3,2 km/h (1 Bft) 95,65 %
05.05.2026 17:20 23,9 °C 41 % 1004,6 hPa 0,0 l/m² 1,6 km/h (1 Bft) S-SO 157 ° 1 min 0,000 mm 1,2 UV-I 302 W/m² 9,8 °C 23,9 °C 3,2 km/h (1 Bft) 91,30 %
05.05.2026 17:19 23,9 °C 39 % 1004,6 hPa 0,0 l/m² 3,2 km/h (1 Bft) O-SO 112 ° 1 min 0,000 mm 1,3 UV-I 360 W/m² 9,1 °C 23,9 °C 6,4 km/h (2 Bft) 100,00 %
05.05.2026 17:18 23,9 °C 39 % 1004,6 hPa 0,0 l/m² 3,2 km/h (1 Bft) S-SO 157 ° 1 min 0,000 mm 1,3 UV-I 387 W/m² 9,1 °C 23,9 °C 6,4 km/h (2 Bft) 100,00 %
05.05.2026 17:17 23,9 °C 40 % 1004,6 hPa 0,0 l/m² 4,8 km/h (1 Bft) S-SO 157 ° 1 min 0,000 mm 1,3 UV-I 396 W/m² 9,5 °C 23,9 °C 9,7 km/h (2 Bft) 95,65 %
05.05.2026 17:16 23,9 °C 40 % 1004,6 hPa 0,0 l/m² 4,8 km/h (1 Bft) S-SO 157 ° 1 min 0,000 mm 1,3 UV-I 396 W/m² 9,5 °C 23,9 °C 8,0 km/h (2 Bft) 95,65 %
05.05.2026 17:15 23,8 °C 40 % 1004,7 hPa 0,0 l/m² 6,4 km/h (2 Bft) O-SO 112 ° 1 min 0,000 mm 1,4 UV-I 413 W/m² 9,4 °C 23,8 °C 9,7 km/h (2 Bft) 100,00 %
05.05.2026 17:14 23,8 °C 39 % 1004,6 hPa 0,0 l/m² 9,7 km/h (2 Bft) S 180 ° 1 min 0,000 mm 1,4 UV-I 403 W/m² 9,0 °C 23,8 °C 14,5 km/h (3 Bft) 95,65 %
05.05.2026 17:13 23,9 °C 39 % 1004,7 hPa 0,0 l/m² 3,2 km/h (1 Bft) S-SO 157 ° 1 min 0,000 mm 1,4 UV-I 413 W/m² 9,1 °C 23,9 °C 8,0 km/h (2 Bft) 95,65 %
05.05.2026 17:12 24,0 °C 39 % 1004,7 hPa 0,0 l/m² 1,6 km/h (1 Bft) O-SO 112 ° 1 min 0,000 mm 1,4 UV-I 427 W/m² 9,2 °C 24,0 °C 3,2 km/h (1 Bft) 100,00 %
05.05.2026 17:11 24,1 °C 39 % 1004,7 hPa 0,0 l/m² 1,6 km/h (1 Bft) S 180 ° 1 min 0,000 mm 1,5 UV-I 445 W/m² 9,3 °C 24,1 °C 3,2 km/h (1 Bft) 95,65 %
05.05.2026 17:10 24,1 °C 40 % 1004,8 hPa 0,0 l/m² 4,8 km/h (1 Bft) S-SO 157 ° 1 min 0,000 mm 1,5 UV-I 468 W/m² 9,6 °C 24,1 °C 6,4 km/h (2 Bft) 100,00 %
05.05.2026 17:09 24,0 °C 40 % 1004,6 hPa 0,0 l/m² 6,4 km/h (2 Bft) S 180 ° 1 min 0,000 mm 1,6 UV-I 494 W/m² 9,6 °C 24,0 °C 8,0 km/h (2 Bft) 91,30 %
05.05.2026 17:08 23,8 °C 40 % 1004,7 hPa 0,0 l/m² 4,8 km/h (1 Bft) S-SO 157 ° 1 min 0,000 mm 1,5 UV-I 485 W/m² 9,4 °C 23,8 °C 9,7 km/h (2 Bft) 95,65 %
05.05.2026 17:07 23,7 °C 40 % 1004,6 hPa 0,0 l/m² 6,4 km/h (2 Bft) O-SO 112 ° 1 min 0,000 mm 1,5 UV-I 457 W/m² 9,3 °C 23,7 °C 12,9 km/h (3 Bft) 95,65 %
05.05.2026 17:06 23,6 °C 40 % 1004,7 hPa 0,0 l/m² 6,4 km/h (2 Bft) SO 135 ° 1 min 0,000 mm 1,6 UV-I 469 W/m² 9,2 °C 23,6 °C 11,3 km/h (2 Bft) 95,65 %
05.05.2026 17:05 23,4 °C 41 % 1004,7 hPa 0,0 l/m² 3,2 km/h (1 Bft) SW 225 ° 1 min 0,000 mm 1,6 UV-I 482 W/m² 9,4 °C 23,4 °C 6,4 km/h (2 Bft) 95,65 %
05.05.2026 17:04 23,4 °C 39 % 1004,7 hPa 0,0 l/m² 1,6 km/h (1 Bft) N-NO 22 ° 1 min 0,000 mm 1,6 UV-I 483 W/m² 8,6 °C 23,4 °C 4,8 km/h (1 Bft) 95,65 %
05.05.2026 17:03 23,5 °C 40 % 1004,8 hPa 0,0 l/m² 4,8 km/h (1 Bft) W 270 ° 1 min 0,000 mm 1,6 UV-I 482 W/m² 9,1 °C 23,5 °C 9,7 km/h (2 Bft) 91,30 %
05.05.2026 17:02 23,6 °C 39 % 1004,8 hPa 0,0 l/m² 6,4 km/h (2 Bft) W-SW 247 ° 1 min 0,000 mm 1,6 UV-I 478 W/m² 8,8 °C 23,6 °C 11,3 km/h (2 Bft) 91,30 %
05.05.2026 17:01 23,7 °C 38 % 1004,8 hPa 0,0 l/m² 3,2 km/h (1 Bft) NW 315 ° 1 min 0,000 mm 1,7 UV-I 501 W/m² 8,5 °C 23,7 °C 4,8 km/h (1 Bft) 95,65 %
05.05.2026 17:00 23,8 °C 39 % 1004,8 hPa 0,0 l/m² 3,2 km/h (1 Bft) W-SW 247 ° 1 min 0,330 mm 1,7 UV-I 508 W/m² 9,0 °C 23,8 °C 6,4 km/h (2 Bft) 95,65 %
05.05.2026 16:59 23,8 °C 40 % 1004,8 hPa 0,0 l/m² 6,4 km/h (2 Bft) W 270 ° 1 min 0,000 mm 1,8 UV-I 547 W/m² 9,4 °C 23,8 °C 11,3 km/h (2 Bft) 100,00 %
05.05.2026 16:58 23,9 °C 41 % 1004,8 hPa 0,0 l/m² 9,7 km/h (2 Bft) W 270 ° 1 min 0,000 mm 1,8 UV-I 552 W/m² 9,8 °C 23,9 °C 12,9 km/h (3 Bft) 95,65 %
05.05.2026 16:57 23,9 °C 40 % 1004,8 hPa 0,0 l/m² 1,6 km/h (1 Bft) O 90 ° 1 min 0,000 mm 1,8 UV-I 557 W/m² 9,5 °C 23,9 °C 4,8 km/h (1 Bft) 95,65 %
05.05.2026 16:56 24,0 °C 38 % 1004,9 hPa 0,0 l/m² 1,6 km/h (1 Bft) W 270 ° 1 min 0,000 mm 1,8 UV-I 552 W/m² 8,8 °C 24,0 °C 3,2 km/h (1 Bft) 95,65 %
05.05.2026 16:55 24,1 °C 39 % 1004,8 hPa 0,0 l/m² 3,2 km/h (1 Bft) SW 225 ° 1 min 0,000 mm 1,9 UV-I 566 W/m² 9,3 °C 24,1 °C 4,8 km/h (1 Bft) 95,65 %
05.05.2026 16:54 24,1 °C 39 % 1004,8 hPa 0,0 l/m² 3,2 km/h (1 Bft) S 180 ° 1 min 0,000 mm 1,9 UV-I 571 W/m² 9,3 °C 24,1 °C 8,0 km/h (2 Bft) 95,65 %
05.05.2026 16:53 24,1 °C 41 % 1004,9 hPa 0,0 l/m² 3,2 km/h (1 Bft) SW 225 ° 1 min 0,000 mm 1,9 UV-I 557 W/m² 10,0 °C 24,1 °C 8,0 km/h (2 Bft) 91,30 %
05.05.2026 16:52 23,9 °C 39 % 1004,8 hPa 0,0 l/m² 6,4 km/h (2 Bft) S-SO 157 ° 1 min 0,000 mm 2,0 UV-I 577 W/m² 9,1 °C 23,9 °C 9,7 km/h (2 Bft) 100,00 %
05.05.2026 16:51 23,9 °C 41 % 1004,9 hPa 0,0 l/m² 0,0 km/h (0 Bft) SO 135 ° 1 min 0,000 mm 2,0 UV-I 615 W/m² 9,8 °C 23,9 °C 1,6 km/h (1 Bft) 100,00 %
05.05.2026 16:50 23,9 °C 41 % 1004,8 hPa 0,0 l/m² 1,6 km/h (1 Bft) S-SW 202 ° 1 min 0,000 mm 2,0 UV-I 617 W/m² 9,8 °C 23,9 °C 4,8 km/h (1 Bft) 91,30 %
05.05.2026 16:49 23,7 °C 39 % 1004,9 hPa 0,0 l/m² 1,6 km/h (1 Bft) SO 135 ° 1 min 0,000 mm 2,1 UV-I 647 W/m² 8,9 °C 23,7 °C 3,2 km/h (1 Bft) 100,00 %
05.05.2026 16:48 23,7 °C 40 % 1004,9 hPa 0,0 l/m² 6,4 km/h (2 Bft) SO 135 ° 1 min 0,000 mm 2,0 UV-I 422 W/m² 9,3 °C 23,7 °C 9,7 km/h (2 Bft) 100,00 %
05.05.2026 16:47 23,7 °C 41 % 1004,9 hPa 0,0 l/m² 3,2 km/h (1 Bft) NW 315 ° 1 min 0,000 mm 1,6 UV-I 422 W/m² 9,7 °C 23,7 °C 8,0 km/h (2 Bft) 95,65 %
05.05.2026 16:46 23,7 °C 42 % 1005,0 hPa 0,0 l/m² 3,2 km/h (1 Bft) W-SW 247 ° 1 min 0,000 mm 1,8 UV-I 452 W/m² 10,0 °C 23,7 °C 8,0 km/h (2 Bft) 91,30 %
05.05.2026 16:45 23,4 °C 42 % 1004,9 hPa 0,0 l/m² 3,2 km/h (1 Bft) S-SW 202 ° 1 min 0,000 mm 2,0 UV-I 552 W/m² 9,7 °C 23,4 °C 8,0 km/h (2 Bft) 100,00 %
05.05.2026 16:44 23,3 °C 40 % 1004,9 hPa 0,0 l/m² 1,6 km/h (1 Bft) S 180 ° 1 min 0,000 mm 1,8 UV-I 396 W/m² 8,9 °C 23,3 °C 3,2 km/h (1 Bft) 100,00 %
05.05.2026 16:43 23,4 °C 41 % 1004,9 hPa 0,0 l/m² 0,0 km/h (0 Bft) W-SW 247 ° 1 min 0,000 mm 1,6 UV-I 359 W/m² 9,4 °C 23,4 °C 3,2 km/h (1 Bft) 100,00 %
05.05.2026 16:42 23,3 °C 41 % 1004,9 hPa 0,0 l/m² 1,6 km/h (1 Bft) S 180 ° 1 min 0,000 mm 1,5 UV-I 330 W/m² 9,3 °C 23,3 °C 3,2 km/h (1 Bft) 95,65 %
05.05.2026 16:41 23,3 °C 39 % 1004,9 hPa 0,0 l/m² 1,6 km/h (1 Bft) SO 135 ° 1 min 0,000 mm 1,5 UV-I 323 W/m² 8,6 °C 23,3 °C 3,2 km/h (1 Bft) 91,30 %
05.05.2026 16:40 23,3 °C 39 % 1004,9 hPa 0,0 l/m² 1,6 km/h (1 Bft) S-SO 157 ° 1 min 0,000 mm 1,6 UV-I 376 W/m² 8,6 °C 23,3 °C 3,2 km/h (1 Bft) 95,65 %
05.05.2026 16:39 23,4 °C 41 % 1004,9 hPa 0,0 l/m² 3,2 km/h (1 Bft) SW 225 ° 1 min 0,000 mm 1,6 UV-I 374 W/m² 9,4 °C 23,4 °C 6,4 km/h (2 Bft) 91,30 %
05.05.2026 16:38 23,3 °C 42 % 1004,9 hPa 0,0 l/m² 1,6 km/h (1 Bft) S-SO 157 ° 1 min 0,000 mm 1,5 UV-I 374 W/m² 9,7 °C 23,3 °C 6,4 km/h (2 Bft) 95,65 %
05.05.2026 16:37 23,3 °C 43 % 1004,9 hPa 0,0 l/m² 3,2 km/h (1 Bft) S-SO 157 ° 1 min 0,000 mm 1,4 UV-I 292 W/m² 10,0 °C 23,3 °C 6,4 km/h (2 Bft) 100,00 %
05.05.2026 16:36 23,3 °C 44 % 1004,9 hPa 0,0 l/m² 3,2 km/h (1 Bft) SO 135 ° 1 min 0,000 mm 1,4 UV-I 281 W/m² 10,4 °C 23,3 °C 6,4 km/h (2 Bft) 95,65 %
05.05.2026 16:35 23,3 °C 41 % 1005,0 hPa 0,0 l/m² 1,6 km/h (1 Bft) S 180 ° 1 min 0,000 mm 1,4 UV-I 265 W/m² 9,3 °C 23,3 °C 4,8 km/h (1 Bft) 91,30 %
05.05.2026 16:34 23,3 °C 40 % 1005,0 hPa 0,0 l/m² 1,6 km/h (1 Bft) S-SW 202 ° 1 min 0,000 mm 1,4 UV-I 265 W/m² 8,9 °C 23,3 °C 4,8 km/h (1 Bft) 91,30 %
05.05.2026 16:33 23,3 °C 40 % 1004,9 hPa 0,0 l/m² 3,2 km/h (1 Bft) S 180 ° 1 min 0,000 mm 1,4 UV-I 279 W/m² 8,9 °C 23,3 °C 8,0 km/h (2 Bft) 91,30 %
05.05.2026 16:32 23,3 °C 40 % 1005,0 hPa 0,0 l/m² 4,8 km/h (1 Bft) S 180 ° 1 min 0,000 mm 1,5 UV-I 334 W/m² 8,9 °C 23,3 °C 9,7 km/h (2 Bft) 91,30 %
05.05.2026 16:31 23,3 °C 40 % 1005,0 hPa 0,0 l/m² 4,8 km/h (1 Bft) S-SW 202 ° 1 min 0,000 mm 1,5 UV-I 329 W/m² 8,9 °C 23,3 °C 9,7 km/h (2 Bft) 95,65 %
05.05.2026 16:30 23,4 °C 40 % 1005,0 hPa 0,0 l/m² 3,2 km/h (1 Bft) S 180 ° 1 min 0,000 mm 1,4 UV-I 278 W/m² 9,0 °C 23,4 °C 9,7 km/h (2 Bft) 95,65 %
05.05.2026 16:29 23,6 °C 38 % 1005,1 hPa 0,0 l/m² 1,6 km/h (1 Bft) W 270 ° 1 min 0,000 mm 1,4 UV-I 281 W/m² 8,4 °C 23,6 °C 3,2 km/h (1 Bft) 91,30 %
05.05.2026 16:28 23,7 °C 39 % 1005,1 hPa 0,0 l/m² 1,6 km/h (1 Bft) SW 225 ° 1 min 0,000 mm 1,5 UV-I 301 W/m² 8,9 °C 23,7 °C 3,2 km/h (1 Bft) 100,00 %
05.05.2026 16:27 23,8 °C 39 % 1005,1 hPa 0,0 l/m² 6,4 km/h (2 Bft) S 180 ° 1 min 0,000 mm 1,5 UV-I 290 W/m² 9,0 °C 23,8 °C 9,7 km/h (2 Bft) 95,65 %
05.05.2026 16:26 23,9 °C 39 % 1005,0 hPa 0,0 l/m² 3,2 km/h (1 Bft) S-SW 202 ° 1 min 0,000 mm 1,5 UV-I 294 W/m² 9,1 °C 23,9 °C 6,4 km/h (2 Bft) 95,65 %
05.05.2026 16:25 24,0 °C 38 % 1005,0 hPa 0,0 l/m² 4,8 km/h (1 Bft) S 180 ° 1 min 0,000 mm 1,5 UV-I 281 W/m² 8,8 °C 24,0 °C 9,7 km/h (2 Bft) 82,61 %
05.05.2026 16:24 24,2 °C 37 % 1005,0 hPa 0,0 l/m² 3,2 km/h (1 Bft) SO 135 ° 1 min 0,000 mm 1,6 UV-I 327 W/m² 8,6 °C 24,2 °C 6,4 km/h (2 Bft) 91,30 %
05.05.2026 16:23 24,2 °C 41 % 1005,0 hPa 0,0 l/m² 4,8 km/h (1 Bft) O-SO 112 ° 1 min 0,000 mm 1,7 UV-I 374 W/m² 10,1 °C 24,2 °C 12,9 km/h (3 Bft) 95,65 %
05.05.2026 16:22 24,2 °C 37 % 1005,0 hPa 0,0 l/m² 6,4 km/h (2 Bft) S-SO 157 ° 1 min 0,000 mm 2,0 UV-I 469 W/m² 8,6 °C 24,2 °C 12,9 km/h (3 Bft) 91,30 %
05.05.2026 16:21 24,2 °C 38 % 1005,0 hPa 0,0 l/m² 6,4 km/h (2 Bft) SO 135 ° 1 min 0,000 mm 2,1 UV-I 526 W/m² 9,0 °C 24,2 °C 12,9 km/h (3 Bft) 95,65 %
05.05.2026 16:20 24,4 °C 38 % 1005,0 hPa 0,0 l/m² 6,4 km/h (2 Bft) SO 135 ° 1 min 0,000 mm 2,1 UV-I 513 W/m² 9,2 °C 24,4 °C 11,3 km/h (2 Bft) 91,30 %
05.05.2026 16:19 24,4 °C 38 % 1005,0 hPa 0,0 l/m² 6,4 km/h (2 Bft) SO 135 ° 1 min 0,000 mm 2,1 UV-I 489 W/m² 9,2 °C 24,4 °C 11,3 km/h (2 Bft) 100,00 %
05.05.2026 16:18 24,4 °C 38 % 1005,1 hPa 0,0 l/m² 6,4 km/h (2 Bft) S-SO 157 ° 1 min 0,000 mm 2,0 UV-I 603 W/m² 9,2 °C 24,4 °C 11,3 km/h (2 Bft) 86,96 %
05.05.2026 16:17 24,4 °C 41 % 1005,0 hPa 0,0 l/m² 3,2 km/h (1 Bft) S 180 ° 1 min 0,000 mm 2,0 UV-I 603 W/m² 10,3 °C 24,4 °C 8,0 km/h (2 Bft) 100,00 %
05.05.2026 16:16 24,2 °C 39 % 1005,0 hPa 0,0 l/m² 1,6 km/h (1 Bft) O 90 ° 1 min 0,000 mm 2,3 UV-I 603 W/m² 9,4 °C 24,2 °C 3,2 km/h (1 Bft) 95,65 %
05.05.2026 16:15 24,2 °C 38 % 1005,1 hPa 0,0 l/m² 3,2 km/h (1 Bft) S-SO 157 ° 1 min 0,000 mm 2,4 UV-I 615 W/m² 9,0 °C 24,2 °C 6,4 km/h (2 Bft) 86,96 %
05.05.2026 16:14 24,3 °C 38 % 1005,0 hPa 0,0 l/m² 1,6 km/h (1 Bft) O 90 ° 1 min 0,000 mm 2,2 UV-I 403 W/m² 9,1 °C 24,3 °C 6,4 km/h (2 Bft) 95,65 %
05.05.2026 16:13 24,3 °C 38 % 1005,1 hPa 0,0 l/m² 4,8 km/h (1 Bft) S 180 ° 1 min 0,000 mm 2,1 UV-I 403 W/m² 9,1 °C 24,3 °C 9,7 km/h (2 Bft) 95,65 %
05.05.2026 16:12 24,2 °C 38 % 1005,2 hPa 0,0 l/m² 4,8 km/h (1 Bft) S 180 ° 1 min 0,000 mm 2,0 UV-I 403 W/m² 9,0 °C 24,2 °C 9,7 km/h (2 Bft) 100,00 %
05.05.2026 16:11 24,2 °C 38 % 1005,1 hPa 0,0 l/m² 3,2 km/h (1 Bft) S 180 ° 1 min 0,000 mm 2,1 UV-I 452 W/m² 9,0 °C 24,2 °C 8,0 km/h (2 Bft) 91,30 %
05.05.2026 16:10 24,2 °C 37 % 1005,1 hPa 0,0 l/m² 3,2 km/h (1 Bft) S-SW 202 ° 1 min 0,000 mm 2,2 UV-I 446 W/m² 8,6 °C 24,2 °C 8,0 km/h (2 Bft) 100,00 %
05.05.2026 16:09 24,2 °C 38 % 1005,1 hPa 0,0 l/m² 4,8 km/h (1 Bft) W-SW 247 ° 1 min 0,000 mm 1,3 UV-I 490 W/m² 9,0 °C 24,2 °C 9,7 km/h (2 Bft) 95,65 %
05.05.2026 16:08 24,3 °C 38 % 1005,2 hPa 0,0 l/m² 4,8 km/h (1 Bft) W-SW 247 ° 1 min 0,000 mm 2,3 UV-I 628 W/m² 9,1 °C 24,3 °C 11,3 km/h (2 Bft) 95,65 %
05.05.2026 16:07 24,4 °C 38 % 1005,2 hPa 0,0 l/m² 4,8 km/h (1 Bft) SW 225 ° 1 min 0,000 mm 2,5 UV-I 628 W/m² 9,2 °C 24,4 °C 9,7 km/h (2 Bft) 95,65 %
05.05.2026 16:06 24,3 °C 36 % 1005,2 hPa 0,0 l/m² 4,8 km/h (1 Bft) S 180 ° 1 min 0,000 mm 2,5 UV-I 545 W/m² 8,3 °C 24,3 °C 11,3 km/h (2 Bft) 95,65 %
05.05.2026 16:05 24,4 °C 36 % 1005,3 hPa 0,0 l/m² 4,8 km/h (1 Bft) S 180 ° 1 min 0,000 mm 2,5 UV-I 633 W/m² 8,4 °C 24,4 °C 9,7 km/h (2 Bft) 91,30 %
05.05.2026 16:04 24,4 °C 37 % 1005,2 hPa 0,0 l/m² 4,8 km/h (1 Bft) SW 225 ° 1 min 0,000 mm 1,5 UV-I 654 W/m² 8,8 °C 24,4 °C 6,4 km/h (2 Bft) 91,30 %
05.05.2026 16:03 24,4 °C 38 % 1005,3 hPa 0,0 l/m² 3,2 km/h (1 Bft) W-NW 292 ° 1 min 0,000 mm 2,6 UV-I 657 W/m² 9,2 °C 24,4 °C 6,4 km/h (2 Bft) 100,00 %
05.05.2026 16:02 24,4 °C 40 % 1005,4 hPa 0,0 l/m² 1,6 km/h (1 Bft) SW 225 ° 1 min 0,000 mm 2,6 UV-I 659 W/m² 9,9 °C 24,4 °C 6,4 km/h (2 Bft) 82,61 %
05.05.2026 16:01 24,1 °C 38 % 1005,4 hPa 0,0 l/m² 1,6 km/h (1 Bft) S-SW 202 ° 1 min 0,000 mm 2,6 UV-I 677 W/m² 8,9 °C 24,1 °C 3,2 km/h (1 Bft) 100,00 %
05.05.2026 16:00 24,0 °C 39 % 1005,3 hPa 0,0 l/m² 4,8 km/h (1 Bft) S-SO 157 ° 1 min 0,381 mm 2,6 UV-I 577 W/m² 9,2 °C 24,0 °C 8,0 km/h (2 Bft) 100,00 %
05.05.2026 15:59 23,9 °C 38 % 1005,4 hPa 0,0 l/m² 6,4 km/h (2 Bft) S-SO 157 ° 1 min 0,000 mm 2,4 UV-I 577 W/m² 8,7 °C 23,9 °C 9,7 km/h (2 Bft) 95,65 %
05.05.2026 15:58 23,8 °C 37 % 1005,4 hPa 0,0 l/m² 6,4 km/h (2 Bft) S-SO 157 ° 1 min 0,000 mm 2,4 UV-I 564 W/m² 8,2 °C 23,8 °C 9,7 km/h (2 Bft) 95,65 %
05.05.2026 15:57 23,7 °C 37 % 1005,5 hPa 0,0 l/m² 4,8 km/h (1 Bft) S 180 ° 1 min 0,000 mm 2,2 UV-I 554 W/m² 8,1 °C 23,7 °C 8,0 km/h (2 Bft) 95,65 %
05.05.2026 15:56 23,7 °C 38 % 1005,4 hPa 0,0 l/m² 6,4 km/h (2 Bft) S 180 ° 1 min 0,000 mm 2,2 UV-I 445 W/m² 8,5 °C 23,7 °C 11,3 km/h (2 Bft) 95,65 %
05.05.2026 15:55 23,7 °C 37 % 1005,4 hPa 0,0 l/m² 4,8 km/h (1 Bft) S 180 ° 1 min 0,000 mm 2,1 UV-I 294 W/m² 8,1 °C 23,7 °C 8,0 km/h (2 Bft) 100,00 %
05.05.2026 15:54 23,6 °C 38 % 1005,4 hPa 0,0 l/m² 4,8 km/h (1 Bft) S 180 ° 1 min 0,000 mm 2,0 UV-I 294 W/m² 8,4 °C 23,6 °C 9,7 km/h (2 Bft) 95,65 %
05.05.2026 15:53 23,6 °C 39 % 1005,4 hPa 0,0 l/m² 3,2 km/h (1 Bft) S 180 ° 1 min 0,000 mm 2,0 UV-I 294 W/m² 8,8 °C 23,6 °C 6,4 km/h (2 Bft) 95,65 %
05.05.2026 15:52 23,4 °C 39 % 1005,4 hPa 0,0 l/m² 4,8 km/h (1 Bft) S 180 ° 1 min 0,000 mm 2,0 UV-I 367 W/m² 8,6 °C 23,4 °C 9,7 km/h (2 Bft) 100,00 %
05.05.2026 15:51 23,3 °C 41 % 1005,4 hPa 0,0 l/m² 1,6 km/h (1 Bft) S 180 ° 1 min 0,000 mm 1,5 UV-I 367 W/m² 9,3 °C 23,3 °C 3,2 km/h (1 Bft) 91,30 %
05.05.2026 15:50 23,2 °C 37 % 1005,4 hPa 0,0 l/m² 1,6 km/h (1 Bft) SO 135 ° 1 min 0,000 mm 2,0 UV-I 387 W/m² 7,7 °C 23,2 °C 1,6 km/h (1 Bft) 95,65 %
05.05.2026 15:49 23,3 °C 40 % 1005,5 hPa 0,0 l/m² 1,6 km/h (1 Bft) W 270 ° 1 min 0,000 mm 1,9 UV-I 355 W/m² 8,9 °C 23,3 °C 3,2 km/h (1 Bft) 86,96 %
05.05.2026 15:48 23,4 °C 37 % 1005,4 hPa 0,0 l/m² 1,6 km/h (1 Bft) W 270 ° 1 min 0,000 mm 1,9 UV-I 353 W/m² 7,9 °C 23,4 °C 4,8 km/h (1 Bft) 95,65 %
05.05.2026 15:47 23,4 °C 36 % 1005,4 hPa 0,0 l/m² 1,6 km/h (1 Bft) W 270 ° 1 min 0,000 mm 2,0 UV-I 353 W/m² 7,5 °C 23,4 °C 3,2 km/h (1 Bft) 95,65 %
05.05.2026 15:46 23,6 °C 37 % 1005,4 hPa 0,0 l/m² 3,2 km/h (1 Bft) W-NW 292 ° 1 min 0,000 mm 1,0 UV-I 401 W/m² 8,0 °C 23,6 °C 4,8 km/h (1 Bft) 95,65 %
05.05.2026 15:45 23,7 °C 38 % 1005,5 hPa 0,0 l/m² 3,2 km/h (1 Bft) W 270 ° 1 min 0,000 mm 1,0 UV-I 406 W/m² 8,5 °C 23,7 °C 3,2 km/h (1 Bft) 91,30 %
05.05.2026 15:44 23,7 °C 40 % 1005,5 hPa 0,0 l/m² 3,2 km/h (1 Bft) S-SO 157 ° 1 min 0,000 mm 2,2 UV-I 278 W/m² 9,3 °C 23,7 °C 6,4 km/h (2 Bft) 100,00 %
05.05.2026 15:43 23,6 °C 40 % 1005,5 hPa 0,0 l/m² 4,8 km/h (1 Bft) S-SO 157 ° 1 min 0,000 mm 2,2 UV-I 278 W/m² 9,2 °C 23,6 °C 6,4 km/h (2 Bft) 91,30 %
05.05.2026 15:42 23,4 °C 40 % 1005,5 hPa 0,0 l/m² 6,4 km/h (2 Bft) SO 135 ° 1 min 0,000 mm 2,2 UV-I 359 W/m² 9,0 °C 23,4 °C 8,0 km/h (2 Bft) 95,65 %
05.05.2026 15:41 23,3 °C 37 % 1005,6 hPa 0,0 l/m² 3,2 km/h (1 Bft) S-SO 157 ° 1 min 0,000 mm 2,3 UV-I 359 W/m² 7,8 °C 23,3 °C 6,4 km/h (2 Bft) 100,00 %
05.05.2026 15:40 23,4 °C 38 % 1005,5 hPa 0,0 l/m² 4,8 km/h (1 Bft) S-SO 157 ° 1 min 0,000 mm 2,3 UV-I 450 W/m² 8,3 °C 23,4 °C 8,0 km/h (2 Bft) 91,30 %
05.05.2026 15:39 23,4 °C 38 % 1005,5 hPa 0,0 l/m² 1,6 km/h (1 Bft) S-SO 157 ° 1 min 0,000 mm 2,2 UV-I 432 W/m² 8,3 °C 23,4 °C 6,4 km/h (2 Bft) 100,00 %
05.05.2026 15:38 23,5 °C 38 % 1005,5 hPa 0,0 l/m² 1,6 km/h (1 Bft) N 360 ° 1 min 0,000 mm 2,3 UV-I 496 W/m² 8,4 °C 23,5 °C 3,2 km/h (1 Bft) 95,65 %
05.05.2026 15:37 23,6 °C 38 % 1005,5 hPa 0,0 l/m² 1,6 km/h (1 Bft) NW 315 ° 1 min 0,000 mm 2,3 UV-I 473 W/m² 8,4 °C 23,6 °C 4,8 km/h (1 Bft) 100,00 %
05.05.2026 15:36 23,7 °C 37 % 1005,5 hPa 0,0 l/m² 3,2 km/h (1 Bft) NO 45 ° 1 min 0,000 mm 2,3 UV-I 155 W/m² 8,1 °C 23,7 °C 4,8 km/h (1 Bft) 95,65 %
05.05.2026 15:35 23,9 °C 36 % 1005,5 hPa 0,0 l/m² 3,2 km/h (1 Bft) W 270 ° 1 min 0,000 mm 2,5 UV-I 155 W/m² 7,9 °C 23,9 °C 4,8 km/h (1 Bft) 86,96 %
05.05.2026 15:34 24,0 °C 38 % 1005,5 hPa 0,0 l/m² 1,6 km/h (1 Bft) W 270 ° 1 min 0,000 mm 2,6 UV-I 548 W/m² 8,8 °C 24,0 °C 3,2 km/h (1 Bft) 95,65 %
05.05.2026 15:33 24,1 °C 38 % 1005,6 hPa 0,0 l/m² 1,6 km/h (1 Bft) W 270 ° 1 min 0,000 mm 2,7 UV-I 571 W/m² 8,9 °C 24,1 °C 4,8 km/h (1 Bft) 95,65 %
05.05.2026 15:32 24,2 °C 36 % 1005,6 hPa 0,0 l/m² 1,6 km/h (1 Bft) W 270 ° 1 min 0,000 mm 2,2 UV-I 636 W/m² 8,2 °C 24,2 °C 4,8 km/h (1 Bft) 95,65 %
05.05.2026 15:31 24,4 °C 39 % 1005,6 hPa 0,0 l/m² 1,6 km/h (1 Bft) W 270 ° 1 min 0,000 mm 3,0 UV-I 722 W/m² 9,5 °C 24,4 °C 3,2 km/h (1 Bft) 100,00 %
05.05.2026 15:30 24,4 °C 38 % 1005,5 hPa 0,0 l/m² 3,2 km/h (1 Bft) NW 315 ° 1 min 0,000 mm 3,0 UV-I 722 W/m² 9,2 °C 24,4 °C 4,8 km/h (1 Bft) 95,65 %
05.05.2026 15:29 24,4 °C 37 % 1005,6 hPa 0,0 l/m² 3,2 km/h (1 Bft) S-SO 157 ° 1 min 0,000 mm 3,2 UV-I 722 W/m² 8,8 °C 24,4 °C 9,7 km/h (2 Bft) 95,65 %
05.05.2026 15:28 24,5 °C 38 % 1005,6 hPa 0,0 l/m² 3,2 km/h (1 Bft) W 270 ° 1 min 0,000 mm 3,0 UV-I 722 W/m² 9,2 °C 24,5 °C 9,7 km/h (2 Bft) 100,00 %
05.05.2026 15:27 24,4 °C 38 % 1005,6 hPa 0,0 l/m² 4,8 km/h (1 Bft) SO 135 ° 1 min 0,000 mm 3,1 UV-I 722 W/m² 9,2 °C 24,4 °C 8,0 km/h (2 Bft) 100,00 %
05.05.2026 15:26 24,4 °C 38 % 1005,7 hPa 0,0 l/m² 1,6 km/h (1 Bft) S-SO 157 ° 1 min 0,000 mm 3,2 UV-I 722 W/m² 9,2 °C 24,4 °C 4,8 km/h (1 Bft) 86,96 %
05.05.2026 15:25 24,3 °C 38 % 1005,6 hPa 0,0 l/m² 3,2 km/h (1 Bft) S-SO 157 ° 1 min 0,000 mm 3,4 UV-I 791 W/m² 9,1 °C 24,3 °C 8,0 km/h (2 Bft) 95,65 %
05.05.2026 15:24 24,2 °C 38 % 1005,7 hPa 0,0 l/m² 3,2 km/h (1 Bft) S-SW 202 ° 1 min 0,000 mm 3,3 UV-I 759 W/m² 9,0 °C 24,2 °C 6,4 km/h (2 Bft) 100,00 %
05.05.2026 15:23 24,0 °C 38 % 1005,6 hPa 0,0 l/m² 3,2 km/h (1 Bft) S-SO 157 ° 1 min 0,000 mm 3,3 UV-I 742 W/m² 8,8 °C 24,0 °C 8,0 km/h (2 Bft) 95,65 %
05.05.2026 15:22 23,9 °C 38 % 1005,7 hPa 0,0 l/m² 4,8 km/h (1 Bft) S 180 ° 1 min 0,000 mm 3,3 UV-I 737 W/m² 8,7 °C 23,9 °C 8,0 km/h (2 Bft) 95,65 %
05.05.2026 15:21 23,9 °C 38 % 1005,7 hPa 0,0 l/m² 3,2 km/h (1 Bft) W-SW 247 ° 1 min 0,000 mm 3,3 UV-I 710 W/m² 8,7 °C 23,9 °C 6,4 km/h (2 Bft) 100,00 %
05.05.2026 15:20 24,1 °C 38 % 1005,7 hPa 0,0 l/m² 1,6 km/h (1 Bft) N-NO 22 ° 1 min 0,000 mm 3,3 UV-I 735 W/m² 8,9 °C 24,1 °C 3,2 km/h (1 Bft) 100,00 %
05.05.2026 15:19 24,3 °C 37 % 1005,8 hPa 0,0 l/m² 1,6 km/h (1 Bft) W 270 ° 1 min 0,000 mm 3,4 UV-I 744 W/m² 8,7 °C 24,3 °C 4,8 km/h (1 Bft) 95,65 %
05.05.2026 15:18 24,4 °C 38 % 1005,7 hPa 0,0 l/m² 3,2 km/h (1 Bft) W 270 ° 1 min 0,000 mm 3,4 UV-I 740 W/m² 9,2 °C 24,4 °C 8,0 km/h (2 Bft) 95,65 %
05.05.2026 15:17 24,4 °C 38 % 1005,6 hPa 0,0 l/m² 9,7 km/h (2 Bft) SO 135 ° 1 min 0,000 mm 3,4 UV-I 740 W/m² 9,2 °C 24,4 °C 14,5 km/h (3 Bft) 95,65 %
05.05.2026 15:16 24,3 °C 39 % 1005,8 hPa 0,0 l/m² 8,0 km/h (2 Bft) S-SO 157 ° 1 min 0,000 mm 3,5 UV-I 803 W/m² 9,4 °C 24,3 °C 14,5 km/h (3 Bft) 95,65 %
05.05.2026 15:15 24,2 °C 37 % 1005,7 hPa 0,0 l/m² 3,2 km/h (1 Bft) O-SO 112 ° 1 min 0,000 mm 3,5 UV-I 803 W/m² 8,6 °C 24,2 °C 9,7 km/h (2 Bft) 86,96 %
05.05.2026 15:14 24,4 °C 37 % 1005,8 hPa 0,0 l/m² 1,6 km/h (1 Bft) O-NO 67 ° 1 min 0,000 mm 3,5 UV-I 773 W/m² 8,8 °C 24,4 °C 3,2 km/h (1 Bft) 95,65 %
05.05.2026 15:13 24,4 °C 36 % 1005,8 hPa 0,0 l/m² 3,2 km/h (1 Bft) O-SO 112 ° 1 min 0,000 mm 3,6 UV-I 830 W/m² 8,4 °C 24,4 °C 8,0 km/h (2 Bft) 100,00 %
05.05.2026 15:12 24,4 °C 36 % 1005,8 hPa 0,0 l/m² 3,2 km/h (1 Bft) S 180 ° 1 min 0,000 mm 3,7 UV-I 798 W/m² 8,4 °C 24,4 °C 8,0 km/h (2 Bft) 100,00 %
05.05.2026 15:11 24,4 °C 36 % 1005,8 hPa 0,0 l/m² 4,8 km/h (1 Bft) W 270 ° 1 min 0,000 mm 3,4 UV-I 654 W/m² 8,4 °C 24,4 °C 6,4 km/h (2 Bft) 100,00 %
05.05.2026 15:10 24,4 °C 36 % 1005,7 hPa 0,0 l/m² 3,2 km/h (1 Bft) S 180 ° 1 min 0,000 mm 3,0 UV-I 255 W/m² 8,4 °C 24,4 °C 9,7 km/h (2 Bft) 95,65 %
05.05.2026 15:09 24,4 °C 34 % 1005,8 hPa 0,0 l/m² 3,2 km/h (1 Bft) S 180 ° 1 min 0,000 mm 3,3 UV-I 255 W/m² 7,5 °C 24,4 °C 8,0 km/h (2 Bft) 100,00 %
05.05.2026 15:08 24,4 °C 36 % 1005,8 hPa 0,0 l/m² 6,4 km/h (2 Bft) S 180 ° 1 min 0,000 mm 3,3 UV-I 255 W/m² 8,4 °C 24,4 °C 9,7 km/h (2 Bft) 91,30 %
05.05.2026 15:07 24,4 °C 35 % 1005,8 hPa 0,0 l/m² 3,2 km/h (1 Bft) S-SO 157 ° 1 min 0,000 mm 3,3 UV-I 255 W/m² 7,9 °C 24,4 °C 9,7 km/h (2 Bft) 95,65 %
05.05.2026 15:06 24,4 °C 37 % 1005,8 hPa 0,0 l/m² 8,0 km/h (2 Bft) S 180 ° 1 min 0,000 mm 3,4 UV-I 694 W/m² 8,8 °C 24,4 °C 12,9 km/h (3 Bft) 95,65 %
05.05.2026 15:05 24,3 °C 37 % 1005,8 hPa 0,0 l/m² 6,4 km/h (2 Bft) S 180 ° 1 min 0,000 mm 3,4 UV-I 694 W/m² 8,7 °C 24,3 °C 12,9 km/h (3 Bft) 91,30 %
05.05.2026 15:04 24,2 °C 37 % 1005,8 hPa 0,0 l/m² 4,8 km/h (1 Bft) S 180 ° 1 min 0,000 mm 1,9 UV-I 735 W/m² 8,6 °C 24,2 °C 9,7 km/h (2 Bft) 100,00 %
05.05.2026 15:03 24,3 °C 35 % 1005,8 hPa 0,0 l/m² 6,4 km/h (2 Bft) S-SW 202 ° 1 min 0,000 mm 2,2 UV-I 696 W/m² 7,8 °C 24,3 °C 11,3 km/h (2 Bft) 100,00 %
05.05.2026 15:02 24,3 °C 35 % 1005,8 hPa 0,0 l/m² 4,8 km/h (1 Bft) S 180 ° 1 min 0,000 mm 3,5 UV-I 696 W/m² 7,8 °C 24,3 °C 8,0 km/h (2 Bft) 100,00 %
05.05.2026 15:01 24,4 °C 36 % 1005,8 hPa 0,0 l/m² 6,4 km/h (2 Bft) S-SO 157 ° 1 min 0,000 mm 3,5 UV-I 696 W/m² 8,4 °C 24,4 °C 11,3 km/h (2 Bft) 91,30 %
05.05.2026 15:00 24,4 °C 37 % 1005,9 hPa 0,0 l/m² 4,8 km/h (1 Bft) S-SW 202 ° 1 min 0,457 mm 3,6 UV-I 773 W/m² 8,8 °C 24,4 °C 11,3 km/h (2 Bft) 95,65 %
05.05.2026 14:59 24,4 °C 37 % 1005,8 hPa 0,0 l/m² 3,2 km/h (1 Bft) SO 135 ° 1 min 0,000 mm 3,9 UV-I 773 W/m² 8,8 °C 24,4 °C 8,0 km/h (2 Bft) 95,65 %
05.05.2026 14:58 24,3 °C 36 % 1005,9 hPa 0,0 l/m² 4,8 km/h (1 Bft) S-SO 157 ° 1 min 0,000 mm 3,9 UV-I 779 W/m² 8,3 °C 24,3 °C 9,7 km/h (2 Bft) 95,65 %
05.05.2026 14:57 24,4 °C 37 % 1005,9 hPa 0,0 l/m² 3,2 km/h (1 Bft) SO 135 ° 1 min 0,000 mm 3,8 UV-I 779 W/m² 8,8 °C 24,4 °C 6,4 km/h (2 Bft) 91,30 %
05.05.2026 14:56 24,3 °C 36 % 1005,9 hPa 0,0 l/m² 4,8 km/h (1 Bft) SO 135 ° 1 min 0,000 mm 3,9 UV-I 779 W/m² 8,3 °C 24,3 °C 8,0 km/h (2 Bft) 91,30 %
05.05.2026 14:55 24,4 °C 36 % 1005,8 hPa 0,0 l/m² 3,2 km/h (1 Bft) S 180 ° 1 min 0,000 mm 3,7 UV-I 779 W/m² 8,4 °C 24,4 °C 8,0 km/h (2 Bft) 100,00 %
05.05.2026 14:54 24,4 °C 35 % 1005,8 hPa 0,0 l/m² 4,8 km/h (1 Bft) SW 225 ° 1 min 0,000 mm 3,7 UV-I 779 W/m² 7,9 °C 24,4 °C 8,0 km/h (2 Bft) 100,00 %
05.05.2026 14:53 24,3 °C 34 % 1005,8 hPa 0,0 l/m² 3,2 km/h (1 Bft) W 270 ° 1 min 0,000 mm 3,8 UV-I 779 W/m² 7,4 °C 24,3 °C 6,4 km/h (2 Bft) 91,30 %
05.05.2026 14:52 24,4 °C 36 % 1005,8 hPa 0,0 l/m² 1,6 km/h (1 Bft) SW 225 ° 1 min 0,000 mm 3,9 UV-I 578 W/m² 8,4 °C 24,4 °C 3,2 km/h (1 Bft) 95,65 %
05.05.2026 14:51 24,2 °C 37 % 1005,8 hPa 0,0 l/m² 3,2 km/h (1 Bft) W-SW 247 ° 1 min 0,000 mm 3,7 UV-I 578 W/m² 8,6 °C 24,2 °C 4,8 km/h (1 Bft) 91,30 %
05.05.2026 14:50 24,0 °C 36 % 1005,9 hPa 0,0 l/m² 1,6 km/h (1 Bft) O-SO 112 ° 1 min 0,000 mm 4,0 UV-I 675 W/m² 8,0 °C 24,0 °C 3,2 km/h (1 Bft) 91,30 %
05.05.2026 14:49 23,8 °C 34 % 1005,9 hPa 0,0 l/m² 3,2 km/h (1 Bft) S-SO 157 ° 1 min 0,000 mm 3,9 UV-I 675 W/m² 7,0 °C 23,8 °C 4,8 km/h (1 Bft) 95,65 %
05.05.2026 14:48 23,7 °C 35 % 1005,8 hPa 0,0 l/m² 1,6 km/h (1 Bft) S 180 ° 1 min 0,000 mm 3,6 UV-I 675 W/m² 7,3 °C 23,7 °C 4,8 km/h (1 Bft) 95,65 %
05.05.2026 14:47 23,7 °C 38 % 1005,9 hPa 0,0 l/m² 3,2 km/h (1 Bft) S 180 ° 1 min 0,000 mm 3,1 UV-I 675 W/m² 8,5 °C 23,7 °C 6,4 km/h (2 Bft) 95,65 %
05.05.2026 14:46 23,7 °C 39 % 1005,9 hPa 0,0 l/m² 3,2 km/h (1 Bft) SO 135 ° 1 min 0,000 mm 3,3 UV-I 675 W/m² 8,9 °C 23,7 °C 6,4 km/h (2 Bft) 91,30 %
05.05.2026 14:45 23,6 °C 39 % 1006,0 hPa 0,0 l/m² 3,2 km/h (1 Bft) S-SO 157 ° 1 min 0,000 mm 3,1 UV-I 577 W/m² 8,8 °C 23,6 °C 8,0 km/h (2 Bft) 95,65 %
05.05.2026 14:44 23,6 °C 38 % 1005,9 hPa 0,0 l/m² 3,2 km/h (1 Bft) S-SW 202 ° 1 min 0,000 mm 2,3 UV-I 566 W/m² 8,4 °C 23,6 °C 4,8 km/h (1 Bft) 95,65 %
05.05.2026 14:43 23,7 °C 37 % 1005,9 hPa 0,0 l/m² 1,6 km/h (1 Bft) NO 45 ° 1 min 0,000 mm 3,0 UV-I 480 W/m² 8,1 °C 23,7 °C 4,8 km/h (1 Bft) 91,30 %
05.05.2026 14:42 23,9 °C 38 % 1005,9 hPa 0,0 l/m² 4,8 km/h (1 Bft) N-NW 337 ° 1 min 0,000 mm 1,5 UV-I 406 W/m² 8,7 °C 23,9 °C 9,7 km/h (2 Bft) 100,00 %
05.05.2026 14:41 24,1 °C 38 % 1005,9 hPa 0,0 l/m² 3,2 km/h (1 Bft) S-SO 157 ° 1 min 0,000 mm 2,5 UV-I 369 W/m² 8,9 °C 24,1 °C 6,4 km/h (2 Bft) 95,65 %
05.05.2026 14:40 24,1 °C 40 % 1005,9 hPa 0,0 l/m² 3,2 km/h (1 Bft) SO 135 ° 1 min 0,000 mm 1,6 UV-I 800 W/m² 9,6 °C 24,1 °C 6,4 km/h (2 Bft) 95,65 %
05.05.2026 14:39 24,1 °C 39 % 1005,9 hPa 0,0 l/m² 4,8 km/h (1 Bft) W-SW 247 ° 1 min 0,000 mm 3,3 UV-I 800 W/m² 9,3 °C 24,1 °C 9,7 km/h (2 Bft) 86,96 %
05.05.2026 14:38 24,2 °C 38 % 1005,9 hPa 0,0 l/m² 3,2 km/h (1 Bft) SW 225 ° 1 min 0,000 mm 3,9 UV-I 800 W/m² 9,0 °C 24,2 °C 6,4 km/h (2 Bft) 91,30 %
05.05.2026 14:37 24,3 °C 38 % 1006,0 hPa 0,0 l/m² 4,8 km/h (1 Bft) W 270 ° 1 min 0,000 mm 4,0 UV-I 796 W/m² 9,1 °C 24,3 °C 9,7 km/h (2 Bft) 91,30 %
05.05.2026 14:36 24,4 °C 41 % 1005,9 hPa 0,0 l/m² 4,8 km/h (1 Bft) W-SW 247 ° 1 min 0,000 mm 4,1 UV-I 802 W/m² 10,3 °C 24,4 °C 8,0 km/h (2 Bft) 91,30 %
05.05.2026 14:35 24,2 °C 43 % 1006,0 hPa 0,0 l/m² 6,4 km/h (2 Bft) SO 135 ° 1 min 0,000 mm 4,1 UV-I 835 W/m² 10,8 °C 24,2 °C 9,7 km/h (2 Bft) 86,96 %
05.05.2026 14:34 23,9 °C 43 % 1006,0 hPa 0,0 l/m² 4,8 km/h (1 Bft) SO 135 ° 1 min 0,000 mm 4,1 UV-I 824 W/m² 10,5 °C 23,9 °C 8,0 km/h (2 Bft) 95,65 %
05.05.2026 14:33 23,8 °C 41 % 1006,0 hPa 0,0 l/m² 4,8 km/h (1 Bft) O 90 ° 1 min 0,000 mm 4,2 UV-I 856 W/m² 9,7 °C 23,8 °C 6,4 km/h (2 Bft) 95,65 %
05.05.2026 14:32 23,7 °C 38 % 1006,0 hPa 0,0 l/m² 3,2 km/h (1 Bft) O-SO 112 ° 1 min 0,000 mm 4,2 UV-I 807 W/m² 8,5 °C 23,7 °C 4,8 km/h (1 Bft) 91,30 %
05.05.2026 14:31 23,7 °C 40 % 1005,9 hPa 0,0 l/m² 1,6 km/h (1 Bft) O-SO 112 ° 1 min 0,000 mm 4,3 UV-I 485 W/m² 9,3 °C 23,7 °C 3,2 km/h (1 Bft) 100,00 %
05.05.2026 14:30 23,7 °C 39 % 1006,0 hPa 0,0 l/m² 3,2 km/h (1 Bft) W-NW 292 ° 1 min 0,000 mm 3,1 UV-I 485 W/m² 8,9 °C 23,7 °C 6,4 km/h (2 Bft) 86,96 %
05.05.2026 14:29 23,7 °C 41 % 1006,1 hPa 0,0 l/m² 3,2 km/h (1 Bft) W-NW 292 ° 1 min 0,000 mm 3,1 UV-I 875 W/m² 9,7 °C 23,7 °C 6,4 km/h (2 Bft) 91,30 %
05.05.2026 14:28 23,7 °C 38 % 1006,0 hPa 0,0 l/m² 6,4 km/h (2 Bft) W 270 ° 1 min 0,000 mm 2,9 UV-I 870 W/m² 8,5 °C 23,7 °C 12,9 km/h (3 Bft) 82,61 %
05.05.2026 14:27 23,8 °C 40 % 1006,0 hPa 0,0 l/m² 4,8 km/h (1 Bft) SW 225 ° 1 min 0,000 mm 4,3 UV-I 645 W/m² 9,4 °C 23,8 °C 9,7 km/h (2 Bft) 82,61 %
05.05.2026 14:26 23,9 °C 39 % 1006,0 hPa 0,0 l/m² 3,2 km/h (1 Bft) SW 225 ° 1 min 0,000 mm 4,3 UV-I 645 W/m² 9,1 °C 23,9 °C 8,0 km/h (2 Bft) 100,00 %
05.05.2026 14:25 24,1 °C 39 % 1006,0 hPa 0,0 l/m² 3,2 km/h (1 Bft) W 270 ° 1 min 0,000 mm 4,4 UV-I 645 W/m² 9,3 °C 24,1 °C 6,4 km/h (2 Bft) 82,61 %
05.05.2026 14:24 24,2 °C 38 % 1006,1 hPa 0,0 l/m² 4,8 km/h (1 Bft) W 270 ° 1 min 0,000 mm 4,4 UV-I 645 W/m² 9,0 °C 24,2 °C 6,4 km/h (2 Bft) 100,00 %
05.05.2026 14:23 24,4 °C 38 % 1006,0 hPa 0,0 l/m² 8,0 km/h (2 Bft) W 270 ° 1 min 0,000 mm 4,4 UV-I 645 W/m² 9,2 °C 24,4 °C 14,5 km/h (3 Bft) 82,61 %
05.05.2026 14:22 24,4 °C 38 % 1006,0 hPa 0,0 l/m² 3,2 km/h (1 Bft) W-SW 247 ° 1 min 0,000 mm 4,2 UV-I 904 W/m² 9,2 °C 24,4 °C 8,0 km/h (2 Bft) 95,65 %
05.05.2026 14:21 24,4 °C 39 % 1006,0 hPa 0,0 l/m² 6,4 km/h (2 Bft) S-SO 157 ° 1 min 0,000 mm 4,5 UV-I 904 W/m² 9,5 °C 24,4 °C 12,9 km/h (3 Bft) 91,30 %
05.05.2026 14:20 24,2 °C 39 % 1006,1 hPa 0,0 l/m² 6,4 km/h (2 Bft) S 180 ° 1 min 0,000 mm 4,5 UV-I 904 W/m² 9,4 °C 24,2 °C 11,3 km/h (2 Bft) 73,91 %
05.05.2026 14:19 23,9 °C 36 % 1006,0 hPa 0,0 l/m² 6,4 km/h (2 Bft) S-SO 157 ° 1 min 0,000 mm 4,5 UV-I 904 W/m² 7,9 °C 23,9 °C 11,3 km/h (2 Bft) 95,65 %
05.05.2026 14:18 24,1 °C 37 % 1006,1 hPa 0,0 l/m² 4,8 km/h (1 Bft) O 90 ° 1 min 0,000 mm 4,3 UV-I 904 W/m² 8,5 °C 24,1 °C 9,7 km/h (2 Bft) 82,61 %
05.05.2026 14:17 24,1 °C 39 % 1006,1 hPa 0,0 l/m² 1,6 km/h (1 Bft) W-SW 247 ° 1 min 0,000 mm 4,6 UV-I 904 W/m² 9,3 °C 24,1 °C 4,8 km/h (1 Bft) 91,30 %
05.05.2026 14:16 24,1 °C 41 % 1006,0 hPa 0,0 l/m² 4,8 km/h (1 Bft) W-SW 247 ° 1 min 0,000 mm 4,6 UV-I 777 W/m² 10,0 °C 24,1 °C 8,0 km/h (2 Bft) 91,30 %
05.05.2026 14:15 23,9 °C 41 % 1005,9 hPa 0,0 l/m² 8,0 km/h (2 Bft) W-SW 247 ° 1 min 0,000 mm 4,5 UV-I 777 W/m² 9,8 °C 23,9 °C 11,3 km/h (2 Bft) 91,30 %
05.05.2026 14:14 23,8 °C 39 % 1006,1 hPa 0,0 l/m² 11,3 km/h (2 Bft) W 270 ° 1 min 0,000 mm 3,2 UV-I 777 W/m² 9,0 °C 23,8 °C 16,1 km/h (3 Bft) 73,91 %
05.05.2026 14:13 23,8 °C 39 % 1006,0 hPa 0,0 l/m² 6,4 km/h (2 Bft) W-SW 247 ° 1 min 0,000 mm 4,3 UV-I 714 W/m² 9,0 °C 23,8 °C 14,5 km/h (3 Bft) 95,65 %
05.05.2026 14:12 23,8 °C 39 % 1006,1 hPa 0,0 l/m² 1,6 km/h (1 Bft) W-SW 247 ° 1 min 0,000 mm 4,1 UV-I 714 W/m² 9,0 °C 23,8 °C 4,8 km/h (1 Bft) 91,30 %
05.05.2026 14:11 23,9 °C 40 % 1006,1 hPa 0,0 l/m² 3,2 km/h (1 Bft) S-SO 157 ° 1 min 0,000 mm 3,8 UV-I 682 W/m² 9,5 °C 23,9 °C 6,4 km/h (2 Bft) 91,30 %
05.05.2026 14:10 23,8 °C 38 % 1006,2 hPa 0,0 l/m² 6,4 km/h (2 Bft) SO 135 ° 1 min 0,000 mm 4,0 UV-I 747 W/m² 8,6 °C 23,8 °C 11,3 km/h (2 Bft) 91,30 %
05.05.2026 14:09 23,8 °C 41 % 1006,2 hPa 0,0 l/m² 9,7 km/h (2 Bft) S-SO 157 ° 1 min 0,000 mm 3,8 UV-I 747 W/m² 9,7 °C 23,8 °C 12,9 km/h (3 Bft) 91,30 %
05.05.2026 14:08 23,7 °C 38 % 1006,2 hPa 0,0 l/m² 3,2 km/h (1 Bft) S-SO 157 ° 1 min 0,000 mm 4,0 UV-I 747 W/m² 8,5 °C 23,7 °C 6,4 km/h (2 Bft) 91,30 %
05.05.2026 14:07 23,8 °C 40 % 1006,2 hPa 0,0 l/m² 4,8 km/h (1 Bft) W 270 ° 1 min 0,000 mm 4,0 UV-I 722 W/m² 9,4 °C 23,8 °C 11,3 km/h (2 Bft) 91,30 %
05.05.2026 14:06 23,8 °C 43 % 1006,2 hPa 0,0 l/m² 6,4 km/h (2 Bft) W-SW 247 ° 1 min 0,000 mm 4,1 UV-I 768 W/m² 10,5 °C 23,8 °C 14,5 km/h (3 Bft) 100,00 %
05.05.2026 14:05 23,8 °C 38 % 1006,2 hPa 0,0 l/m² 3,2 km/h (1 Bft) N 360 ° 1 min 0,000 mm 4,2 UV-I 793 W/m² 8,6 °C 23,8 °C 6,4 km/h (2 Bft) 100,00 %
05.05.2026 14:04 24,0 °C 39 % 1006,1 hPa 0,0 l/m² 6,4 km/h (2 Bft) NW 315 ° 1 min 0,000 mm 4,4 UV-I 865 W/m² 9,2 °C 24,0 °C 11,3 km/h (2 Bft) 95,65 %
05.05.2026 14:03 24,1 °C 41 % 1006,2 hPa 0,0 l/m² 8,0 km/h (2 Bft) W-SW 247 ° 1 min 0,000 mm 2,1 UV-I 865 W/m² 10,0 °C 24,1 °C 12,9 km/h (3 Bft) 95,65 %
05.05.2026 14:02 24,1 °C 41 % 1006,2 hPa 0,0 l/m² 8,0 km/h (2 Bft) W-SW 247 ° 1 min 0,000 mm 3,1 UV-I 863 W/m² 10,0 °C 24,1 °C 14,5 km/h (3 Bft) 100,00 %
05.05.2026 14:01 23,9 °C 39 % 1006,2 hPa 0,0 l/m² 3,2 km/h (1 Bft) W 270 ° 1 min 0,000 mm 4,5 UV-I 863 W/m² 9,1 °C 23,9 °C 4,8 km/h (1 Bft) 91,30 %
05.05.2026 14:00 23,6 °C 38 % 1006,2 hPa 0,0 l/m² 1,6 km/h (1 Bft) SO 135 ° 1 min 0,584 mm 4,4 UV-I 863 W/m² 8,4 °C 23,6 °C 8,0 km/h (2 Bft) 100,00 %
05.05.2026 13:59 23,7 °C 36 % 1006,3 hPa 0,0 l/m² 1,6 km/h (1 Bft) O 90 ° 1 min 0,000 mm 4,4 UV-I 789 W/m² 7,7 °C 23,7 °C 3,2 km/h (1 Bft) 100,00 %
05.05.2026 13:58 23,8 °C 38 % 1006,3 hPa 0,0 l/m² 3,2 km/h (1 Bft) O-SO 112 ° 1 min 0,000 mm 4,2 UV-I 795 W/m² 8,6 °C 23,8 °C 9,7 km/h (2 Bft) 91,30 %
05.05.2026 13:57 23,9 °C 38 % 1006,3 hPa 0,0 l/m² 9,7 km/h (2 Bft) SO 135 ° 1 min 0,000 mm 4,5 UV-I 849 W/m² 8,7 °C 23,9 °C 16,1 km/h (3 Bft) 95,65 %
05.05.2026 13:56 23,9 °C 38 % 1006,2 hPa 0,0 l/m² 4,8 km/h (1 Bft) S-SO 157 ° 1 min 0,000 mm 4,5 UV-I 844 W/m² 8,7 °C 23,9 °C 8,0 km/h (2 Bft) 100,00 %
05.05.2026 13:55 23,9 °C 39 % 1006,3 hPa 0,0 l/m² 8,0 km/h (2 Bft) S 180 ° 1 min 0,000 mm 4,6 UV-I 840 W/m² 9,1 °C 23,9 °C 12,9 km/h (3 Bft) 95,65 %
05.05.2026 13:54 23,9 °C 39 % 1006,3 hPa 0,0 l/m² 8,0 km/h (2 Bft) S-SO 157 ° 1 min 0,000 mm 4,5 UV-I 837 W/m² 9,1 °C 23,9 °C 14,5 km/h (3 Bft) 100,00 %
05.05.2026 13:53 23,9 °C 42 % 1006,2 hPa 0,0 l/m² 6,4 km/h (2 Bft) SW 225 ° 1 min 0,000 mm 4,4 UV-I 823 W/m² 10,2 °C 23,9 °C 12,9 km/h (3 Bft) 95,65 %
05.05.2026 13:52 23,8 °C 42 % 1006,3 hPa 0,0 l/m² 3,2 km/h (1 Bft) W 270 ° 1 min 0,000 mm 4,6 UV-I 823 W/m² 10,1 °C 23,8 °C 6,4 km/h (2 Bft) 95,65 %
05.05.2026 13:51 23,9 °C 39 % 1006,2 hPa 0,0 l/m² 3,2 km/h (1 Bft) SW 225 ° 1 min 0,000 mm 4,6 UV-I 830 W/m² 9,1 °C 23,9 °C 8,0 km/h (2 Bft) 100,00 %
05.05.2026 13:50 23,9 °C 41 % 1006,3 hPa 0,0 l/m² 3,2 km/h (1 Bft) S-SO 157 ° 1 min 0,000 mm 4,7 UV-I 826 W/m² 9,8 °C 23,9 °C 9,7 km/h (2 Bft) 95,65 %
05.05.2026 13:49 23,6 °C 43 % 1006,3 hPa 0,0 l/m² 6,4 km/h (2 Bft) S-SO 157 ° 1 min 0,000 mm 4,6 UV-I 870 W/m² 10,3 °C 23,6 °C 11,3 km/h (2 Bft) 100,00 %
05.05.2026 13:48 23,6 °C 40 % 1006,3 hPa 0,0 l/m² 0,0 km/h (0 Bft) O 90 ° 1 min 0,000 mm 4,8 UV-I 895 W/m² 9,2 °C 23,6 °C 1,6 km/h (1 Bft) 95,65 %
05.05.2026 13:47 23,7 °C 40 % 1006,4 hPa 0,0 l/m² 3,2 km/h (1 Bft) O 90 ° 1 min 0,000 mm 4,8 UV-I 895 W/m² 9,3 °C 23,7 °C 4,8 km/h (1 Bft) 95,65 %
05.05.2026 13:46 23,7 °C 41 % 1006,3 hPa 0,0 l/m² 3,2 km/h (1 Bft) SO 135 ° 1 min 0,000 mm 4,8 UV-I 895 W/m² 9,7 °C 23,7 °C 6,4 km/h (2 Bft) 100,00 %
05.05.2026 13:45 23,7 °C 43 % 1006,5 hPa 0,0 l/m² 3,2 km/h (1 Bft) S-SO 157 ° 1 min 0,000 mm 4,8 UV-I 893 W/m² 10,4 °C 23,7 °C 6,4 km/h (2 Bft) 82,61 %
05.05.2026 13:44 23,4 °C 43 % 1006,5 hPa 0,0 l/m² 1,6 km/h (1 Bft) S 180 ° 1 min 0,000 mm 4,8 UV-I 893 W/m² 10,1 °C 23,4 °C 8,0 km/h (2 Bft) 95,65 %
05.05.2026 13:43 23,3 °C 42 % 1006,4 hPa 0,0 l/m² 4,8 km/h (1 Bft) W-NW 292 ° 1 min 0,000 mm 4,8 UV-I 893 W/m² 9,7 °C 23,3 °C 11,3 km/h (2 Bft) 95,65 %
05.05.2026 13:42 23,2 °C 44 % 1006,4 hPa 0,0 l/m² 9,7 km/h (2 Bft) W 270 ° 1 min 0,000 mm 4,8 UV-I 893 W/m² 10,3 °C 23,2 °C 16,1 km/h (3 Bft) 95,65 %
05.05.2026 13:41 23,1 °C 44 % 1006,4 hPa 0,0 l/m² 4,8 km/h (1 Bft) SW 225 ° 1 min 0,000 mm 4,8 UV-I 895 W/m² 10,2 °C 23,1 °C 11,3 km/h (2 Bft) 100,00 %
05.05.2026 13:40 23,1 °C 44 % 1006,3 hPa 0,0 l/m² 8,0 km/h (2 Bft) W 270 ° 1 min 0,000 mm 4,8 UV-I 893 W/m² 10,2 °C 23,1 °C 12,9 km/h (3 Bft) 95,65 %
05.05.2026 13:39 23,1 °C 45 % 1006,4 hPa 0,0 l/m² 6,4 km/h (2 Bft) W-SW 247 ° 1 min 0,000 mm 4,8 UV-I 891 W/m² 10,5 °C 23,1 °C 11,3 km/h (2 Bft) 95,65 %
05.05.2026 13:38 23,1 °C 45 % 1006,4 hPa 0,0 l/m² 6,4 km/h (2 Bft) W-SW 247 ° 1 min 0,000 mm 4,8 UV-I 893 W/m² 10,5 °C 23,1 °C 12,9 km/h (3 Bft) 100,00 %
05.05.2026 13:37 23,2 °C 44 % 1006,4 hPa 0,0 l/m² 4,8 km/h (1 Bft) W 270 ° 1 min 0,000 mm 4,8 UV-I 896 W/m² 10,3 °C 23,2 °C 9,7 km/h (2 Bft) 100,00 %
05.05.2026 13:36 23,3 °C 43 % 1006,3 hPa 0,0 l/m² 4,8 km/h (1 Bft) W-SW 247 ° 1 min 0,000 mm 4,8 UV-I 884 W/m² 10,0 °C 23,3 °C 14,5 km/h (3 Bft) 95,65 %
05.05.2026 13:35 23,4 °C 45 % 1006,3 hPa 0,0 l/m² 8,0 km/h (2 Bft) W-SW 247 ° 1 min 0,000 mm 4,8 UV-I 881 W/m² 10,8 °C 23,4 °C 11,3 km/h (2 Bft) 95,65 %
05.05.2026 13:34 23,3 °C 44 % 1006,4 hPa 0,0 l/m² 6,4 km/h (2 Bft) W-SW 247 ° 1 min 0,000 mm 4,8 UV-I 888 W/m² 10,4 °C 23,3 °C 17,7 km/h (3 Bft) 100,00 %
05.05.2026 13:33 23,4 °C 46 % 1006,3 hPa 0,0 l/m² 9,7 km/h (2 Bft) SW 225 ° 1 min 0,000 mm 4,8 UV-I 891 W/m² 11,1 °C 23,4 °C 17,7 km/h (3 Bft) 100,00 %
05.05.2026 13:32 23,4 °C 47 % 1006,4 hPa 0,0 l/m² 9,7 km/h (2 Bft) W-SW 247 ° 1 min 0,000 mm 4,8 UV-I 888 W/m² 11,4 °C 23,4 °C 17,7 km/h (3 Bft) 95,65 %
05.05.2026 13:31 23,3 °C 47 % 1006,4 hPa 0,0 l/m² 6,4 km/h (2 Bft) W-SW 247 ° 1 min 0,000 mm 4,8 UV-I 877 W/m² 11,3 °C 23,3 °C 12,9 km/h (3 Bft) 100,00 %
05.05.2026 13:30 23,2 °C 46 % 1006,5 hPa 0,0 l/m² 3,2 km/h (1 Bft) N-NO 22 ° 1 min 0,000 mm 4,8 UV-I 879 W/m² 10,9 °C 23,2 °C 6,4 km/h (2 Bft) 100,00 %
05.05.2026 13:29 23,2 °C 47 % 1006,5 hPa 0,0 l/m² 6,4 km/h (2 Bft) W-SW 247 ° 1 min 0,000 mm 4,7 UV-I 879 W/m² 11,3 °C 23,2 °C 11,3 km/h (2 Bft) 86,96 %
05.05.2026 13:28 23,2 °C 48 % 1006,5 hPa 0,0 l/m² 6,4 km/h (2 Bft) SW 225 ° 1 min 0,000 mm 4,7 UV-I 875 W/m² 11,6 °C 23,2 °C 11,3 km/h (2 Bft) 95,65 %
05.05.2026 13:27 22,9 °C 47 % 1006,5 hPa 0,0 l/m² 3,2 km/h (1 Bft) W-SW 247 ° 1 min 0,000 mm 4,8 UV-I 884 W/m² 11,0 °C 22,9 °C 6,4 km/h (2 Bft) 91,30 %
05.05.2026 13:26 22,8 °C 47 % 1006,5 hPa 0,0 l/m² 1,6 km/h (1 Bft) W 270 ° 1 min 0,000 mm 4,9 UV-I 893 W/m² 10,9 °C 22,8 °C 3,2 km/h (1 Bft) 100,00 %
05.05.2026 13:25 22,8 °C 46 % 1006,5 hPa 0,0 l/m² 4,8 km/h (1 Bft) NW 315 ° 1 min 0,000 mm 4,9 UV-I 895 W/m² 10,6 °C 22,8 °C 8,0 km/h (2 Bft) 91,30 %
05.05.2026 13:24 22,8 °C 47 % 1006,5 hPa 0,0 l/m² 4,8 km/h (1 Bft) NW 315 ° 1 min 0,000 mm 4,8 UV-I 889 W/m² 10,9 °C 22,8 °C 6,4 km/h (2 Bft) 100,00 %
05.05.2026 13:23 22,9 °C 46 % 1006,5 hPa 0,0 l/m² 1,6 km/h (1 Bft) NW 315 ° 1 min 0,000 mm 4,8 UV-I 884 W/m² 10,7 °C 22,9 °C 3,2 km/h (1 Bft) 95,65 %
05.05.2026 13:22 23,2 °C 44 % 1006,5 hPa 0,0 l/m² 1,6 km/h (1 Bft) NW 315 ° 1 min 0,000 mm 4,7 UV-I 849 W/m² 10,3 °C 23,2 °C 3,2 km/h (1 Bft) 82,61 %
05.05.2026 13:21 23,4 °C 43 % 1006,6 hPa 0,0 l/m² 4,8 km/h (1 Bft) W 270 ° 1 min 0,000 mm 4,7 UV-I 835 W/m² 10,1 °C 23,4 °C 11,3 km/h (2 Bft) 100,00 %
05.05.2026 13:20 23,4 °C 39 % 1006,6 hPa 0,0 l/m² 3,2 km/h (1 Bft) S 180 ° 1 min 0,000 mm 4,8 UV-I 870 W/m² 8,6 °C 23,4 °C 4,8 km/h (1 Bft) 82,61 %
05.05.2026 13:19 23,6 °C 42 % 1006,6 hPa 0,0 l/m² 1,6 km/h (1 Bft) S 180 ° 1 min 0,000 mm 4,7 UV-I 886 W/m² 9,9 °C 23,6 °C 4,8 km/h (1 Bft) 95,65 %
05.05.2026 13:18 23,6 °C 40 % 1006,6 hPa 0,0 l/m² 1,6 km/h (1 Bft) S-SO 157 ° 1 min 0,000 mm 4,6 UV-I 847 W/m² 9,2 °C 23,6 °C 3,2 km/h (1 Bft) 100,00 %
05.05.2026 13:17 23,8 °C 42 % 1006,6 hPa 0,0 l/m² 4,8 km/h (1 Bft) S 180 ° 1 min 0,000 mm 4,6 UV-I 842 W/m² 10,1 °C 23,8 °C 8,0 km/h (2 Bft) 100,00 %
05.05.2026 13:16 23,8 °C 43 % 1006,6 hPa 0,0 l/m² 4,8 km/h (1 Bft) S-SO 157 ° 1 min 0,000 mm 4,8 UV-I 879 W/m² 10,5 °C 23,8 °C 8,0 km/h (2 Bft) 100,00 %
05.05.2026 13:15 23,7 °C 45 % 1006,6 hPa 0,0 l/m² 3,2 km/h (1 Bft) S-SO 157 ° 1 min 0,000 mm 4,9 UV-I 891 W/m² 11,1 °C 23,7 °C 8,0 km/h (2 Bft) 95,65 %
05.05.2026 13:14 23,5 °C 45 % 1006,5 hPa 0,0 l/m² 4,8 km/h (1 Bft) S-SO 157 ° 1 min 0,000 mm 4,9 UV-I 895 W/m² 10,9 °C 23,5 °C 8,0 km/h (2 Bft) 100,00 %
05.05.2026 13:13 23,3 °C 44 % 1006,6 hPa 0,0 l/m² 3,2 km/h (1 Bft) S 180 ° 1 min 0,000 mm 4,9 UV-I 902 W/m² 10,4 °C 23,3 °C 6,4 km/h (2 Bft) 91,30 %
05.05.2026 13:12 23,1 °C 42 % 1006,6 hPa 0,0 l/m² 3,2 km/h (1 Bft) S-SO 157 ° 1 min 0,000 mm 4,9 UV-I 896 W/m² 9,5 °C 23,1 °C 6,4 km/h (2 Bft) 100,00 %
05.05.2026 13:11 23,2 °C 41 % 1006,6 hPa 0,0 l/m² 3,2 km/h (1 Bft) SO 135 ° 1 min 0,000 mm 4,9 UV-I 896 W/m² 9,2 °C 23,2 °C 6,4 km/h (2 Bft) 95,65 %
05.05.2026 13:10 23,2 °C 41 % 1006,6 hPa 0,0 l/m² 6,4 km/h (2 Bft) O-SO 112 ° 1 min 0,000 mm 5,0 UV-I 904 W/m² 9,2 °C 23,2 °C 9,7 km/h (2 Bft) 86,96 %
05.05.2026 13:09 23,2 °C 41 % 1006,6 hPa 0,0 l/m² 6,4 km/h (2 Bft) S 180 ° 1 min 0,000 mm 5,0 UV-I 905 W/m² 9,2 °C 23,2 °C 9,7 km/h (2 Bft) 100,00 %
05.05.2026 13:08 22,9 °C 44 % 1006,6 hPa 0,0 l/m² 9,7 km/h (2 Bft) S 180 ° 1 min 0,000 mm 5,0 UV-I 907 W/m² 10,0 °C 22,9 °C 14,5 km/h (3 Bft) 95,65 %
05.05.2026 13:07 22,8 °C 46 % 1006,5 hPa 0,0 l/m² 4,8 km/h (1 Bft) S 180 ° 1 min 0,000 mm 5,0 UV-I 911 W/m² 10,6 °C 22,8 °C 12,9 km/h (3 Bft) 100,00 %
05.05.2026 13:06 22,8 °C 46 % 1006,5 hPa 0,0 l/m² 8,0 km/h (2 Bft) W-SW 247 ° 1 min 0,000 mm 5,0 UV-I 904 W/m² 10,6 °C 22,8 °C 14,5 km/h (3 Bft) 95,65 %
05.05.2026 13:05 22,7 °C 45 % 1006,6 hPa 0,0 l/m² 3,2 km/h (1 Bft) S 180 ° 1 min 0,000 mm 5,0 UV-I 900 W/m² 10,1 °C 22,7 °C 8,0 km/h (2 Bft) 86,96 %
05.05.2026 13:04 22,7 °C 47 % 1006,6 hPa 0,0 l/m² 4,8 km/h (1 Bft) W-SW 247 ° 1 min 0,000 mm 5,0 UV-I 904 W/m² 10,8 °C 22,7 °C 11,3 km/h (2 Bft) 95,65 %
05.05.2026 13:03 22,6 °C 44 % 1006,5 hPa 0,0 l/m² 4,8 km/h (1 Bft) W 270 ° 1 min 0,000 mm 4,9 UV-I 902 W/m² 9,7 °C 22,6 °C 9,7 km/h (2 Bft) 95,65 %
05.05.2026 13:02 22,8 °C 46 % 1006,6 hPa 0,0 l/m² 3,2 km/h (1 Bft) N-NW 337 ° 1 min 0,000 mm 4,9 UV-I 907 W/m² 10,6 °C 22,8 °C 6,4 km/h (2 Bft) 86,96 %
05.05.2026 13:01 22,8 °C 45 % 1006,6 hPa 0,0 l/m² 3,2 km/h (1 Bft) W-SW 247 ° 1 min 0,000 mm 4,9 UV-I 868 W/m² 10,2 °C 22,8 °C 6,4 km/h (2 Bft) 95,65 %
05.05.2026 13:00 22,9 °C 46 % 1006,6 hPa 0,0 l/m² 6,4 km/h (2 Bft) W 270 ° 1 min 0,559 mm 4,9 UV-I 889 W/m² 10,7 °C 22,9 °C 9,7 km/h (2 Bft) 100,00 %
05.05.2026 12:59 23,1 °C 45 % 1006,5 hPa 0,0 l/m² 4,8 km/h (1 Bft) W 270 ° 1 min 0,000 mm 4,9 UV-I 891 W/m² 10,5 °C 23,1 °C 9,7 km/h (2 Bft) 91,30 %
05.05.2026 12:58 23,2 °C 47 % 1006,5 hPa 0,0 l/m² 6,4 km/h (2 Bft) W 270 ° 1 min 0,000 mm 4,9 UV-I 895 W/m² 11,3 °C 23,2 °C 12,9 km/h (3 Bft) 100,00 %
05.05.2026 12:57 23,2 °C 47 % 1006,6 hPa 0,0 l/m² 4,8 km/h (1 Bft) SW 225 ° 1 min 0,000 mm 4,9 UV-I 891 W/m² 11,3 °C 23,2 °C 8,0 km/h (2 Bft) 91,30 %
05.05.2026 12:56 23,1 °C 45 % 1006,6 hPa 0,0 l/m² 1,6 km/h (1 Bft) SW 225 ° 1 min 0,000 mm 4,9 UV-I 914 W/m² 10,5 °C 23,1 °C 6,4 km/h (2 Bft) 95,65 %
05.05.2026 12:55 23,1 °C 46 % 1006,7 hPa 0,0 l/m² 1,6 km/h (1 Bft) S-SO 157 ° 1 min 0,000 mm 4,9 UV-I 911 W/m² 10,8 °C 23,1 °C 3,2 km/h (1 Bft) 100,00 %
05.05.2026 12:54 22,9 °C 44 % 1006,6 hPa 0,0 l/m² 1,6 km/h (1 Bft) S-SO 157 ° 1 min 0,000 mm 4,9 UV-I 900 W/m² 10,0 °C 22,9 °C 3,2 km/h (1 Bft) 91,30 %
05.05.2026 12:53 22,9 °C 44 % 1006,7 hPa 0,0 l/m² 3,2 km/h (1 Bft) S-SO 157 ° 1 min 0,000 mm 4,9 UV-I 895 W/m² 10,0 °C 22,9 °C 6,4 km/h (2 Bft) 95,65 %
05.05.2026 12:52 22,8 °C 47 % 1006,7 hPa 0,0 l/m² 3,2 km/h (1 Bft) SO 135 ° 1 min 0,000 mm 4,8 UV-I 888 W/m² 10,9 °C 22,8 °C 8,0 km/h (2 Bft) 100,00 %
05.05.2026 12:51 22,7 °C 46 % 1006,7 hPa 0,0 l/m² 3,2 km/h (1 Bft) S-SO 157 ° 1 min 0,000 mm 4,8 UV-I 874 W/m² 10,5 °C 22,7 °C 6,4 km/h (2 Bft) 91,30 %
05.05.2026 12:50 22,8 °C 46 % 1006,8 hPa 0,0 l/m² 3,2 km/h (1 Bft) S-SW 202 ° 1 min 0,000 mm 4,8 UV-I 867 W/m² 10,6 °C 22,8 °C 4,8 km/h (1 Bft) 95,65 %
05.05.2026 12:49 22,8 °C 47 % 1006,8 hPa 0,0 l/m² 6,4 km/h (2 Bft) W-SW 247 ° 1 min 0,000 mm 4,7 UV-I 861 W/m² 10,9 °C 22,8 °C 16,1 km/h (3 Bft) 95,65 %
05.05.2026 12:48 22,8 °C 45 % 1006,8 hPa 0,0 l/m² 6,4 km/h (2 Bft) S 180 ° 1 min 0,000 mm 4,7 UV-I 854 W/m² 10,2 °C 22,8 °C 11,3 km/h (2 Bft) 95,65 %
05.05.2026 12:47 22,7 °C 44 % 1006,8 hPa 0,0 l/m² 3,2 km/h (1 Bft) SW 225 ° 1 min 0,000 mm 4,7 UV-I 872 W/m² 9,8 °C 22,7 °C 6,4 km/h (2 Bft) 86,96 %
05.05.2026 12:46 22,8 °C 45 % 1006,7 hPa 0,0 l/m² 4,8 km/h (1 Bft) W-SW 247 ° 1 min 0,000 mm 4,8 UV-I 877 W/m² 10,2 °C 22,8 °C 9,7 km/h (2 Bft) 91,30 %
05.05.2026 12:45 22,9 °C 48 % 1006,8 hPa 0,0 l/m² 6,4 km/h (2 Bft) SW 225 ° 1 min 0,000 mm 4,8 UV-I 879 W/m² 11,3 °C 22,9 °C 16,1 km/h (3 Bft) 91,30 %
05.05.2026 12:44 22,8 °C 47 % 1006,8 hPa 0,0 l/m² 3,2 km/h (1 Bft) S-SW 202 ° 1 min 0,000 mm 4,8 UV-I 875 W/m² 10,9 °C 22,8 °C 11,3 km/h (2 Bft) 95,65 %
05.05.2026 12:43 22,8 °C 48 % 1006,9 hPa 0,0 l/m² 6,4 km/h (2 Bft) S-SW 202 ° 1 min 0,000 mm 4,8 UV-I 881 W/m² 11,2 °C 22,8 °C 9,7 km/h (2 Bft) 95,65 %
05.05.2026 12:42 22,8 °C 47 % 1006,8 hPa 0,0 l/m² 6,4 km/h (2 Bft) W 270 ° 1 min 0,000 mm 4,8 UV-I 874 W/m² 10,9 °C 22,8 °C 11,3 km/h (2 Bft) 91,30 %
05.05.2026 12:41 22,9 °C 45 % 1006,8 hPa 0,0 l/m² 6,4 km/h (2 Bft) W-SW 247 ° 1 min 0,000 mm 4,8 UV-I 874 W/m² 10,3 °C 22,9 °C 11,3 km/h (2 Bft) 95,65 %
05.05.2026 12:40 22,9 °C 45 % 1006,9 hPa 0,0 l/m² 3,2 km/h (1 Bft) S-SO 157 ° 1 min 0,000 mm 4,8 UV-I 874 W/m² 10,3 °C 22,9 °C 6,4 km/h (2 Bft) 91,30 %
05.05.2026 12:39 22,8 °C 45 % 1006,9 hPa 0,0 l/m² 3,2 km/h (1 Bft) S 180 ° 1 min 0,000 mm 4,8 UV-I 874 W/m² 10,2 °C 22,8 °C 6,4 km/h (2 Bft) 86,96 %
05.05.2026 12:38 22,7 °C 44 % 1006,9 hPa 0,0 l/m² 4,8 km/h (1 Bft) S 180 ° 1 min 0,000 mm 4,7 UV-I 874 W/m² 9,8 °C 22,7 °C 8,0 km/h (2 Bft) 95,65 %
05.05.2026 12:37 22,6 °C 46 % 1006,9 hPa 0,0 l/m² 4,8 km/h (1 Bft) S-SO 157 ° 1 min 0,000 mm 4,8 UV-I 886 W/m² 10,4 °C 22,6 °C 9,7 km/h (2 Bft) 91,30 %
05.05.2026 12:36 22,6 °C 45 % 1006,9 hPa 0,0 l/m² 1,6 km/h (1 Bft) S-SO 157 ° 1 min 0,000 mm 4,8 UV-I 888 W/m² 10,1 °C 22,6 °C 4,8 km/h (1 Bft) 91,30 %
05.05.2026 12:35 22,6 °C 44 % 1007,0 hPa 0,0 l/m² 3,2 km/h (1 Bft) S 180 ° 1 min 0,000 mm 4,8 UV-I 889 W/m² 9,7 °C 22,6 °C 6,4 km/h (2 Bft) 95,65 %
05.05.2026 12:34 22,5 °C 44 % 1007,0 hPa 0,0 l/m² 3,2 km/h (1 Bft) S-SO 157 ° 1 min 0,000 mm 4,8 UV-I 893 W/m² 9,6 °C 22,5 °C 9,7 km/h (2 Bft) 86,96 %
05.05.2026 12:33 22,4 °C 44 % 1006,9 hPa 0,0 l/m² 3,2 km/h (1 Bft) NW 315 ° 1 min 0,000 mm 4,8 UV-I 889 W/m² 9,5 °C 22,4 °C 8,0 km/h (2 Bft) 91,30 %
05.05.2026 12:32 22,4 °C 43 % 1006,9 hPa 0,0 l/m² 3,2 km/h (1 Bft) SW 225 ° 1 min 0,000 mm 4,8 UV-I 886 W/m² 9,2 °C 22,4 °C 8,0 km/h (2 Bft) 91,30 %
05.05.2026 12:31 22,4 °C 42 % 1007,0 hPa 0,0 l/m² 3,2 km/h (1 Bft) W-SW 247 ° 1 min 0,000 mm 4,8 UV-I 882 W/m² 8,9 °C 22,4 °C 6,4 km/h (2 Bft) 100,00 %
05.05.2026 12:30 22,5 °C 44 % 1006,9 hPa 0,0 l/m² 4,8 km/h (1 Bft) W 270 ° 1 min 0,000 mm 4,8 UV-I 886 W/m² 9,6 °C 22,5 °C 11,3 km/h (2 Bft) 95,65 %
05.05.2026 12:29 22,4 °C 44 % 1006,9 hPa 0,0 l/m² 4,8 km/h (1 Bft) W-SW 247 ° 1 min 0,000 mm 4,7 UV-I 881 W/m² 9,5 °C 22,4 °C 6,4 km/h (2 Bft) 95,65 %
05.05.2026 12:28 22,5 °C 43 % 1006,9 hPa 0,0 l/m² 6,4 km/h (2 Bft) W-SW 247 ° 1 min 0,000 mm 4,7 UV-I 861 W/m² 9,3 °C 22,5 °C 11,3 km/h (2 Bft) 91,30 %
05.05.2026 12:27 22,5 °C 44 % 1006,9 hPa 0,0 l/m² 3,2 km/h (1 Bft) SW 225 ° 1 min 0,000 mm 4,7 UV-I 872 W/m² 9,6 °C 22,5 °C 6,4 km/h (2 Bft) 91,30 %
05.05.2026 12:26 22,4 °C 44 % 1006,9 hPa 0,0 l/m² 3,2 km/h (1 Bft) O-SO 112 ° 1 min 0,000 mm 4,6 UV-I 865 W/m² 9,5 °C 22,4 °C 8,0 km/h (2 Bft) 91,30 %
05.05.2026 12:25 22,3 °C 45 % 1007,0 hPa 0,0 l/m² 6,4 km/h (2 Bft) W 270 ° 1 min 0,000 mm 4,5 UV-I 816 W/m² 9,8 °C 22,3 °C 16,1 km/h (3 Bft) 91,30 %
05.05.2026 12:24 22,3 °C 45 % 1007,0 hPa 0,0 l/m² 11,3 km/h (2 Bft) W-SW 247 ° 1 min 0,000 mm 4,7 UV-I 853 W/m² 9,8 °C 22,3 °C 16,1 km/h (3 Bft) 95,65 %
05.05.2026 12:23 22,3 °C 47 % 1007,0 hPa 0,0 l/m² 6,4 km/h (2 Bft) W 270 ° 1 min 0,000 mm 4,7 UV-I 865 W/m² 10,4 °C 22,3 °C 12,9 km/h (3 Bft) 95,65 %
05.05.2026 12:22 22,3 °C 46 % 1007,0 hPa 0,0 l/m² 3,2 km/h (1 Bft) SO 135 ° 1 min 0,000 mm 4,7 UV-I 874 W/m² 10,1 °C 22,3 °C 6,4 km/h (2 Bft) 100,00 %
05.05.2026 12:21 22,2 °C 45 % 1006,9 hPa 0,0 l/m² 3,2 km/h (1 Bft) W-SW 247 ° 1 min 0,000 mm 4,7 UV-I 877 W/m² 9,7 °C 22,2 °C 6,4 km/h (2 Bft) 95,65 %
05.05.2026 12:20 22,2 °C 45 % 1007,0 hPa 0,0 l/m² 4,8 km/h (1 Bft) W-SW 247 ° 1 min 0,000 mm 4,7 UV-I 877 W/m² 9,7 °C 22,2 °C 8,0 km/h (2 Bft) 86,96 %
05.05.2026 12:19 22,2 °C 48 % 1007,0 hPa 0,0 l/m² 6,4 km/h (2 Bft) W 270 ° 1 min 0,000 mm 4,7 UV-I 879 W/m² 10,7 °C 22,2 °C 12,9 km/h (3 Bft) 95,65 %
05.05.2026 12:18 22,1 °C 48 % 1007,1 hPa 0,0 l/m² 4,8 km/h (1 Bft) W 270 ° 1 min 0,000 mm 4,7 UV-I 879 W/m² 10,6 °C 22,1 °C 11,3 km/h (2 Bft) 91,30 %
05.05.2026 12:17 22,0 °C 48 % 1007,1 hPa 0,0 l/m² 3,2 km/h (1 Bft) W 270 ° 1 min 0,000 mm 4,7 UV-I 879 W/m² 10,5 °C 22,0 °C 4,8 km/h (1 Bft) 100,00 %
05.05.2026 12:16 22,1 °C 47 % 1007,0 hPa 0,0 l/m² 3,2 km/h (1 Bft) W-SW 247 ° 1 min 0,000 mm 4,7 UV-I 882 W/m² 10,3 °C 22,1 °C 6,4 km/h (2 Bft) 91,30 %
05.05.2026 12:15 22,2 °C 47 % 1007,1 hPa 0,0 l/m² 1,6 km/h (1 Bft) SW 225 ° 1 min 0,000 mm 4,7 UV-I 879 W/m² 10,3 °C 22,2 °C 4,8 km/h (1 Bft) 100,00 %
05.05.2026 12:14 22,3 °C 47 % 1007,1 hPa 0,0 l/m² 4,8 km/h (1 Bft) W-SW 247 ° 1 min 0,000 mm 4,7 UV-I 881 W/m² 10,4 °C 22,3 °C 9,7 km/h (2 Bft) 95,65 %
05.05.2026 12:13 22,4 °C 47 % 1007,0 hPa 0,0 l/m² 4,8 km/h (1 Bft) W-SW 247 ° 1 min 0,000 mm 4,7 UV-I 879 W/m² 10,5 °C 22,4 °C 12,9 km/h (3 Bft) 91,30 %
05.05.2026 12:12 22,3 °C 46 % 1007,1 hPa 0,0 l/m² 6,4 km/h (2 Bft) W-SW 247 ° 1 min 0,000 mm 4,7 UV-I 875 W/m² 10,1 °C 22,3 °C 11,3 km/h (2 Bft) 86,96 %
05.05.2026 12:11 22,3 °C 49 % 1007,1 hPa 0,0 l/m² 8,0 km/h (2 Bft) W 270 ° 1 min 0,000 mm 4,6 UV-I 874 W/m² 11,1 °C 22,3 °C 14,5 km/h (3 Bft) 86,96 %
05.05.2026 12:10 22,3 °C 50 % 1007,2 hPa 0,0 l/m² 3,2 km/h (1 Bft) W-SW 247 ° 1 min 0,000 mm 4,6 UV-I 874 W/m² 11,4 °C 22,3 °C 8,0 km/h (2 Bft) 78,26 %
05.05.2026 12:09 22,3 °C 52 % 1007,1 hPa 0,0 l/m² 6,4 km/h (2 Bft) W-SW 247 ° 1 min 0,000 mm 4,6 UV-I 870 W/m² 12,0 °C 22,3 °C 11,3 km/h (2 Bft) 100,00 %
05.05.2026 12:08 22,2 °C 53 % 1007,1 hPa 0,0 l/m² 4,8 km/h (1 Bft) W-SW 247 ° 1 min 0,000 mm 4,6 UV-I 868 W/m² 12,2 °C 22,2 °C 11,3 km/h (2 Bft) 100,00 %
05.05.2026 12:07 21,9 °C 53 % 1007,1 hPa 0,0 l/m² 1,6 km/h (1 Bft) W-SW 247 ° 1 min 0,000 mm 4,6 UV-I 868 W/m² 11,9 °C 21,9 °C 4,8 km/h (1 Bft) 95,65 %
05.05.2026 12:06 21,9 °C 51 % 1007,2 hPa 0,0 l/m² 3,2 km/h (1 Bft) W 270 ° 1 min 0,000 mm 4,6 UV-I 868 W/m² 11,3 °C 21,9 °C 6,4 km/h (2 Bft) 100,00 %
05.05.2026 12:05 21,9 °C 50 % 1007,3 hPa 0,0 l/m² 1,6 km/h (1 Bft) SW 225 ° 1 min 0,000 mm 4,6 UV-I 867 W/m² 11,0 °C 21,9 °C 4,8 km/h (1 Bft) 82,61 %
05.05.2026 12:04 21,8 °C 51 % 1007,1 hPa 0,0 l/m² 1,6 km/h (1 Bft) SO 135 ° 1 min 0,000 mm 4,6 UV-I 867 W/m² 11,2 °C 21,8 °C 4,8 km/h (1 Bft) 100,00 %
05.05.2026 12:03 21,8 °C 50 % 1007,2 hPa 0,0 l/m² 1,6 km/h (1 Bft) SO 135 ° 1 min 0,000 mm 4,6 UV-I 867 W/m² 10,9 °C 21,8 °C 4,8 km/h (1 Bft) 100,00 %
05.05.2026 12:02 21,7 °C 49 % 1007,3 hPa 0,0 l/m² 3,2 km/h (1 Bft) S-SO 157 ° 1 min 0,000 mm 4,6 UV-I 865 W/m² 10,5 °C 21,7 °C 8,0 km/h (2 Bft) 91,30 %
05.05.2026 12:01 21,7 °C 48 % 1007,2 hPa 0,0 l/m² 0,0 km/h (0 Bft) W-SW 247 ° 1 min 0,000 mm 4,5 UV-I 863 W/m² 10,2 °C 21,7 °C 3,2 km/h (1 Bft) 100,00 %
05.05.2026 12:00 21,7 °C 50 % 1007,3 hPa 0,0 l/m² 1,6 km/h (1 Bft) W 270 ° 1 min 0,508 mm 4,5 UV-I 863 W/m² 10,8 °C 21,7 °C 3,2 km/h (1 Bft) 100,00 %
05.05.2026 11:59 21,6 °C 48 % 1007,3 hPa 0,0 l/m² 3,2 km/h (1 Bft) S 180 ° 1 min 0,000 mm 4,5 UV-I 865 W/m² 10,1 °C 21,6 °C 8,0 km/h (2 Bft) 95,65 %
05.05.2026 11:58 21,6 °C 49 % 1007,4 hPa 0,0 l/m² 3,2 km/h (1 Bft) NW 315 ° 1 min 0,000 mm 4,5 UV-I 867 W/m² 10,4 °C 21,6 °C 8,0 km/h (2 Bft) 91,30 %
05.05.2026 11:57 21,7 °C 49 % 1007,4 hPa 0,0 l/m² 4,8 km/h (1 Bft) O-SO 112 ° 1 min 0,000 mm 4,5 UV-I 865 W/m² 10,5 °C 21,7 °C 6,4 km/h (2 Bft) 100,00 %
05.05.2026 11:56 21,7 °C 49 % 1007,2 hPa 0,0 l/m² 6,4 km/h (2 Bft) W 270 ° 1 min 0,000 mm 4,5 UV-I 860 W/m² 10,5 °C 21,7 °C 12,9 km/h (3 Bft) 95,65 %
05.05.2026 11:55 21,7 °C 52 % 1007,3 hPa 0,0 l/m² 4,8 km/h (1 Bft) W 270 ° 1 min 0,000 mm 4,5 UV-I 861 W/m² 11,4 °C 21,7 °C 9,7 km/h (2 Bft) 91,30 %
05.05.2026 11:54 21,6 °C 54 % 1007,4 hPa 0,0 l/m² 6,4 km/h (2 Bft) W 270 ° 1 min 0,000 mm 4,5 UV-I 858 W/m² 11,9 °C 21,6 °C 11,3 km/h (2 Bft) 95,65 %
05.05.2026 11:53 21,6 °C 53 % 1007,4 hPa 0,0 l/m² 6,4 km/h (2 Bft) W-SW 247 ° 1 min 0,000 mm 4,5 UV-I 858 W/m² 11,6 °C 21,6 °C 12,9 km/h (3 Bft) 100,00 %
05.05.2026 11:52 21,5 °C 51 % 1007,3 hPa 0,0 l/m² 6,4 km/h (2 Bft) W-SW 247 ° 1 min 0,000 mm 4,4 UV-I 854 W/m² 10,9 °C 21,5 °C 11,3 km/h (2 Bft) 95,65 %
05.05.2026 11:51 21,6 °C 51 % 1007,5 hPa 0,0 l/m² 4,8 km/h (1 Bft) W-NW 292 ° 1 min 0,000 mm 4,4 UV-I 853 W/m² 11,0 °C 21,6 °C 8,0 km/h (2 Bft) 95,65 %
05.05.2026 11:50 21,5 °C 52 % 1007,4 hPa 0,0 l/m² 8,0 km/h (2 Bft) W 270 ° 1 min 0,000 mm 4,4 UV-I 849 W/m² 11,2 °C 21,5 °C 14,5 km/h (3 Bft) 100,00 %
05.05.2026 11:49 21,6 °C 50 % 1007,4 hPa 0,0 l/m² 8,0 km/h (2 Bft) W 270 ° 1 min 0,000 mm 4,4 UV-I 849 W/m² 10,7 °C 21,6 °C 11,3 km/h (2 Bft) 95,65 %
05.05.2026 11:48 21,5 °C 50 % 1007,6 hPa 0,0 l/m² 8,0 km/h (2 Bft) W-SW 247 ° 1 min 0,000 mm 4,4 UV-I 849 W/m² 10,6 °C 21,5 °C 12,9 km/h (3 Bft) 100,00 %
05.05.2026 11:47 21,5 °C 52 % 1007,6 hPa 0,0 l/m² 6,4 km/h (2 Bft) W 270 ° 1 min 0,000 mm 4,4 UV-I 849 W/m² 11,2 °C 21,5 °C 12,9 km/h (3 Bft) 95,65 %
05.05.2026 11:46 21,5 °C 51 % 1007,5 hPa 0,0 l/m² 3,2 km/h (1 Bft) O 90 ° 1 min 0,000 mm 4,4 UV-I 849 W/m² 10,9 °C 21,5 °C 4,8 km/h (1 Bft) 95,65 %
05.05.2026 11:45 21,6 °C 54 % 1007,6 hPa 0,0 l/m² 6,4 km/h (2 Bft) W-SW 247 ° 1 min 0,000 mm 4,4 UV-I 849 W/m² 11,9 °C 21,6 °C 11,3 km/h (2 Bft) 95,65 %
05.05.2026 11:44 21,6 °C 51 % 1007,6 hPa 0,0 l/m² 4,8 km/h (1 Bft) W-SW 247 ° 1 min 0,000 mm 4,4 UV-I 849 W/m² 11,0 °C 21,6 °C 8,0 km/h (2 Bft) 95,65 %
05.05.2026 11:43 21,4 °C 53 % 1007,6 hPa 0,0 l/m² 4,8 km/h (1 Bft) W 270 ° 1 min 0,000 mm 4,4 UV-I 846 W/m² 11,4 °C 21,4 °C 11,3 km/h (2 Bft) 86,96 %
05.05.2026 11:42 21,4 °C 55 % 1007,7 hPa 0,0 l/m² 3,2 km/h (1 Bft) S-SO 157 ° 1 min 0,000 mm 4,3 UV-I 847 W/m² 12,0 °C 21,4 °C 6,4 km/h (2 Bft) 95,65 %
05.05.2026 11:41 21,3 °C 54 % 1007,6 hPa 0,0 l/m² 3,2 km/h (1 Bft) S 180 ° 1 min 0,000 mm 4,3 UV-I 842 W/m² 11,6 °C 21,3 °C 8,0 km/h (2 Bft) 95,65 %
05.05.2026 11:40 21,3 °C 54 % 1007,7 hPa 0,0 l/m² 4,8 km/h (1 Bft) W-SW 247 ° 1 min 0,000 mm 4,3 UV-I 842 W/m² 11,6 °C 21,3 °C 9,7 km/h (2 Bft) 91,30 %
05.05.2026 11:39 21,4 °C 55 % 1007,6 hPa 0,0 l/m² 4,8 km/h (1 Bft) W 270 ° 1 min 0,000 mm 4,3 UV-I 840 W/m² 12,0 °C 21,4 °C 11,3 km/h (2 Bft) 100,00 %
05.05.2026 11:38 21,4 °C 54 % 1007,6 hPa 0,0 l/m² 6,4 km/h (2 Bft) W 270 ° 1 min 0,000 mm 4,3 UV-I 838 W/m² 11,7 °C 21,4 °C 11,3 km/h (2 Bft) 100,00 %
05.05.2026 11:37 21,5 °C 54 % 1007,7 hPa 0,0 l/m² 4,8 km/h (1 Bft) S-SW 202 ° 1 min 0,000 mm 4,3 UV-I 837 W/m² 11,8 °C 21,5 °C 9,7 km/h (2 Bft) 100,00 %
05.05.2026 11:36 21,4 °C 54 % 1007,7 hPa 0,0 l/m² 1,6 km/h (1 Bft) W-NW 292 ° 1 min 0,000 mm 4,2 UV-I 835 W/m² 11,7 °C 21,4 °C 3,2 km/h (1 Bft) 82,61 %
05.05.2026 11:35 21,5 °C 54 % 1007,6 hPa 0,0 l/m² 3,2 km/h (1 Bft) S-SO 157 ° 1 min 0,000 mm 4,2 UV-I 835 W/m² 11,8 °C 21,5 °C 6,4 km/h (2 Bft) 91,30 %
05.05.2026 11:34 21,4 °C 55 % 1007,7 hPa 0,0 l/m² 1,6 km/h (1 Bft) S-SO 157 ° 1 min 0,000 mm 4,2 UV-I 835 W/m² 12,0 °C 21,4 °C 4,8 km/h (1 Bft) 100,00 %
05.05.2026 11:33 21,3 °C 54 % 1007,7 hPa 0,0 l/m² 3,2 km/h (1 Bft) S 180 ° 1 min 0,000 mm 4,2 UV-I 830 W/m² 11,6 °C 21,3 °C 4,8 km/h (1 Bft) 95,65 %
05.05.2026 11:32 21,3 °C 54 % 1007,7 hPa 0,0 l/m² 3,2 km/h (1 Bft) SO 135 ° 1 min 0,000 mm 4,2 UV-I 830 W/m² 11,6 °C 21,3 °C 6,4 km/h (2 Bft) 95,65 %
05.05.2026 11:31 21,4 °C 55 % 1007,7 hPa 0,0 l/m² 3,2 km/h (1 Bft) S-SW 202 ° 1 min 0,000 mm 4,2 UV-I 830 W/m² 12,0 °C 21,4 °C 4,8 km/h (1 Bft) 95,65 %
05.05.2026 11:30 21,5 °C 52 % 1007,7 hPa 0,0 l/m² 6,4 km/h (2 Bft) W-SW 247 ° 1 min 0,000 mm 4,2 UV-I 828 W/m² 11,2 °C 21,5 °C 9,7 km/h (2 Bft) 86,96 %
05.05.2026 11:29 21,6 °C 53 % 1007,7 hPa 0,0 l/m² 3,2 km/h (1 Bft) S-SO 157 ° 1 min 0,000 mm 4,2 UV-I 826 W/m² 11,6 °C 21,6 °C 8,0 km/h (2 Bft) 100,00 %
05.05.2026 11:28 21,6 °C 53 % 1007,8 hPa 0,0 l/m² 6,4 km/h (2 Bft) S-SO 157 ° 1 min 0,000 mm 4,1 UV-I 826 W/m² 11,6 °C 21,6 °C 9,7 km/h (2 Bft) 95,65 %
05.05.2026 11:27 21,6 °C 54 % 1007,7 hPa 0,0 l/m² 3,2 km/h (1 Bft) S 180 ° 1 min 0,000 mm 4,1 UV-I 824 W/m² 11,9 °C 21,6 °C 8,0 km/h (2 Bft) 95,65 %
05.05.2026 11:26 21,5 °C 53 % 1007,8 hPa 0,0 l/m² 3,2 km/h (1 Bft) S 180 ° 1 min 0,000 mm 4,1 UV-I 819 W/m² 11,5 °C 21,5 °C 8,0 km/h (2 Bft) 100,00 %
05.05.2026 11:25 21,4 °C 52 % 1007,8 hPa 0,0 l/m² 4,8 km/h (1 Bft) S-SO 157 ° 1 min 0,000 mm 4,1 UV-I 821 W/m² 11,1 °C 21,4 °C 9,7 km/h (2 Bft) 95,65 %
05.05.2026 11:24 21,4 °C 52 % 1007,8 hPa 0,0 l/m² 4,8 km/h (1 Bft) S 180 ° 1 min 0,000 mm 4,1 UV-I 819 W/m² 11,1 °C 21,4 °C 8,0 km/h (2 Bft) 95,65 %
05.05.2026 11:23 21,4 °C 52 % 1007,8 hPa 0,0 l/m² 4,8 km/h (1 Bft) S-SO 157 ° 1 min 0,000 mm 4,1 UV-I 817 W/m² 11,1 °C 21,4 °C 8,0 km/h (2 Bft) 95,65 %
05.05.2026 11:22 21,5 °C 54 % 1007,8 hPa 0,0 l/m² 4,8 km/h (1 Bft) O 90 ° 1 min 0,000 mm 4,0 UV-I 816 W/m² 11,8 °C 21,5 °C 6,4 km/h (2 Bft) 100,00 %
05.05.2026 11:21 21,4 °C 53 % 1007,7 hPa 0,0 l/m² 9,7 km/h (2 Bft) O-SO 112 ° 1 min 0,000 mm 4,0 UV-I 816 W/m² 11,4 °C 21,4 °C 12,9 km/h (3 Bft) 91,30 %
05.05.2026 11:20 21,4 °C 53 % 1007,8 hPa 0,0 l/m² 8,0 km/h (2 Bft) SO 135 ° 1 min 0,000 mm 4,0 UV-I 816 W/m² 11,4 °C 21,4 °C 12,9 km/h (3 Bft) 95,65 %
05.05.2026 11:19 21,3 °C 54 % 1007,7 hPa 0,0 l/m² 6,4 km/h (2 Bft) S 180 ° 1 min 0,000 mm 4,0 UV-I 816 W/m² 11,6 °C 21,3 °C 8,0 km/h (2 Bft) 100,00 %
05.05.2026 11:18 21,1 °C 54 % 1007,8 hPa 0,0 l/m² 4,8 km/h (1 Bft) S-SO 157 ° 1 min 0,000 mm 4,0 UV-I 812 W/m² 11,4 °C 21,1 °C 9,7 km/h (2 Bft) 95,65 %
05.05.2026 11:17 20,9 °C 55 % 1007,8 hPa 0,0 l/m² 4,8 km/h (1 Bft) O-SO 112 ° 1 min 0,000 mm 4,0 UV-I 810 W/m² 11,5 °C 20,9 °C 9,7 km/h (2 Bft) 100,00 %
05.05.2026 11:16 20,8 °C 55 % 1007,8 hPa 0,0 l/m² 4,8 km/h (1 Bft) S 180 ° 1 min 0,000 mm 4,0 UV-I 810 W/m² 11,4 °C 20,8 °C 8,0 km/h (2 Bft) 95,65 %
05.05.2026 11:15 20,7 °C 55 % 1007,8 hPa 0,0 l/m² 4,8 km/h (1 Bft) S-SO 157 ° 1 min 0,000 mm 3,9 UV-I 805 W/m² 11,3 °C 20,7 °C 8,0 km/h (2 Bft) 95,65 %
05.05.2026 11:14 20,8 °C 54 % 1007,8 hPa 0,0 l/m² 3,2 km/h (1 Bft) O-SO 112 ° 1 min 0,000 mm 3,9 UV-I 805 W/m² 11,1 °C 20,8 °C 4,8 km/h (1 Bft) 95,65 %
05.05.2026 11:13 20,7 °C 55 % 1007,8 hPa 0,0 l/m² 6,4 km/h (2 Bft) S-SO 157 ° 1 min 0,000 mm 3,9 UV-I 805 W/m² 11,3 °C 20,7 °C 11,3 km/h (2 Bft) 100,00 %
05.05.2026 11:12 20,7 °C 54 % 1007,8 hPa 0,0 l/m² 4,8 km/h (1 Bft) SW 225 ° 1 min 0,000 mm 3,9 UV-I 803 W/m² 11,1 °C 20,7 °C 8,0 km/h (2 Bft) 100,00 %
05.05.2026 11:11 20,7 °C 55 % 1007,8 hPa 0,0 l/m² 3,2 km/h (1 Bft) SO 135 ° 1 min 0,000 mm 3,9 UV-I 802 W/m² 11,3 °C 20,7 °C 4,8 km/h (1 Bft) 95,65 %
05.05.2026 11:10 20,7 °C 55 % 1007,8 hPa 0,0 l/m² 6,4 km/h (2 Bft) S-SO 157 ° 1 min 0,000 mm 3,9 UV-I 798 W/m² 11,3 °C 20,7 °C 11,3 km/h (2 Bft) 100,00 %
05.05.2026 11:09 20,7 °C 54 % 1007,8 hPa 0,0 l/m² 3,2 km/h (1 Bft) SO 135 ° 1 min 0,000 mm 3,9 UV-I 796 W/m² 11,1 °C 20,7 °C 6,4 km/h (2 Bft) 95,65 %
05.05.2026 11:08 20,7 °C 55 % 1007,8 hPa 0,0 l/m² 3,2 km/h (1 Bft) SW 225 ° 1 min 0,000 mm 3,8 UV-I 795 W/m² 11,3 °C 20,7 °C 6,4 km/h (2 Bft) 95,65 %
05.05.2026 11:07 20,7 °C 55 % 1007,9 hPa 0,0 l/m² 1,6 km/h (1 Bft) W-SW 247 ° 1 min 0,000 mm 3,8 UV-I 795 W/m² 11,3 °C 20,7 °C 4,8 km/h (1 Bft) 100,00 %
05.05.2026 11:06 20,7 °C 54 % 1007,8 hPa 0,0 l/m² 3,2 km/h (1 Bft) O-SO 112 ° 1 min 0,000 mm 3,8 UV-I 793 W/m² 11,1 °C 20,7 °C 4,8 km/h (1 Bft) 95,65 %
05.05.2026 11:05 20,7 °C 54 % 1007,8 hPa 0,0 l/m² 1,6 km/h (1 Bft) SO 135 ° 1 min 0,000 mm 3,8 UV-I 793 W/m² 11,1 °C 20,7 °C 3,2 km/h (1 Bft) 95,65 %
05.05.2026 11:04 20,5 °C 55 % 1007,8 hPa 0,0 l/m² 3,2 km/h (1 Bft) O 90 ° 1 min 0,000 mm 3,8 UV-I 789 W/m² 11,1 °C 20,5 °C 4,8 km/h (1 Bft) 95,65 %
05.05.2026 11:03 20,5 °C 55 % 1007,9 hPa 0,0 l/m² 3,2 km/h (1 Bft) S-SW 202 ° 1 min 0,000 mm 3,7 UV-I 786 W/m² 11,1 °C 20,5 °C 6,4 km/h (2 Bft) 95,65 %
05.05.2026 11:02 20,4 °C 55 % 1007,9 hPa 0,0 l/m² 4,8 km/h (1 Bft) S 180 ° 1 min 0,000 mm 3,7 UV-I 784 W/m² 11,1 °C 20,4 °C 9,7 km/h (2 Bft) 86,96 %
05.05.2026 11:01 20,4 °C 56 % 1007,9 hPa 0,0 l/m² 1,6 km/h (1 Bft) S-SW 202 ° 1 min 0,000 mm 3,7 UV-I 782 W/m² 11,3 °C 20,4 °C 8,0 km/h (2 Bft) 95,65 %
05.05.2026 11:00 20,2 °C 55 % 1008,0 hPa 0,0 l/m² 3,2 km/h (1 Bft) S 180 ° 1 min 0,406 mm 3,7 UV-I 782 W/m² 10,9 °C 20,2 °C 4,8 km/h (1 Bft) 95,65 %
05.05.2026 10:59 20,2 °C 56 % 1008,0 hPa 0,0 l/m² 4,8 km/h (1 Bft) S 180 ° 1 min 0,000 mm 3,7 UV-I 780 W/m² 11,1 °C 20,2 °C 8,0 km/h (2 Bft) 95,65 %
05.05.2026 10:58 20,3 °C 54 % 1008,0 hPa 0,0 l/m² 3,2 km/h (1 Bft) O 90 ° 1 min 0,000 mm 3,7 UV-I 777 W/m² 10,7 °C 20,3 °C 4,8 km/h (1 Bft) 95,65 %
05.05.2026 10:57 20,4 °C 54 % 1008,0 hPa 0,0 l/m² 6,4 km/h (2 Bft) S-SO 157 ° 1 min 0,000 mm 3,6 UV-I 773 W/m² 10,8 °C 20,4 °C 9,7 km/h (2 Bft) 78,26 %
05.05.2026 10:56 20,4 °C 56 % 1008,0 hPa 0,0 l/m² 6,4 km/h (2 Bft) S 180 ° 1 min 0,000 mm 3,6 UV-I 773 W/m² 11,3 °C 20,4 °C 14,5 km/h (3 Bft) 100,00 %
05.05.2026 10:55 20,4 °C 56 % 1007,9 hPa 0,0 l/m² 6,4 km/h (2 Bft) S 180 ° 1 min 0,000 mm 3,6 UV-I 770 W/m² 11,3 °C 20,4 °C 11,3 km/h (2 Bft) 100,00 %
05.05.2026 10:54 20,4 °C 57 % 1008,0 hPa 0,0 l/m² 6,4 km/h (2 Bft) S-SO 157 ° 1 min 0,000 mm 3,6 UV-I 766 W/m² 11,6 °C 20,4 °C 11,3 km/h (2 Bft) 91,30 %
05.05.2026 10:53 20,5 °C 56 % 1008,0 hPa 0,0 l/m² 3,2 km/h (1 Bft) S-SO 157 ° 1 min 0,000 mm 3,6 UV-I 766 W/m² 11,4 °C 20,5 °C 8,0 km/h (2 Bft) 86,96 %
05.05.2026 10:52 20,5 °C 59 % 1008,0 hPa 0,0 l/m² 4,8 km/h (1 Bft) S-SO 157 ° 1 min 0,000 mm 3,6 UV-I 765 W/m² 12,2 °C 20,5 °C 9,7 km/h (2 Bft) 95,65 %
05.05.2026 10:51 20,4 °C 57 % 1008,0 hPa 0,0 l/m² 3,2 km/h (1 Bft) SO 135 ° 1 min 0,000 mm 3,5 UV-I 765 W/m² 11,6 °C 20,4 °C 4,8 km/h (1 Bft) 91,30 %
05.05.2026 10:50 20,3 °C 56 % 1008,0 hPa 0,0 l/m² 3,2 km/h (1 Bft) SO 135 ° 1 min 0,000 mm 3,5 UV-I 763 W/m² 11,2 °C 20,3 °C 4,8 km/h (1 Bft) 100,00 %
05.05.2026 10:49 20,2 °C 56 % 1008,0 hPa 0,0 l/m² 3,2 km/h (1 Bft) SO 135 ° 1 min 0,000 mm 3,5 UV-I 761 W/m² 11,1 °C 20,2 °C 6,4 km/h (2 Bft) 95,65 %
05.05.2026 10:48 20,3 °C 56 % 1008,0 hPa 0,0 l/m² 8,0 km/h (2 Bft) S-SO 157 ° 1 min 0,000 mm 3,5 UV-I 758 W/m² 11,2 °C 20,3 °C 11,3 km/h (2 Bft) 95,65 %
05.05.2026 10:47 20,2 °C 57 % 1008,0 hPa 0,0 l/m² 8,0 km/h (2 Bft) S 180 ° 1 min 0,000 mm 3,5 UV-I 759 W/m² 11,4 °C 20,2 °C 11,3 km/h (2 Bft) 86,96 %
05.05.2026 10:46 20,2 °C 56 % 1008,0 hPa 0,0 l/m² 4,8 km/h (1 Bft) SO 135 ° 1 min 0,000 mm 3,5 UV-I 754 W/m² 11,1 °C 20,2 °C 11,3 km/h (2 Bft) 86,96 %
05.05.2026 10:45 20,2 °C 55 % 1008,0 hPa 0,0 l/m² 4,8 km/h (1 Bft) S 180 ° 1 min 0,000 mm 3,5 UV-I 752 W/m² 10,9 °C 20,2 °C 8,0 km/h (2 Bft) 100,00 %
05.05.2026 10:44 20,2 °C 56 % 1008,1 hPa 0,0 l/m² 8,0 km/h (2 Bft) S-SO 157 ° 1 min 0,000 mm 3,4 UV-I 749 W/m² 11,1 °C 20,2 °C 11,3 km/h (2 Bft) 100,00 %
05.05.2026 10:43 20,2 °C 56 % 1008,1 hPa 0,0 l/m² 8,0 km/h (2 Bft) S 180 ° 1 min 0,000 mm 3,4 UV-I 745 W/m² 11,1 °C 20,2 °C 11,3 km/h (2 Bft) 100,00 %
05.05.2026 10:42 20,2 °C 57 % 1008,1 hPa 0,0 l/m² 6,4 km/h (2 Bft) S 180 ° 1 min 0,000 mm 3,4 UV-I 745 W/m² 11,4 °C 20,2 °C 11,3 km/h (2 Bft) 100,00 %
05.05.2026 10:41 20,1 °C 56 % 1008,0 hPa 0,0 l/m² 3,2 km/h (1 Bft) S 180 ° 1 min 0,000 mm 3,4 UV-I 742 W/m² 11,0 °C 20,1 °C 8,0 km/h (2 Bft) 95,65 %
05.05.2026 10:40 20,2 °C 55 % 1008,1 hPa 0,0 l/m² 3,2 km/h (1 Bft) SW 225 ° 1 min 0,000 mm 3,3 UV-I 740 W/m² 10,9 °C 20,2 °C 6,4 km/h (2 Bft) 95,65 %
05.05.2026 10:39 20,3 °C 54 % 1008,1 hPa 0,0 l/m² 4,8 km/h (1 Bft) S 180 ° 1 min 0,000 mm 3,3 UV-I 740 W/m² 10,7 °C 20,3 °C 8,0 km/h (2 Bft) 86,96 %
05.05.2026 10:38 20,3 °C 57 % 1008,0 hPa 0,0 l/m² 8,0 km/h (2 Bft) S 180 ° 1 min 0,000 mm 3,3 UV-I 737 W/m² 11,5 °C 20,3 °C 14,5 km/h (3 Bft) 91,30 %
05.05.2026 10:37 20,3 °C 56 % 1008,1 hPa 0,0 l/m² 4,8 km/h (1 Bft) S 180 ° 1 min 0,000 mm 3,3 UV-I 737 W/m² 11,2 °C 20,3 °C 8,0 km/h (2 Bft) 95,65 %
05.05.2026 10:36 20,3 °C 55 % 1008,2 hPa 0,0 l/m² 3,2 km/h (1 Bft) SW 225 ° 1 min 0,000 mm 3,3 UV-I 733 W/m² 11,0 °C 20,3 °C 8,0 km/h (2 Bft) 91,30 %
05.05.2026 10:35 20,4 °C 57 % 1008,1 hPa 0,0 l/m² 3,2 km/h (1 Bft) S-SW 202 ° 1 min 0,000 mm 3,3 UV-I 729 W/m² 11,6 °C 20,4 °C 8,0 km/h (2 Bft) 100,00 %
05.05.2026 10:34 20,3 °C 58 % 1008,1 hPa 0,0 l/m² 4,8 km/h (1 Bft) S 180 ° 1 min 0,000 mm 3,2 UV-I 722 W/m² 11,8 °C 20,3 °C 9,7 km/h (2 Bft) 95,65 %
05.05.2026 10:33 20,3 °C 59 % 1008,0 hPa 0,0 l/m² 4,8 km/h (1 Bft) S 180 ° 1 min 0,000 mm 3,2 UV-I 721 W/m² 12,0 °C 20,3 °C 8,0 km/h (2 Bft) 86,96 %
05.05.2026 10:32 20,2 °C 58 % 1008,1 hPa 0,0 l/m² 3,2 km/h (1 Bft) SO 135 ° 1 min 0,000 mm 3,2 UV-I 717 W/m² 11,7 °C 20,2 °C 6,4 km/h (2 Bft) 95,65 %
05.05.2026 10:31 20,2 °C 59 % 1008,2 hPa 0,0 l/m² 4,8 km/h (1 Bft) O-SO 112 ° 1 min 0,000 mm 3,2 UV-I 710 W/m² 11,9 °C 20,2 °C 11,3 km/h (2 Bft) 95,65 %
05.05.2026 10:30 20,2 °C 58 % 1008,1 hPa 0,0 l/m² 6,4 km/h (2 Bft) S-SW 202 ° 1 min 0,000 mm 3,2 UV-I 701 W/m² 11,7 °C 20,2 °C 11,3 km/h (2 Bft) 82,61 %
05.05.2026 10:29 20,1 °C 58 % 1008,1 hPa 0,0 l/m² 4,8 km/h (1 Bft) S-SO 157 ° 1 min 0,000 mm 3,2 UV-I 696 W/m² 11,6 °C 20,1 °C 8,0 km/h (2 Bft) 95,65 %
05.05.2026 10:28 20,2 °C 57 % 1008,1 hPa 0,0 l/m² 4,8 km/h (1 Bft) S 180 ° 1 min 0,000 mm 3,1 UV-I 684 W/m² 11,4 °C 20,2 °C 8,0 km/h (2 Bft) 91,30 %
05.05.2026 10:27 20,2 °C 59 % 1008,1 hPa 0,0 l/m² 6,4 km/h (2 Bft) S 180 ° 1 min 0,000 mm 3,1 UV-I 675 W/m² 11,9 °C 20,2 °C 11,3 km/h (2 Bft) 95,65 %
05.05.2026 10:26 20,1 °C 58 % 1008,1 hPa 0,0 l/m² 6,4 km/h (2 Bft) S 180 ° 1 min 0,000 mm 3,1 UV-I 666 W/m² 11,6 °C 20,1 °C 9,7 km/h (2 Bft) 95,65 %
05.05.2026 10:25 20,1 °C 57 % 1008,1 hPa 0,0 l/m² 4,8 km/h (1 Bft) S 180 ° 1 min 0,000 mm 3,1 UV-I 656 W/m² 11,3 °C 20,1 °C 8,0 km/h (2 Bft) 95,65 %
05.05.2026 10:24 20,2 °C 57 % 1008,2 hPa 0,0 l/m² 4,8 km/h (1 Bft) S-SW 202 ° 1 min 0,000 mm 3,1 UV-I 649 W/m² 11,4 °C 20,2 °C 6,4 km/h (2 Bft) 95,65 %
05.05.2026 10:23 20,1 °C 58 % 1008,1 hPa 0,0 l/m² 3,2 km/h (1 Bft) S 180 ° 1 min 0,000 mm 3,1 UV-I 629 W/m² 11,6 °C 20,1 °C 6,4 km/h (2 Bft) 95,65 %
05.05.2026 10:22 20,1 °C 58 % 1008,0 hPa 0,0 l/m² 3,2 km/h (1 Bft) SW 225 ° 1 min 0,000 mm 3,1 UV-I 622 W/m² 11,6 °C 20,1 °C 9,7 km/h (2 Bft) 95,65 %
05.05.2026 10:21 20,0 °C 59 % 1008,2 hPa 0,0 l/m² 4,8 km/h (1 Bft) S-SO 157 ° 1 min 0,000 mm 3,0 UV-I 612 W/m² 11,7 °C 20,0 °C 8,0 km/h (2 Bft) 91,30 %
05.05.2026 10:20 19,9 °C 59 % 1008,2 hPa 0,0 l/m² 4,8 km/h (1 Bft) S-SO 157 ° 1 min 0,000 mm 3,0 UV-I 605 W/m² 11,6 °C 19,9 °C 12,9 km/h (3 Bft) 95,65 %
05.05.2026 10:19 19,8 °C 59 % 1008,2 hPa 0,0 l/m² 4,8 km/h (1 Bft) S 180 ° 1 min 0,000 mm 3,0 UV-I 596 W/m² 11,6 °C 19,8 °C 9,7 km/h (2 Bft) 86,96 %
05.05.2026 10:18 19,8 °C 58 % 1008,1 hPa 0,0 l/m² 1,6 km/h (1 Bft) S 180 ° 1 min 0,000 mm 3,0 UV-I 587 W/m² 11,3 °C 19,8 °C 4,8 km/h (1 Bft) 95,65 %
05.05.2026 10:17 19,8 °C 58 % 1008,1 hPa 0,0 l/m² 1,6 km/h (1 Bft) SW 225 ° 1 min 0,000 mm 3,0 UV-I 575 W/m² 11,3 °C 19,8 °C 4,8 km/h (1 Bft) 100,00 %
05.05.2026 10:16 19,8 °C 58 % 1008,1 hPa 0,0 l/m² 3,2 km/h (1 Bft) SO 135 ° 1 min 0,000 mm 2,9 UV-I 566 W/m² 11,3 °C 19,8 °C 6,4 km/h (2 Bft) 95,65 %
05.05.2026 10:15 19,8 °C 58 % 1008,1 hPa 0,0 l/m² 3,2 km/h (1 Bft) S 180 ° 1 min 0,000 mm 2,9 UV-I 561 W/m² 11,3 °C 19,8 °C 6,4 km/h (2 Bft) 100,00 %
05.05.2026 10:14 19,8 °C 59 % 1008,1 hPa 0,0 l/m² 1,6 km/h (1 Bft) S-SW 202 ° 1 min 0,000 mm 2,9 UV-I 552 W/m² 11,6 °C 19,8 °C 4,8 km/h (1 Bft) 91,30 %
05.05.2026 10:13 19,8 °C 58 % 1008,1 hPa 0,0 l/m² 3,2 km/h (1 Bft) S 180 ° 1 min 0,000 mm 2,9 UV-I 552 W/m² 11,3 °C 19,8 °C 6,4 km/h (2 Bft) 100,00 %
05.05.2026 10:12 19,8 °C 58 % 1008,1 hPa 0,0 l/m² 3,2 km/h (1 Bft) S-SW 202 ° 1 min 0,000 mm 2,9 UV-I 547 W/m² 11,3 °C 19,8 °C 8,0 km/h (2 Bft) 86,96 %
05.05.2026 10:11 19,8 °C 58 % 1008,1 hPa 0,0 l/m² 3,2 km/h (1 Bft) S-SO 157 ° 1 min 0,000 mm 2,9 UV-I 540 W/m² 11,3 °C 19,8 °C 8,0 km/h (2 Bft) 95,65 %
05.05.2026 10:10 19,7 °C 58 % 1008,1 hPa 0,0 l/m² 4,8 km/h (1 Bft) W-SW 247 ° 1 min 0,000 mm 2,9 UV-I 536 W/m² 11,2 °C 19,7 °C 9,7 km/h (2 Bft) 86,96 %
05.05.2026 10:09 19,8 °C 58 % 1008,1 hPa 0,0 l/m² 1,6 km/h (1 Bft) SW 225 ° 1 min 0,000 mm 2,8 UV-I 534 W/m² 11,3 °C 19,8 °C 4,8 km/h (1 Bft) 91,30 %
05.05.2026 10:08 19,8 °C 56 % 1008,1 hPa 0,0 l/m² 3,2 km/h (1 Bft) S 180 ° 1 min 0,000 mm 2,8 UV-I 531 W/m² 10,8 °C 19,8 °C 8,0 km/h (2 Bft) 91,30 %
05.05.2026 10:07 19,9 °C 59 % 1008,1 hPa 0,0 l/m² 3,2 km/h (1 Bft) S-SO 157 ° 1 min 0,000 mm 2,8 UV-I 527 W/m² 11,6 °C 19,9 °C 4,8 km/h (1 Bft) 91,30 %
05.05.2026 10:06 19,9 °C 58 % 1008,1 hPa 0,0 l/m² 3,2 km/h (1 Bft) S-SO 157 ° 1 min 0,000 mm 1,9 UV-I 527 W/m² 11,4 °C 19,9 °C 6,4 km/h (2 Bft) 100,00 %
05.05.2026 10:05 19,8 °C 58 % 1008,1 hPa 0,0 l/m² 3,2 km/h (1 Bft) S-SO 157 ° 1 min 0,000 mm 2,8 UV-I 526 W/m² 11,3 °C 19,8 °C 6,4 km/h (2 Bft) 86,96 %
05.05.2026 10:04 19,8 °C 57 % 1008,2 hPa 0,0 l/m² 1,6 km/h (1 Bft) O-SO 112 ° 1 min 0,000 mm 2,7 UV-I 526 W/m² 11,0 °C 19,8 °C 3,2 km/h (1 Bft) 100,00 %
05.05.2026 10:03 19,8 °C 58 % 1008,1 hPa 0,0 l/m² 3,2 km/h (1 Bft) S 180 ° 1 min 0,000 mm 2,7 UV-I 524 W/m² 11,3 °C 19,8 °C 8,0 km/h (2 Bft) 91,30 %
05.05.2026 10:02 19,7 °C 58 % 1008,2 hPa 0,0 l/m² 3,2 km/h (1 Bft) S-SW 202 ° 1 min 0,000 mm 2,7 UV-I 526 W/m² 11,2 °C 19,7 °C 4,8 km/h (1 Bft) 91,30 %
05.05.2026 10:01 19,7 °C 58 % 1008,1 hPa 0,0 l/m² 1,6 km/h (1 Bft) O-SO 112 ° 1 min 0,000 mm 2,7 UV-I 526 W/m² 11,2 °C 19,7 °C 3,2 km/h (1 Bft) 91,30 %
05.05.2026 10:00 19,6 °C 59 % 1008,1 hPa 0,0 l/m² 3,2 km/h (1 Bft) S-SO 157 ° 1 min 0,330 mm 2,7 UV-I 527 W/m² 11,4 °C 19,6 °C 6,4 km/h (2 Bft) 100,00 %
05.05.2026 09:59 19,6 °C 58 % 1008,2 hPa 0,0 l/m² 3,2 km/h (1 Bft) W 270 ° 1 min 0,000 mm 2,6 UV-I 529 W/m² 11,1 °C 19,6 °C 6,4 km/h (2 Bft) 95,65 %
05.05.2026 09:58 19,6 °C 61 % 1008,1 hPa 0,0 l/m² 1,6 km/h (1 Bft) SO 135 ° 1 min 0,000 mm 2,6 UV-I 533 W/m² 11,9 °C 19,6 °C 4,8 km/h (1 Bft) 91,30 %
05.05.2026 09:57 19,4 °C 60 % 1008,2 hPa 0,0 l/m² 3,2 km/h (1 Bft) S-SO 157 ° 1 min 0,000 mm 2,6 UV-I 534 W/m² 11,4 °C 19,4 °C 4,8 km/h (1 Bft) 100,00 %
05.05.2026 09:56 19,4 °C 60 % 1008,2 hPa 0,0 l/m² 4,8 km/h (1 Bft) S-SO 157 ° 1 min 0,000 mm 2,6 UV-I 538 W/m² 11,4 °C 19,4 °C 8,0 km/h (2 Bft) 91,30 %
05.05.2026 09:55 19,3 °C 59 % 1008,2 hPa 0,0 l/m² 4,8 km/h (1 Bft) S 180 ° 1 min 0,000 mm 2,6 UV-I 540 W/m² 11,1 °C 19,3 °C 8,0 km/h (2 Bft) 95,65 %
05.05.2026 09:54 19,3 °C 60 % 1008,1 hPa 0,0 l/m² 4,8 km/h (1 Bft) S 180 ° 1 min 0,000 mm 2,6 UV-I 545 W/m² 11,3 °C 19,3 °C 11,3 km/h (2 Bft) 91,30 %
05.05.2026 09:53 19,3 °C 60 % 1008,1 hPa 0,0 l/m² 4,8 km/h (1 Bft) W-SW 247 ° 1 min 0,000 mm 2,5 UV-I 550 W/m² 11,3 °C 19,3 °C 8,0 km/h (2 Bft) 91,30 %
05.05.2026 09:52 19,4 °C 59 % 1008,1 hPa 0,0 l/m² 3,2 km/h (1 Bft) SW 225 ° 1 min 0,000 mm 2,5 UV-I 554 W/m² 11,2 °C 19,4 °C 6,4 km/h (2 Bft) 95,65 %
05.05.2026 09:51 19,4 °C 60 % 1008,1 hPa 0,0 l/m² 1,6 km/h (1 Bft) S-SO 157 ° 1 min 0,000 mm 2,5 UV-I 559 W/m² 11,4 °C 19,4 °C 3,2 km/h (1 Bft) 95,65 %
05.05.2026 09:50 19,3 °C 60 % 1008,1 hPa 0,0 l/m² 1,6 km/h (1 Bft) S 180 ° 1 min 0,000 mm 2,5 UV-I 561 W/m² 11,3 °C 19,3 °C 4,8 km/h (1 Bft) 100,00 %
05.05.2026 09:49 19,3 °C 60 % 1008,1 hPa 0,0 l/m² 1,6 km/h (1 Bft) S-SO 157 ° 1 min 0,000 mm 2,5 UV-I 563 W/m² 11,3 °C 19,3 °C 4,8 km/h (1 Bft) 100,00 %
05.05.2026 09:48 19,2 °C 59 % 1008,1 hPa 0,0 l/m² 1,6 km/h (1 Bft) S 180 ° 1 min 0,000 mm 2,5 UV-I 570 W/m² 11,0 °C 19,2 °C 3,2 km/h (1 Bft) 95,65 %
05.05.2026 09:47 19,2 °C 60 % 1008,1 hPa 0,0 l/m² 1,6 km/h (1 Bft) S 180 ° 1 min 0,000 mm 2,4 UV-I 571 W/m² 11,2 °C 19,2 °C 3,2 km/h (1 Bft) 100,00 %
05.05.2026 09:46 19,3 °C 60 % 1008,1 hPa 0,0 l/m² 3,2 km/h (1 Bft) S 180 ° 1 min 0,000 mm 2,4 UV-I 577 W/m² 11,3 °C 19,3 °C 6,4 km/h (2 Bft) 95,65 %
05.05.2026 09:45 19,3 °C 59 % 1008,1 hPa 0,0 l/m² 1,6 km/h (1 Bft) SW 225 ° 1 min 0,000 mm 2,4 UV-I 578 W/m² 11,1 °C 19,3 °C 3,2 km/h (1 Bft) 95,65 %
05.05.2026 09:44 19,4 °C 60 % 1008,1 hPa 0,0 l/m² 0,0 km/h (0 Bft) SO 135 ° 1 min 0,000 mm 2,4 UV-I 582 W/m² 11,4 °C 19,4 °C 1,6 km/h (1 Bft) 91,30 %
05.05.2026 09:43 19,3 °C 59 % 1008,1 hPa 0,0 l/m² 3,2 km/h (1 Bft) S-SO 157 ° 1 min 0,000 mm 1,2 UV-I 585 W/m² 11,1 °C 19,3 °C 8,0 km/h (2 Bft) 91,30 %
05.05.2026 09:42 19,3 °C 60 % 1008,1 hPa 0,0 l/m² 4,8 km/h (1 Bft) S-SO 157 ° 1 min 0,000 mm 2,3 UV-I 587 W/m² 11,3 °C 19,3 °C 6,4 km/h (2 Bft) 95,65 %
05.05.2026 09:41 19,3 °C 60 % 1008,1 hPa 0,0 l/m² 4,8 km/h (1 Bft) S 180 ° 1 min 0,000 mm 2,3 UV-I 591 W/m² 11,3 °C 19,3 °C 8,0 km/h (2 Bft) 95,65 %
05.05.2026 09:40 19,3 °C 61 % 1008,2 hPa 0,0 l/m² 4,8 km/h (1 Bft) S 180 ° 1 min 0,000 mm 2,3 UV-I 591 W/m² 11,6 °C 19,3 °C 6,4 km/h (2 Bft) 100,00 %
05.05.2026 09:39 19,3 °C 61 % 1008,2 hPa 0,0 l/m² 4,8 km/h (1 Bft) S 180 ° 1 min 0,000 mm 2,3 UV-I 591 W/m² 11,6 °C 19,3 °C 8,0 km/h (2 Bft) 100,00 %
05.05.2026 09:38 19,3 °C 60 % 1008,1 hPa 0,0 l/m² 4,8 km/h (1 Bft) S 180 ° 1 min 0,000 mm 2,3 UV-I 592 W/m² 11,3 °C 19,3 °C 6,4 km/h (2 Bft) 100,00 %
05.05.2026 09:37 19,2 °C 59 % 1008,3 hPa 0,0 l/m² 3,2 km/h (1 Bft) S 180 ° 1 min 0,000 mm 2,2 UV-I 591 W/m² 11,0 °C 19,2 °C 4,8 km/h (1 Bft) 95,65 %
05.05.2026 09:36 19,3 °C 60 % 1008,2 hPa 0,0 l/m² 3,2 km/h (1 Bft) S 180 ° 1 min 0,000 mm 2,2 UV-I 592 W/m² 11,3 °C 19,3 °C 4,8 km/h (1 Bft) 95,65 %
05.05.2026 09:35 19,3 °C 59 % 1008,3 hPa 0,0 l/m² 3,2 km/h (1 Bft) S 180 ° 1 min 0,000 mm 2,2 UV-I 592 W/m² 11,1 °C 19,3 °C 3,2 km/h (1 Bft) 100,00 %
05.05.2026 09:34 19,2 °C 60 % 1008,3 hPa 0,0 l/m² 3,2 km/h (1 Bft) S-SO 157 ° 1 min 0,000 mm 2,2 UV-I 591 W/m² 11,2 °C 19,2 °C 8,0 km/h (2 Bft) 100,00 %
05.05.2026 09:33 19,2 °C 59 % 1008,3 hPa 0,0 l/m² 4,8 km/h (1 Bft) S 180 ° 1 min 0,000 mm 2,2 UV-I 591 W/m² 11,0 °C 19,2 °C 6,4 km/h (2 Bft) 100,00 %
05.05.2026 09:32 19,1 °C 60 % 1008,4 hPa 0,0 l/m² 4,8 km/h (1 Bft) S 180 ° 1 min 0,000 mm 2,2 UV-I 587 W/m² 11,1 °C 19,1 °C 8,0 km/h (2 Bft) 95,65 %
05.05.2026 09:31 19,1 °C 61 % 1008,4 hPa 0,0 l/m² 6,4 km/h (2 Bft) S 180 ° 1 min 0,000 mm 2,2 UV-I 587 W/m² 11,4 °C 19,1 °C 9,7 km/h (2 Bft) 95,65 %
05.05.2026 09:30 18,9 °C 61 % 1008,4 hPa 0,0 l/m² 3,2 km/h (1 Bft) S-SO 157 ° 1 min 0,000 mm 2,2 UV-I 582 W/m² 11,2 °C 18,9 °C 6,4 km/h (2 Bft) 95,65 %
05.05.2026 09:29 18,8 °C 61 % 1008,5 hPa 0,0 l/m² 4,8 km/h (1 Bft) S-SO 157 ° 1 min 0,000 mm 2,1 UV-I 578 W/m² 11,1 °C 18,8 °C 8,0 km/h (2 Bft) 100,00 %
05.05.2026 09:28 18,8 °C 62 % 1008,4 hPa 0,0 l/m² 4,8 km/h (1 Bft) S 180 ° 1 min 0,000 mm 2,1 UV-I 577 W/m² 11,4 °C 18,8 °C 6,4 km/h (2 Bft) 100,00 %
05.05.2026 09:27 18,8 °C 60 % 1008,4 hPa 0,0 l/m² 4,8 km/h (1 Bft) O-SO 112 ° 1 min 0,000 mm 2,1 UV-I 575 W/m² 10,9 °C 18,8 °C 6,4 km/h (2 Bft) 100,00 %
05.05.2026 09:26 18,9 °C 61 % 1008,4 hPa 0,0 l/m² 4,8 km/h (1 Bft) SO 135 ° 1 min 0,000 mm 2,1 UV-I 573 W/m² 11,2 °C 18,9 °C 6,4 km/h (2 Bft) 100,00 %
05.05.2026 09:25 18,9 °C 61 % 1008,4 hPa 0,0 l/m² 3,2 km/h (1 Bft) S-SO 157 ° 1 min 0,000 mm 1,5 UV-I 570 W/m² 11,2 °C 18,9 °C 8,0 km/h (2 Bft) 100,00 %
05.05.2026 09:24 18,9 °C 62 % 1008,4 hPa 0,0 l/m² 4,8 km/h (1 Bft) S-SO 157 ° 1 min 0,000 mm 1,5 UV-I 624 W/m² 11,5 °C 18,9 °C 8,0 km/h (2 Bft) 95,65 %
05.05.2026 09:23 18,9 °C 61 % 1008,4 hPa 0,0 l/m² 3,2 km/h (1 Bft) S-SO 157 ° 1 min 0,000 mm 2,0 UV-I 564 W/m² 11,2 °C 18,9 °C 6,4 km/h (2 Bft) 95,65 %
05.05.2026 09:22 18,9 °C 62 % 1008,4 hPa 0,0 l/m² 4,8 km/h (1 Bft) S-SO 157 ° 1 min 0,000 mm 2,0 UV-I 561 W/m² 11,5 °C 18,9 °C 9,7 km/h (2 Bft) 95,65 %
05.05.2026 09:21 18,8 °C 61 % 1008,4 hPa 0,0 l/m² 4,8 km/h (1 Bft) S-SO 157 ° 1 min 0,000 mm 2,0 UV-I 561 W/m² 11,1 °C 18,8 °C 8,0 km/h (2 Bft) 95,65 %
05.05.2026 09:20 18,8 °C 62 % 1008,4 hPa 0,0 l/m² 3,2 km/h (1 Bft) S-SO 157 ° 1 min 0,000 mm 2,0 UV-I 557 W/m² 11,4 °C 18,8 °C 6,4 km/h (2 Bft) 100,00 %
05.05.2026 09:19 18,8 °C 62 % 1008,4 hPa 0,0 l/m² 4,8 km/h (1 Bft) SO 135 ° 1 min 0,000 mm 2,0 UV-I 554 W/m² 11,4 °C 18,8 °C 8,0 km/h (2 Bft) 100,00 %
05.05.2026 09:18 18,7 °C 63 % 1008,3 hPa 0,0 l/m² 6,4 km/h (2 Bft) S-SO 157 ° 1 min 0,000 mm 1,9 UV-I 550 W/m² 11,5 °C 18,7 °C 9,7 km/h (2 Bft) 100,00 %
05.05.2026 09:17 18,7 °C 61 % 1008,4 hPa 0,0 l/m² 3,2 km/h (1 Bft) S-SO 157 ° 1 min 0,000 mm 1,9 UV-I 548 W/m² 11,0 °C 18,7 °C 8,0 km/h (2 Bft) 100,00 %
05.05.2026 09:16 18,7 °C 63 % 1008,4 hPa 0,0 l/m² 4,8 km/h (1 Bft) S-SO 157 ° 1 min 0,000 mm 1,9 UV-I 545 W/m² 11,5 °C 18,7 °C 8,0 km/h (2 Bft) 86,96 %
05.05.2026 09:15 18,6 °C 63 % 1008,4 hPa 0,0 l/m² 4,8 km/h (1 Bft) S-SO 157 ° 1 min 0,000 mm 1,9 UV-I 543 W/m² 11,4 °C 18,6 °C 8,0 km/h (2 Bft) 86,96 %
05.05.2026 09:14 18,5 °C 62 % 1008,5 hPa 0,0 l/m² 3,2 km/h (1 Bft) S-SO 157 ° 1 min 0,000 mm 1,9 UV-I 541 W/m² 11,1 °C 18,5 °C 6,4 km/h (2 Bft) 91,30 %
05.05.2026 09:13 18,4 °C 61 % 1008,5 hPa 0,0 l/m² 1,6 km/h (1 Bft) SO 135 ° 1 min 0,000 mm 1,9 UV-I 540 W/m² 10,7 °C 18,4 °C 3,2 km/h (1 Bft) 91,30 %
05.05.2026 09:12 18,4 °C 61 % 1008,5 hPa 0,0 l/m² 3,2 km/h (1 Bft) SO 135 ° 1 min 0,000 mm 1,8 UV-I 533 W/m² 10,7 °C 18,4 °C 6,4 km/h (2 Bft) 100,00 %
05.05.2026 09:11 18,4 °C 61 % 1008,5 hPa 0,0 l/m² 3,2 km/h (1 Bft) S-SO 157 ° 1 min 0,000 mm 1,8 UV-I 531 W/m² 10,7 °C 18,4 °C 8,0 km/h (2 Bft) 100,00 %
05.05.2026 09:10 18,3 °C 61 % 1008,5 hPa 0,0 l/m² 3,2 km/h (1 Bft) S 180 ° 1 min 0,000 mm 1,8 UV-I 529 W/m² 10,6 °C 18,3 °C 6,4 km/h (2 Bft) 100,00 %
05.05.2026 09:09 18,3 °C 61 % 1008,5 hPa 0,0 l/m² 3,2 km/h (1 Bft) S 180 ° 1 min 0,000 mm 1,8 UV-I 526 W/m² 10,6 °C 18,3 °C 4,8 km/h (1 Bft) 86,96 %
05.05.2026 09:08 18,4 °C 62 % 1008,4 hPa 0,0 l/m² 1,6 km/h (1 Bft) S-SO 157 ° 1 min 0,000 mm 1,8 UV-I 520 W/m² 11,0 °C 18,4 °C 3,2 km/h (1 Bft) 100,00 %
05.05.2026 09:07 18,3 °C 64 % 1008,4 hPa 0,0 l/m² 1,6 km/h (1 Bft) S 180 ° 1 min 0,000 mm 1,8 UV-I 520 W/m² 11,4 °C 18,3 °C 4,8 km/h (1 Bft) 91,30 %
05.05.2026 09:06 18,2 °C 63 % 1008,5 hPa 0,0 l/m² 3,2 km/h (1 Bft) S-SO 157 ° 1 min 0,000 mm 1,7 UV-I 513 W/m² 11,0 °C 18,2 °C 6,4 km/h (2 Bft) 95,65 %
05.05.2026 09:05 18,2 °C 61 % 1008,5 hPa 0,0 l/m² 1,6 km/h (1 Bft) S 180 ° 1 min 0,000 mm 1,7 UV-I 513 W/m² 10,6 °C 18,2 °C 3,2 km/h (1 Bft) 91,30 %
05.05.2026 09:04 18,2 °C 62 % 1008,5 hPa 0,0 l/m² 3,2 km/h (1 Bft) S-SO 157 ° 1 min 0,000 mm 1,7 UV-I 512 W/m² 10,8 °C 18,2 °C 6,4 km/h (2 Bft) 100,00 %
05.05.2026 09:03 18,2 °C 63 % 1008,5 hPa 0,0 l/m² 3,2 km/h (1 Bft) S 180 ° 1 min 0,000 mm 1,7 UV-I 506 W/m² 11,0 °C 18,2 °C 6,4 km/h (2 Bft) 95,65 %
05.05.2026 09:02 18,2 °C 63 % 1008,5 hPa 0,0 l/m² 1,6 km/h (1 Bft) S 180 ° 1 min 0,000 mm 1,7 UV-I 506 W/m² 11,0 °C 18,2 °C 6,4 km/h (2 Bft) 95,65 %
05.05.2026 09:01 18,2 °C 63 % 1008,6 hPa 0,0 l/m² 1,6 km/h (1 Bft) S-SO 157 ° 1 min 0,000 mm 1,7 UV-I 501 W/m² 11,0 °C 18,2 °C 4,8 km/h (1 Bft) 95,65 %
05.05.2026 09:00 18,2 °C 64 % 1008,4 hPa 0,0 l/m² 1,6 km/h (1 Bft) S-SO 157 ° 1 min 0,229 mm 1,6 UV-I 499 W/m² 11,3 °C 18,2 °C 3,2 km/h (1 Bft) 100,00 %
05.05.2026 08:59 18,1 °C 64 % 1008,5 hPa 0,0 l/m² 1,6 km/h (1 Bft) S 180 ° 1 min 0,000 mm 1,6 UV-I 496 W/m² 11,2 °C 18,1 °C 4,8 km/h (1 Bft) 100,00 %
05.05.2026 08:58 18,1 °C 62 % 1008,6 hPa 0,0 l/m² 1,6 km/h (1 Bft) SW 225 ° 1 min 0,000 mm 1,6 UV-I 494 W/m² 10,7 °C 18,1 °C 3,2 km/h (1 Bft) 95,65 %
05.05.2026 08:57 18,1 °C 63 % 1008,5 hPa 0,0 l/m² 1,6 km/h (1 Bft) SW 225 ° 1 min 0,000 mm 1,6 UV-I 492 W/m² 10,9 °C 18,1 °C 3,2 km/h (1 Bft) 95,65 %
05.05.2026 08:56 18,1 °C 63 % 1008,5 hPa 0,0 l/m² 1,6 km/h (1 Bft) SW 225 ° 1 min 0,000 mm 1,6 UV-I 489 W/m² 10,9 °C 18,1 °C 3,2 km/h (1 Bft) 100,00 %
05.05.2026 08:55 18,1 °C 63 % 1008,5 hPa 0,0 l/m² 0,0 km/h (0 Bft) SO 135 ° 1 min 0,000 mm 1,6 UV-I 483 W/m² 10,9 °C 18,1 °C 1,6 km/h (1 Bft) 91,30 %
05.05.2026 08:54 18,1 °C 64 % 1008,5 hPa 0,0 l/m² 1,6 km/h (1 Bft) SW 225 ° 1 min 0,000 mm 1,6 UV-I 482 W/m² 11,2 °C 18,1 °C 1,6 km/h (1 Bft) 95,65 %
05.05.2026 08:53 18,1 °C 64 % 1008,4 hPa 0,0 l/m² 1,6 km/h (1 Bft) S-SW 202 ° 1 min 0,000 mm 1,5 UV-I 480 W/m² 11,2 °C 18,1 °C 3,2 km/h (1 Bft) 100,00 %
05.05.2026 08:52 18,0 °C 64 % 1008,4 hPa 0,0 l/m² 1,6 km/h (1 Bft) S-SO 157 ° 1 min 0,000 mm 1,5 UV-I 476 W/m² 11,1 °C 18,0 °C 1,6 km/h (1 Bft) 100,00 %
05.05.2026 08:51 17,9 °C 64 % 1008,6 hPa 0,0 l/m² 0,0 km/h (0 Bft) S-SO 157 ° 1 min 0,000 mm 1,5 UV-I 473 W/m² 11,0 °C 17,9 °C 1,6 km/h (1 Bft) 100,00 %
05.05.2026 08:50 17,9 °C 65 % 1008,6 hPa 0,0 l/m² 1,6 km/h (1 Bft) W-SW 247 ° 1 min 0,000 mm 1,5 UV-I 471 W/m² 11,2 °C 17,9 °C 3,2 km/h (1 Bft) 95,65 %
05.05.2026 08:49 17,9 °C 64 % 1008,5 hPa 0,0 l/m² 1,6 km/h (1 Bft) SW 225 ° 1 min 0,000 mm 1,5 UV-I 466 W/m² 11,0 °C 17,9 °C 3,2 km/h (1 Bft) 91,30 %
05.05.2026 08:48 17,9 °C 64 % 1008,5 hPa 0,0 l/m² 1,6 km/h (1 Bft) SW 225 ° 1 min 0,000 mm 1,5 UV-I 464 W/m² 11,0 °C 17,9 °C 1,6 km/h (1 Bft) 95,65 %
05.05.2026 08:47 17,8 °C 65 % 1008,4 hPa 0,0 l/m² 0,0 km/h (0 Bft) SW 225 ° 1 min 0,000 mm 1,5 UV-I 462 W/m² 11,1 °C 17,8 °C 1,6 km/h (1 Bft) 100,00 %
05.05.2026 08:46 17,8 °C 65 % 1008,4 hPa 0,0 l/m² 1,6 km/h (1 Bft) S-SW 202 ° 1 min 0,000 mm 1,4 UV-I 459 W/m² 11,1 °C 17,8 °C 3,2 km/h (1 Bft) 95,65 %
05.05.2026 08:45 17,7 °C 66 % 1008,5 hPa 0,0 l/m² 0,0 km/h (0 Bft) SO 135 ° 1 min 0,000 mm 1,4 UV-I 457 W/m² 11,3 °C 17,7 °C 1,6 km/h (1 Bft) 95,65 %
05.05.2026 08:44 17,7 °C 66 % 1008,5 hPa 0,0 l/m² 0,0 km/h (0 Bft) S-SW 202 ° 1 min 0,000 mm 1,4 UV-I 454 W/m² 11,3 °C 17,7 °C 1,6 km/h (1 Bft) 95,65 %
05.05.2026 08:43 17,7 °C 65 % 1008,4 hPa 0,0 l/m² 0,0 km/h (0 Bft) S-SW 202 ° 1 min 0,000 mm 1,4 UV-I 448 W/m² 11,0 °C 17,7 °C 1,6 km/h (1 Bft) 95,65 %
05.05.2026 08:42 17,6 °C 66 % 1008,5 hPa 0,0 l/m² 0,0 km/h (0 Bft) S-SO 157 ° 1 min 0,000 mm 1,4 UV-I 446 W/m² 11,2 °C 17,6 °C 1,6 km/h (1 Bft) 95,65 %
05.05.2026 08:41 17,6 °C 65 % 1008,4 hPa 0,0 l/m² 0,0 km/h (0 Bft) S-SW 202 ° 1 min 0,000 mm 1,4 UV-I 443 W/m² 10,9 °C 17,6 °C 1,6 km/h (1 Bft) 95,65 %
05.05.2026 08:40 17,6 °C 65 % 1008,4 hPa 0,0 l/m² 1,6 km/h (1 Bft) W-SW 247 ° 1 min 0,000 mm 1,4 UV-I 441 W/m² 10,9 °C 17,6 °C 3,2 km/h (1 Bft) 86,96 %
05.05.2026 08:39 17,6 °C 65 % 1008,4 hPa 0,0 l/m² 0,0 km/h (0 Bft) S-SW 202 ° 1 min 0,000 mm 1,3 UV-I 438 W/m² 10,9 °C 17,6 °C 1,6 km/h (1 Bft) 100,00 %
05.05.2026 08:38 17,6 °C 65 % 1008,6 hPa 0,0 l/m² 0,0 km/h (0 Bft) S-SW 202 ° 1 min 0,000 mm 1,3 UV-I 436 W/m² 10,9 °C 17,6 °C 1,6 km/h (1 Bft) 95,65 %
05.05.2026 08:37 17,6 °C 65 % 1008,4 hPa 0,0 l/m² 1,6 km/h (1 Bft) S-SW 202 ° 1 min 0,000 mm 1,3 UV-I 431 W/m² 10,9 °C 17,6 °C 3,2 km/h (1 Bft) 91,30 %
05.05.2026 08:36 17,6 °C 65 % 1008,5 hPa 0,0 l/m² 1,6 km/h (1 Bft) W-SW 247 ° 1 min 0,000 mm 1,3 UV-I 429 W/m² 10,9 °C 17,6 °C 3,2 km/h (1 Bft) 91,30 %
05.05.2026 08:35 17,6 °C 65 % 1008,5 hPa 0,0 l/m² 1,6 km/h (1 Bft) W-SW 247 ° 1 min 0,000 mm 1,3 UV-I 427 W/m² 10,9 °C 17,6 °C 3,2 km/h (1 Bft) 95,65 %
05.05.2026 08:34 17,6 °C 65 % 1008,4 hPa 0,0 l/m² 1,6 km/h (1 Bft) S 180 ° 1 min 0,000 mm 1,3 UV-I 424 W/m² 10,9 °C 17,6 °C 4,8 km/h (1 Bft) 86,96 %
05.05.2026 08:33 17,6 °C 65 % 1008,4 hPa 0,0 l/m² 1,6 km/h (1 Bft) S-SO 157 ° 1 min 0,000 mm 1,3 UV-I 420 W/m² 10,9 °C 17,6 °C 3,2 km/h (1 Bft) 100,00 %
05.05.2026 08:32 17,6 °C 65 % 1008,5 hPa 0,0 l/m² 1,6 km/h (1 Bft) S-SO 157 ° 1 min 0,000 mm 1,3 UV-I 420 W/m² 10,9 °C 17,6 °C 1,6 km/h (1 Bft) 95,65 %
05.05.2026 08:31 17,6 °C 66 % 1008,5 hPa 0,0 l/m² 1,6 km/h (1 Bft) S 180 ° 1 min 0,000 mm 1,2 UV-I 413 W/m² 11,2 °C 17,6 °C 4,8 km/h (1 Bft) 91,30 %
05.05.2026 08:30 17,6 °C 65 % 1008,5 hPa 0,0 l/m² 1,6 km/h (1 Bft) S 180 ° 1 min 0,000 mm 1,2 UV-I 413 W/m² 10,9 °C 17,6 °C 3,2 km/h (1 Bft) 95,65 %
05.05.2026 08:29 17,6 °C 64 % 1008,6 hPa 0,0 l/m² 1,6 km/h (1 Bft) S 180 ° 1 min 0,000 mm 1,2 UV-I 410 W/m² 10,7 °C 17,6 °C 3,2 km/h (1 Bft) 95,65 %
05.05.2026 08:28 17,6 °C 64 % 1008,6 hPa 0,0 l/m² 1,6 km/h (1 Bft) S 180 ° 1 min 0,000 mm 1,2 UV-I 406 W/m² 10,7 °C 17,6 °C 3,2 km/h (1 Bft) 86,96 %
05.05.2026 08:27 17,5 °C 63 % 1008,6 hPa 0,0 l/m² 1,6 km/h (1 Bft) S-SO 157 ° 1 min 0,000 mm 1,2 UV-I 404 W/m² 10,4 °C 17,5 °C 4,8 km/h (1 Bft) 91,30 %
05.05.2026 08:26 17,4 °C 64 % 1008,6 hPa 0,0 l/m² 3,2 km/h (1 Bft) S-SO 157 ° 1 min 0,000 mm 1,2 UV-I 403 W/m² 10,5 °C 17,4 °C 3,2 km/h (1 Bft) 95,65 %
05.05.2026 08:25 17,4 °C 64 % 1008,6 hPa 0,0 l/m² 1,6 km/h (1 Bft) S-SO 157 ° 1 min 0,000 mm 1,2 UV-I 397 W/m² 10,5 °C 17,4 °C 1,6 km/h (1 Bft) 91,30 %
05.05.2026 08:24 17,5 °C 65 % 1008,6 hPa 0,0 l/m² 0,0 km/h (0 Bft) O 90 ° 1 min 0,000 mm 1,2 UV-I 396 W/m² 10,8 °C 17,5 °C 1,6 km/h (1 Bft) 100,00 %
05.05.2026 08:23 17,4 °C 64 % 1008,6 hPa 0,0 l/m² 0,0 km/h (0 Bft) N 0 ° 1 min 0,000 mm 1,1 UV-I 394 W/m² 10,5 °C 17,4 °C 0,0 km/h (0 Bft) 91,30 %
05.05.2026 08:22 17,4 °C 65 % 1008,5 hPa 0,0 l/m² 0,0 km/h (0 Bft) N 0 ° 1 min 0,000 mm 1,1 UV-I 390 W/m² 10,8 °C 17,4 °C 0,0 km/h (0 Bft) 91,30 %
05.05.2026 08:21 17,3 °C 66 % 1008,6 hPa 0,0 l/m² 0,0 km/h (0 Bft) N 0 ° 1 min 0,000 mm 1,1 UV-I 387 W/m² 10,9 °C 17,3 °C 0,0 km/h (0 Bft) 95,65 %
05.05.2026 08:20 17,3 °C 67 % 1008,5 hPa 0,0 l/m² 0,0 km/h (0 Bft) N 0 ° 1 min 0,000 mm 1,1 UV-I 383 W/m² 11,1 °C 17,3 °C 0,0 km/h (0 Bft) 95,65 %
05.05.2026 08:19 17,2 °C 65 % 1008,6 hPa 0,0 l/m² 0,0 km/h (0 Bft) N 0 ° 1 min 0,000 mm 1,1 UV-I 380 W/m² 10,6 °C 17,2 °C 0,0 km/h (0 Bft) 91,30 %
05.05.2026 08:18 17,2 °C 66 % 1008,6 hPa 0,0 l/m² 0,0 km/h (0 Bft) N 0 ° 1 min 0,000 mm 1,1 UV-I 378 W/m² 10,8 °C 17,2 °C 0,0 km/h (0 Bft) 95,65 %
05.05.2026 08:17 17,1 °C 66 % 1008,6 hPa 0,0 l/m² 0,0 km/h (0 Bft) N 0 ° 1 min 0,000 mm 1,1 UV-I 376 W/m² 10,7 °C 17,1 °C 0,0 km/h (0 Bft) 95,65 %
05.05.2026 08:16 17,0 °C 67 % 1008,6 hPa 0,0 l/m² 0,0 km/h (0 Bft) NO 45 ° 1 min 0,000 mm 1,1 UV-I 374 W/m² 10,8 °C 17,0 °C 1,6 km/h (1 Bft) 86,96 %
05.05.2026 08:15 16,9 °C 65 % 1008,6 hPa 0,0 l/m² 1,6 km/h (1 Bft) NO 45 ° 1 min 0,000 mm 1,0 UV-I 371 W/m² 10,3 °C 16,9 °C 3,2 km/h (1 Bft) 95,65 %
05.05.2026 08:14 16,9 °C 65 % 1008,6 hPa 0,0 l/m² 0,0 km/h (0 Bft) NO 45 ° 1 min 0,000 mm 1,0 UV-I 366 W/m² 10,3 °C 16,9 °C 3,2 km/h (1 Bft) 95,65 %
05.05.2026 08:13 16,8 °C 65 % 1008,6 hPa 0,0 l/m² 1,6 km/h (1 Bft) NO 45 ° 1 min 0,000 mm 1,0 UV-I 364 W/m² 10,2 °C 16,8 °C 4,8 km/h (1 Bft) 91,30 %
05.05.2026 08:12 16,8 °C 66 % 1008,6 hPa 0,0 l/m² 1,6 km/h (1 Bft) NO 45 ° 1 min 0,000 mm 1,0 UV-I 360 W/m² 10,4 °C 16,8 °C 3,2 km/h (1 Bft) 95,65 %
05.05.2026 08:11 16,8 °C 66 % 1008,6 hPa 0,0 l/m² 1,6 km/h (1 Bft) NO 45 ° 1 min 0,000 mm 1,0 UV-I 359 W/m² 10,4 °C 16,8 °C 3,2 km/h (1 Bft) 95,65 %
05.05.2026 08:10 16,7 °C 65 % 1008,6 hPa 0,0 l/m² 3,2 km/h (1 Bft) NO 45 ° 1 min 0,000 mm 1,0 UV-I 357 W/m² 10,1 °C 16,7 °C 4,8 km/h (1 Bft) 95,65 %
05.05.2026 08:09 16,7 °C 65 % 1008,6 hPa 0,0 l/m² 1,6 km/h (1 Bft) NO 45 ° 1 min 0,000 mm 1,0 UV-I 353 W/m² 10,1 °C 16,7 °C 6,4 km/h (2 Bft) 95,65 %
05.05.2026 08:08 16,7 °C 65 % 1008,5 hPa 0,0 l/m² 1,6 km/h (1 Bft) NO 45 ° 1 min 0,000 mm 0,9 UV-I 350 W/m² 10,1 °C 16,7 °C 3,2 km/h (1 Bft) 91,30 %
05.05.2026 08:07 16,7 °C 65 % 1008,6 hPa 0,0 l/m² 0,0 km/h (0 Bft) N 0 ° 1 min 0,000 mm 0,9 UV-I 346 W/m² 10,1 °C 16,7 °C 0,0 km/h (0 Bft) 100,00 %
05.05.2026 08:06 16,8 °C 65 % 1008,5 hPa 0,0 l/m² 0,0 km/h (0 Bft) N-NO 22 ° 1 min 0,000 mm 0,9 UV-I 345 W/m² 10,2 °C 16,8 °C 1,6 km/h (1 Bft) 95,65 %
05.05.2026 08:05 16,7 °C 66 % 1008,6 hPa 0,0 l/m² 0,0 km/h (0 Bft) N 0 ° 1 min 0,000 mm 0,9 UV-I 341 W/m² 10,3 °C 16,7 °C 0,0 km/h (0 Bft) 95,65 %
05.05.2026 08:04 16,6 °C 66 % 1008,5 hPa 0,0 l/m² 1,6 km/h (1 Bft) NO 45 ° 1 min 0,000 mm 0,9 UV-I 339 W/m² 10,2 °C 16,6 °C 1,6 km/h (1 Bft) 100,00 %
05.05.2026 08:03 16,6 °C 65 % 1008,6 hPa 0,0 l/m² 0,0 km/h (0 Bft) N 0 ° 1 min 0,000 mm 0,9 UV-I 336 W/m² 10,0 °C 16,6 °C 0,0 km/h (0 Bft) 91,30 %
05.05.2026 08:02 16,6 °C 65 % 1008,5 hPa 0,0 l/m² 1,6 km/h (1 Bft) N-NO 22 ° 1 min 0,000 mm 0,9 UV-I 330 W/m² 10,0 °C 16,6 °C 3,2 km/h (1 Bft) 91,30 %
05.05.2026 08:01 16,5 °C 66 % 1008,5 hPa 0,0 l/m² 3,2 km/h (1 Bft) NO 45 ° 1 min 0,000 mm 0,9 UV-I 329 W/m² 10,1 °C 16,5 °C 3,2 km/h (1 Bft) 82,61 %
05.05.2026 08:00 16,4 °C 66 % 1008,6 hPa 0,0 l/m² 1,6 km/h (1 Bft) NO 45 ° 1 min 0,127 mm 0,8 UV-I 325 W/m² 10,0 °C 16,4 °C 3,2 km/h (1 Bft) 95,65 %
05.05.2026 07:59 16,4 °C 66 % 1008,6 hPa 0,0 l/m² 0,0 km/h (0 Bft) N 0 ° 1 min 0,000 mm 0,8 UV-I 323 W/m² 10,0 °C 16,4 °C 0,0 km/h (0 Bft) 95,65 %
05.05.2026 07:58 16,4 °C 66 % 1008,7 hPa 0,0 l/m² 0,0 km/h (0 Bft) N 0 ° 1 min 0,000 mm 0,8 UV-I 320 W/m² 10,0 °C 16,4 °C 0,0 km/h (0 Bft) 100,00 %
05.05.2026 07:57 16,4 °C 66 % 1008,6 hPa 0,0 l/m² 1,6 km/h (1 Bft) NO 45 ° 1 min 0,000 mm 0,8 UV-I 318 W/m² 10,0 °C 16,4 °C 1,6 km/h (1 Bft) 95,65 %
05.05.2026 07:56 16,4 °C 66 % 1008,7 hPa 0,0 l/m² 0,0 km/h (0 Bft) N 0 ° 1 min 0,000 mm 0,8 UV-I 315 W/m² 10,0 °C 16,4 °C 0,0 km/h (0 Bft) 100,00 %
05.05.2026 07:55 16,4 °C 66 % 1008,6 hPa 0,0 l/m² 1,6 km/h (1 Bft) O-NO 67 ° 1 min 0,000 mm 0,8 UV-I 311 W/m² 10,0 °C 16,4 °C 3,2 km/h (1 Bft) 95,65 %
05.05.2026 07:54 16,4 °C 67 % 1008,6 hPa 0,0 l/m² 1,6 km/h (1 Bft) O-NO 67 ° 1 min 0,000 mm 0,8 UV-I 309 W/m² 10,3 °C 16,4 °C 3,2 km/h (1 Bft) 100,00 %
05.05.2026 07:53 16,3 °C 67 % 1008,7 hPa 0,0 l/m² 1,6 km/h (1 Bft) NO 45 ° 1 min 0,000 mm 0,8 UV-I 308 W/m² 10,2 °C 16,3 °C 3,2 km/h (1 Bft) 95,65 %
05.05.2026 07:52 16,3 °C 66 % 1008,6 hPa 0,0 l/m² 1,6 km/h (1 Bft) NO 45 ° 1 min 0,000 mm 0,7 UV-I 301 W/m² 9,9 °C 16,3 °C 4,8 km/h (1 Bft) 91,30 %
05.05.2026 07:51 16,3 °C 67 % 1008,6 hPa 0,0 l/m² 3,2 km/h (1 Bft) NO 45 ° 1 min 0,000 mm 0,7 UV-I 301 W/m² 10,2 °C 16,3 °C 4,8 km/h (1 Bft) 95,65 %
05.05.2026 07:50 16,2 °C 67 % 1008,7 hPa 0,0 l/m² 1,6 km/h (1 Bft) NO 45 ° 1 min 0,000 mm 0,7 UV-I 297 W/m² 10,1 °C 16,2 °C 3,2 km/h (1 Bft) 95,65 %
05.05.2026 07:49 16,2 °C 68 % 1008,6 hPa 0,0 l/m² 0,0 km/h (0 Bft) O-NO 67 ° 1 min 0,000 mm 0,7 UV-I 294 W/m² 10,3 °C 16,2 °C 1,6 km/h (1 Bft) 95,65 %
05.05.2026 07:48 16,1 °C 67 % 1008,7 hPa 0,0 l/m² 1,6 km/h (1 Bft) O-NO 67 ° 1 min 0,000 mm 0,7 UV-I 292 W/m² 10,0 °C 16,1 °C 3,2 km/h (1 Bft) 100,00 %
05.05.2026 07:47 16,1 °C 67 % 1008,6 hPa 0,0 l/m² 0,0 km/h (0 Bft) NO 45 ° 1 min 0,000 mm 0,7 UV-I 290 W/m² 10,0 °C 16,1 °C 1,6 km/h (1 Bft) 100,00 %
05.05.2026 07:46 16,0 °C 67 % 1008,7 hPa 0,0 l/m² 1,6 km/h (1 Bft) NO 45 ° 1 min 0,000 mm 0,7 UV-I 287 W/m² 9,9 °C 16,0 °C 3,2 km/h (1 Bft) 95,65 %
05.05.2026 07:45 15,9 °C 67 % 1008,6 hPa 0,0 l/m² 3,2 km/h (1 Bft) NO 45 ° 1 min 0,000 mm 0,7 UV-I 283 W/m² 9,8 °C 15,9 °C 4,8 km/h (1 Bft) 95,65 %
05.05.2026 07:44 15,9 °C 67 % 1008,6 hPa 0,0 l/m² 1,6 km/h (1 Bft) O-NO 67 ° 1 min 0,000 mm 0,7 UV-I 278 W/m² 9,8 °C 15,9 °C 3,2 km/h (1 Bft) 91,30 %
05.05.2026 07:43 15,9 °C 68 % 1008,7 hPa 0,0 l/m² 1,6 km/h (1 Bft) O-NO 67 ° 1 min 0,000 mm 0,7 UV-I 276 W/m² 10,0 °C 15,9 °C 3,2 km/h (1 Bft) 91,30 %
05.05.2026 07:42 15,8 °C 69 % 1008,7 hPa 0,0 l/m² 1,6 km/h (1 Bft) O-NO 67 ° 1 min 0,000 mm 0,6 UV-I 274 W/m² 10,1 °C 15,8 °C 3,2 km/h (1 Bft) 100,00 %
05.05.2026 07:41 15,8 °C 69 % 1008,7 hPa 0,0 l/m² 0,0 km/h (0 Bft) N 0 ° 1 min 0,000 mm 0,6 UV-I 272 W/m² 10,1 °C 15,8 °C 0,0 km/h (0 Bft) 100,00 %
05.05.2026 07:40 15,7 °C 69 % 1008,6 hPa 0,0 l/m² 0,0 km/h (0 Bft) N 0 ° 1 min 0,000 mm 0,6 UV-I 271 W/m² 10,0 °C 15,7 °C 0,0 km/h (0 Bft) 95,65 %
05.05.2026 07:39 15,6 °C 70 % 1008,7 hPa 0,0 l/m² 0,0 km/h (0 Bft) N 0 ° 1 min 0,000 mm 0,6 UV-I 267 W/m² 10,1 °C 15,6 °C 0,0 km/h (0 Bft) 100,00 %
05.05.2026 07:38 15,5 °C 70 % 1008,6 hPa 0,0 l/m² 0,0 km/h (0 Bft) O-NO 67 ° 1 min 0,000 mm 0,6 UV-I 262 W/m² 10,1 °C 15,5 °C 1,6 km/h (1 Bft) 95,65 %
05.05.2026 07:37 15,4 °C 70 % 1008,7 hPa 0,0 l/m² 0,0 km/h (0 Bft) N 0 ° 1 min 0,000 mm 0,6 UV-I 257 W/m² 10,0 °C 15,4 °C 0,0 km/h (0 Bft) 100,00 %
05.05.2026 07:36 15,4 °C 70 % 1008,7 hPa 0,0 l/m² 0,0 km/h (0 Bft) O 90 ° 1 min 0,000 mm 0,6 UV-I 250 W/m² 10,0 °C 15,4 °C 3,2 km/h (1 Bft) 86,96 %
05.05.2026 07:35 15,4 °C 71 % 1008,7 hPa 0,0 l/m² 1,6 km/h (1 Bft) O-NO 67 ° 1 min 0,000 mm 0,6 UV-I 243 W/m² 10,2 °C 15,4 °C 3,2 km/h (1 Bft) 91,30 %
05.05.2026 07:34 15,3 °C 71 % 1008,6 hPa 0,0 l/m² 1,6 km/h (1 Bft) O 90 ° 1 min 0,000 mm 0,6 UV-I 230 W/m² 10,1 °C 15,3 °C 3,2 km/h (1 Bft) 95,65 %
05.05.2026 07:33 15,3 °C 71 % 1008,6 hPa 0,0 l/m² 1,6 km/h (1 Bft) O 90 ° 1 min 0,000 mm 0,6 UV-I 223 W/m² 10,1 °C 15,3 °C 3,2 km/h (1 Bft) 91,30 %
05.05.2026 07:32 15,2 °C 71 % 1008,6 hPa 0,0 l/m² 1,6 km/h (1 Bft) O 90 ° 1 min 0,000 mm 0,6 UV-I 218 W/m² 10,0 °C 15,2 °C 3,2 km/h (1 Bft) 91,30 %
05.05.2026 07:31 15,2 °C 71 % 1008,7 hPa 0,0 l/m² 0,0 km/h (0 Bft) O 90 ° 1 min 0,000 mm 0,5 UV-I 213 W/m² 10,0 °C 15,2 °C 1,6 km/h (1 Bft) 95,65 %
05.05.2026 07:30 15,1 °C 70 % 1008,7 hPa 0,0 l/m² 0,0 km/h (0 Bft) N 0 ° 1 min 0,000 mm 0,5 UV-I 209 W/m² 9,7 °C 15,1 °C 0,0 km/h (0 Bft) 95,65 %
05.05.2026 07:29 15,1 °C 70 % 1008,7 hPa 0,0 l/m² 0,0 km/h (0 Bft) O-SO 112 ° 1 min 0,000 mm 0,5 UV-I 206 W/m² 9,7 °C 15,1 °C 1,6 km/h (1 Bft) 100,00 %
05.05.2026 07:28 15,0 °C 70 % 1008,6 hPa 0,0 l/m² 1,6 km/h (1 Bft) O-NO 67 ° 1 min 0,000 mm 0,5 UV-I 204 W/m² 9,6 °C 15,0 °C 4,8 km/h (1 Bft) 95,65 %
05.05.2026 07:27 15,1 °C 70 % 1008,7 hPa 0,0 l/m² 3,2 km/h (1 Bft) O-NO 67 ° 1 min 0,000 mm 0,5 UV-I 202 W/m² 9,7 °C 15,1 °C 4,8 km/h (1 Bft) 95,65 %
05.05.2026 07:26 15,1 °C 70 % 1008,6 hPa 0,0 l/m² 3,2 km/h (1 Bft) O-NO 67 ° 1 min 0,000 mm 0,5 UV-I 202 W/m² 9,7 °C 15,1 °C 6,4 km/h (2 Bft) 100,00 %
05.05.2026 07:25 15,0 °C 70 % 1008,6 hPa 0,0 l/m² 3,2 km/h (1 Bft) O-NO 67 ° 1 min 0,000 mm 0,5 UV-I 202 W/m² 9,6 °C 15,0 °C 4,8 km/h (1 Bft) 91,30 %
05.05.2026 07:24 15,0 °C 71 % 1008,6 hPa 0,0 l/m² 3,2 km/h (1 Bft) O-NO 67 ° 1 min 0,000 mm 0,5 UV-I 204 W/m² 9,8 °C 15,0 °C 4,8 km/h (1 Bft) 95,65 %
05.05.2026 07:23 15,0 °C 71 % 1008,6 hPa 0,0 l/m² 4,8 km/h (1 Bft) O-NO 67 ° 1 min 0,000 mm 0,5 UV-I 206 W/m² 9,8 °C 15,0 °C 6,4 km/h (2 Bft) 100,00 %
05.05.2026 07:22 15,0 °C 70 % 1008,6 hPa 0,0 l/m² 4,8 km/h (1 Bft) O-NO 67 ° 1 min 0,000 mm 0,5 UV-I 209 W/m² 9,6 °C 15,0 °C 6,4 km/h (2 Bft) 95,65 %
05.05.2026 07:21 15,0 °C 70 % 1008,7 hPa 0,0 l/m² 1,6 km/h (1 Bft) O-NO 67 ° 1 min 0,000 mm 0,5 UV-I 211 W/m² 9,6 °C 15,0 °C 3,2 km/h (1 Bft) 100,00 %
05.05.2026 07:20 14,9 °C 70 % 1008,6 hPa 0,0 l/m² 0,0 km/h (0 Bft) O-NO 67 ° 1 min 0,000 mm 0,5 UV-I 211 W/m² 9,5 °C 14,9 °C 1,6 km/h (1 Bft) 100,00 %
05.05.2026 07:19 14,8 °C 70 % 1008,6 hPa 0,0 l/m² 3,2 km/h (1 Bft) O-NO 67 ° 1 min 0,000 mm 0,5 UV-I 209 W/m² 9,4 °C 14,8 °C 4,8 km/h (1 Bft) 95,65 %
05.05.2026 07:18 14,7 °C 70 % 1008,6 hPa 0,0 l/m² 3,2 km/h (1 Bft) O-NO 67 ° 1 min 0,000 mm 0,0 UV-I 211 W/m² 9,3 °C 14,7 °C 4,8 km/h (1 Bft) 95,65 %
05.05.2026 07:17 14,7 °C 70 % 1008,7 hPa 0,0 l/m² 1,6 km/h (1 Bft) O-NO 67 ° 1 min 0,000 mm 0,0 UV-I 211 W/m² 9,3 °C 14,7 °C 4,8 km/h (1 Bft) 91,30 %
05.05.2026 07:16 14,6 °C 71 % 1008,7 hPa 0,0 l/m² 3,2 km/h (1 Bft) O-NO 67 ° 1 min 0,000 mm 0,0 UV-I 209 W/m² 9,4 °C 14,6 °C 6,4 km/h (2 Bft) 91,30 %
05.05.2026 07:15 14,6 °C 71 % 1008,6 hPa 0,0 l/m² 4,8 km/h (1 Bft) O-NO 67 ° 1 min 0,000 mm 0,0 UV-I 204 W/m² 9,4 °C 14,6 °C 6,4 km/h (2 Bft) 91,30 %
05.05.2026 07:14 14,6 °C 71 % 1008,6 hPa 0,0 l/m² 3,2 km/h (1 Bft) O-NO 67 ° 0 min 0,000 mm 0,0 UV-I 121 W/m² 9,4 °C 14,6 °C 4,8 km/h (1 Bft) 95,65 %
05.05.2026 07:13 14,6 °C 71 % 1008,6 hPa 0,0 l/m² 3,2 km/h (1 Bft) O-NO 67 ° 1 min 0,000 mm 0,0 UV-I 197 W/m² 9,4 °C 14,6 °C 4,8 km/h (1 Bft) 100,00 %
05.05.2026 07:12 14,6 °C 71 % 1008,6 hPa 0,0 l/m² 3,2 km/h (1 Bft) O-NO 67 ° 1 min 0,000 mm 0,0 UV-I 193 W/m² 9,4 °C 14,6 °C 6,4 km/h (2 Bft) 95,65 %
05.05.2026 07:11 14,6 °C 71 % 1008,7 hPa 0,0 l/m² 3,2 km/h (1 Bft) O-NO 67 ° 1 min 0,000 mm 0,0 UV-I 190 W/m² 9,4 °C 14,6 °C 4,8 km/h (1 Bft) 95,65 %
05.05.2026 07:10 14,6 °C 71 % 1008,7 hPa 0,0 l/m² 3,2 km/h (1 Bft) O-NO 67 ° 1 min 0,000 mm 0,0 UV-I 186 W/m² 9,4 °C 14,6 °C 6,4 km/h (2 Bft) 91,30 %
05.05.2026 07:09 14,6 °C 71 % 1008,7 hPa 0,0 l/m² 3,2 km/h (1 Bft) O 90 ° 1 min 0,000 mm 0,0 UV-I 183 W/m² 9,4 °C 14,6 °C 4,8 km/h (1 Bft) 95,65 %
05.05.2026 07:08 14,6 °C 70 % 1008,6 hPa 0,0 l/m² 4,8 km/h (1 Bft) O-NO 67 ° 1 min 0,000 mm 0,0 UV-I 178 W/m² 9,2 °C 14,6 °C 8,0 km/h (2 Bft) 100,00 %
05.05.2026 07:07 14,6 °C 71 % 1008,7 hPa 0,0 l/m² 4,8 km/h (1 Bft) O-NO 67 ° 1 min 0,000 mm 0,0 UV-I 169 W/m² 9,4 °C 14,6 °C 6,4 km/h (2 Bft) 78,26 %
05.05.2026 07:06 14,6 °C 70 % 1008,7 hPa 0,0 l/m² 4,8 km/h (1 Bft) O-NO 67 ° 1 min 0,000 mm 0,0 UV-I 169 W/m² 9,2 °C 14,6 °C 6,4 km/h (2 Bft) 91,30 %
05.05.2026 07:05 14,5 °C 70 % 1008,6 hPa 0,0 l/m² 4,8 km/h (1 Bft) O-NO 67 ° 1 min 0,000 mm 0,0 UV-I 165 W/m² 9,1 °C 14,5 °C 6,4 km/h (2 Bft) 73,91 %
05.05.2026 07:04 14,4 °C 70 % 1008,6 hPa 0,0 l/m² 3,2 km/h (1 Bft) O-NO 67 ° 1 min 0,000 mm 0,0 UV-I 165 W/m² 9,0 °C 14,4 °C 6,4 km/h (2 Bft) 95,65 %
05.05.2026 07:03 14,4 °C 70 % 1008,7 hPa 0,0 l/m² 4,8 km/h (1 Bft) O-NO 67 ° 1 min 0,000 mm 0,0 UV-I 156 W/m² 9,0 °C 14,4 °C 6,4 km/h (2 Bft) 65,22 %
05.05.2026 07:02 14,4 °C 70 % 1008,7 hPa 0,0 l/m² 3,2 km/h (1 Bft) O-NO 67 ° 1 min 0,000 mm 0,0 UV-I 153 W/m² 9,0 °C 14,4 °C 6,4 km/h (2 Bft) 100,00 %
05.05.2026 07:01 14,3 °C 70 % 1008,7 hPa 0,0 l/m² 1,6 km/h (1 Bft) SW 225 ° 0 min 0,000 mm 0,0 UV-I 151 W/m² 8,9 °C 14,3 °C 3,2 km/h (1 Bft) 95,65 %
05.05.2026 07:00 14,3 °C 70 % 1008,7 hPa 0,0 l/m² 1,6 km/h (1 Bft) S 180 ° 0 min 0,051 mm 0,0 UV-I 149 W/m² 8,9 °C 14,3 °C 3,2 km/h (1 Bft) 82,61 %
05.05.2026 06:59 14,3 °C 70 % 1008,7 hPa 0,0 l/m² 1,6 km/h (1 Bft) W-SW 247 ° 0 min 0,000 mm 0,0 UV-I 146 W/m² 8,9 °C 14,3 °C 4,8 km/h (1 Bft) 100,00 %
05.05.2026 06:58 14,3 °C 69 % 1008,7 hPa 0,0 l/m² 1,6 km/h (1 Bft) W-NW 292 ° 0 min 0,000 mm 0,0 UV-I 141 W/m² 8,7 °C 14,3 °C 4,8 km/h (1 Bft) 100,00 %
05.05.2026 06:57 14,3 °C 70 % 1008,6 hPa 0,0 l/m² 1,6 km/h (1 Bft) SW 225 ° 0 min 0,000 mm 0,0 UV-I 139 W/m² 8,9 °C 14,3 °C 3,2 km/h (1 Bft) 100,00 %
05.05.2026 06:56 14,3 °C 69 % 1008,7 hPa 0,0 l/m² 3,2 km/h (1 Bft) W-SW 247 ° 0 min 0,000 mm 0,0 UV-I 134 W/m² 8,7 °C 14,3 °C 4,8 km/h (1 Bft) 95,65 %
05.05.2026 06:55 14,3 °C 69 % 1008,7 hPa 0,0 l/m² 3,2 km/h (1 Bft) W 270 ° 0 min 0,000 mm 0,0 UV-I 132 W/m² 8,7 °C 14,3 °C 4,8 km/h (1 Bft) 82,61 %
05.05.2026 06:54 14,2 °C 70 % 1008,7 hPa 0,0 l/m² 3,2 km/h (1 Bft) N 360 ° 0 min 0,000 mm 0,0 UV-I 130 W/m² 8,8 °C 14,2 °C 4,8 km/h (1 Bft) 95,65 %
05.05.2026 06:53 14,2 °C 70 % 1008,6 hPa 0,0 l/m² 1,6 km/h (1 Bft) N-NW 337 ° 0 min 0,000 mm 0,0 UV-I 125 W/m² 8,8 °C 14,2 °C 4,8 km/h (1 Bft) 100,00 %
05.05.2026 06:52 14,1 °C 70 % 1008,7 hPa 0,0 l/m² 3,2 km/h (1 Bft) W-NW 292 ° 0 min 0,000 mm 0,0 UV-I 118 W/m² 8,7 °C 14,1 °C 4,8 km/h (1 Bft) 100,00 %
05.05.2026 06:51 14,1 °C 70 % 1008,7 hPa 0,0 l/m² 1,6 km/h (1 Bft) W-NW 292 ° 0 min 0,000 mm 0,0 UV-I 111 W/m² 8,7 °C 14,1 °C 3,2 km/h (1 Bft) 100,00 %
05.05.2026 06:50 13,9 °C 70 % 1008,6 hPa 0,0 l/m² 1,6 km/h (1 Bft) NO 45 ° 0 min 0,000 mm 0,0 UV-I 105 W/m² 8,5 °C 13,9 °C 4,8 km/h (1 Bft) 95,65 %
05.05.2026 06:49 13,9 °C 70 % 1008,7 hPa 0,0 l/m² 3,2 km/h (1 Bft) NO 45 ° 0 min 0,000 mm 0,0 UV-I 100 W/m² 8,5 °C 13,9 °C 6,4 km/h (2 Bft) 91,30 %
05.05.2026 06:48 13,9 °C 70 % 1008,7 hPa 0,0 l/m² 1,6 km/h (1 Bft) O-NO 67 ° 0 min 0,000 mm 0,0 UV-I 90 W/m² 8,5 °C 13,9 °C 3,2 km/h (1 Bft) 91,30 %
05.05.2026 06:47 14,0 °C 70 % 1008,7 hPa 0,0 l/m² 0,0 km/h (0 Bft) NO 45 ° 0 min 0,000 mm 0,0 UV-I 83 W/m² 8,6 °C 14,0 °C 1,6 km/h (1 Bft) 91,30 %
05.05.2026 06:46 14,1 °C 69 % 1008,7 hPa 0,0 l/m² 3,2 km/h (1 Bft) NO 45 ° 0 min 0,000 mm 0,0 UV-I 74 W/m² 8,5 °C 14,1 °C 6,4 km/h (2 Bft) 91,30 %
05.05.2026 06:45 14,2 °C 69 % 1008,7 hPa 0,0 l/m² 1,6 km/h (1 Bft) NO 45 ° 0 min 0,000 mm 0,0 UV-I 69 W/m² 8,6 °C 14,2 °C 4,8 km/h (1 Bft) 100,00 %
05.05.2026 06:44 14,3 °C 69 % 1008,7 hPa 0,0 l/m² 3,2 km/h (1 Bft) NO 45 ° 0 min 0,000 mm 0,0 UV-I 63 W/m² 8,7 °C 14,3 °C 6,4 km/h (2 Bft) 95,65 %
05.05.2026 06:43 14,4 °C 68 % 1008,7 hPa 0,0 l/m² 3,2 km/h (1 Bft) NO 45 ° 0 min 0,000 mm 0,0 UV-I 62 W/m² 8,6 °C 14,4 °C 4,8 km/h (1 Bft) 100,00 %
05.05.2026 06:42 14,5 °C 68 % 1008,7 hPa 0,0 l/m² 0,0 km/h (0 Bft) S-SW 202 ° 0 min 0,000 mm 0,0 UV-I 60 W/m² 8,7 °C 14,5 °C 1,6 km/h (1 Bft) 91,30 %
05.05.2026 06:41 14,6 °C 68 % 1008,7 hPa 0,0 l/m² 1,6 km/h (1 Bft) O-NO 67 ° 0 min 0,000 mm 0,0 UV-I 53 W/m² 8,8 °C 14,6 °C 3,2 km/h (1 Bft) 82,61 %
05.05.2026 06:40 14,6 °C 68 % 1008,8 hPa 0,0 l/m² 0,0 km/h (0 Bft) O-NO 67 ° 0 min 0,000 mm 0,0 UV-I 49 W/m² 8,8 °C 14,6 °C 3,2 km/h (1 Bft) 100,00 %
05.05.2026 06:39 14,7 °C 68 % 1008,7 hPa 0,0 l/m² 0,0 km/h (0 Bft) N-NW 337 ° 0 min 0,000 mm 0,0 UV-I 44 W/m² 8,9 °C 14,7 °C 3,2 km/h (1 Bft) 95,65 %
05.05.2026 06:38 14,7 °C 69 % 1008,7 hPa 0,0 l/m² 1,6 km/h (1 Bft) W 270 ° 0 min 0,000 mm 0,0 UV-I 35 W/m² 9,1 °C 14,7 °C 4,8 km/h (1 Bft) 95,65 %
05.05.2026 06:37 14,8 °C 69 % 1008,8 hPa 0,0 l/m² 1,6 km/h (1 Bft) W-NW 292 ° 0 min 0,000 mm 0,0 UV-I 35 W/m² 9,2 °C 14,8 °C 3,2 km/h (1 Bft) 95,65 %
05.05.2026 06:36 14,7 °C 69 % 1008,7 hPa 0,0 l/m² 1,6 km/h (1 Bft) W-NW 292 ° 0 min 0,000 mm 0,0 UV-I 33 W/m² 9,1 °C 14,7 °C 4,8 km/h (1 Bft) 95,65 %
05.05.2026 06:35 14,6 °C 69 % 1008,8 hPa 0,0 l/m² 3,2 km/h (1 Bft) N-NW 337 ° 0 min 0,000 mm 0,0 UV-I 32 W/m² 9,0 °C 14,6 °C 4,8 km/h (1 Bft) 95,65 %
05.05.2026 06:34 14,4 °C 69 % 1008,8 hPa 0,0 l/m² 1,6 km/h (1 Bft) W-NW 292 ° 0 min 0,000 mm 0,0 UV-I 30 W/m² 8,8 °C 14,4 °C 3,2 km/h (1 Bft) 91,30 %
05.05.2026 06:33 14,3 °C 69 % 1008,8 hPa 0,0 l/m² 1,6 km/h (1 Bft) W-NW 292 ° 0 min 0,000 mm 0,0 UV-I 30 W/m² 8,7 °C 14,3 °C 3,2 km/h (1 Bft) 95,65 %
05.05.2026 06:32 14,3 °C 69 % 1008,8 hPa 0,0 l/m² 0,0 km/h (0 Bft) N-NW 337 ° 0 min 0,000 mm 0,0 UV-I 30 W/m² 8,7 °C 14,3 °C 3,2 km/h (1 Bft) 91,30 %
05.05.2026 06:31 14,3 °C 69 % 1008,7 hPa 0,0 l/m² 1,6 km/h (1 Bft) N-NW 337 ° 0 min 0,000 mm 0,0 UV-I 28 W/m² 8,7 °C 14,3 °C 3,2 km/h (1 Bft) 100,00 %
05.05.2026 06:30 14,2 °C 69 % 1008,7 hPa 0,0 l/m² 3,2 km/h (1 Bft) NW 315 ° 0 min 0,000 mm 0,0 UV-I 28 W/m² 8,6 °C 14,2 °C 6,4 km/h (2 Bft) 91,30 %
05.05.2026 06:29 14,1 °C 70 % 1008,8 hPa 0,0 l/m² 3,2 km/h (1 Bft) N 360 ° 0 min 0,000 mm 0,0 UV-I 28 W/m² 8,7 °C 14,1 °C 4,8 km/h (1 Bft) 91,30 %
05.05.2026 06:28 14,0 °C 70 % 1008,8 hPa 0,0 l/m² 1,6 km/h (1 Bft) W 270 ° 0 min 0,000 mm 0,0 UV-I 28 W/m² 8,6 °C 14,0 °C 4,8 km/h (1 Bft) 95,65 %
05.05.2026 06:27 13,9 °C 70 % 1008,8 hPa 0,0 l/m² 3,2 km/h (1 Bft) N 360 ° 0 min 0,000 mm 0,0 UV-I 28 W/m² 8,5 °C 13,9 °C 6,4 km/h (2 Bft) 86,96 %
05.05.2026 06:26 13,9 °C 69 % 1008,8 hPa 0,0 l/m² 3,2 km/h (1 Bft) W 270 ° 0 min 0,000 mm 0,0 UV-I 28 W/m² 8,3 °C 13,9 °C 6,4 km/h (2 Bft) 91,30 %
05.05.2026 06:25 13,9 °C 69 % 1008,8 hPa 0,0 l/m² 3,2 km/h (1 Bft) NO 45 ° 0 min 0,000 mm 0,0 UV-I 30 W/m² 8,3 °C 13,9 °C 4,8 km/h (1 Bft) 100,00 %
05.05.2026 06:24 13,9 °C 69 % 1008,8 hPa 0,0 l/m² 3,2 km/h (1 Bft) W 270 ° 0 min 0,000 mm 0,0 UV-I 28 W/m² 8,3 °C 13,9 °C 6,4 km/h (2 Bft) 91,30 %
05.05.2026 06:23 13,9 °C 69 % 1008,8 hPa 0,0 l/m² 3,2 km/h (1 Bft) NO 45 ° 0 min 0,000 mm 0,0 UV-I 26 W/m² 8,3 °C 13,9 °C 6,4 km/h (2 Bft) 91,30 %
05.05.2026 06:22 13,9 °C 69 % 1008,8 hPa 0,0 l/m² 3,2 km/h (1 Bft) N 360 ° 0 min 0,000 mm 0,0 UV-I 28 W/m² 8,3 °C 13,9 °C 4,8 km/h (1 Bft) 100,00 %
05.05.2026 06:21 14,0 °C 69 % 1008,8 hPa 0,0 l/m² 1,6 km/h (1 Bft) W-NW 292 ° 0 min 0,000 mm 0,0 UV-I 28 W/m² 8,4 °C 14,0 °C 3,2 km/h (1 Bft) 86,96 %
05.05.2026 06:20 14,0 °C 68 % 1008,8 hPa 0,0 l/m² 3,2 km/h (1 Bft) NW 315 ° 0 min 0,000 mm 0,0 UV-I 26 W/m² 8,2 °C 14,0 °C 4,8 km/h (1 Bft) 95,65 %
05.05.2026 06:19 14,1 °C 68 % 1008,8 hPa 0,0 l/m² 1,6 km/h (1 Bft) N 360 ° 0 min 0,000 mm 0,0 UV-I 26 W/m² 8,3 °C 14,1 °C 4,8 km/h (1 Bft) 91,30 %
05.05.2026 06:18 14,1 °C 68 % 1008,8 hPa 0,0 l/m² 3,2 km/h (1 Bft) W-NW 292 ° 0 min 0,000 mm 0,0 UV-I 25 W/m² 8,3 °C 14,1 °C 4,8 km/h (1 Bft) 91,30 %
05.05.2026 06:17 14,1 °C 68 % 1008,8 hPa 0,0 l/m² 3,2 km/h (1 Bft) NO 45 ° 0 min 0,000 mm 0,0 UV-I 25 W/m² 8,3 °C 14,1 °C 8,0 km/h (2 Bft) 91,30 %
05.05.2026 06:16 14,2 °C 68 % 1008,8 hPa 0,0 l/m² 6,4 km/h (2 Bft) NO 45 ° 0 min 0,000 mm 0,0 UV-I 23 W/m² 8,4 °C 14,2 °C 8,0 km/h (2 Bft) 91,30 %
05.05.2026 06:15 14,2 °C 68 % 1008,8 hPa 0,0 l/m² 3,2 km/h (1 Bft) NO 45 ° 0 min 0,000 mm 0,0 UV-I 23 W/m² 8,4 °C 14,2 °C 6,4 km/h (2 Bft) 100,00 %
05.05.2026 06:14 14,2 °C 68 % 1008,7 hPa 0,0 l/m² 3,2 km/h (1 Bft) N 360 ° 0 min 0,000 mm 0,0 UV-I 23 W/m² 8,4 °C 14,2 °C 6,4 km/h (2 Bft) 82,61 %
05.05.2026 06:13 14,1 °C 69 % 1008,8 hPa 0,0 l/m² 3,2 km/h (1 Bft) NO 45 ° 0 min 0,000 mm 0,0 UV-I 21 W/m² 8,5 °C 14,1 °C 9,7 km/h (2 Bft) 86,96 %
05.05.2026 06:12 14,1 °C 68 % 1008,8 hPa 0,0 l/m² 3,2 km/h (1 Bft) NO 45 ° 0 min 0,000 mm 0,0 UV-I 21 W/m² 8,3 °C 14,1 °C 6,4 km/h (2 Bft) 91,30 %
05.05.2026 06:11 14,1 °C 68 % 1008,8 hPa 0,0 l/m² 1,6 km/h (1 Bft) NO 45 ° 0 min 0,000 mm 0,0 UV-I 19 W/m² 8,3 °C 14,1 °C 6,4 km/h (2 Bft) 95,65 %
05.05.2026 06:10 14,0 °C 69 % 1008,8 hPa 0,0 l/m² 1,6 km/h (1 Bft) S-SW 202 ° 0 min 0,000 mm 0,0 UV-I 18 W/m² 8,4 °C 14,0 °C 3,2 km/h (1 Bft) 82,61 %
05.05.2026 06:09 14,0 °C 69 % 1008,8 hPa 0,0 l/m² 3,2 km/h (1 Bft) N-NW 337 ° 0 min 0,000 mm 0,0 UV-I 18 W/m² 8,4 °C 14,0 °C 6,4 km/h (2 Bft) 91,30 %
05.05.2026 06:08 13,9 °C 69 % 1008,9 hPa 0,0 l/m² 3,2 km/h (1 Bft) O-NO 67 ° 0 min 0,000 mm 0,0 UV-I 18 W/m² 8,3 °C 13,9 °C 4,8 km/h (1 Bft) 91,30 %
05.05.2026 06:07 13,9 °C 69 % 1008,8 hPa 0,0 l/m² 1,6 km/h (1 Bft) W 270 ° 0 min 0,000 mm 0,0 UV-I 16 W/m² 8,3 °C 13,9 °C 6,4 km/h (2 Bft) 100,00 %
05.05.2026 06:06 14,0 °C 69 % 1008,8 hPa 0,0 l/m² 1,6 km/h (1 Bft) O 90 ° 0 min 0,000 mm 0,0 UV-I 16 W/m² 8,4 °C 14,0 °C 6,4 km/h (2 Bft) 91,30 %
05.05.2026 06:05 13,9 °C 69 % 1008,8 hPa 0,0 l/m² 4,8 km/h (1 Bft) O-NO 67 ° 0 min 0,000 mm 0,0 UV-I 14 W/m² 8,3 °C 13,9 °C 8,0 km/h (2 Bft) 100,00 %
05.05.2026 06:04 13,9 °C 69 % 1008,9 hPa 0,0 l/m² 1,6 km/h (1 Bft) W 270 ° 0 min 0,000 mm 0,0 UV-I 14 W/m² 8,3 °C 13,9 °C 4,8 km/h (1 Bft) 91,30 %
05.05.2026 06:03 13,9 °C 70 % 1008,8 hPa 0,0 l/m² 1,6 km/h (1 Bft) O-NO 67 ° 0 min 0,000 mm 0,0 UV-I 14 W/m² 8,5 °C 13,9 °C 4,8 km/h (1 Bft) 91,30 %
05.05.2026 06:02 13,8 °C 70 % 1008,9 hPa 0,0 l/m² 4,8 km/h (1 Bft) NO 45 ° 0 min 0,000 mm 0,0 UV-I 14 W/m² 8,4 °C 13,8 °C 6,4 km/h (2 Bft) 100,00 %
05.05.2026 06:01 13,7 °C 70 % 1008,8 hPa 0,0 l/m² 1,6 km/h (1 Bft) N-NW 337 ° 0 min 0,000 mm 0,0 UV-I 14 W/m² 8,3 °C 13,7 °C 3,2 km/h (1 Bft) 100,00 %
05.05.2026 06:00 13,6 °C 70 % 1008,8 hPa 0,0 l/m² 1,6 km/h (1 Bft) NO 45 ° 0 min 0,025 mm 0,0 UV-I 12 W/m² 8,2 °C 13,6 °C 4,8 km/h (1 Bft) 100,00 %
05.05.2026 05:59 13,6 °C 70 % 1008,9 hPa 0,0 l/m² 3,2 km/h (1 Bft) O-NO 67 ° 0 min 0,000 mm 0,0 UV-I 12 W/m² 8,2 °C 13,6 °C 6,4 km/h (2 Bft) 86,96 %
05.05.2026 05:58 13,4 °C 70 % 1008,8 hPa 0,0 l/m² 3,2 km/h (1 Bft) O-NO 67 ° 0 min 0,000 mm 0,0 UV-I 12 W/m² 8,0 °C 13,4 °C 6,4 km/h (2 Bft) 95,65 %
05.05.2026 05:57 13,4 °C 71 % 1008,9 hPa 0,0 l/m² 4,8 km/h (1 Bft) NO 45 ° 0 min 0,000 mm 0,0 UV-I 12 W/m² 8,3 °C 13,4 °C 8,0 km/h (2 Bft) 95,65 %
05.05.2026 05:56 13,2 °C 71 % 1008,9 hPa 0,0 l/m² 4,8 km/h (1 Bft) NO 45 ° 0 min 0,000 mm 0,0 UV-I 12 W/m² 8,1 °C 13,2 °C 6,4 km/h (2 Bft) 91,30 %
05.05.2026 05:55 13,1 °C 71 % 1008,9 hPa 0,0 l/m² 1,6 km/h (1 Bft) W 270 ° 0 min 0,000 mm 0,0 UV-I 11 W/m² 8,0 °C 13,1 °C 4,8 km/h (1 Bft) 100,00 %
05.05.2026 05:54 13,1 °C 71 % 1008,9 hPa 0,0 l/m² 1,6 km/h (1 Bft) NW 315 ° 0 min 0,000 mm 0,0 UV-I 11 W/m² 8,0 °C 13,1 °C 3,2 km/h (1 Bft) 100,00 %
05.05.2026 05:53 12,9 °C 72 % 1008,9 hPa 0,0 l/m² 3,2 km/h (1 Bft) N 360 ° 0 min 0,000 mm 0,0 UV-I 11 W/m² 8,0 °C 12,9 °C 3,2 km/h (1 Bft) 91,30 %
05.05.2026 05:52 12,9 °C 72 % 1008,9 hPa 0,0 l/m² 1,6 km/h (1 Bft) N-NW 337 ° 0 min 0,000 mm 0,0 UV-I 11 W/m² 8,0 °C 12,9 °C 4,8 km/h (1 Bft) 86,96 %
05.05.2026 05:51 12,9 °C 72 % 1008,8 hPa 0,0 l/m² 1,6 km/h (1 Bft) SW 225 ° 0 min 0,000 mm 0,0 UV-I 9 W/m² 8,0 °C 12,9 °C 3,2 km/h (1 Bft) 95,65 %
05.05.2026 05:50 12,8 °C 72 % 1008,9 hPa 0,0 l/m² 1,6 km/h (1 Bft) N 360 ° 0 min 0,000 mm 0,0 UV-I 9 W/m² 7,9 °C 12,8 °C 1,6 km/h (1 Bft) 95,65 %
05.05.2026 05:49 12,8 °C 72 % 1008,8 hPa 0,0 l/m² 1,6 km/h (1 Bft) O-NO 67 ° 0 min 0,000 mm 0,0 UV-I 7 W/m² 7,9 °C 12,8 °C 3,2 km/h (1 Bft) 100,00 %
05.05.2026 05:48 12,8 °C 72 % 1008,8 hPa 0,0 l/m² 3,2 km/h (1 Bft) NO 45 ° 0 min 0,000 mm 0,0 UV-I 7 W/m² 7,9 °C 12,8 °C 6,4 km/h (2 Bft) 100,00 %
05.05.2026 05:47 12,7 °C 72 % 1008,8 hPa 0,0 l/m² 4,8 km/h (1 Bft) NO 45 ° 0 min 0,000 mm 0,0 UV-I 5 W/m² 7,8 °C 12,7 °C 8,0 km/h (2 Bft) 95,65 %
05.05.2026 05:46 12,7 °C 72 % 1008,9 hPa 0,0 l/m² 6,4 km/h (2 Bft) NO 45 ° 0 min 0,000 mm 0,0 UV-I 5 W/m² 7,8 °C 12,7 °C 8,0 km/h (2 Bft) 100,00 %
05.05.2026 05:45 12,6 °C 73 % 1008,9 hPa 0,0 l/m² 3,2 km/h (1 Bft) O-NO 67 ° 0 min 0,000 mm 0,0 UV-I 5 W/m² 7,9 °C 12,6 °C 4,8 km/h (1 Bft) 91,30 %
05.05.2026 05:44 12,6 °C 73 % 1008,8 hPa 0,0 l/m² 1,6 km/h (1 Bft) N-NO 22 ° 0 min 0,000 mm 0,0 UV-I 0 W/m² 7,9 °C 12,6 °C 4,8 km/h (1 Bft) 91,30 %
05.05.2026 05:43 12,6 °C 73 % 1008,8 hPa 0,0 l/m² 3,2 km/h (1 Bft) W 270 ° 0 min 0,000 mm 0,0 UV-I 0 W/m² 7,9 °C 12,6 °C 4,8 km/h (1 Bft) 100,00 %
05.05.2026 05:42 12,6 °C 72 % 1008,8 hPa 0,0 l/m² 3,2 km/h (1 Bft) NO 45 ° 0 min 0,000 mm 0,0 UV-I 0 W/m² 7,7 °C 12,6 °C 4,8 km/h (1 Bft) 100,00 %
05.05.2026 05:41 12,6 °C 72 % 1008,8 hPa 0,0 l/m² 1,6 km/h (1 Bft) NO 45 ° 0 min 0,000 mm 0,0 UV-I 0 W/m² 7,7 °C 12,6 °C 6,4 km/h (2 Bft) 91,30 %
05.05.2026 05:40 12,7 °C 72 % 1008,9 hPa 0,0 l/m² 1,6 km/h (1 Bft) N 360 ° 0 min 0,000 mm 0,0 UV-I 0 W/m² 7,8 °C 12,7 °C 6,4 km/h (2 Bft) 100,00 %
05.05.2026 05:39 12,7 °C 72 % 1008,8 hPa 0,0 l/m² 1,6 km/h (1 Bft) N-NO 22 ° 0 min 0,000 mm 0,0 UV-I 0 W/m² 7,8 °C 12,7 °C 3,2 km/h (1 Bft) 100,00 %
05.05.2026 05:38 12,8 °C 71 % 1008,8 hPa 0,0 l/m² 1,6 km/h (1 Bft) N 360 ° 0 min 0,000 mm 0,0 UV-I 0 W/m² 7,7 °C 12,8 °C 4,8 km/h (1 Bft) 91,30 %
05.05.2026 05:37 12,9 °C 71 % 1008,8 hPa 0,0 l/m² 3,2 km/h (1 Bft) O-NO 67 ° 0 min 0,000 mm 0,0 UV-I 0 W/m² 7,8 °C 12,9 °C 4,8 km/h (1 Bft) 95,65 %
05.05.2026 05:36 13,1 °C 71 % 1008,8 hPa 0,0 l/m² 4,8 km/h (1 Bft) O-NO 67 ° 0 min 0,000 mm 0,0 UV-I 0 W/m² 8,0 °C 13,1 °C 6,4 km/h (2 Bft) 95,65 %
05.05.2026 05:35 13,2 °C 70 % 1008,8 hPa 0,0 l/m² 4,8 km/h (1 Bft) O-NO 67 ° 0 min 0,000 mm 0,0 UV-I 0 W/m² 7,9 °C 13,2 °C 8,0 km/h (2 Bft) 100,00 %
05.05.2026 05:34 13,3 °C 70 % 1008,8 hPa 0,0 l/m² 4,8 km/h (1 Bft) O-NO 67 ° 0 min 0,000 mm 0,0 UV-I 0 W/m² 7,9 °C 13,3 °C 8,0 km/h (2 Bft) 95,65 %
05.05.2026 05:33 13,3 °C 70 % 1008,8 hPa 0,0 l/m² 6,4 km/h (2 Bft) O-NO 67 ° 0 min 0,000 mm 0,0 UV-I 0 W/m² 7,9 °C 13,3 °C 8,0 km/h (2 Bft) 100,00 %
05.05.2026 05:32 13,3 °C 70 % 1008,8 hPa 0,0 l/m² 4,8 km/h (1 Bft) O-NO 67 ° 0 min 0,000 mm 0,0 UV-I 0 W/m² 7,9 °C 13,3 °C 6,4 km/h (2 Bft) 91,30 %
05.05.2026 05:31 13,3 °C 70 % 1008,9 hPa 0,0 l/m² 3,2 km/h (1 Bft) O-NO 67 ° 0 min 0,000 mm 0,0 UV-I 0 W/m² 7,9 °C 13,3 °C 6,4 km/h (2 Bft) 78,26 %
05.05.2026 05:30 13,3 °C 70 % 1008,9 hPa 0,0 l/m² 4,8 km/h (1 Bft) O-NO 67 ° 0 min 0,000 mm 0,0 UV-I 0 W/m² 7,9 °C 13,3 °C 8,0 km/h (2 Bft) 95,65 %
05.05.2026 05:29 13,3 °C 70 % 1008,8 hPa 0,0 l/m² 4,8 km/h (1 Bft) NO 45 ° 0 min 0,000 mm 0,0 UV-I 0 W/m² 7,9 °C 13,3 °C 6,4 km/h (2 Bft) 95,65 %
05.05.2026 05:28 13,3 °C 70 % 1008,8 hPa 0,0 l/m² 3,2 km/h (1 Bft) O-NO 67 ° 0 min 0,000 mm 0,0 UV-I 0 W/m² 7,9 °C 13,3 °C 4,8 km/h (1 Bft) 95,65 %
05.05.2026 05:27 13,3 °C 70 % 1008,9 hPa 0,0 l/m² 1,6 km/h (1 Bft) O-NO 67 ° 0 min 0,000 mm 0,0 UV-I 0 W/m² 7,9 °C 13,3 °C 3,2 km/h (1 Bft) 91,30 %
05.05.2026 05:26 13,3 °C 70 % 1008,8 hPa 0,0 l/m² 1,6 km/h (1 Bft) N-NO 22 ° 0 min 0,000 mm 0,0 UV-I 0 W/m² 7,9 °C 13,3 °C 4,8 km/h (1 Bft) 95,65 %
05.05.2026 05:25 13,3 °C 70 % 1008,8 hPa 0,0 l/m² 1,6 km/h (1 Bft) W 270 ° 0 min 0,000 mm 0,0 UV-I 0 W/m² 7,9 °C 13,3 °C 3,2 km/h (1 Bft) 100,00 %
05.05.2026 05:24 13,3 °C 70 % 1008,8 hPa 0,0 l/m² 3,2 km/h (1 Bft) O-NO 67 ° 0 min 0,000 mm 0,0 UV-I 0 W/m² 7,9 °C 13,3 °C 4,8 km/h (1 Bft) 95,65 %
05.05.2026 05:23 13,3 °C 70 % 1008,8 hPa 0,0 l/m² 1,6 km/h (1 Bft) W 270 ° 0 min 0,000 mm 0,0 UV-I 0 W/m² 7,9 °C 13,3 °C 3,2 km/h (1 Bft) 91,30 %
05.05.2026 05:22 13,3 °C 70 % 1008,8 hPa 0,0 l/m² 3,2 km/h (1 Bft) W-SW 247 ° 0 min 0,000 mm 0,0 UV-I 0 W/m² 7,9 °C 13,3 °C 4,8 km/h (1 Bft) 95,65 %
05.05.2026 05:21 13,3 °C 69 % 1008,7 hPa 0,0 l/m² 1,6 km/h (1 Bft) W 270 ° 0 min 0,000 mm 0,0 UV-I 0 W/m² 7,7 °C 13,3 °C 4,8 km/h (1 Bft) 100,00 %
05.05.2026 05:20 13,3 °C 69 % 1008,8 hPa 0,0 l/m² 1,6 km/h (1 Bft) W-SW 247 ° 0 min 0,000 mm 0,0 UV-I 0 W/m² 7,7 °C 13,3 °C 3,2 km/h (1 Bft) 100,00 %
05.05.2026 05:19 13,4 °C 69 % 1008,7 hPa 0,0 l/m² 1,6 km/h (1 Bft) N-NO 22 ° 0 min 0,000 mm 0,0 UV-I 0 W/m² 7,8 °C 13,4 °C 3,2 km/h (1 Bft) 100,00 %
05.05.2026 05:18 13,5 °C 68 % 1008,8 hPa 0,0 l/m² 3,2 km/h (1 Bft) W-SW 247 ° 0 min 0,000 mm 0,0 UV-I 0 W/m² 7,7 °C 13,5 °C 4,8 km/h (1 Bft) 95,65 %
05.05.2026 05:17 13,7 °C 68 % 1008,8 hPa 0,0 l/m² 1,6 km/h (1 Bft) S 180 ° 0 min 0,000 mm 0,0 UV-I 0 W/m² 7,9 °C 13,7 °C 3,2 km/h (1 Bft) 91,30 %
05.05.2026 05:16 13,8 °C 67 % 1008,8 hPa 0,0 l/m² 1,6 km/h (1 Bft) SO 135 ° 0 min 0,000 mm 0,0 UV-I 0 W/m² 7,8 °C 13,8 °C 1,6 km/h (1 Bft) 95,65 %
05.05.2026 05:15 13,9 °C 67 % 1008,8 hPa 0,0 l/m² 3,2 km/h (1 Bft) O-SO 112 ° 0 min 0,000 mm 0,0 UV-I 0 W/m² 7,9 °C 13,9 °C 3,2 km/h (1 Bft) 100,00 %
05.05.2026 05:14 14,0 °C 67 % 1008,8 hPa 0,0 l/m² 3,2 km/h (1 Bft) W-SW 247 ° 0 min 0,000 mm 0,0 UV-I 0 W/m² 8,0 °C 14,0 °C 4,8 km/h (1 Bft) 86,96 %
05.05.2026 05:13 14,2 °C 66 % 1008,8 hPa 0,0 l/m² 3,2 km/h (1 Bft) O 90 ° 0 min 0,000 mm 0,0 UV-I 0 W/m² 7,9 °C 14,2 °C 6,4 km/h (2 Bft) 95,65 %
05.05.2026 05:12 14,3 °C 66 % 1008,7 hPa 0,0 l/m² 3,2 km/h (1 Bft) W-SW 247 ° 0 min 0,000 mm 0,0 UV-I 0 W/m² 8,0 °C 14,3 °C 4,8 km/h (1 Bft) 95,65 %
05.05.2026 05:11 14,6 °C 65 % 1008,8 hPa 0,0 l/m² 3,2 km/h (1 Bft) W 270 ° 0 min 0,000 mm 0,0 UV-I 0 W/m² 8,1 °C 14,6 °C 4,8 km/h (1 Bft) 95,65 %
05.05.2026 05:10 14,7 °C 65 % 1008,8 hPa 0,0 l/m² 3,2 km/h (1 Bft) W 270 ° 0 min 0,000 mm 0,0 UV-I 0 W/m² 8,2 °C 14,7 °C 4,8 km/h (1 Bft) 100,00 %
05.05.2026 05:09 14,9 °C 65 % 1008,9 hPa 0,0 l/m² 1,6 km/h (1 Bft) NW 315 ° 0 min 0,000 mm 0,0 UV-I 0 W/m² 8,4 °C 14,9 °C 4,8 km/h (1 Bft) 95,65 %
05.05.2026 05:08 15,1 °C 65 % 1008,9 hPa 0,0 l/m² 3,2 km/h (1 Bft) N 360 ° 0 min 0,000 mm 0,0 UV-I 0 W/m² 8,6 °C 15,1 °C 4,8 km/h (1 Bft) 100,00 %
05.05.2026 05:07 15,2 °C 65 % 1009,0 hPa 0,0 l/m² 1,6 km/h (1 Bft) W 270 ° 0 min 0,000 mm 0,0 UV-I 0 W/m² 8,7 °C 15,2 °C 4,8 km/h (1 Bft) 95,65 %
05.05.2026 05:06 15,3 °C 65 % 1008,9 hPa 0,0 l/m² 1,6 km/h (1 Bft) NW 315 ° 0 min 0,000 mm 0,0 UV-I 0 W/m² 8,8 °C 15,3 °C 4,8 km/h (1 Bft) 100,00 %
05.05.2026 05:05 15,4 °C 66 % 1008,9 hPa 0,0 l/m² 3,2 km/h (1 Bft) NW 315 ° 0 min 0,000 mm 0,0 UV-I 0 W/m² 9,1 °C 15,4 °C 4,8 km/h (1 Bft) 91,30 %
05.05.2026 05:04 15,4 °C 66 % 1008,9 hPa 0,0 l/m² 1,6 km/h (1 Bft) NW 315 ° 0 min 0,000 mm 0,0 UV-I 0 W/m² 9,1 °C 15,4 °C 4,8 km/h (1 Bft) 100,00 %
05.05.2026 05:03 15,5 °C 65 % 1008,9 hPa 0,0 l/m² 1,6 km/h (1 Bft) NW 315 ° 0 min 0,000 mm 0,0 UV-I 0 W/m² 8,9 °C 15,5 °C 4,8 km/h (1 Bft) 91,30 %
05.05.2026 05:02 15,7 °C 65 % 1008,9 hPa 0,0 l/m² 3,2 km/h (1 Bft) W-NW 292 ° 0 min 0,000 mm 0,0 UV-I 0 W/m² 9,1 °C 15,7 °C 6,4 km/h (2 Bft) 100,00 %
05.05.2026 05:01 15,7 °C 65 % 1008,9 hPa 0,0 l/m² 1,6 km/h (1 Bft) NW 315 ° 0 min 0,000 mm 0,0 UV-I 0 W/m² 9,1 °C 15,7 °C 4,8 km/h (1 Bft) 100,00 %
05.05.2026 05:00 15,7 °C 66 % 1009,0 hPa 0,0 l/m² 1,6 km/h (1 Bft) N-NW 337 ° 0 min 0,025 mm 0,0 UV-I 0 W/m² 9,4 °C 15,7 °C 4,8 km/h (1 Bft) 100,00 %
05.05.2026 04:59 15,6 °C 66 % 1008,9 hPa 0,0 l/m² 1,6 km/h (1 Bft) NW 315 ° 0 min 0,000 mm 0,0 UV-I 0 W/m² 9,3 °C 15,6 °C 3,2 km/h (1 Bft) 95,65 %
05.05.2026 04:58 15,6 °C 66 % 1008,9 hPa 0,0 l/m² 0,0 km/h (0 Bft) N 360 ° 0 min 0,000 mm 0,0 UV-I 0 W/m² 9,3 °C 15,6 °C 1,6 km/h (1 Bft) 95,65 %
05.05.2026 04:57 15,5 °C 66 % 1009,0 hPa 0,0 l/m² 1,6 km/h (1 Bft) N 360 ° 0 min 0,000 mm 0,0 UV-I 0 W/m² 9,2 °C 15,5 °C 3,2 km/h (1 Bft) 95,65 %
05.05.2026 04:56 15,5 °C 66 % 1009,0 hPa 0,0 l/m² 1,6 km/h (1 Bft) N 360 ° 0 min 0,000 mm 0,0 UV-I 0 W/m² 9,2 °C 15,5 °C 4,8 km/h (1 Bft) 95,65 %
05.05.2026 04:55 15,4 °C 66 % 1009,0 hPa 0,0 l/m² 1,6 km/h (1 Bft) NW 315 ° 0 min 0,000 mm 0,0 UV-I 0 W/m² 9,1 °C 15,4 °C 4,8 km/h (1 Bft) 95,65 %
05.05.2026 04:54 15,4 °C 66 % 1009,0 hPa 0,0 l/m² 1,6 km/h (1 Bft) W-NW 292 ° 0 min 0,000 mm 0,0 UV-I 0 W/m² 9,1 °C 15,4 °C 3,2 km/h (1 Bft) 100,00 %
05.05.2026 04:53 15,4 °C 67 % 1009,0 hPa 0,0 l/m² 0,0 km/h (0 Bft) W 270 ° 0 min 0,000 mm 0,0 UV-I 0 W/m² 9,3 °C 15,4 °C 3,2 km/h (1 Bft) 100,00 %
05.05.2026 04:52 15,4 °C 66 % 1009,0 hPa 0,0 l/m² 1,6 km/h (1 Bft) NW 315 ° 0 min 0,000 mm 0,0 UV-I 0 W/m² 9,1 °C 15,4 °C 3,2 km/h (1 Bft) 86,96 %
05.05.2026 04:51 15,4 °C 67 % 1009,0 hPa 0,0 l/m² 0,0 km/h (0 Bft) W 270 ° 0 min 0,000 mm 0,0 UV-I 0 W/m² 9,3 °C 15,4 °C 3,2 km/h (1 Bft) 100,00 %
05.05.2026 04:50 15,4 °C 67 % 1009,0 hPa 0,0 l/m² 1,6 km/h (1 Bft) N 360 ° 0 min 0,000 mm 0,0 UV-I 0 W/m² 9,3 °C 15,4 °C 4,8 km/h (1 Bft) 86,96 %
05.05.2026 04:49 15,4 °C 66 % 1009,0 hPa 0,0 l/m² 0,0 km/h (0 Bft) N 360 ° 0 min 0,000 mm 0,0 UV-I 0 W/m² 9,1 °C 15,4 °C 3,2 km/h (1 Bft) 95,65 %
05.05.2026 04:48 15,5 °C 66 % 1009,0 hPa 0,0 l/m² 1,6 km/h (1 Bft) NW 315 ° 0 min 0,000 mm 0,0 UV-I 0 W/m² 9,2 °C 15,5 °C 3,2 km/h (1 Bft) 100,00 %
05.05.2026 04:47 15,4 °C 66 % 1009,1 hPa 0,0 l/m² 1,6 km/h (1 Bft) N-NW 337 ° 0 min 0,000 mm 0,0 UV-I 0 W/m² 9,1 °C 15,4 °C 3,2 km/h (1 Bft) 100,00 %
05.05.2026 04:46 15,4 °C 66 % 1009,0 hPa 0,0 l/m² 0,0 km/h (0 Bft) W 270 ° 0 min 0,000 mm 0,0 UV-I 0 W/m² 9,1 °C 15,4 °C 3,2 km/h (1 Bft) 100,00 %
05.05.2026 04:45 15,4 °C 66 % 1009,0 hPa 0,0 l/m² 1,6 km/h (1 Bft) N 360 ° 0 min 0,000 mm 0,0 UV-I 0 W/m² 9,1 °C 15,4 °C 3,2 km/h (1 Bft) 95,65 %
05.05.2026 04:44 15,5 °C 66 % 1009,1 hPa 0,0 l/m² 1,6 km/h (1 Bft) N-NW 337 ° 0 min 0,000 mm 0,0 UV-I 0 W/m² 9,2 °C 15,5 °C 3,2 km/h (1 Bft) 100,00 %
05.05.2026 04:43 15,6 °C 66 % 1009,1 hPa 0,0 l/m² 0,0 km/h (0 Bft) W-NW 292 ° 0 min 0,000 mm 0,0 UV-I 0 W/m² 9,3 °C 15,6 °C 1,6 km/h (1 Bft) 95,65 %
05.05.2026 04:42 15,6 °C 66 % 1009,1 hPa 0,0 l/m² 1,6 km/h (1 Bft) W-NW 292 ° 0 min 0,000 mm 0,0 UV-I 0 W/m² 9,3 °C 15,6 °C 3,2 km/h (1 Bft) 82,61 %
05.05.2026 04:41 15,6 °C 66 % 1009,1 hPa 0,0 l/m² 0,0 km/h (0 Bft) NW 315 ° 0 min 0,000 mm 0,0 UV-I 0 W/m² 9,3 °C 15,6 °C 3,2 km/h (1 Bft) 100,00 %
05.05.2026 04:40 15,6 °C 66 % 1009,1 hPa 0,0 l/m² 0,0 km/h (0 Bft) NW 315 ° 0 min 0,000 mm 0,0 UV-I 0 W/m² 9,3 °C 15,6 °C 1,6 km/h (1 Bft) 100,00 %
05.05.2026 04:39 15,7 °C 66 % 1009,1 hPa 0,0 l/m² 1,6 km/h (1 Bft) NW 315 ° 0 min 0,000 mm 0,0 UV-I 0 W/m² 9,4 °C 15,7 °C 3,2 km/h (1 Bft) 95,65 %
05.05.2026 04:38 15,6 °C 66 % 1009,1 hPa 0,0 l/m² 1,6 km/h (1 Bft) W-NW 292 ° 0 min 0,000 mm 0,0 UV-I 0 W/m² 9,3 °C 15,6 °C 3,2 km/h (1 Bft) 100,00 %
05.05.2026 04:37 15,7 °C 65 % 1009,0 hPa 0,0 l/m² 0,0 km/h (0 Bft) W-NW 292 ° 0 min 0,000 mm 0,0 UV-I 0 W/m² 9,1 °C 15,7 °C 1,6 km/h (1 Bft) 100,00 %
05.05.2026 04:36 15,8 °C 65 % 1009,1 hPa 0,0 l/m² 1,6 km/h (1 Bft) W 270 ° 0 min 0,000 mm 0,0 UV-I 0 W/m² 9,2 °C 15,8 °C 4,8 km/h (1 Bft) 100,00 %
05.05.2026 04:35 15,8 °C 65 % 1009,1 hPa 0,0 l/m² 3,2 km/h (1 Bft) W 270 ° 0 min 0,000 mm 0,0 UV-I 0 W/m² 9,2 °C 15,8 °C 4,8 km/h (1 Bft) 86,96 %
05.05.2026 04:34 15,9 °C 65 % 1009,1 hPa 0,0 l/m² 1,6 km/h (1 Bft) W 270 ° 0 min 0,000 mm 0,0 UV-I 0 W/m² 9,3 °C 15,9 °C 4,8 km/h (1 Bft) 95,65 %
05.05.2026 04:33 15,9 °C 65 % 1009,1 hPa 0,0 l/m² 1,6 km/h (1 Bft) NW 315 ° 0 min 0,000 mm 0,0 UV-I 0 W/m² 9,3 °C 15,9 °C 3,2 km/h (1 Bft) 95,65 %
05.05.2026 04:32 15,9 °C 65 % 1009,2 hPa 0,0 l/m² 3,2 km/h (1 Bft) W 270 ° 0 min 0,000 mm 0,0 UV-I 0 W/m² 9,3 °C 15,9 °C 4,8 km/h (1 Bft) 95,65 %
05.05.2026 04:31 15,9 °C 65 % 1009,1 hPa 0,0 l/m² 3,2 km/h (1 Bft) W 270 ° 0 min 0,000 mm 0,0 UV-I 0 W/m² 9,3 °C 15,9 °C 4,8 km/h (1 Bft) 100,00 %
05.05.2026 04:30 15,9 °C 65 % 1009,1 hPa 0,0 l/m² 1,6 km/h (1 Bft) W-NW 292 ° 0 min 0,000 mm 0,0 UV-I 0 W/m² 9,3 °C 15,9 °C 4,8 km/h (1 Bft) 91,30 %
05.05.2026 04:29 15,9 °C 65 % 1009,2 hPa 0,0 l/m² 3,2 km/h (1 Bft) W 270 ° 0 min 0,000 mm 0,0 UV-I 0 W/m² 9,3 °C 15,9 °C 4,8 km/h (1 Bft) 100,00 %
05.05.2026 04:28 15,9 °C 65 % 1009,2 hPa 0,0 l/m² 3,2 km/h (1 Bft) W 270 ° 0 min 0,000 mm 0,0 UV-I 0 W/m² 9,3 °C 15,9 °C 6,4 km/h (2 Bft) 86,96 %
05.05.2026 04:27 16,1 °C 65 % 1009,2 hPa 0,0 l/m² 3,2 km/h (1 Bft) W 270 ° 0 min 0,000 mm 0,0 UV-I 0 W/m² 9,5 °C 16,1 °C 4,8 km/h (1 Bft) 100,00 %
05.05.2026 04:26 16,1 °C 65 % 1009,2 hPa 0,0 l/m² 3,2 km/h (1 Bft) W 270 ° 0 min 0,000 mm 0,0 UV-I 0 W/m² 9,5 °C 16,1 °C 4,8 km/h (1 Bft) 95,65 %
05.05.2026 04:25 16,1 °C 65 % 1009,2 hPa 0,0 l/m² 1,6 km/h (1 Bft) NW 315 ° 0 min 0,000 mm 0,0 UV-I 0 W/m² 9,5 °C 16,1 °C 3,2 km/h (1 Bft) 95,65 %
05.05.2026 04:24 16,1 °C 65 % 1009,2 hPa 0,0 l/m² 1,6 km/h (1 Bft) N-NW 337 ° 0 min 0,000 mm 0,0 UV-I 0 W/m² 9,5 °C 16,1 °C 3,2 km/h (1 Bft) 95,65 %
05.05.2026 04:23 16,1 °C 64 % 1009,2 hPa 0,0 l/m² 3,2 km/h (1 Bft) W 270 ° 0 min 0,000 mm 0,0 UV-I 0 W/m² 9,3 °C 16,1 °C 4,8 km/h (1 Bft) 95,65 %
05.05.2026 04:22 16,1 °C 64 % 1009,2 hPa 0,0 l/m² 3,2 km/h (1 Bft) N-NW 337 ° 0 min 0,000 mm 0,0 UV-I 0 W/m² 9,3 °C 16,1 °C 6,4 km/h (2 Bft) 100,00 %
05.05.2026 04:21 16,1 °C 64 % 1009,2 hPa 0,0 l/m² 3,2 km/h (1 Bft) W 270 ° 0 min 0,000 mm 0,0 UV-I 0 W/m² 9,3 °C 16,1 °C 6,4 km/h (2 Bft) 91,30 %
05.05.2026 04:20 16,1 °C 64 % 1009,2 hPa 0,0 l/m² 1,6 km/h (1 Bft) W 270 ° 0 min 0,000 mm 0,0 UV-I 0 W/m² 9,3 °C 16,1 °C 4,8 km/h (1 Bft) 91,30 %
05.05.2026 04:19 16,1 °C 64 % 1009,2 hPa 0,0 l/m² 3,2 km/h (1 Bft) W-NW 292 ° 0 min 0,000 mm 0,0 UV-I 0 W/m² 9,3 °C 16,1 °C 4,8 km/h (1 Bft) 82,61 %
05.05.2026 04:18 16,1 °C 64 % 1009,1 hPa 0,0 l/m² 3,2 km/h (1 Bft) W-NW 292 ° 0 min 0,000 mm 0,0 UV-I 0 W/m² 9,3 °C 16,1 °C 4,8 km/h (1 Bft) 86,96 %
05.05.2026 04:17 16,1 °C 64 % 1009,2 hPa 0,0 l/m² 3,2 km/h (1 Bft) W-NW 292 ° 0 min 0,000 mm 0,0 UV-I 0 W/m² 9,3 °C 16,1 °C 4,8 km/h (1 Bft) 91,30 %
05.05.2026 04:16 16,1 °C 64 % 1009,1 hPa 0,0 l/m² 3,2 km/h (1 Bft) N 360 ° 0 min 0,000 mm 0,0 UV-I 0 W/m² 9,3 °C 16,1 °C 4,8 km/h (1 Bft) 95,65 %
05.05.2026 04:15 16,1 °C 64 % 1009,2 hPa 0,0 l/m² 3,2 km/h (1 Bft) NW 315 ° 0 min 0,000 mm 0,0 UV-I 0 W/m² 9,3 °C 16,1 °C 6,4 km/h (2 Bft) 95,65 %
05.05.2026 04:14 16,1 °C 65 % 1009,2 hPa 0,0 l/m² 3,2 km/h (1 Bft) NW 315 ° 0 min 0,000 mm 0,0 UV-I 0 W/m² 9,5 °C 16,1 °C 4,8 km/h (1 Bft) 91,30 %
05.05.2026 04:13 16,1 °C 65 % 1009,2 hPa 0,0 l/m² 3,2 km/h (1 Bft) N-NW 337 ° 0 min 0,000 mm 0,0 UV-I 0 W/m² 9,5 °C 16,1 °C 6,4 km/h (2 Bft) 95,65 %
05.05.2026 04:12 16,0 °C 65 % 1009,2 hPa 0,0 l/m² 3,2 km/h (1 Bft) W-NW 292 ° 0 min 0,000 mm 0,0 UV-I 0 W/m² 9,4 °C 16,0 °C 4,8 km/h (1 Bft) 95,65 %
05.05.2026 04:11 16,0 °C 65 % 1009,3 hPa 0,0 l/m² 1,6 km/h (1 Bft) NW 315 ° 0 min 0,000 mm 0,0 UV-I 0 W/m² 9,4 °C 16,0 °C 3,2 km/h (1 Bft) 91,30 %
05.05.2026 04:10 16,0 °C 65 % 1009,2 hPa 0,0 l/m² 3,2 km/h (1 Bft) W 270 ° 0 min 0,000 mm 0,0 UV-I 0 W/m² 9,4 °C 16,0 °C 6,4 km/h (2 Bft) 91,30 %
05.05.2026 04:09 16,1 °C 65 % 1009,3 hPa 0,0 l/m² 3,2 km/h (1 Bft) W 270 ° 0 min 0,000 mm 0,0 UV-I 0 W/m² 9,5 °C 16,1 °C 6,4 km/h (2 Bft) 95,65 %
05.05.2026 04:08 16,0 °C 64 % 1009,2 hPa 0,0 l/m² 3,2 km/h (1 Bft) NW 315 ° 0 min 0,000 mm 0,0 UV-I 0 W/m² 9,2 °C 16,0 °C 6,4 km/h (2 Bft) 86,96 %
05.05.2026 04:07 16,1 °C 64 % 1009,2 hPa 0,0 l/m² 3,2 km/h (1 Bft) NW 315 ° 0 min 0,000 mm 0,0 UV-I 0 W/m² 9,3 °C 16,1 °C 9,7 km/h (2 Bft) 91,30 %
05.05.2026 04:06 16,1 °C 64 % 1009,2 hPa 0,0 l/m² 3,2 km/h (1 Bft) W-NW 292 ° 0 min 0,000 mm 0,0 UV-I 0 W/m² 9,3 °C 16,1 °C 4,8 km/h (1 Bft) 95,65 %
05.05.2026 04:05 16,1 °C 64 % 1009,2 hPa 0,0 l/m² 1,6 km/h (1 Bft) W-NW 292 ° 0 min 0,000 mm 0,0 UV-I 0 W/m² 9,3 °C 16,1 °C 3,2 km/h (1 Bft) 95,65 %
05.05.2026 04:04 16,1 °C 64 % 1009,3 hPa 0,0 l/m² 1,6 km/h (1 Bft) N-NW 337 ° 0 min 0,000 mm 0,0 UV-I 0 W/m² 9,3 °C 16,1 °C 3,2 km/h (1 Bft) 95,65 %
05.05.2026 04:03 16,1 °C 64 % 1009,3 hPa 0,0 l/m² 3,2 km/h (1 Bft) W 270 ° 0 min 0,000 mm 0,0 UV-I 0 W/m² 9,3 °C 16,1 °C 4,8 km/h (1 Bft) 86,96 %
05.05.2026 04:02 16,2 °C 64 % 1009,2 hPa 0,0 l/m² 1,6 km/h (1 Bft) W-NW 292 ° 0 min 0,000 mm 0,0 UV-I 0 W/m² 9,4 °C 16,2 °C 4,8 km/h (1 Bft) 95,65 %
05.05.2026 04:01 16,1 °C 64 % 1009,3 hPa 0,0 l/m² 3,2 km/h (1 Bft) W 270 ° 0 min 0,000 mm 0,0 UV-I 0 W/m² 9,3 °C 16,1 °C 4,8 km/h (1 Bft) 95,65 %
05.05.2026 04:00 16,1 °C 64 % 1009,4 hPa 0,0 l/m² 3,2 km/h (1 Bft) W-NW 292 ° 0 min 0,051 mm 0,0 UV-I 0 W/m² 9,3 °C 16,1 °C 4,8 km/h (1 Bft) 91,30 %
05.05.2026 03:59 16,1 °C 64 % 1009,3 hPa 0,0 l/m² 3,2 km/h (1 Bft) W-NW 292 ° 0 min 0,000 mm 0,0 UV-I 0 W/m² 9,3 °C 16,1 °C 6,4 km/h (2 Bft) 95,65 %
05.05.2026 03:58 16,1 °C 64 % 1009,3 hPa 0,0 l/m² 3,2 km/h (1 Bft) N-NW 337 ° 0 min 0,000 mm 0,0 UV-I 0 W/m² 9,3 °C 16,1 °C 4,8 km/h (1 Bft) 95,65 %
05.05.2026 03:57 16,1 °C 64 % 1009,3 hPa 0,0 l/m² 1,6 km/h (1 Bft) W-NW 292 ° 0 min 0,000 mm 0,0 UV-I 0 W/m² 9,3 °C 16,1 °C 3,2 km/h (1 Bft) 95,65 %
05.05.2026 03:56 16,0 °C 64 % 1009,3 hPa 0,0 l/m² 3,2 km/h (1 Bft) W-NW 292 ° 0 min 0,000 mm 0,0 UV-I 0 W/m² 9,2 °C 16,0 °C 6,4 km/h (2 Bft) 95,65 %
05.05.2026 03:55 16,0 °C 64 % 1009,3 hPa 0,0 l/m² 4,8 km/h (1 Bft) W 270 ° 0 min 0,000 mm 0,0 UV-I 0 W/m² 9,2 °C 16,0 °C 6,4 km/h (2 Bft) 91,30 %
05.05.2026 03:54 15,9 °C 64 % 1009,3 hPa 0,0 l/m² 4,8 km/h (1 Bft) W-NW 292 ° 0 min 0,000 mm 0,0 UV-I 0 W/m² 9,1 °C 15,9 °C 6,4 km/h (2 Bft) 100,00 %
05.05.2026 03:53 15,9 °C 64 % 1009,4 hPa 0,0 l/m² 4,8 km/h (1 Bft) W 270 ° 0 min 0,000 mm 0,0 UV-I 0 W/m² 9,1 °C 15,9 °C 9,7 km/h (2 Bft) 91,30 %
05.05.2026 03:52 15,9 °C 64 % 1009,4 hPa 0,0 l/m² 1,6 km/h (1 Bft) W-NW 292 ° 0 min 0,000 mm 0,0 UV-I 0 W/m² 9,1 °C 15,9 °C 4,8 km/h (1 Bft) 95,65 %
05.05.2026 03:51 15,8 °C 64 % 1009,4 hPa 0,0 l/m² 3,2 km/h (1 Bft) W 270 ° 0 min 0,000 mm 0,0 UV-I 0 W/m² 9,0 °C 15,8 °C 4,8 km/h (1 Bft) 95,65 %
05.05.2026 03:50 15,8 °C 64 % 1009,4 hPa 0,0 l/m² 3,2 km/h (1 Bft) W 270 ° 0 min 0,000 mm 0,0 UV-I 0 W/m² 9,0 °C 15,8 °C 4,8 km/h (1 Bft) 100,00 %
05.05.2026 03:49 15,8 °C 64 % 1009,4 hPa 0,0 l/m² 3,2 km/h (1 Bft) W-NW 292 ° 0 min 0,000 mm 0,0 UV-I 0 W/m² 9,0 °C 15,8 °C 4,8 km/h (1 Bft) 91,30 %
05.05.2026 03:48 15,7 °C 64 % 1009,4 hPa 0,0 l/m² 1,6 km/h (1 Bft) W 270 ° 0 min 0,000 mm 0,0 UV-I 0 W/m² 8,9 °C 15,7 °C 4,8 km/h (1 Bft) 95,65 %
05.05.2026 03:47 15,7 °C 63 % 1009,4 hPa 0,0 l/m² 3,2 km/h (1 Bft) NW 315 ° 0 min 0,000 mm 0,0 UV-I 0 W/m² 8,7 °C 15,7 °C 6,4 km/h (2 Bft) 91,30 %
05.05.2026 03:46 15,8 °C 63 % 1009,4 hPa 0,0 l/m² 3,2 km/h (1 Bft) NW 315 ° 0 min 0,000 mm 0,0 UV-I 0 W/m² 8,8 °C 15,8 °C 4,8 km/h (1 Bft) 91,30 %
05.05.2026 03:45 15,8 °C 63 % 1009,4 hPa 0,0 l/m² 1,6 km/h (1 Bft) W-NW 292 ° 0 min 0,000 mm 0,0 UV-I 0 W/m² 8,8 °C 15,8 °C 3,2 km/h (1 Bft) 100,00 %
05.05.2026 03:44 15,8 °C 63 % 1009,4 hPa 0,0 l/m² 1,6 km/h (1 Bft) W 270 ° 0 min 0,000 mm 0,0 UV-I 0 W/m² 8,8 °C 15,8 °C 3,2 km/h (1 Bft) 95,65 %
05.05.2026 03:43 15,8 °C 63 % 1009,5 hPa 0,0 l/m² 3,2 km/h (1 Bft) W 270 ° 0 min 0,000 mm 0,0 UV-I 0 W/m² 8,8 °C 15,8 °C 6,4 km/h (2 Bft) 95,65 %
05.05.2026 03:42 15,9 °C 62 % 1009,4 hPa 0,0 l/m² 3,2 km/h (1 Bft) W 270 ° 0 min 0,000 mm 0,0 UV-I 0 W/m² 8,6 °C 15,9 °C 6,4 km/h (2 Bft) 95,65 %
05.05.2026 03:41 16,1 °C 62 % 1009,4 hPa 0,0 l/m² 0,0 km/h (0 Bft) W 270 ° 0 min 0,000 mm 0,0 UV-I 0 W/m² 8,8 °C 16,1 °C 3,2 km/h (1 Bft) 100,00 %
05.05.2026 03:40 16,2 °C 62 % 1009,4 hPa 0,0 l/m² 1,6 km/h (1 Bft) W-SW 247 ° 0 min 0,000 mm 0,0 UV-I 0 W/m² 8,9 °C 16,2 °C 4,8 km/h (1 Bft) 95,65 %
05.05.2026 03:39 16,1 °C 62 % 1009,4 hPa 0,0 l/m² 3,2 km/h (1 Bft) W 270 ° 0 min 0,000 mm 0,0 UV-I 0 W/m² 8,8 °C 16,1 °C 4,8 km/h (1 Bft) 95,65 %
05.05.2026 03:38 16,1 °C 62 % 1009,4 hPa 0,0 l/m² 3,2 km/h (1 Bft) W 270 ° 0 min 0,000 mm 0,0 UV-I 0 W/m² 8,8 °C 16,1 °C 4,8 km/h (1 Bft) 100,00 %
05.05.2026 03:37 16,1 °C 62 % 1009,4 hPa 0,0 l/m² 1,6 km/h (1 Bft) W 270 ° 0 min 0,000 mm 0,0 UV-I 0 W/m² 8,8 °C 16,1 °C 4,8 km/h (1 Bft) 100,00 %
05.05.2026 03:36 16,0 °C 62 % 1009,4 hPa 0,0 l/m² 3,2 km/h (1 Bft) N-NW 337 ° 0 min 0,000 mm 0,0 UV-I 0 W/m² 8,7 °C 16,0 °C 4,8 km/h (1 Bft) 95,65 %
05.05.2026 03:35 16,0 °C 62 % 1009,4 hPa 0,0 l/m² 1,6 km/h (1 Bft) NW 315 ° 0 min 0,000 mm 0,0 UV-I 0 W/m² 8,7 °C 16,0 °C 3,2 km/h (1 Bft) 100,00 %
05.05.2026 03:34 16,0 °C 62 % 1009,5 hPa 0,0 l/m² 3,2 km/h (1 Bft) N-NW 337 ° 0 min 0,000 mm 0,0 UV-I 0 W/m² 8,7 °C 16,0 °C 6,4 km/h (2 Bft) 95,65 %
05.05.2026 03:33 16,0 °C 62 % 1009,4 hPa 0,0 l/m² 4,8 km/h (1 Bft) NW 315 ° 0 min 0,000 mm 0,0 UV-I 0 W/m² 8,7 °C 16,0 °C 6,4 km/h (2 Bft) 100,00 %
05.05.2026 03:32 15,9 °C 62 % 1009,4 hPa 0,0 l/m² 4,8 km/h (1 Bft) N-NW 337 ° 0 min 0,000 mm 0,0 UV-I 0 W/m² 8,6 °C 15,9 °C 6,4 km/h (2 Bft) 95,65 %
05.05.2026 03:31 16,0 °C 62 % 1009,3 hPa 0,0 l/m² 3,2 km/h (1 Bft) N-NW 337 ° 0 min 0,000 mm 0,0 UV-I 0 W/m² 8,7 °C 16,0 °C 4,8 km/h (1 Bft) 82,61 %
05.05.2026 03:30 16,1 °C 62 % 1009,4 hPa 0,0 l/m² 3,2 km/h (1 Bft) N-NW 337 ° 0 min 0,000 mm 0,0 UV-I 0 W/m² 8,8 °C 16,1 °C 4,8 km/h (1 Bft) 100,00 %
05.05.2026 03:29 16,1 °C 62 % 1009,4 hPa 0,0 l/m² 3,2 km/h (1 Bft) W-NW 292 ° 0 min 0,000 mm 0,0 UV-I 0 W/m² 8,8 °C 16,1 °C 6,4 km/h (2 Bft) 100,00 %
05.05.2026 03:28 16,1 °C 62 % 1009,4 hPa 0,0 l/m² 1,6 km/h (1 Bft) NW 315 ° 0 min 0,000 mm 0,0 UV-I 0 W/m² 8,8 °C 16,1 °C 3,2 km/h (1 Bft) 100,00 %
05.05.2026 03:27 16,0 °C 62 % 1009,3 hPa 0,0 l/m² 1,6 km/h (1 Bft) W-NW 292 ° 0 min 0,000 mm 0,0 UV-I 0 W/m² 8,7 °C 16,0 °C 3,2 km/h (1 Bft) 100,00 %
05.05.2026 03:26 15,9 °C 62 % 1009,4 hPa 0,0 l/m² 3,2 km/h (1 Bft) NW 315 ° 0 min 0,000 mm 0,0 UV-I 0 W/m² 8,6 °C 15,9 °C 3,2 km/h (1 Bft) 95,65 %
05.05.2026 03:25 15,9 °C 62 % 1009,4 hPa 0,0 l/m² 3,2 km/h (1 Bft) NW 315 ° 0 min 0,000 mm 0,0 UV-I 0 W/m² 8,6 °C 15,9 °C 4,8 km/h (1 Bft) 91,30 %
05.05.2026 03:24 15,9 °C 62 % 1009,4 hPa 0,0 l/m² 3,2 km/h (1 Bft) NW 315 ° 0 min 0,000 mm 0,0 UV-I 0 W/m² 8,6 °C 15,9 °C 6,4 km/h (2 Bft) 100,00 %
05.05.2026 03:23 15,8 °C 63 % 1009,4 hPa 0,0 l/m² 3,2 km/h (1 Bft) N-NW 337 ° 0 min 0,000 mm 0,0 UV-I 0 W/m² 8,8 °C 15,8 °C 4,8 km/h (1 Bft) 100,00 %
05.05.2026 03:22 15,7 °C 63 % 1009,5 hPa 0,0 l/m² 3,2 km/h (1 Bft) NW 315 ° 0 min 0,000 mm 0,0 UV-I 0 W/m² 8,7 °C 15,7 °C 4,8 km/h (1 Bft) 100,00 %
05.05.2026 03:21 15,6 °C 63 % 1009,4 hPa 0,0 l/m² 3,2 km/h (1 Bft) NW 315 ° 0 min 0,000 mm 0,0 UV-I 0 W/m² 8,6 °C 15,6 °C 4,8 km/h (1 Bft) 100,00 %
05.05.2026 03:20 15,6 °C 63 % 1009,5 hPa 0,0 l/m² 3,2 km/h (1 Bft) NW 315 ° 0 min 0,000 mm 0,0 UV-I 0 W/m² 8,6 °C 15,6 °C 4,8 km/h (1 Bft) 95,65 %
05.05.2026 03:19 15,4 °C 63 % 1009,5 hPa 0,0 l/m² 3,2 km/h (1 Bft) NW 315 ° 0 min 0,000 mm 0,0 UV-I 0 W/m² 8,4 °C 15,4 °C 4,8 km/h (1 Bft) 100,00 %
05.05.2026 03:18 15,3 °C 63 % 1009,6 hPa 0,0 l/m² 3,2 km/h (1 Bft) NW 315 ° 0 min 0,000 mm 0,0 UV-I 0 W/m² 8,3 °C 15,3 °C 4,8 km/h (1 Bft) 95,65 %
05.05.2026 03:17 15,2 °C 64 % 1009,5 hPa 0,0 l/m² 3,2 km/h (1 Bft) NW 315 ° 0 min 0,000 mm 0,0 UV-I 0 W/m² 8,4 °C 15,2 °C 6,4 km/h (2 Bft) 95,65 %
05.05.2026 03:16 15,1 °C 64 % 1009,4 hPa 0,0 l/m² 3,2 km/h (1 Bft) N-NW 337 ° 0 min 0,000 mm 0,0 UV-I 0 W/m² 8,3 °C 15,1 °C 4,8 km/h (1 Bft) 100,00 %
05.05.2026 03:15 14,9 °C 64 % 1009,6 hPa 0,0 l/m² 4,8 km/h (1 Bft) N-NW 337 ° 0 min 0,000 mm 0,0 UV-I 0 W/m² 8,2 °C 14,9 °C 8,0 km/h (2 Bft) 91,30 %
05.05.2026 03:14 14,8 °C 65 % 1009,5 hPa 0,0 l/m² 4,8 km/h (1 Bft) NW 315 ° 0 min 0,000 mm 0,0 UV-I 0 W/m² 8,3 °C 14,8 °C 8,0 km/h (2 Bft) 95,65 %
05.05.2026 03:13 14,7 °C 64 % 1009,4 hPa 0,0 l/m² 1,6 km/h (1 Bft) N 360 ° 0 min 0,000 mm 0,0 UV-I 0 W/m² 8,0 °C 14,7 °C 4,8 km/h (1 Bft) 100,00 %
05.05.2026 03:12 14,7 °C 64 % 1009,6 hPa 0,0 l/m² 1,6 km/h (1 Bft) N-NW 337 ° 0 min 0,000 mm 0,0 UV-I 0 W/m² 8,0 °C 14,7 °C 3,2 km/h (1 Bft) 95,65 %
05.05.2026 03:11 14,7 °C 65 % 1009,4 hPa 0,0 l/m² 0,0 km/h (0 Bft) W 270 ° 0 min 0,000 mm 0,0 UV-I 0 W/m² 8,2 °C 14,7 °C 1,6 km/h (1 Bft) 91,30 %
05.05.2026 03:10 14,7 °C 65 % 1009,4 hPa 0,0 l/m² 0,0 km/h (0 Bft) W 270 ° 0 min 0,000 mm 0,0 UV-I 0 W/m² 8,2 °C 14,7 °C 1,6 km/h (1 Bft) 91,30 %
05.05.2026 03:09 14,7 °C 65 % 1009,4 hPa 0,0 l/m² 0,0 km/h (0 Bft) N 0 ° 0 min 0,000 mm 0,0 UV-I 0 W/m² 8,2 °C 14,7 °C 0,0 km/h (0 Bft) 100,00 %
05.05.2026 03:08 14,7 °C 65 % 1009,4 hPa 0,0 l/m² 0,0 km/h (0 Bft) N 0 ° 0 min 0,000 mm 0,0 UV-I 0 W/m² 8,2 °C 14,7 °C 0,0 km/h (0 Bft) 100,00 %
05.05.2026 03:07 14,7 °C 65 % 1009,4 hPa 0,0 l/m² 0,0 km/h (0 Bft) N 0 ° 0 min 0,000 mm 0,0 UV-I 0 W/m² 8,2 °C 14,7 °C 0,0 km/h (0 Bft) 95,65 %
05.05.2026 03:06 14,7 °C 65 % 1009,4 hPa 0,0 l/m² 0,0 km/h (0 Bft) W 270 ° 0 min 0,000 mm 0,0 UV-I 0 W/m² 8,2 °C 14,7 °C 1,6 km/h (1 Bft) 95,65 %
05.05.2026 03:05 14,6 °C 65 % 1009,4 hPa 0,0 l/m² 1,6 km/h (1 Bft) W 270 ° 0 min 0,000 mm 0,0 UV-I 0 W/m² 8,1 °C 14,6 °C 3,2 km/h (1 Bft) 100,00 %
05.05.2026 03:04 14,6 °C 65 % 1009,4 hPa 0,0 l/m² 1,6 km/h (1 Bft) W 270 ° 0 min 0,000 mm 0,0 UV-I 0 W/m² 8,1 °C 14,6 °C 3,2 km/h (1 Bft) 95,65 %
05.05.2026 03:03 14,7 °C 65 % 1009,5 hPa 0,0 l/m² 0,0 km/h (0 Bft) W 270 ° 0 min 0,000 mm 0,0 UV-I 0 W/m² 8,2 °C 14,7 °C 1,6 km/h (1 Bft) 100,00 %
05.05.2026 03:02 14,8 °C 64 % 1009,5 hPa 0,0 l/m² 1,6 km/h (1 Bft) W 270 ° 0 min 0,000 mm 0,0 UV-I 0 W/m² 8,1 °C 14,8 °C 3,2 km/h (1 Bft) 95,65 %
05.05.2026 03:01 14,8 °C 64 % 1009,4 hPa 0,0 l/m² 0,0 km/h (0 Bft) W 270 ° 0 min 0,000 mm 0,0 UV-I 0 W/m² 8,1 °C 14,8 °C 1,6 km/h (1 Bft) 86,96 %
05.05.2026 03:00 14,9 °C 64 % 1009,5 hPa 0,0 l/m² 1,6 km/h (1 Bft) W 270 ° 0 min 0,051 mm 0,0 UV-I 0 W/m² 8,2 °C 14,9 °C 1,6 km/h (1 Bft) 100,00 %
05.05.2026 02:59 14,9 °C 64 % 1009,5 hPa 0,0 l/m² 0,0 km/h (0 Bft) N-NW 337 ° 0 min 0,000 mm 0,0 UV-I 0 W/m² 8,2 °C 14,9 °C 1,6 km/h (1 Bft) 95,65 %
05.05.2026 02:58 15,1 °C 63 % 1009,5 hPa 0,0 l/m² 1,6 km/h (1 Bft) N-NW 337 ° 0 min 0,000 mm 0,0 UV-I 0 W/m² 8,1 °C 15,1 °C 3,2 km/h (1 Bft) 100,00 %
05.05.2026 02:57 15,2 °C 63 % 1009,6 hPa 0,0 l/m² 1,6 km/h (1 Bft) W 270 ° 0 min 0,000 mm 0,0 UV-I 0 W/m² 8,2 °C 15,2 °C 4,8 km/h (1 Bft) 95,65 %
05.05.2026 02:56 15,3 °C 62 % 1009,6 hPa 0,0 l/m² 1,6 km/h (1 Bft) W 270 ° 0 min 0,000 mm 0,0 UV-I 0 W/m² 8,1 °C 15,3 °C 3,2 km/h (1 Bft) 100,00 %
05.05.2026 02:55 15,4 °C 62 % 1009,6 hPa 0,0 l/m² 3,2 km/h (1 Bft) W 270 ° 0 min 0,000 mm 0,0 UV-I 0 W/m² 8,2 °C 15,4 °C 6,4 km/h (2 Bft) 100,00 %
05.05.2026 02:54 15,5 °C 62 % 1009,5 hPa 0,0 l/m² 1,6 km/h (1 Bft) SW 225 ° 0 min 0,000 mm 0,0 UV-I 0 W/m² 8,3 °C 15,5 °C 4,8 km/h (1 Bft) 95,65 %
05.05.2026 02:53 15,4 °C 63 % 1009,5 hPa 0,0 l/m² 1,6 km/h (1 Bft) W-SW 247 ° 0 min 0,000 mm 0,0 UV-I 0 W/m² 8,4 °C 15,4 °C 3,2 km/h (1 Bft) 95,65 %
05.05.2026 02:52 15,4 °C 62 % 1009,7 hPa 0,0 l/m² 0,0 km/h (0 Bft) W-NW 292 ° 0 min 0,000 mm 0,0 UV-I 0 W/m² 8,2 °C 15,4 °C 1,6 km/h (1 Bft) 100,00 %
05.05.2026 02:51 15,4 °C 62 % 1009,6 hPa 0,0 l/m² 3,2 km/h (1 Bft) W 270 ° 0 min 0,000 mm 0,0 UV-I 0 W/m² 8,2 °C 15,4 °C 4,8 km/h (1 Bft) 100,00 %
05.05.2026 02:50 15,5 °C 62 % 1009,6 hPa 0,0 l/m² 3,2 km/h (1 Bft) W 270 ° 0 min 0,000 mm 0,0 UV-I 0 W/m² 8,3 °C 15,5 °C 4,8 km/h (1 Bft) 91,30 %
05.05.2026 02:49 15,7 °C 61 % 1009,7 hPa 0,0 l/m² 3,2 km/h (1 Bft) W-SW 247 ° 0 min 0,000 mm 0,0 UV-I 0 W/m² 8,2 °C 15,7 °C 4,8 km/h (1 Bft) 100,00 %
05.05.2026 02:48 15,8 °C 61 % 1009,6 hPa 0,0 l/m² 3,2 km/h (1 Bft) W 270 ° 0 min 0,000 mm 0,0 UV-I 0 W/m² 8,3 °C 15,8 °C 4,8 km/h (1 Bft) 95,65 %
05.05.2026 02:47 15,9 °C 61 % 1009,7 hPa 0,0 l/m² 1,6 km/h (1 Bft) W 270 ° 0 min 0,000 mm 0,0 UV-I 0 W/m² 8,4 °C 15,9 °C 3,2 km/h (1 Bft) 100,00 %
05.05.2026 02:46 15,9 °C 61 % 1009,6 hPa 0,0 l/m² 0,0 km/h (0 Bft) NO 45 ° 0 min 0,000 mm 0,0 UV-I 0 W/m² 8,4 °C 15,9 °C 1,6 km/h (1 Bft) 100,00 %
05.05.2026 02:45 16,0 °C 60 % 1009,5 hPa 0,0 l/m² 1,6 km/h (1 Bft) O-SO 112 ° 0 min 0,000 mm 0,0 UV-I 0 W/m² 8,2 °C 16,0 °C 3,2 km/h (1 Bft) 91,30 %
05.05.2026 02:44 16,0 °C 60 % 1009,6 hPa 0,0 l/m² 3,2 km/h (1 Bft) O-NO 67 ° 0 min 0,000 mm 0,0 UV-I 0 W/m² 8,2 °C 16,0 °C 4,8 km/h (1 Bft) 95,65 %
05.05.2026 02:43 16,0 °C 60 % 1009,6 hPa 0,0 l/m² 4,8 km/h (1 Bft) NO 45 ° 0 min 0,000 mm 0,0 UV-I 0 W/m² 8,2 °C 16,0 °C 8,0 km/h (2 Bft) 95,65 %
05.05.2026 02:42 16,0 °C 60 % 1009,6 hPa 0,0 l/m² 4,8 km/h (1 Bft) NO 45 ° 0 min 0,000 mm 0,0 UV-I 0 W/m² 8,2 °C 16,0 °C 8,0 km/h (2 Bft) 91,30 %
05.05.2026 02:41 15,9 °C 60 % 1009,6 hPa 0,0 l/m² 4,8 km/h (1 Bft) O-NO 67 ° 0 min 0,000 mm 0,0 UV-I 0 W/m² 8,1 °C 15,9 °C 6,4 km/h (2 Bft) 100,00 %
05.05.2026 02:40 16,0 °C 60 % 1009,6 hPa 0,0 l/m² 4,8 km/h (1 Bft) NO 45 ° 0 min 0,000 mm 0,0 UV-I 0 W/m² 8,2 °C 16,0 °C 8,0 km/h (2 Bft) 100,00 %
05.05.2026 02:39 16,1 °C 60 % 1009,6 hPa 0,0 l/m² 6,4 km/h (2 Bft) NO 45 ° 0 min 0,000 mm 0,0 UV-I 0 W/m² 8,3 °C 16,1 °C 9,7 km/h (2 Bft) 100,00 %
05.05.2026 02:38 16,1 °C 60 % 1009,6 hPa 0,0 l/m² 6,4 km/h (2 Bft) NO 45 ° 0 min 0,000 mm 0,0 UV-I 0 W/m² 8,3 °C 16,1 °C 8,0 km/h (2 Bft) 95,65 %
05.05.2026 02:37 16,1 °C 59 % 1009,7 hPa 0,0 l/m² 4,8 km/h (1 Bft) O-NO 67 ° 0 min 0,000 mm 0,0 UV-I 0 W/m² 8,1 °C 16,1 °C 8,0 km/h (2 Bft) 100,00 %
05.05.2026 02:36 16,1 °C 59 % 1009,6 hPa 0,0 l/m² 3,2 km/h (1 Bft) O-NO 67 ° 0 min 0,000 mm 0,0 UV-I 0 W/m² 8,1 °C 16,1 °C 4,8 km/h (1 Bft) 95,65 %
05.05.2026 02:35 16,1 °C 60 % 1009,7 hPa 0,0 l/m² 3,2 km/h (1 Bft) O-NO 67 ° 0 min 0,000 mm 0,0 UV-I 0 W/m² 8,3 °C 16,1 °C 4,8 km/h (1 Bft) 95,65 %
05.05.2026 02:34 16,1 °C 60 % 1009,7 hPa 0,0 l/m² 4,8 km/h (1 Bft) NO 45 ° 0 min 0,000 mm 0,0 UV-I 0 W/m² 8,3 °C 16,1 °C 6,4 km/h (2 Bft) 95,65 %
05.05.2026 02:33 16,1 °C 60 % 1009,7 hPa 0,0 l/m² 3,2 km/h (1 Bft) O-NO 67 ° 0 min 0,000 mm 0,0 UV-I 0 W/m² 8,3 °C 16,1 °C 6,4 km/h (2 Bft) 100,00 %
05.05.2026 02:32 16,1 °C 60 % 1009,8 hPa 0,0 l/m² 3,2 km/h (1 Bft) O-NO 67 ° 0 min 0,000 mm 0,0 UV-I 0 W/m² 8,3 °C 16,1 °C 4,8 km/h (1 Bft) 91,30 %
05.05.2026 02:31 16,1 °C 59 % 1009,6 hPa 0,0 l/m² 1,6 km/h (1 Bft) O-NO 67 ° 0 min 0,000 mm 0,0 UV-I 0 W/m² 8,1 °C 16,1 °C 3,2 km/h (1 Bft) 95,65 %
05.05.2026 02:30 16,1 °C 59 % 1009,8 hPa 0,0 l/m² 1,6 km/h (1 Bft) NO 45 ° 0 min 0,000 mm 0,0 UV-I 0 W/m² 8,1 °C 16,1 °C 3,2 km/h (1 Bft) 95,65 %
05.05.2026 02:29 16,1 °C 59 % 1009,7 hPa 0,0 l/m² 1,6 km/h (1 Bft) O-NO 67 ° 0 min 0,000 mm 0,0 UV-I 0 W/m² 8,1 °C 16,1 °C 4,8 km/h (1 Bft) 91,30 %
05.05.2026 02:28 16,1 °C 59 % 1009,7 hPa 0,0 l/m² 3,2 km/h (1 Bft) O 90 ° 0 min 0,000 mm 0,0 UV-I 0 W/m² 8,1 °C 16,1 °C 6,4 km/h (2 Bft) 100,00 %
05.05.2026 02:27 16,1 °C 59 % 1009,8 hPa 0,0 l/m² 1,6 km/h (1 Bft) O 90 ° 0 min 0,000 mm 0,0 UV-I 0 W/m² 8,1 °C 16,1 °C 3,2 km/h (1 Bft) 100,00 %
05.05.2026 02:26 16,1 °C 59 % 1009,7 hPa 0,0 l/m² 1,6 km/h (1 Bft) O 90 ° 0 min 0,000 mm 0,0 UV-I 0 W/m² 8,1 °C 16,1 °C 3,2 km/h (1 Bft) 95,65 %
05.05.2026 02:25 16,0 °C 59 % 1009,7 hPa 0,0 l/m² 1,6 km/h (1 Bft) O-NO 67 ° 0 min 0,000 mm 0,0 UV-I 0 W/m² 8,0 °C 16,0 °C 4,8 km/h (1 Bft) 100,00 %
05.05.2026 02:24 15,9 °C 59 % 1009,8 hPa 0,0 l/m² 3,2 km/h (1 Bft) O 90 ° 0 min 0,000 mm 0,0 UV-I 0 W/m² 7,9 °C 15,9 °C 4,8 km/h (1 Bft) 86,96 %
05.05.2026 02:23 15,9 °C 59 % 1009,7 hPa 0,0 l/m² 3,2 km/h (1 Bft) O 90 ° 0 min 0,000 mm 0,0 UV-I 0 W/m² 7,9 °C 15,9 °C 6,4 km/h (2 Bft) 100,00 %
05.05.2026 02:22 15,9 °C 59 % 1009,7 hPa 0,0 l/m² 1,6 km/h (1 Bft) O-NO 67 ° 0 min 0,000 mm 0,0 UV-I 0 W/m² 7,9 °C 15,9 °C 3,2 km/h (1 Bft) 86,96 %
05.05.2026 02:21 15,9 °C 59 % 1009,8 hPa 0,0 l/m² 3,2 km/h (1 Bft) O-SO 112 ° 0 min 0,000 mm 0,0 UV-I 0 W/m² 7,9 °C 15,9 °C 4,8 km/h (1 Bft) 95,65 %
05.05.2026 02:20 15,9 °C 59 % 1009,8 hPa 0,0 l/m² 1,6 km/h (1 Bft) O-SO 112 ° 0 min 0,000 mm 0,0 UV-I 0 W/m² 7,9 °C 15,9 °C 3,2 km/h (1 Bft) 91,30 %
05.05.2026 02:19 15,9 °C 59 % 1009,7 hPa 0,0 l/m² 1,6 km/h (1 Bft) O-NO 67 ° 0 min 0,000 mm 0,0 UV-I 0 W/m² 7,9 °C 15,9 °C 3,2 km/h (1 Bft) 91,30 %
05.05.2026 02:18 15,9 °C 59 % 1009,7 hPa 0,0 l/m² 1,6 km/h (1 Bft) O-SO 112 ° 0 min 0,000 mm 0,0 UV-I 0 W/m² 7,9 °C 15,9 °C 4,8 km/h (1 Bft) 100,00 %
05.05.2026 02:17 15,9 °C 59 % 1009,7 hPa 0,0 l/m² 3,2 km/h (1 Bft) O-SO 112 ° 0 min 0,000 mm 0,0 UV-I 0 W/m² 7,9 °C 15,9 °C 4,8 km/h (1 Bft) 91,30 %
05.05.2026 02:16 15,9 °C 59 % 1009,8 hPa 0,0 l/m² 4,8 km/h (1 Bft) SO 135 ° 0 min 0,000 mm 0,0 UV-I 0 W/m² 7,9 °C 15,9 °C 6,4 km/h (2 Bft) 95,65 %
05.05.2026 02:15 15,9 °C 59 % 1009,8 hPa 0,0 l/m² 1,6 km/h (1 Bft) O-SO 112 ° 0 min 0,000 mm 0,0 UV-I 0 W/m² 7,9 °C 15,9 °C 3,2 km/h (1 Bft) 86,96 %
05.05.2026 02:14 15,8 °C 59 % 1009,8 hPa 0,0 l/m² 3,2 km/h (1 Bft) SO 135 ° 0 min 0,000 mm 0,0 UV-I 0 W/m² 7,8 °C 15,8 °C 4,8 km/h (1 Bft) 100,00 %
05.05.2026 02:13 15,8 °C 59 % 1009,8 hPa 0,0 l/m² 3,2 km/h (1 Bft) O-SO 112 ° 0 min 0,000 mm 0,0 UV-I 0 W/m² 7,8 °C 15,8 °C 4,8 km/h (1 Bft) 95,65 %
05.05.2026 02:12 15,8 °C 59 % 1009,9 hPa 0,0 l/m² 3,2 km/h (1 Bft) O-SO 112 ° 0 min 0,000 mm 0,0 UV-I 0 W/m² 7,8 °C 15,8 °C 6,4 km/h (2 Bft) 95,65 %
05.05.2026 02:11 15,8 °C 59 % 1009,8 hPa 0,0 l/m² 3,2 km/h (1 Bft) SO 135 ° 0 min 0,000 mm 0,0 UV-I 0 W/m² 7,8 °C 15,8 °C 4,8 km/h (1 Bft) 100,00 %
05.05.2026 02:10 15,8 °C 59 % 1009,8 hPa 0,0 l/m² 1,6 km/h (1 Bft) O 90 ° 0 min 0,000 mm 0,0 UV-I 0 W/m² 7,8 °C 15,8 °C 3,2 km/h (1 Bft) 82,61 %
05.05.2026 02:09 15,8 °C 59 % 1009,8 hPa 0,0 l/m² 1,6 km/h (1 Bft) SO 135 ° 0 min 0,000 mm 0,0 UV-I 0 W/m² 7,8 °C 15,8 °C 3,2 km/h (1 Bft) 95,65 %
05.05.2026 02:08 15,9 °C 59 % 1009,8 hPa 0,0 l/m² 1,6 km/h (1 Bft) SO 135 ° 0 min 0,000 mm 0,0 UV-I 0 W/m² 7,9 °C 15,9 °C 3,2 km/h (1 Bft) 91,30 %
05.05.2026 02:07 15,9 °C 59 % 1009,9 hPa 0,0 l/m² 1,6 km/h (1 Bft) O-NO 67 ° 0 min 0,000 mm 0,0 UV-I 0 W/m² 7,9 °C 15,9 °C 3,2 km/h (1 Bft) 100,00 %
05.05.2026 02:06 15,9 °C 59 % 1009,8 hPa 0,0 l/m² 3,2 km/h (1 Bft) O-NO 67 ° 0 min 0,000 mm 0,0 UV-I 0 W/m² 7,9 °C 15,9 °C 4,8 km/h (1 Bft) 95,65 %
05.05.2026 02:05 16,0 °C 59 % 1009,9 hPa 0,0 l/m² 1,6 km/h (1 Bft) O-NO 67 ° 0 min 0,000 mm 0,0 UV-I 0 W/m² 8,0 °C 16,0 °C 3,2 km/h (1 Bft) 100,00 %
05.05.2026 02:04 16,1 °C 59 % 1009,9 hPa 0,0 l/m² 3,2 km/h (1 Bft) NO 45 ° 0 min 0,000 mm 0,0 UV-I 0 W/m² 8,1 °C 16,1 °C 4,8 km/h (1 Bft) 86,96 %
05.05.2026 02:03 16,1 °C 58 % 1010,0 hPa 0,0 l/m² 3,2 km/h (1 Bft) N-NO 22 ° 0 min 0,000 mm 0,0 UV-I 0 W/m² 7,8 °C 16,1 °C 6,4 km/h (2 Bft) 95,65 %
05.05.2026 02:02 16,1 °C 58 % 1009,9 hPa 0,0 l/m² 3,2 km/h (1 Bft) N-NO 22 ° 0 min 0,000 mm 0,0 UV-I 0 W/m² 7,8 °C 16,1 °C 6,4 km/h (2 Bft) 95,65 %
05.05.2026 02:01 16,1 °C 58 % 1010,0 hPa 0,0 l/m² 3,2 km/h (1 Bft) NO 45 ° 0 min 0,000 mm 0,0 UV-I 0 W/m² 7,8 °C 16,1 °C 4,8 km/h (1 Bft) 82,61 %
05.05.2026 02:00 16,1 °C 58 % 1009,9 hPa 0,0 l/m² 4,8 km/h (1 Bft) O 90 ° 0 min 0,051 mm 0,0 UV-I 0 W/m² 7,8 °C 16,1 °C 6,4 km/h (2 Bft) 100,00 %
_ Min-Zeit 00:39 14:49 19:40 - 02:46 - - - - - - 14:49 00:39 03:07 07:03
Minimum _ 11,7 °C 34 % 1003,7 hPa - 0,0 km/h (0 Bft) - - - - - - 7,0 °C 11,7 °C 0,0 km/h (0 Bft) 65,22 %
_ Max-Zeit 15:28 01:22 02:01 02:00 20:53 - - 07:02 14:00 13:04 12:56 10:52 15:28 21:14 02:00
Maximum _ 24,5 °C 90 % 1010,0 hPa 0,0 l/m² 20,9 km/h
W (4 Bft)
- - 1 min 0,584 mm 5,0 UV-I 914 W/m² 12,2 °C 24,5 °C 37,0 km/h
W (5 Bft)
100,00 %
Durchschnitt _ 18,3 °C 59 % 1007,2 hPa #0,0 l/m² 4,2 km/h (1 Bft) W - #0 min. #0,050 mm 0,0 UV-I 0 W/m² 9,6 °C 18,3 °C 7,5 km/h (2 Bft) 94,92 %